# Wetter Temperatur Luftdruck Luftfeuchtigkeit Sichtweite Windgeschwindigkeit Windrichtung Zeit
1 Clear 26 1010 65 10000 2.1 100 19:20 02.04.2020
2 Clear 26 1010 61 10000 2.1 110 18:56 02.04.2020
3 Clear 26 1010 61 10000 2.6 120 18:38 02.04.2020
4 Clear 26 1010 61 10000 2.6 120 18:19 02.04.2020
5 Clear 26 1010 61 10000 3.1 120 17:43 02.04.2020
6 Clear 27 1009 54 10000 3.6 120 17:24 02.04.2020
7 Clear 28 1009 50 10000 4.1 120 16:59 02.04.2020
8 Clear 28 1009 50 10000 4.1 120 16:40 02.04.2020
9 Clear 28 1009 44 10000 4.1 120 16:22 02.04.2020
10 Clear 29 1009 47 10000 4.1 120 15:57 02.04.2020
11 Clear 29 1009 47 10000 4.1 120 15:39 02.04.2020
12 Clear 29 1009 48 10000 4.6 110 15:19 02.04.2020
13 Clear 30 1009 39 10000 5.7 120 14:57 02.04.2020
14 Clear 30 1009 39 10000 5.7 120 14:38 02.04.2020
15 Clear 30 1009 51 10000 5.1 120 14:19 02.04.2020
16 Clouds 30 1009 45 10000 5.7 120 13:55 02.04.2020
17 Clouds 30 1010 42 10000 4.6 110 13:37 02.04.2020
18 Clouds 31 1010 42 10000 4.6 110 13:18 02.04.2020
19 Clouds 31 1010 39 10000 4.6 120 12:46 02.04.2020
20 Clear 31 1011 37 10000 3.6 120 12:20 02.04.2020
21 Clear 30 1011 39 10000 4.1 110 11:58 02.04.2020
22 Clear 30 1011 39 10000 4.1 110 11:39 02.04.2020
23 Clear 30 1012 42 10000 4.6 110 11:20 02.04.2020
24 Clear 29 1012 42 10000 4.6 110 10:57 02.04.2020
25 Clear 29 1012 48 10000 4.6 120 10:38 02.04.2020
26 Clear 29 1012 48 10000 4.6 120 10:20 02.04.2020
27 Clear 28 1012 45 10000 4.6 120 09:59 02.04.2020
28 Clear 28 1012 45 10000 4.6 120 09:41 02.04.2020
29 Clear 28 1013 48 10000 3.6 120 09:21 02.04.2020
30 Clear 28 1013 42 10000 4.1 120 08:48 02.04.2020
31 Clear 28 1013 47 10000 3.6 130 08:28 02.04.2020
32 Clear 25 1013 50 10000 2.6 120 07:59 02.04.2020
33 Clear 25 1013 57 10000 2.1 150 07:40 02.04.2020
34 Clear 25 1013 57 10000 2.1 150 07:19 02.04.2020
35 Clear 25 1012 64 10000 1 0 06:25 02.04.2020
36 Clear 23 1012 64 10000 1 0 05:46 02.04.2020
37 Clear 22 1011 68 10000 3.1 140 05:18 02.04.2020
38 Clear 22 1011 60 10000 1.5 200 02:26 02.04.2020
39 Clear 22 1011 64 10000 0.5 0 01:27 02.04.2020
40 Clear 22 1011 64 10000 3.95 108 00:41 02.04.2020
41 Clear 22 1012 64 10000 1 0 00:20 02.04.2020
42 Clear 23 1012 60 10000 1.5 10 23:40 01.04.2020
43 Clear 23 1012 60 10000 1.5 340 23:19 01.04.2020
44 Clear 23 1012 60 10000 2.1 10 22:57 01.04.2020
45 Clear 23 1012 60 10000 2.1 10 22:57 01.04.2020
46 Clear 23 1012 60 10000 2.1 10 22:57 01.04.2020
47 Clear 23 1012 60 10000 2.1 10 22:38 01.04.2020
48 Clear 23 1012 56 10000 1 360 22:19 01.04.2020
49 Clear 24 1013 60 10000 0.5 0 21:41 01.04.2020
50 Clear 24 1013 60 10000 1 0 21:19 01.04.2020
51 Clear 24 1013 53 10000 1.5 60 20:57 01.04.2020
52 Clear 25 1013 53 10000 1.5 60 20:38 01.04.2020
53 Clear 25 1013 53 10000 1.5 40 20:20 01.04.2020
54 Clear 25 1013 53 10000 2.1 60 19:58 01.04.2020
55 Clear 25 1013 53 10000 2.1 60 19:39 01.04.2020
56 Clear 25 1013 47 10000 2.6 50 19:19 01.04.2020
57 Clear 25 1013 47 10000 3.1 40 18:42 01.04.2020
58 Clear 25 1013 47 10000 3.1 40 18:42 01.04.2020
59 Clear 25 1013 50 10000 3.6 50 18:24 01.04.2020
60 Clear 26 1012 44 10000 3.1 30 17:57 01.04.2020
61 -273 0 0 0 0 0 17:38 01.04.2020
62 Clear 27 1012 36 10000 3.1 20 17:19 01.04.2020
63 Clear 27 1012 36 10000 3.1 20 17:19 01.04.2020
64 Clear 28 1012 32 10000 3.6 30 16:58 01.04.2020
65 Clear 28 1012 32 10000 3.6 30 16:39 01.04.2020
66 Clear 28 1012 28 10000 5.1 20 16:21 01.04.2020
67 Clear 30 1012 25 10000 4.1 30 15:57 01.04.2020
68 Clear 30 1012 25 10000 4.1 30 15:37 01.04.2020
69 Clear 30 1012 25 10000 4.6 40 15:18 01.04.2020
70 Clear 31 1012 22 10000 5.1 40 14:41 01.04.2020
71 Clear 32 1012 19 10000 4.6 30 14:23 01.04.2020
72 Clear 32 1012 22 10000 4.6 50 13:59 01.04.2020
73 Clear 32 1012 22 10000 4.6 50 13:40 01.04.2020
74 Clear 32 1012 15 10000 4.6 10 13:20 01.04.2020
75 Clear 32 1012 15 10000 4.6 10 13:20 01.04.2020
76 Clear 32 1013 17 10000 4.1 360 12:59 01.04.2020
77 Clear 32 1013 17 10000 4.1 360 12:41 01.04.2020
78 Clear 32 1013 17 10000 3.6 10 12:22 01.04.2020
79 Clear 32 1014 19 10000 3.6 360 11:57 01.04.2020
80 Clear 32 1014 19 10000 3.6 360 11:38 01.04.2020
81 Clear 32 1014 19 10000 3.6 20 11:20 01.04.2020
82 Clear 30 1015 20 10000 3.1 360 10:40 01.04.2020
83 Clear 30 1015 22 10000 3.6 340 10:21 01.04.2020
84 Clear 29 1015 22 10000 4.1 350 09:59 01.04.2020
85 Clear 29 1015 22 10000 4.1 350 09:40 01.04.2020
86 Clear 29 1016 23 10000 4.1 340 09:20 01.04.2020
87 Clear 27 1016 26 10000 3.6 350 08:56 01.04.2020
88 Clear 27 1016 26 10000 3.6 350 08:37 01.04.2020
89 Clear 27 1016 32 10000 4.1 350 08:18 01.04.2020
90 Clear 26 1016 30 10000 4.1 350 07:41 01.04.2020
91 Clear 26 1016 34 10000 2.6 320 07:19 01.04.2020
92 Clear 25 1016 36 10000 2.1 310 06:43 01.04.2020
93 Clear 22 1015 43 10000 2.1 310 06:21 01.04.2020
94 Clear 21 1015 43 10000 2.1 310 05:41 01.04.2020
95 Clear 21 1014 40 10000 3.6 300 03:57 01.04.2020
96 Clear 21 1014 38 10000 3.1 310 03:19 01.04.2020
97 Clear 21 1014 38 10000 2.6 320 02:37 01.04.2020
98 Clear 21 1013 38 10000 3.6 300 01:53 01.04.2020
99 Clear 21 1014 38 10000 3.1 300 01:27 01.04.2020
100 Clear 22 1014 35 10000 3.6 310 00:47 01.04.2020
101 Clear 22 1014 35 10000 3.6 310 00:23 01.04.2020
102 Clear 22 1014 33 10000 3.6 310 23:59 31.03.2020
103 Clear 22 1014 33 10000 3.6 310 23:40 31.03.2020
104 Clear 22 1014 31 10000 3.6 310 23:21 31.03.2020
105 Clear 23 1015 31 10000 4.6 310 22:41 31.03.2020
106 Clear 23 1015 31 10000 4.6 310 22:21 31.03.2020
107 Clear 23 1015 29 10000 3.6 310 21:58 31.03.2020
108 Clear 23 1015 27 10000 3.6 310 21:40 31.03.2020
109 Clear 23 1015 27 10000 3.6 310 21:21 31.03.2020
110 Clear 23 1015 27 10000 4.1 310 20:57 31.03.2020
111 Clear 23 1015 27 10000 4.1 310 20:57 31.03.2020
112 Clear 23 1015 27 10000 4.1 310 20:57 31.03.2020
113 Clear 23 1015 27 10000 4.1 310 20:57 31.03.2020
114 Clear 23 1015 27 10000 4.1 310 20:37 31.03.2020
115 Clear 23 1015 27 10000 4.1 310 20:19 31.03.2020
116 Clear 24 1015 27 10000 3.6 310 19:56 31.03.2020
117 Clear 24 1015 24 10000 3.6 320 19:37 31.03.2020
118 Clear 24 1015 24 10000 3.6 320 19:19 31.03.2020
119 Clear 25 1015 24 10000 4.6 330 18:43 31.03.2020
120 Clear 25 1015 24 10000 4.6 330 18:20 31.03.2020
121 Clear 26 1015 24 10000 5.7 330 17:57 31.03.2020
122 Clear 26 1014 22 10000 7.2 340 17:39 31.03.2020
123 Clear 27 1014 22 10000 7.2 340 17:21 31.03.2020
124 Clear 27 1014 24 10000 6.2 350 16:56 31.03.2020
125 Clear 27 1014 24 10000 6.2 350 16:36 31.03.2020
126 Clear 27 1014 36 10000 5.7 350 16:18 31.03.2020
127 Clear 28 1014 42 10000 5.7 10 15:54 31.03.2020
128 Clear 28 1014 42 10000 5.7 10 15:36 31.03.2020
129 Clear 28 1014 42 10000 6.2 20 15:18 31.03.2020
130 Clear 29 1014 32 10000 6.7 360 14:41 31.03.2020
131 Clear 29 1014 32 10000 6.7 10 14:22 31.03.2020
132 Clear 29 1014 32 10000 7.2 360 13:58 31.03.2020
133 Clear 29 1014 32 10000 7.2 360 13:39 31.03.2020
134 Clear 30 1014 27 10000 7.2 10 13:19 31.03.2020
135 Clear 30 1015 25 10000 6.7 350 12:44 31.03.2020
136 Clear 30 1015 23 10000 7.7 360 12:20 31.03.2020
137 Clear 30 1015 23 10000 7.7 350 11:56 31.03.2020
138 Clear 30 1015 23 10000 7.7 350 11:37 31.03.2020
139 Clear 29 1016 25 10000 8.2 350 11:18 31.03.2020
140 Clear 29 1016 25 10000 7.7 340 10:55 31.03.2020
141 Clear 29 1016 25 10000 7.7 340 10:55 31.03.2020
142 Clear 29 1016 25 10000 6.2 330 10:37 31.03.2020
143 Clear 29 1016 25 10000 6.2 330 10:18 31.03.2020
144 Clear 29 1016 25 10000 6.2 330 10:18 31.03.2020
145 Clear 29 1017 28 10000 5.7 340 09:43 31.03.2020
146 Clear 27 1017 30 10000 4.6 320 09:25 31.03.2020
147 Clear 26 1017 34 10000 4.6 320 08:58 31.03.2020
148 Clear 26 1017 34 10000 4.6 320 08:40 31.03.2020
149 Clear 25 1017 39 10000 3.6 310 08:20 31.03.2020
150 Clear 25 1017 39 10000 3.6 310 08:20 31.03.2020
151 Clear 24 1017 44 10000 2.6 290 07:57 31.03.2020
152 Clear 25 1017 44 10000 2.6 290 07:38 31.03.2020
153 Clear 24 1017 50 10000 3.1 300 07:20 31.03.2020
154 Clear 22 1017 60 10000 3.6 290 06:51 31.03.2020
155 Clear 22 1016 68 10000 2.6 260 06:30 31.03.2020
156 Clear 20 1016 64 10000 2.1 270 05:40 31.03.2020
157 Clear 19 1014 49 10000 2.6 250 03:43 31.03.2020
158 Clear 20 1013 37 10000 2.1 320 02:25 31.03.2020
159 Clear 20 1013 35 10000 3.1 320 01:46 31.03.2020
160 Clear 20 1013 37 10000 3.1 330 00:52 31.03.2020
161 Clear 21 1013 40 10000 3.6 330 00:25 31.03.2020
162 Clear 21 1013 43 10000 4.1 330 23:59 30.03.2020
163 Clear 21 1013 43 10000 4.1 330 23:38 30.03.2020
164 Clear 21 1013 43 10000 5.1 340 23:18 30.03.2020
165 Clear 21 1014 40 10000 5.1 330 22:56 30.03.2020
166 Clear 21 1014 40 10000 5.1 330 22:37 30.03.2020
167 Clear 21 1014 37 10000 5.1 330 22:18 30.03.2020
168 Clear 22 1013 35 10000 5.7 330 21:55 30.03.2020
169 Clear 22 1013 35 10000 5.7 330 21:36 30.03.2020
170 Clear 22 1014 35 10000 5.7 340 21:18 30.03.2020
171 Clear 22 1014 35 10000 5.7 340 20:42 30.03.2020
172 Clear 22 1014 35 10000 5.7 340 20:42 30.03.2020
173 Clear 22 1014 35 10000 6.2 330 20:24 30.03.2020
174 Clear 22 1014 35 10000 6.2 330 20:24 30.03.2020
175 Clear 23 1013 33 10000 6.2 330 19:59 30.03.2020
176 Clear 23 1013 33 10000 6.2 330 19:40 30.03.2020
177 Clear 23 1013 31 10000 5.7 330 19:21 30.03.2020
178 Clear 23 1013 28 10000 6.2 330 18:57 30.03.2020
179 Clear 23 1013 28 10000 6.2 330 18:38 30.03.2020
180 Clear 23 1013 27 10000 7.7 330 18:20 30.03.2020
181 Clear 24 1012 27 10000 6.7 330 17:57 30.03.2020
182 Clear 24 1012 25 10000 6.2 320 17:38 30.03.2020
183 Clear 24 1012 25 10000 6.2 320 17:38 30.03.2020
184 Clear 25 1012 25 10000 6.2 320 17:19 30.03.2020
185 Clear 25 1012 25 10000 9.3 340 16:55 30.03.2020
186 Clear 25 1012 25 10000 9.3 340 16:37 30.03.2020
187 Clear 26 1011 22 10000 10.3 340 16:18 30.03.2020
188 Clear 27 1011 21 10000 9.8 330 15:54 30.03.2020
189 Clear 27 1011 21 10000 10.3 330 15:36 30.03.2020
190 Clear 27 1011 21 10000 10.3 330 15:18 30.03.2020
191 Clear 28 1011 24 10000 7.7 320 14:39 30.03.2020
192 Clear 28 1011 25 10000 11.3 340 14:19 30.03.2020
193 Clear 28 1011 25 10000 9.3 330 13:59 30.03.2020
194 Clear 28 1011 25 10000 9.3 330 13:40 30.03.2020
195 Clear 28 1011 26 10000 9.3 340 13:20 30.03.2020
196 Clear 28 1011 34 10000 9.8 350 12:54 30.03.2020
197 Clear 28 1011 32 10000 10.8 350 12:36 30.03.2020
198 Clear 28 1011 32 10000 10.8 350 12:18 30.03.2020
199 Clear 28 1011 32 10000 10.8 350 12:18 30.03.2020
200 Clear 29 1011 32 10000 10.8 350 11:43 30.03.2020
201 Clear 28 1011 30 10000 11.8 350 11:24 30.03.2020
202 Clear 28 1012 30 10000 11.3 350 10:59 30.03.2020
203 Clear 28 1012 30 10000 11.3 350 10:39 30.03.2020
204 Clear 28 1012 30 10000 11.3 340 10:21 30.03.2020
205 Clear 27 1012 32 10000 11.3 340 09:54 30.03.2020
206 Clear 27 1012 32 10000 11.3 340 09:36 30.03.2020
207 Clear 27 1012 34 10000 10.3 340 09:18 30.03.2020
208 Clear 27 1012 34 10000 9.3 340 08:39 30.03.2020
209 Clear 26 1011 36 10000 9.8 340 08:20 30.03.2020
210 Clear 25 1011 36 10000 10.3 340 07:45 30.03.2020
211 Clear 25 1011 36 10000 9.3 340 07:23 30.03.2020
212 Clear 24 1010 44 10000 10.3 340 06:47 30.03.2020
213 Clear 24 1010 47 10000 9.8 340 06:29 30.03.2020
214 Clear 22 1010 56 10000 8.7 340 05:46 30.03.2020
215 Clear 22 1009 60 10000 8.2 340 04:40 30.03.2020
216 Clear 22 1009 60 10000 8.2 330 04:20 30.03.2020
217 Clear 22 1007 68 10000 7.7 330 02:52 30.03.2020
218 Clear 22 1007 73 10000 7.2 320 01:58 30.03.2020
219 Clear 22 1007 73 10000 5.7 320 01:18 30.03.2020
220 Clear 22 1007 78 10000 7.2 310 00:29 30.03.2020
221 Clear 22 1007 73 10000 7.2 310 23:57 29.03.2020
222 Clear 22 1007 73 10000 7.2 310 23:57 29.03.2020
223 Clear 22 1007 73 10000 7.2 310 23:39 29.03.2020
224 Clear 22 1007 73 10000 7.2 300 23:20 29.03.2020
225 Clear 23 1007 73 10000 7.2 310 22:55 29.03.2020
226 Clear 23 1007 73 10000 7.2 310 22:55 29.03.2020
227 Clear 23 1007 73 10000 7.2 310 22:37 29.03.2020
228 Clear 23 1007 73 10000 8.2 300 22:18 29.03.2020
229 Clear 23 1007 73 10000 9.3 300 21:39 29.03.2020
230 Clear 23 1007 69 10000 7.7 300 21:20 29.03.2020
231 Clear 24 1007 69 10000 8.7 300 20:56 29.03.2020
232 Clear 24 1006 69 9000 8.2 300 20:37 29.03.2020
233 Clear 24 1006 69 9000 8.2 300 20:19 29.03.2020
234 Clear 25 1006 65 7000 8.2 310 19:57 29.03.2020
235 Haze 25 1005 69 4500 4.1 330 19:39 29.03.2020
236 Haze 25 1005 69 4500 4.1 330 19:21 29.03.2020
237 Haze 25 1004 73 3500 3.6 330 18:57 29.03.2020
238 Haze 25 1004 73 3500 3.6 330 18:38 29.03.2020
239 Haze 26 1004 73 3500 3.6 330 18:19 29.03.2020
240 Haze 26 1003 73 3500 4.6 340 17:56 29.03.2020
241 Haze 26 1003 69 3000 3.6 360 17:37 29.03.2020
242 Haze 27 1003 69 3000 3.6 360 17:18 29.03.2020
243 Dust 28 1002 61 3000 2.6 50 16:56 29.03.2020
244 Dust 28 1002 61 3000 2.6 50 16:38 29.03.2020
245 Dust 28 1002 61 2500 1.5 110 16:18 29.03.2020
246 Dust 30 1001 58 2000 3.6 110 15:41 29.03.2020
247 Dust 30 1001 54 1500 4.1 120 15:23 29.03.2020
248 Dust 30 1001 54 1500 4.1 120 15:23 29.03.2020
249 Dust 31 1001 58 1500 4.6 120 14:58 29.03.2020
250 Dust 31 1001 58 1500 4.6 120 14:40 29.03.2020
251 Dust 31 1001 58 1500 6.2 130 14:20 29.03.2020
252 Dust 31 1001 51 1500 8.7 120 13:57 29.03.2020
253 Dust 31 1001 51 1500 8.7 120 13:39 29.03.2020
254 Dust 31 1001 54 1500 8.2 120 13:20 29.03.2020
255 Dust 31 1002 48 1500 9.3 140 12:55 29.03.2020
256 Dust 30 1002 58 1500 7.7 110 12:37 29.03.2020
257 Dust 30 1002 58 1500 7.7 110 12:19 29.03.2020
258 Dust 30 1003 58 1500 8.2 120 11:55 29.03.2020
259 Dust 30 1003 58 2000 7.7 120 11:36 29.03.2020
260 Dust 30 1003 58 2000 7.7 120 11:18 29.03.2020
261 Dust 30 1004 54 2500 8.2 110 10:38 29.03.2020
262 Dust 30 1004 48 3500 7.7 120 10:18 29.03.2020
263 Dust 30 1004 48 3500 7.7 120 10:18 29.03.2020
264 Dust 30 1005 42 3500 7.2 130 09:41 29.03.2020
265 Dust 30 1005 38 3500 6.7 150 09:20 29.03.2020
266 Dust 29 1006 39 3500 5.1 150 08:54 29.03.2020
267 Dust 29 1006 39 3500 5.1 150 08:54 29.03.2020
268 Dust 28 1006 45 3000 5.7 130 08:30 29.03.2020
269 Dust 27 1005 57 3000 6.2 120 07:59 29.03.2020
270 Dust 26 1005 61 4000 6.2 120 07:41 29.03.2020
271 Dust 26 1005 61 4000 6.2 120 07:21 29.03.2020
272 Clouds 26 1005 57 6000 6.7 100 05:46 29.03.2020
273 Rain 24 1004 73 10000 4.6 70 04:27 29.03.2020
274 Clouds 24 1004 69 10000 7.2 90 03:31 29.03.2020
275 Clouds 25 1003 69 10000 7.7 80 01:51 29.03.2020
276 Clouds 24 1004 78 10000 6.2 80 01:23 29.03.2020
277 Clouds 25 1004 65 10000 1.5 350 00:56 29.03.2020
278 Clouds 25 1004 61 10000 4.1 100 00:33 29.03.2020
279 Clouds 25 1004 69 9000 2.6 120 23:56 28.03.2020
280 Rain 25 1006 69 9000 5.1 150 23:38 28.03.2020
281 Rain 25 1006 69 9000 5.1 150 23:18 28.03.2020
282 Clouds 25 1004 65 9000 4.6 100 22:39 28.03.2020
283 Clouds 25 1005 69 9000 5.1 110 22:21 28.03.2020
284 Clouds 25 1005 73 7000 5.7 110 21:55 28.03.2020
285 Clouds 25 1005 73 7000 5.7 110 21:37 28.03.2020
286 Thunderstorm 25 1007 69 7000 8.2 140 21:18 28.03.2020
287 Thunderstorm 26 1009 69 7000 3.6 190 20:42 28.03.2020
288 Rain 26 1005 61 7000 9.3 100 20:23 28.03.2020
289 Rain 26 1005 61 7000 9.3 100 19:57 28.03.2020
290 Rain 26 1005 61 7000 9.3 100 19:39 28.03.2020
291 Rain 26 1006 65 7000 8.2 110 19:20 28.03.2020
292 Rain 26 1006 65 7000 8.2 110 19:20 28.03.2020
293 Clouds 26 1006 61 7000 8.2 110 18:58 28.03.2020
294 Clouds 27 1007 51 6000 5.7 160 18:38 28.03.2020
295 Clouds 27 1007 51 6000 5.7 160 18:19 28.03.2020
296 Clouds 25 1007 65 6000 8.7 100 17:39 28.03.2020
297 Clouds 25 1007 65 6000 8.7 100 17:20 28.03.2020
298 Dust 25 1007 73 4000 3.6 70 16:43 28.03.2020
299 Dust 25 1007 73 4000 3.6 70 16:20 28.03.2020
300 Dust 25 1006 69 4000 6.2 60 15:59 28.03.2020
301 Dust 25 1006 69 4000 6.2 60 15:39 28.03.2020
302 Dust 25 1006 69 4500 4.1 50 15:19 28.03.2020
303 Dust 26 1006 69 4500 4.6 50 14:54 28.03.2020
304 Dust 26 1007 69 4500 6.7 60 14:36 28.03.2020
305 Dust 26 1007 69 4500 6.7 60 14:18 28.03.2020
306 Dust 27 1007 61 4500 5.7 60 13:38 28.03.2020
307 Dust 27 1007 61 4500 4.6 70 13:20 28.03.2020
308 Dust 28 1007 57 4500 5.1 60 12:40 28.03.2020
309 Dust 28 1008 54 4500 4.6 70 12:22 28.03.2020
310 Dust 28 1008 54 5000 4.1 90 11:43 28.03.2020
311 Clouds 29 1009 54 7000 3.1 110 11:23 28.03.2020
312 Clouds 29 1009 51 10000 5.1 120 10:56 28.03.2020
313 Clouds 29 1009 51 10000 5.1 120 10:38 28.03.2020
314 Clouds 29 1009 45 10000 6.7 130 10:18 28.03.2020
315 Clouds 29 1010 42 10000 7.2 140 09:42 28.03.2020
316 Clouds 28 1010 42 10000 6.7 140 09:23 28.03.2020
317 Clouds 28 1010 39 10000 7.2 140 08:46 28.03.2020
318 Clouds 28 1011 37 10000 7.7 150 08:28 28.03.2020
319 Clouds 28 1011 39 10000 6.2 140 07:59 28.03.2020
320 Clouds 28 1011 39 10000 6.2 140 07:41 28.03.2020
321 Clouds 27 1011 39 10000 5.1 150 06:56 28.03.2020
322 Clouds 26 1011 50 10000 4.1 160 06:33 28.03.2020
323 Clouds 25 1011 69 10000 4.1 140 05:41 28.03.2020
324 Clouds 25 1011 69 10000 4.1 140 05:21 28.03.2020
325 Clouds 24 1010 69 10000 5.7 150 04:40 28.03.2020
326 Clouds 24 1009 73 10000 6.2 120 03:21 28.03.2020
327 Clouds 24 1009 69 10000 6.2 110 01:49 28.03.2020
328 Clouds 24 1009 69 10000 5.7 110 01:24 28.03.2020
329 Clouds 24 1009 69 10000 5.7 110 00:55 28.03.2020
330 Clouds 24 1009 69 10000 5.7 110 00:33 28.03.2020
331 Clouds 24 1009 69 10000 7.2 110 23:45 27.03.2020
332 Clouds 24 1009 64 10000 6.2 110 23:26 27.03.2020
333 Clouds 24 1010 64 10000 5.7 110 22:58 27.03.2020
334 Clouds 24 1010 64 10000 5.7 110 22:40 27.03.2020
335 Clouds 24 1010 64 10000 6.7 110 22:21 27.03.2020
336 Clouds 24 1010 64 10000 7.2 100 22:00 27.03.2020
337 Clouds 24 1010 64 10000 7.2 100 21:41 27.03.2020
338 Clouds 24 1010 64 10000 6.7 100 21:23 27.03.2020
339 Clouds 24 1010 64 10000 7.7 90 20:58 27.03.2020
340 Clouds 24 1010 64 10000 7.7 90 20:39 27.03.2020
341 Clouds 24 1010 60 10000 7.2 90 20:19 27.03.2020
342 Clouds 24 1010 60 10000 7.2 90 20:19 27.03.2020
343 Clouds 24 1010 60 10000 7.7 90 19:56 27.03.2020
344 Clouds 24 1011 60 10000 7.2 90 19:38 27.03.2020
345 Clouds 24 1011 60 10000 7.2 90 19:19 27.03.2020
346 Clouds 24 1010 57 10000 7.7 90 18:43 27.03.2020
347 Clouds 24 1010 60 10000 7.7 90 18:23 27.03.2020
348 Clouds 24 1010 60 10000 7.7 90 17:55 27.03.2020
349 Clouds 24 1010 64 10000 7.2 90 17:37 27.03.2020
350 Clouds 24 1010 64 10000 7.2 90 17:19 27.03.2020
351 Clouds 24 1010 64 10000 6.2 80 16:44 27.03.2020
352 Clouds 24 1010 64 10000 6.2 80 16:25 27.03.2020
353 Clouds 24 1010 64 10000 6.2 80 16:25 27.03.2020
354 Clouds 25 1010 64 10000 7.7 80 15:45 27.03.2020
355 Clouds 25 1010 61 10000 7.7 80 15:26 27.03.2020
356 Clouds 25 1010 65 10000 7.7 80 14:57 27.03.2020
357 Clouds 25 1010 65 10000 7.7 80 14:39 27.03.2020
358 Clouds 26 1010 57 10000 6.7 80 14:21 27.03.2020
359 Clouds 26 1010 54 10000 8.2 80 13:43 27.03.2020
360 Clouds 26 1011 54 10000 8.2 90 13:22 27.03.2020
361 Clouds 26 1011 57 10000 8.2 80 12:59 27.03.2020
362 Clouds 27 1011 57 10000 8.2 80 12:41 27.03.2020
363 Clouds 27 1012 57 10000 7.2 100 12:19 27.03.2020
364 Clouds 27 1013 57 10000 7.2 110 11:43 27.03.2020
365 Clouds 27 1013 57 10000 7.2 110 11:25 27.03.2020
366 Clouds 27 1013 57 10000 7.2 120 10:57 27.03.2020
367 Clouds 27 1013 61 10000 7.2 120 10:39 27.03.2020
368 Clouds 27 1013 61 10000 7.2 120 10:20 27.03.2020
369 Clouds 27 1014 61 10000 8.2 110 09:58 27.03.2020
370 Clouds 27 1014 61 10000 8.2 110 09:58 27.03.2020
371 Clouds 27 1014 61 10000 8.2 110 09:39 27.03.2020
372 Clouds 27 1014 61 10000 8.2 100 09:21 27.03.2020
373 Clouds 27 1014 61 10000 7.7 100 08:58 27.03.2020
374 Clouds 26 1014 61 10000 7.7 100 08:39 27.03.2020
375 Clouds 26 1014 65 10000 7.7 90 08:21 27.03.2020
376 Clouds 25 1014 65 10000 7.2 100 07:53 27.03.2020
377 Clouds 25 1014 65 10000 7.2 110 07:28 27.03.2020
378 Clouds 25 1014 69 10000 7.2 110 06:57 27.03.2020
379 Clouds 25 1014 69 10000 6.7 100 06:37 27.03.2020
380 Clouds 24 1013 73 10000 6.2 110 05:38 27.03.2020
381 Clouds 23 1011 64 10000 5.1 110 02:51 27.03.2020
382 Clear 23 1011 64 10000 5.1 100 01:50 27.03.2020
383 Clear 22 1011 68 10000 4.1 110 00:55 27.03.2020
384 Clear 22 1011 73 10000 4.1 110 00:32 27.03.2020
385 Clear 22 1011 73 10000 4.1 100 23:45 26.03.2020
386 Clear 22 1011 73 10000 4.1 110 23:25 26.03.2020
387 Clear 22 1012 73 10000 3.6 110 22:59 26.03.2020
388 Clear 22 1012 73 10000 3.6 110 22:39 26.03.2020
389 Clear 22 1012 73 10000 4.1 100 22:20 26.03.2020
390 Clear 22 1012 73 10000 3.1 100 21:59 26.03.2020
391 Clear 22 1012 73 10000 3.1 100 21:39 26.03.2020
392 Clear 22 1012 73 10000 3.1 110 21:21 26.03.2020
393 Clear 22 1012 73 10000 3.1 120 20:58 26.03.2020
394 Clear 22 1012 73 10000 3.1 120 20:38 26.03.2020
395 Clouds 22 1012 73 10000 3.1 120 20:20 26.03.2020
396 Clouds 22 1013 73 10000 3.1 100 19:56 26.03.2020
397 Clouds 22 1013 73 10000 3.1 100 19:38 26.03.2020
398 Clouds 22 1013 73 10000 3.6 130 19:20 26.03.2020
399 Clouds 22 1013 73 10000 3.1 100 18:56 26.03.2020
400 Clouds 22 1012 68 10000 3.1 100 18:37 26.03.2020
401 Clouds 22 1012 68 10000 3.1 100 18:19 26.03.2020
402 Clouds 22 1012 64 10000 3.1 100 17:42 26.03.2020
403 Clouds 22 1012 64 10000 3.1 100 17:19 26.03.2020
404 Clouds 22 1012 64 10000 3.1 100 17:19 26.03.2020
405 Clouds 22 1012 64 10000 3.1 100 17:19 26.03.2020
406 Clouds 22 1012 68 10000 3.6 110 16:45 26.03.2020
407 Clouds 23 1012 64 10000 3.1 100 16:27 26.03.2020
408 Clouds 23 1012 64 10000 3.1 120 15:59 26.03.2020
409 Clouds 23 1012 60 10000 3.6 110 15:41 26.03.2020
410 Clouds 24 1012 60 10000 3.6 110 15:22 26.03.2020
411 Clouds 24 1011 57 10000 4.6 120 14:58 26.03.2020
412 Clouds 24 1011 57 10000 4.6 120 14:39 26.03.2020
413 Clouds 24 1011 57 10000 5.1 120 14:19 26.03.2020
414 Clouds 25 1011 47 10000 4.1 120 13:44 26.03.2020
415 Clouds 25 1011 53 10000 5.1 120 13:23 26.03.2020
416 Clouds 25 1010 50 10000 6.2 90 12:57 26.03.2020
417 Clouds 25 1010 50 10000 6.2 90 12:38 26.03.2020
418 Clouds 25 1011 50 10000 5.1 90 12:19 26.03.2020
419 Clouds 24 1011 57 10000 6.2 100 11:45 26.03.2020
420 Clouds 24 1012 53 10000 5.7 110 11:22 26.03.2020
421 Clouds 25 1012 57 10000 5.7 100 10:56 26.03.2020
422 Clouds 24 1013 57 10000 5.1 110 10:37 26.03.2020
423 Clouds 24 1013 57 10000 5.1 110 10:37 26.03.2020
424 Clouds 25 1013 57 10000 5.1 110 10:19 26.03.2020
425 Clouds 24 1013 57 10000 5.1 110 09:43 26.03.2020
426 Clouds 25 1013 57 10000 4.6 120 09:20 26.03.2020
427 Clouds 24 1014 53 10000 4.1 110 08:55 26.03.2020
428 Clouds 24 1014 53 10000 4.1 110 08:37 26.03.2020
429 Clouds 24 1014 53 10000 4.1 110 08:18 26.03.2020
430 Clouds 24 1014 53 10000 4.1 100 07:41 26.03.2020
431 Clouds 23 1014 53 10000 3.6 120 07:21 26.03.2020
432 Clouds 24 1013 53 10000 4.1 110 06:48 26.03.2020
433 Clouds 23 1012 60 10000 1.5 100 05:57 26.03.2020
434 Clouds 21 1011 68 10000 1 160 04:25 26.03.2020
435 Clouds 20 1011 68 10000 1 190 03:41 26.03.2020
436 Clouds 20 1010 68 10000 1 120 02:54 26.03.2020
437 Clear 21 1010 68 10000 1 160 01:50 26.03.2020
438 Clear 21 1010 68 10000 2.1 130 00:48 26.03.2020
439 Clear 21 1011 64 10000 3.1 100 23:56 25.03.2020
440 Clear 21 1011 64 10000 3.1 100 23:36 25.03.2020
441 Clear 21 1011 64 10000 3.1 100 23:18 25.03.2020
442 Clear 21 1011 64 10000 3.6 100 22:39 25.03.2020
443 Clear 21 1011 68 10000 3.6 100 22:20 25.03.2020
444 Clear 21 1011 68 10000 3.6 100 21:55 25.03.2020
445 Clear 21 1011 68 10000 3.6 100 21:37 25.03.2020
446 Clear 21 1011 68 10000 3.1 100 21:19 25.03.2020
447 Clear 21 1011 68 10000 3.1 100 21:19 25.03.2020
448 Clear 21 1011 68 10000 4.1 100 20:54 25.03.2020
449 Clear 21 1011 68 10000 4.1 100 20:36 25.03.2020
450 Clouds 21 1012 68 10000 3.6 100 20:18 25.03.2020
451 Clouds 21 1012 68 10000 3.1 90 19:42 25.03.2020
452 Clouds 21 1012 68 10000 3.6 100 19:22 25.03.2020
453 Clouds 21 1012 68 10000 3.6 90 18:56 25.03.2020
454 Clouds 21 1012 68 10000 3.6 90 18:37 25.03.2020
455 Clouds 21 1012 68 10000 3.6 90 18:19 25.03.2020
456 Clouds 22 1012 64 10000 3.1 90 17:54 25.03.2020
457 Clouds 22 1012 64 10000 3.1 80 17:36 25.03.2020
458 Clouds 22 1012 64 10000 3.6 70 17:18 25.03.2020
459 Clouds 22 1011 64 10000 3.6 70 16:41 25.03.2020
460 Clouds 22 1011 64 10000 3.6 70 16:22 25.03.2020
461 Clouds 23 1011 53 10000 4.6 60 15:57 25.03.2020
462 Clouds 23 1011 53 10000 4.6 60 15:37 25.03.2020
463 Clouds 23 1011 53 10000 4.6 60 15:19 25.03.2020
464 Clouds 23 1011 53 10000 4.6 60 15:19 25.03.2020
465 Clouds 24 1011 50 10000 4.6 60 14:41 25.03.2020
466 Clouds 24 1011 41 10000 4.6 50 14:21 25.03.2020
467 Clouds 26 1011 31 10000 4.1 80 13:46 25.03.2020
468 Clouds 26 1011 36 10000 4.1 100 13:26 25.03.2020
469 Clouds 27 1011 34 10000 4.1 80 12:57 25.03.2020
470 Clouds 26 1011 36 10000 4.1 90 12:37 25.03.2020
471 Clouds 26 1011 36 10000 4.1 90 12:19 25.03.2020
472 Clouds 25 1011 36 10000 4.6 100 11:43 25.03.2020
473 Clouds 25 1012 38 10000 5.7 100 11:22 25.03.2020
474 Clouds 26 1012 34 10000 3.6 100 10:59 25.03.2020
475 Clouds 26 1012 34 10000 3.6 100 10:41 25.03.2020
476 Clouds 27 1012 26 10000 1.5 0 10:19 25.03.2020
477 Clouds 26 1013 28 10000 1.5 0 09:59 25.03.2020
478 Clouds 26 1013 28 10000 1.5 0 09:40 25.03.2020
479 Clouds 26 1013 31 10000 2.6 0 09:22 25.03.2020
480 Clouds 25 1013 29 10000 1.5 0 08:55 25.03.2020
481 Clouds 25 1013 29 10000 1.5 0 08:37 25.03.2020
482 Clouds 25 1014 33 10000 2.1 0 08:18 25.03.2020
483 Clouds 25 1014 38 10000 2.1 230 07:39 25.03.2020
484 Clouds 23 1014 43 10000 3.1 200 07:20 25.03.2020
485 Clouds 23 1014 43 10000 3.1 210 06:46 25.03.2020
486 Clouds 22 1013 46 10000 2.6 230 06:25 25.03.2020
487 Clouds 22 1013 43 10000 2.1 230 05:50 25.03.2020
488 Clouds 18 1012 52 10000 1.5 230 04:59 25.03.2020
489 Clouds 18 1012 55 10000 1.5 220 04:39 25.03.2020
490 Clouds 18 1012 55 10000 1 200 03:35 25.03.2020
491 Clouds 18 1011 52 10000 1.5 230 01:57 25.03.2020
492 Clouds 18 1011 52 10000 1 220 01:20 25.03.2020
493 Clouds 18 1011 52 10000 1 0 00:47 25.03.2020
494 Clouds 18 1011 52 10000 0.5 350 00:19 25.03.2020
495 Clouds 18 1011 55 10000 0.5 110 23:44 24.03.2020
496 Clouds 19 1012 52 10000 0.51 133 23:25 24.03.2020
497 Clouds 20 1012 49 10000 1.44 94 22:55 24.03.2020
498 Clouds 20 1012 49 10000 1.44 94 22:37 24.03.2020
499 Clouds 20 1012 49 10000 1.44 94 22:19 24.03.2020
500 Clouds 20 1012 49 10000 0.5 0 21:55 24.03.2020
501 Clouds 21 1012 49 10000 0.5 0 21:36 24.03.2020
502 Clouds 21 1012 49 10000 2.1 20 21:18 24.03.2020
503 Clouds 21 1013 49 10000 2.6 20 20:42 24.03.2020
504 Clouds 21 1013 49 10000 2.6 20 20:23 24.03.2020
505 Clouds 21 1013 49 10000 3.6 10 19:56 24.03.2020
506 Clouds 21 1013 49 10000 3.6 10 19:56 24.03.2020
507 Clouds 21 1013 49 10000 3.6 10 19:38 24.03.2020
508 Clouds 21 1013 49 10000 3.6 10 19:18 24.03.2020
509 Clouds 21 1013 49 10000 4.1 10 18:55 24.03.2020
510 Clouds 21 1013 46 10000 3.6 10 18:36 24.03.2020
511 Clouds 22 1013 46 10000 4.1 10 18:18 24.03.2020
512 Clouds 22 1012 46 10000 4.1 10 17:41 24.03.2020
513 Clouds 22 1012 46 10000 4.1 10 17:22 24.03.2020
514 Clouds 22 1012 46 10000 4.1 10 17:22 24.03.2020
515 Clouds 22 1012 46 10000 4.6 10 16:57 24.03.2020
516 Clouds 22 1012 46 10000 4.6 10 16:39 24.03.2020
517 Clouds 23 1012 49 10000 5.7 10 16:20 24.03.2020
518 Clouds 23 1012 49 10000 5.7 10 16:20 24.03.2020
519 Clouds 24 1012 27 10000 3.6 330 15:55 24.03.2020
520 Clouds 24 1012 27 10000 3.6 330 15:37 24.03.2020
521 Clouds 24 1012 23 10000 4.6 330 15:19 24.03.2020
522 Clouds 25 1012 23 10000 4.6 330 14:42 24.03.2020
523 Clouds 25 1012 23 10000 5.7 330 14:18 24.03.2020
524 Clouds 25 1012 23 10000 4.6 320 13:42 24.03.2020
525 Clouds 26 1012 24 10000 4.6 310 13:23 24.03.2020
526 Clouds 26 1012 22 10000 6.2 320 12:54 24.03.2020
527 Clouds 26 1012 24 10000 5.7 330 12:36 24.03.2020
528 Clouds 26 1012 24 10000 5.7 330 12:18 24.03.2020
529 Clouds 26 1013 22 10000 5.1 320 11:39 24.03.2020
530 Clouds 26 1013 22 10000 5.1 320 11:19 24.03.2020
531 Clouds 26 1013 26 10000 6.2 310 10:43 24.03.2020
532 Clouds 26 1013 26 10000 6.2 310 10:43 24.03.2020
533 Clouds 25 1013 29 10000 4.6 300 10:20 24.03.2020
534 Clouds 25 1014 29 10000 4.6 310 09:58 24.03.2020
535 Clouds 25 1014 29 10000 4.6 310 09:39 24.03.2020
536 Clouds 25 1015 31 10000 3.6 280 09:21 24.03.2020
537 Clear 25 1015 36 10000 3.1 270 08:38 24.03.2020
538 Clear 23 1015 40 10000 3.1 250 08:20 24.03.2020
539 Clear 22 1015 46 10000 3.1 240 07:47 24.03.2020
540 Clear 22 1016 43 10000 2.6 260 07:24 24.03.2020
541 Clear 21 1015 46 10000 2.6 260 06:53 24.03.2020
542 Clear 21 1015 46 10000 2.1 0 06:27 24.03.2020
543 Clear 16 1014 55 10000 1 0 04:57 24.03.2020
544 Clear 16 1014 52 10000 1.5 320 03:48 24.03.2020
545 Clear 16 1013 55 10000 2.1 280 03:18 24.03.2020
546 Clear 17 1014 52 10000 1.5 250 01:47 24.03.2020
547 Clear 17 1014 52 10000 1 0 00:48 24.03.2020
548 Clear 17 1014 45 10000 2.1 320 00:25 24.03.2020
549 Clear 18 1014 45 10000 3.1 330 23:45 23.03.2020
550 Clear 18 1014 45 10000 3.1 320 23:26 23.03.2020
551 Clear 18 1014 48 10000 3.1 330 22:56 23.03.2020
552 Clear 18 1014 48 10000 3.1 330 22:37 23.03.2020
553 Clear 18 1014 48 10000 4.6 330 22:19 23.03.2020
554 Clear 18 1014 52 10000 3.6 320 21:44 23.03.2020
555 Clear 18 1014 52 10000 4.1 320 21:21 23.03.2020
556 Clear 19 1015 52 10000 5.7 330 20:58 23.03.2020
557 Clear 19 1015 52 10000 5.7 330 20:40 23.03.2020
558 Clear 19 1015 48 10000 5.7 330 20:22 23.03.2020
559 Clear 19 1015 48 10000 4.6 330 19:46 23.03.2020
560 Clear 19 1015 48 10000 6.7 330 19:28 23.03.2020
561 Clear 19 1015 48 10000 5.1 330 18:59 23.03.2020
562 Clear 19 1015 42 10000 5.7 330 18:41 23.03.2020
563 Clear 20 1015 42 10000 5.7 330 18:22 23.03.2020
564 Clear 20 1014 45 10000 6.2 330 17:56 23.03.2020
565 Clear 20 1014 45 10000 6.7 330 17:37 23.03.2020
566 Clear 21 1014 40 10000 5.7 330 17:18 23.03.2020
567 Clear 21 1014 40 10000 5.7 330 16:43 23.03.2020
568 Clear 22 1014 35 10000 3.6 310 16:24 23.03.2020
569 Clear 23 1013 33 10000 4.6 320 15:42 23.03.2020
570 Clear 23 1013 29 10000 4.6 290 15:21 23.03.2020
571 Clear 24 1013 29 10000 4.1 280 14:57 23.03.2020
572 Clear 24 1013 29 10000 4.1 280 14:37 23.03.2020
573 Clear 24 1013 27 10000 5.1 290 14:18 23.03.2020
574 Clear 25 1013 25 10000 4.6 280 13:41 23.03.2020
575 Clear 25 1013 25 10000 4.6 280 13:41 23.03.2020
576 Clear 25 1013 23 10000 5.7 300 13:22 23.03.2020
577 Clear 25 1013 23 10000 5.1 300 12:58 23.03.2020
578 Clear 25 1013 23 10000 5.1 300 12:58 23.03.2020
579 Clear 25 1013 23 10000 5.7 300 12:40 23.03.2020
580 Clear 25 1013 23 10000 5.7 300 12:21 23.03.2020
581 Clear 25 1014 23 10000 6.7 290 11:42 23.03.2020
582 Clear 25 1014 23 10000 6.7 290 11:21 23.03.2020
583 Clear 25 1014 23 10000 7.2 310 10:58 23.03.2020
584 Clear 25 1014 22 10000 7.2 300 10:39 23.03.2020
585 Clear 25 1014 22 10000 7.2 300 10:21 23.03.2020
586 Clear 25 1015 23 9000 6.7 300 09:57 23.03.2020
587 Clear 24 1015 23 9000 6.7 300 09:39 23.03.2020
588 Clear 24 1015 23 7000 6.2 290 09:18 23.03.2020
589 Dust 23 1015 22 5000 5.1 280 08:38 23.03.2020
590 Dust 23 1015 23 4000 4.6 280 08:19 23.03.2020
591 Dust 23 1016 22 4000 4.1 280 07:50 23.03.2020
592 Dust 23 1016 27 4000 5.1 290 07:32 23.03.2020
593 Clear 21 1015 30 5000 4.6 280 06:54 23.03.2020
594 Clear 21 1015 33 6000 4.1 290 06:32 23.03.2020
595 Clear 21 1015 30 6000 3.1 290 05:42 23.03.2020
596 Clear 19 1013 32 6000 4.1 300 03:45 23.03.2020
597 Clear 19 1012 34 7000 4.6 310 02:43 23.03.2020
598 Clear 19 1011 52 9000 4.1 310 01:39 23.03.2020
599 Clear 19 1011 52 10000 4.6 320 00:45 23.03.2020
600 Clear 20 1011 52 10000 5.1 330 23:58 22.03.2020
601 Clear 20 1012 52 10000 5.7 330 23:40 22.03.2020
602 Clear 20 1012 52 10000 5.7 330 23:22 22.03.2020
603 Clear 20 1012 52 10000 5.7 330 22:40 22.03.2020
604 Clear 20 1012 52 10000 5.7 330 22:20 22.03.2020
605 Clear 20 1012 49 10000 6.2 330 21:40 22.03.2020
606 Clear 20 1012 52 10000 5.1 330 21:21 22.03.2020
607 Clear 20 1012 52 10000 5.1 330 20:58 22.03.2020
608 Clear 20 1012 52 10000 5.1 330 20:40 22.03.2020
609 Clouds 20 1013 52 10000 5.1 350 20:21 22.03.2020
610 Clear 20 1012 52 10000 6.2 340 19:56 22.03.2020
611 Clear 20 1012 52 10000 6.2 340 19:37 22.03.2020
612 Clear 20 1012 49 10000 6.7 330 19:19 22.03.2020
613 Clear 20 1012 43 10000 6.7 330 18:57 22.03.2020
614 Clear 20 1012 43 10000 6.7 330 18:39 22.03.2020
615 Clear 20 1011 46 10000 7.2 330 18:18 22.03.2020
616 Clear 21 1011 49 10000 7.7 330 17:56 22.03.2020
617 Clear 21 1011 46 10000 9.3 340 17:37 22.03.2020
618 Clear 21 1011 46 10000 9.3 340 17:19 22.03.2020
619 Clear 21 1010 46 10000 8.7 330 16:55 22.03.2020
620 Clear 21 1010 46 10000 8.7 330 16:37 22.03.2020
621 Clear 21 1010 46 10000 8.7 320 16:19 22.03.2020
622 Clear 22 1010 43 10000 8.7 320 15:39 22.03.2020
623 Clear 22 1009 46 10000 8.7 320 15:19 22.03.2020
624 Clear 23 1008 49 10000 9.3 330 14:46 22.03.2020
625 Clouds 24 1008 53 8000 7.7 320 14:18 22.03.2020
626 Clouds 25 1007 61 6000 8.7 310 13:41 22.03.2020
627 Clouds 25 1007 61 6000 8.7 310 13:20 22.03.2020
628 Dust 27 1006 54 2500 10.8 300 12:47 22.03.2020
629 Dust 29 1006 22 3000 11.3 280 12:23 22.03.2020
630 Dust 31 1006 14 3500 11.3 270 11:59 22.03.2020
631 Dust 31 1006 14 3500 11.3 270 11:41 22.03.2020
632 Dust 31 1006 22 3000 10.3 280 11:23 22.03.2020
633 Dust 31 1006 35 4500 9.8 280 10:56 22.03.2020
634 Clouds 30 1006 54 10000 8.7 270 10:38 22.03.2020
635 Clouds 30 1006 54 10000 8.7 270 10:20 22.03.2020
636 Clouds 30 1007 58 10000 8.2 270 09:42 22.03.2020
637 Clouds 30 1007 58 10000 7.2 260 09:22 22.03.2020
638 Clouds 28 1007 58 10000 6.2 210 08:44 22.03.2020
639 Clouds 28 1008 62 10000 5.1 220 08:24 22.03.2020
640 Clear 27 1007 69 10000 6.2 140 07:52 22.03.2020
641 Clear 26 1007 74 10000 6.7 120 07:26 22.03.2020
642 Clear 25 1007 78 10000 6.2 120 06:40 22.03.2020
643 Clear 24 1006 88 10000 4.6 110 05:35 22.03.2020
644 Clear 23 1005 83 10000 5.1 100 03:46 22.03.2020
645 Clear 23 1005 88 10000 4.1 80 01:28 22.03.2020
646 Clear 23 1005 83 10000 4.1 80 00:48 22.03.2020
647 Clear 23 1005 83 10000 5.1 90 00:29 22.03.2020
648 Clear 23 1006 83 10000 5.1 90 23:44 21.03.2020
649 Rain 23 1006 83 10000 5.7 90 23:19 21.03.2020
650 Rain 23 1006 83 10000 5.1 90 22:58 21.03.2020
651 Rain 23 1006 83 10000 5.1 90 22:37 21.03.2020
652 Rain 23 1006 83 10000 4.6 70 22:18 21.03.2020
653 Rain 23 1007 83 10000 3.6 70 21:56 21.03.2020
654 Rain 23 1007 83 10000 3.6 70 21:37 21.03.2020
655 Rain 23 1007 83 10000 3.6 50 21:18 21.03.2020
656 Rain 24 1007 78 10000 4.1 80 20:41 21.03.2020
657 Rain 23 1007 78 10000 5.1 90 20:20 21.03.2020
658 Rain 24 1007 78 10000 4.1 90 19:44 21.03.2020
659 Rain 23 1007 83 10000 5.1 90 19:25 21.03.2020
660 Rain 23 1007 83 10000 4.6 90 18:59 21.03.2020
661 Clouds 23 1007 78 10000 5.7 80 18:39 21.03.2020
662 Clouds 23 1007 78 10000 5.7 80 18:20 21.03.2020
663 Clouds 24 1007 78 10000 5.7 80 17:57 21.03.2020
664 Clouds 24 1006 78 10000 7.7 80 17:39 21.03.2020
665 Clouds 24 1006 78 10000 7.7 80 17:20 21.03.2020
666 Clouds 24 1006 78 10000 6.2 70 16:41 21.03.2020
667 Clouds 24 1006 78 10000 6.2 70 16:22 21.03.2020
668 Clouds 24 1006 78 10000 6.7 70 15:57 21.03.2020
669 Clouds 24 1006 78 10000 6.7 70 15:39 21.03.2020
670 Clouds 24 1006 78 10000 5.7 60 15:20 21.03.2020
671 Clouds 25 1006 73 10000 7.2 80 14:54 21.03.2020
672 Clouds 25 1005 73 10000 8.2 90 14:36 21.03.2020
673 Clouds 25 1005 73 10000 8.2 90 14:18 21.03.2020
674 Clouds 25 1006 69 10000 6.7 100 13:57 21.03.2020
675 Clouds 25 1006 69 10000 6.7 100 13:38 21.03.2020
676 Clouds 25 1006 69 10000 8.2 90 13:19 21.03.2020
677 Clouds 26 1006 69 10000 8.2 90 12:40 21.03.2020
678 Clouds 26 1006 69 10000 8.2 90 12:20 21.03.2020
679 Clouds 26 1006 69 10000 6.2 80 11:59 21.03.2020
680 Clouds 27 1007 69 10000 6.7 70 11:39 21.03.2020
681 Clouds 27 1007 69 10000 6.7 70 11:39 21.03.2020
682 Clouds 26 1007 69 10000 6.7 70 11:20 21.03.2020
683 Clouds 26 1007 69 10000 6.2 60 10:58 21.03.2020
684 Clouds 26 1007 69 10000 6.2 60 10:39 21.03.2020
685 Clouds 27 1008 65 10000 5.1 70 10:21 21.03.2020
686 Clouds 27 1008 65 10000 5.1 60 09:58 21.03.2020
687 Clouds 27 1008 65 10000 5.1 60 09:39 21.03.2020
688 Clouds 27 1008 61 10000 4.1 70 09:20 21.03.2020
689 Rain 26 1009 65 10000 3.1 50 08:55 21.03.2020
690 Rain 26 1009 65 10000 3.1 50 08:37 21.03.2020
691 Rain 26 1009 65 10000 3.6 40 08:18 21.03.2020
692 Rain 25 1009 65 10000 2.6 40 07:37 21.03.2020
693 Rain 25 1009 69 10000 2.6 330 07:18 21.03.2020
694 Rain 24 1009 73 10000 1 0 06:42 21.03.2020
695 Rain 24 1008 78 10000 2.6 150 06:23 21.03.2020
696 Rain 23 1007 78 10000 8.2 140 05:39 21.03.2020
697 Clouds 24 1007 69 10000 6.2 140 03:39 21.03.2020
698 Clouds 23 1007 78 10000 4.1 150 02:36 21.03.2020
699 Thunderstorm 23 1006 73 10000 4.1 110 01:43 21.03.2020
700 Thunderstorm 23 1006 73 10000 2.6 120 01:22 21.03.2020
701 Thunderstorm 23 1007 73 10000 3.1 130 00:39 21.03.2020
702 Clouds 23 1007 73 10000 3.1 130 00:20 21.03.2020
703 Rain 23 1007 69 10000 4.1 130 23:41 20.03.2020
704 Rain 23 1008 69 10000 4.1 130 23:20 20.03.2020
705 Rain 24 1008 57 10000 4.6 100 22:44 20.03.2020
706 Rain 24 1008 57 10000 3.1 80 22:24 20.03.2020
707 Rain 24 1009 60 10000 3.6 100 21:58 20.03.2020
708 Rain 24 1009 60 10000 3.6 100 21:39 20.03.2020
709 Rain 23 1009 69 10000 2.6 80 21:20 20.03.2020
710 Rain 24 1009 69 10000 3.1 100 20:57 20.03.2020
711 Rain 24 1009 69 10000 3.1 100 20:39 20.03.2020
712 Rain 24 1009 64 10000 2.6 90 20:19 20.03.2020
713 Rain 24 1009 64 10000 2.6 50 19:46 20.03.2020
714 Rain 24 1010 53 10000 1.5 50 19:20 20.03.2020
715 Clouds 24 1010 47 10000 2.1 80 18:57 20.03.2020
716 Thunderstorm 24 1009 41 10000 4.6 110 18:38 20.03.2020
717 Thunderstorm 24 1009 41 10000 4.6 110 18:19 20.03.2020
718 Thunderstorm 25 1010 41 10000 1.5 0 17:56 20.03.2020
719 Thunderstorm 25 1009 41 10000 3.6 40 17:37 20.03.2020
720 Thunderstorm 25 1009 41 10000 3.6 40 17:18 20.03.2020
721 Clouds 25 1008 53 10000 5.1 50 16:41 20.03.2020
722 Clouds 25 1008 53 10000 5.1 50 16:41 20.03.2020
723 Clouds 25 1008 53 10000 4.6 40 16:20 20.03.2020
724 Clouds 25 1007 53 10000 5.1 60 15:44 20.03.2020
725 Clouds 26 1008 34 10000 6.2 50 15:23 20.03.2020
726 Clouds 26 1008 54 10000 4.6 20 14:58 20.03.2020
727 Clouds 26 1008 54 10000 4.6 20 14:40 20.03.2020
728 Clouds 26 1008 50 10000 4.1 30 14:20 20.03.2020
729 Clouds 27 1008 47 10000 4.6 40 13:48 20.03.2020
730 Clouds 27 1008 47 10000 5.1 20 13:22 20.03.2020
731 Clouds 28 1009 44 10000 5.1 30 12:58 20.03.2020
732 Clouds 28 1009 42 10000 5.7 30 12:38 20.03.2020
733 Clouds 28 1009 42 10000 5.7 30 12:19 20.03.2020
734 Clouds 29 1010 39 10000 5.7 20 11:39 20.03.2020
735 Clouds 28 1010 39 10000 5.7 20 11:20 20.03.2020
736 Clouds 28 1010 39 10000 5.7 30 10:55 20.03.2020
737 Clouds 28 1010 39 10000 5.7 30 10:37 20.03.2020
738 Clouds 28 1011 42 10000 5.1 30 10:18 20.03.2020
739 Clouds 28 1011 47 10000 5.1 360 09:44 20.03.2020
740 Clouds 27 1012 57 10000 5.1 10 09:20 20.03.2020
741 Clouds 26 1012 57 10000 4.6 10 08:44 20.03.2020
742 Clouds 26 1012 57 10000 5.1 10 08:23 20.03.2020
743 Clear 25 1012 61 10000 6.2 350 07:59 20.03.2020
744 Clear 25 1012 61 10000 6.2 350 07:39 20.03.2020
745 Clear 25 1012 61 10000 5.7 360 07:21 20.03.2020
746 Clear 24 1012 73 10000 4.1 350 06:42 20.03.2020
747 Clear 24 1012 73 10000 4.1 350 06:18 20.03.2020
748 Clear 21 1011 78 10000 4.1 350 04:38 20.03.2020
749 Clear 21 1010 83 10000 4.6 340 02:50 20.03.2020
750 Clear 21 1010 83 10000 4.6 340 01:50 20.03.2020
751 Clear 22 1010 83 10000 6.2 340 00:41 20.03.2020
752 Clear 22 1011 78 10000 5.1 340 23:59 19.03.2020
753 Clear 22 1011 78 10000 5.1 330 23:40 19.03.2020
754 Clear 22 1011 78 10000 5.1 330 23:22 19.03.2020
755 Clear 22 1011 78 10000 4.6 330 22:41 19.03.2020
756 Clear 22 1011 73 10000 4.6 330 22:22 19.03.2020
757 Clear 23 1011 69 10000 4.6 330 21:58 19.03.2020
758 Clear 23 1011 69 10000 4.6 330 21:38 19.03.2020
759 Clear 23 1011 64 10000 4.1 330 21:19 19.03.2020
760 Clear 24 1011 64 10000 5.7 340 20:44 19.03.2020
761 Clear 24 1012 69 10000 5.1 340 20:25 19.03.2020
762 Clear 24 1011 73 10000 5.1 340 19:59 19.03.2020
763 Clear 24 1011 73 10000 5.1 340 19:39 19.03.2020
764 Clear 24 1011 73 10000 5.7 350 19:20 19.03.2020
765 Clear 25 1011 65 10000 5.7 350 18:58 19.03.2020
766 Clear 25 1011 65 10000 5.7 350 18:40 19.03.2020
767 Clear 25 1011 65 10000 5.7 350 18:21 19.03.2020
768 Clear 25 1011 65 10000 5.7 350 18:21 19.03.2020
769 Clear 26 1010 73 10000 5.7 350 17:44 19.03.2020
770 Clear 26 1010 69 10000 5.1 10 17:20 19.03.2020
771 Clear 26 1010 69 10000 5.1 10 16:58 19.03.2020
772 Clear 26 1009 61 10000 4.1 10 16:39 19.03.2020
773 Clear 26 1009 61 10000 4.1 10 16:21 19.03.2020
774 Clear 27 1009 54 10000 3.6 20 15:42 19.03.2020
775 Clear 28 1009 57 10000 3.6 40 15:23 19.03.2020
776 Clear 28 1009 57 10000 3.6 40 15:23 19.03.2020
777 Clear 28 1009 61 10000 4.1 40 14:43 19.03.2020
778 Clear 29 1009 58 10000 4.1 40 14:23 19.03.2020
779 Clear 29 1008 58 10000 4.6 40 13:57 19.03.2020
780 Clear 29 1008 58 10000 4.1 60 13:37 19.03.2020
781 Clouds 29 1008 58 10000 4.1 60 13:18 19.03.2020
782 Clouds 31 1008 54 10000 4.6 30 12:41 19.03.2020
783 Clouds 30 1008 54 10000 4.6 30 12:22 19.03.2020
784 Clouds 32 1009 51 10000 3.6 30 11:57 19.03.2020
785 Clouds 32 1009 51 10000 4.1 360 11:38 19.03.2020
786 Rain 32 1009 38 10000 3.1 0 11:20 19.03.2020
787 Rain 32 1009 38 10000 3.1 0 10:41 19.03.2020
788 Rain 31 1010 51 10000 3.1 340 10:20 19.03.2020
789 Rain 31 1011 51 10000 2.6 360 09:57 19.03.2020
790 Rain 30 1011 51 10000 2.6 360 09:37 19.03.2020
791 Rain 30 1011 58 10000 2.6 360 09:18 19.03.2020
792 Rain 28 1011 61 10000 2.6 20 08:42 19.03.2020
793 Rain 28 1011 61 10000 3.1 280 08:21 19.03.2020
794 Rain 27 1012 65 10000 2.1 110 07:46 19.03.2020
795 Rain 28 1012 65 10000 1.5 120 07:28 19.03.2020
796 Rain 26 1011 73 10000 2.1 120 06:48 19.03.2020
797 Rain 25 1010 78 10000 2.6 100 05:49 19.03.2020
798 Clouds 23 1010 83 10000 2.6 110 04:59 19.03.2020
799 Clouds 23 1010 83 10000 2.6 110 04:40 19.03.2020
800 Clouds 24 1010 73 10000 1.5 70 02:50 19.03.2020
801 Clouds 24 1009 64 10000 5.1 130 01:25 19.03.2020
802 Thunderstorm 24 1011 73 10000 5.7 140 00:35 19.03.2020
803 Clouds 24 1010 78 10000 3.6 120 23:57 18.03.2020
804 Clouds 24 1009 73 10000 4.1 120 23:31 18.03.2020
805 Clouds 25 1009 73 10000 5.1 120 22:58 18.03.2020
806 Clouds 25 1009 73 10000 5.1 120 22:40 18.03.2020
807 Clouds 25 1010 69 10000 4.6 110 22:21 18.03.2020
808 Clouds 24 1010 69 10000 5.7 110 21:54 18.03.2020
809 Clouds 24 1010 69 10000 5.7 110 21:36 18.03.2020
810 Clouds 25 1010 65 10000 5.7 90 21:18 18.03.2020
811 Clouds 24 1010 65 10000 4.1 100 20:41 18.03.2020
812 Clouds 24 1010 69 10000 3.6 90 20:21 18.03.2020
813 Clouds 24 1010 73 10000 5.7 80 19:58 18.03.2020
814 Clouds 24 1010 73 10000 5.7 80 19:40 18.03.2020
815 Clouds 24 1010 65 10000 5.7 70 19:21 18.03.2020
816 Clouds 24 1010 65 10000 5.7 70 19:21 18.03.2020
817 Clouds 24 1010 65 10000 5.7 70 19:21 18.03.2020
818 Clouds 24 1010 69 10000 6.2 90 18:54 18.03.2020
819 Thunderstorm 24 1011 78 10000 4.1 70 18:36 18.03.2020
820 Thunderstorm 24 1011 78 10000 4.1 70 18:18 18.03.2020
821 Clouds 24 1009 78 10000 6.7 80 17:41 18.03.2020
822 Clouds 24 1009 78 10000 6.7 80 17:22 18.03.2020
823 Thunderstorm 24 1010 78 10000 6.7 60 16:59 18.03.2020
824 Thunderstorm 24 1010 78 10000 6.7 60 16:40 18.03.2020
825 Rain 25 1011 65 10000 5.1 70 16:20 18.03.2020
826 Thunderstorm 26 1010 69 9000 3.6 30 15:46 18.03.2020
827 Thunderstorm 27 1010 65 9000 6.2 80 15:27 18.03.2020
828 Clouds 27 1009 54 10000 6.7 70 14:58 18.03.2020
829 Clouds 28 1009 54 10000 6.7 70 14:40 18.03.2020
830 Clouds 28 1009 57 10000 6.2 90 14:20 18.03.2020
831 Clouds 29 1009 61 10000 6.2 80 13:40 18.03.2020
832 Clouds 29 1010 54 10000 5.7 90 13:19 18.03.2020
833 Clouds 30 1010 54 10000 5.7 110 12:42 18.03.2020
834 Clouds 30 1010 54 10000 5.7 110 12:21 18.03.2020
835 Clouds 30 1010 48 10000 6.7 100 11:58 18.03.2020
836 Clouds 30 1011 54 10000 6.2 110 11:37 18.03.2020
837 Clouds 30 1011 54 10000 6.2 110 11:18 18.03.2020
838 Clouds 29 1011 54 10000 6.7 120 10:55 18.03.2020
839 Clouds 29 1012 58 10000 9.3 130 10:36 18.03.2020
840 Clouds 29 1012 58 10000 9.3 130 10:18 18.03.2020
841 Clouds 28 1012 65 10000 7.7 110 09:41 18.03.2020
842 Clouds 28 1013 69 10000 7.2 120 09:22 18.03.2020
843 Clouds 27 1013 69 10000 6.7 110 08:54 18.03.2020
844 Clouds 27 1013 69 10000 6.7 110 08:36 18.03.2020
845 Clouds 26 1013 73 10000 7.2 110 08:18 18.03.2020
846 Clouds 26 1013 69 10000 6.2 120 07:39 18.03.2020
847 Clouds 26 1013 69 10000 6.2 120 07:21 18.03.2020
848 Clouds 25 1013 69 10000 5.1 110 06:42 18.03.2020
849 Clouds 23 1013 83 10000 3.1 100 05:43 18.03.2020
850 Clear 23 1012 83 10000 3.6 100 04:58 18.03.2020
851 Mist 22 1012 77 9000 4.6 90 03:21 18.03.2020
852 Clear 22 1011 83 10000 5.1 100 02:37 18.03.2020
853 Clear 22 1011 83 10000 5.1 100 02:37 18.03.2020
854 Clear 22 1011 83 10000 5.1 100 02:37 18.03.2020
855 Clear 22 1011 69 10000 3.6 80 01:45 18.03.2020
856 Clear 23 1011 73 10000 3.6 80 01:19 18.03.2020
857 Clear 23 1011 73 10000 2.6 70 00:22 18.03.2020
858 Clear 23 1012 73 10000 4.1 80 23:43 17.03.2020
859 Clear 23 1012 73 10000 5.1 80 23:22 17.03.2020
860 Clear 23 1012 73 10000 5.1 80 22:47 17.03.2020
861 Clear 23 1012 73 10000 5.1 80 22:28 17.03.2020
862 Clear 23 1013 78 10000 4.6 80 21:57 17.03.2020
863 Clear 23 1013 78 10000 4.6 80 21:36 17.03.2020
864 Clear 23 1013 78 10000 4.1 80 21:18 17.03.2020
865 Clear 23 1013 78 10000 4.6 80 20:38 17.03.2020
866 Clear 23 1013 88 10000 4.1 80 20:19 17.03.2020
867 Clear 22 1013 88 10000 4.6 80 19:42 17.03.2020
868 Clear 22 1013 94 10000 4.6 80 19:22 17.03.2020
869 Clear 23 1014 88 10000 4.6 80 18:59 17.03.2020
870 Clear 23 1014 88 10000 4.1 70 18:40 17.03.2020
871 Clear 23 1014 88 10000 4.1 70 18:22 17.03.2020
872 Clear 23 1014 88 10000 4.1 70 17:59 17.03.2020
873 Clear 23 1013 88 10000 4.1 70 17:39 17.03.2020
874 Clear 23 1013 88 10000 4.1 70 17:19 17.03.2020
875 Clear 24 1013 88 10000 4.6 70 16:43 17.03.2020
876 Clear 24 1013 83 10000 5.1 60 16:19 17.03.2020
877 Clear 25 1013 78 10000 5.1 50 15:48 17.03.2020
878 Clear 25 1013 78 10000 5.1 40 15:23 17.03.2020
879 Clear 26 1013 69 10000 4.1 20 14:49 17.03.2020
880 Clear 26 1013 69 10000 4.6 20 14:31 17.03.2020
881 Clear 27 1013 65 10000 3.6 40 13:59 17.03.2020
882 Clear 27 1013 65 10000 3.6 40 13:41 17.03.2020
883 Clear 26 1013 69 10000 3.6 40 13:22 17.03.2020
884 Clear 27 1013 65 10000 3.1 70 12:47 17.03.2020
885 Clear 27 1014 65 10000 4.1 60 12:25 17.03.2020
886 Clear 27 1014 61 10000 4.1 60 11:59 17.03.2020
887 Clear 27 1014 61 10000 4.6 60 11:39 17.03.2020
888 Clear 27 1014 61 10000 4.6 60 11:21 17.03.2020
889 Clear 27 1015 57 10000 4.6 60 10:54 17.03.2020
890 Clear 27 1015 57 10000 4.6 60 10:36 17.03.2020
891 Clear 27 1015 54 10000 4.1 50 10:18 17.03.2020
892 Clear 27 1016 54 10000 3.6 60 09:45 17.03.2020
893 Clear 27 1016 54 10000 3.6 60 09:45 17.03.2020
894 Clear 27 1016 54 10000 4.1 50 09:20 17.03.2020
895 Clear 27 1016 54 10000 3.6 60 08:57 17.03.2020
896 Clear 27 1016 54 10000 4.1 60 08:39 17.03.2020
897 Clear 26 1016 54 10000 4.1 60 08:18 17.03.2020
898 Clear 27 1016 47 10000 3.6 70 07:47 17.03.2020
899 Clear 26 1016 47 10000 3.6 70 07:20 17.03.2020
900 Clear 25 1016 47 10000 3.1 70 06:45 17.03.2020
901 Clear 25 1016 53 10000 2.6 60 06:25 17.03.2020
902 Clear 23 1016 73 10000 1 40 05:18 17.03.2020
903 Clear 21 1015 83 10000 2.1 340 03:27 17.03.2020
904 Clear 22 1014 83 10000 1 350 01:50 17.03.2020
905 Clear 22 1014 77 10000 1.5 10 01:30 17.03.2020
906 Clouds 22 1014 73 10000 1 350 00:51 17.03.2020
907 Clouds 22 1014 68 10000 2.1 350 23:52 16.03.2020
908 Clouds 22 1014 73 10000 3.1 330 23:34 16.03.2020
909 Clear 22 1014 69 10000 2.1 350 22:55 16.03.2020
910 Clear 22 1014 69 10000 2.1 350 22:36 16.03.2020
911 Clear 22 1014 69 10000 2.1 330 22:18 16.03.2020
912 Clear 23 1014 69 10000 2.6 330 21:41 16.03.2020
913 Clear 23 1014 64 10000 1.5 340 21:23 16.03.2020
914 Clear 24 1014 57 10000 1 0 20:58 16.03.2020
915 Clear 24 1014 57 10000 1 0 20:38 16.03.2020
916 Clear 24 1014 60 10000 1 200 20:20 16.03.2020
917 Clear 24 1014 60 10000 1.5 180 19:43 16.03.2020
918 Clear 24 1014 64 10000 2.1 70 19:23 16.03.2020
919 Clear 24 1014 60 10000 1.5 50 18:57 16.03.2020
920 Clear 24 1013 60 10000 2.1 300 18:37 16.03.2020
921 Clear 24 1013 60 10000 2.1 300 18:18 16.03.2020
922 Clear 24 1013 60 10000 4.1 80 17:43 16.03.2020
923 Clear 24 1013 64 10000 2.6 80 17:24 16.03.2020
924 Clear 24 1013 64 10000 3.1 110 16:47 16.03.2020
925 Clear 24 1012 64 10000 2.6 90 16:29 16.03.2020
926 Clear 26 1012 61 10000 4.6 100 15:57 16.03.2020
927 Clear 26 1012 61 10000 4.6 100 15:39 16.03.2020
928 Clear 26 1012 57 10000 5.7 90 15:19 16.03.2020
929 Clear 27 1012 57 10000 5.7 90 14:43 16.03.2020
930 Clear 27 1012 50 10000 5.7 100 14:19 16.03.2020
931 Clear 28 1012 51 10000 5.1 100 13:42 16.03.2020
932 Clear 28 1012 47 10000 5.1 100 13:24 16.03.2020
933 Clear 29 1012 51 10000 6.2 100 12:46 16.03.2020
934 Clear 28 1012 57 10000 5.7 110 12:27 16.03.2020
935 Clear 28 1012 57 10000 5.7 110 11:59 16.03.2020
936 Clear 28 1013 57 10000 5.7 110 11:41 16.03.2020
937 Clear 28 1013 57 10000 5.7 110 11:18 16.03.2020
938 Clear 27 1013 61 10000 5.7 110 10:42 16.03.2020
939 Clear 27 1013 57 10000 6.2 100 10:24 16.03.2020
940 Clear 27 1013 57 10000 5.7 110 09:45 16.03.2020
941 Clear 27 1014 54 10000 6.2 100 09:27 16.03.2020
942 Clear 27 1014 51 10000 4.6 110 08:56 16.03.2020
943 Clear 27 1014 51 10000 5.1 120 08:26 16.03.2020
944 Clear 26 1015 54 10000 5.1 130 07:50 16.03.2020
945 Clear 26 1014 57 10000 3.6 120 07:28 16.03.2020
946 Clear 25 1014 61 10000 3.6 100 06:54 16.03.2020
947 Clear 25 1014 61 10000 3.6 100 06:54 16.03.2020
948 Clear 25 1014 61 10000 3.1 110 06:26 16.03.2020
949 Clear 23 1014 64 10000 1 0 05:54 16.03.2020
950 Clouds 22 1011 68 10000 1 0 02:46 16.03.2020
951 Clouds 23 1010 69 10000 5.1 120 01:20 16.03.2020
952 Clouds 24 1010 69 10000 4.6 120 00:42 16.03.2020
953 Clouds 24 1010 69 10000 4.6 120 23:49 15.03.2020
954 Clouds 24 1010 69 10000 4.1 120 23:21 15.03.2020
955 Clear 24 1010 69 10000 5.1 120 22:56 15.03.2020
956 Clear 24 1010 69 10000 5.1 120 22:37 15.03.2020
957 Clear 24 1010 64 10000 4.6 120 22:19 15.03.2020
958 Clear 24 1010 60 10000 5.7 100 21:39 15.03.2020
959 Clear 24 1010 57 10000 5.7 110 21:19 15.03.2020
960 Clear 24 1011 53 10000 3.1 90 20:43 15.03.2020
961 Clear 24 1011 53 10000 4.1 90 20:22 15.03.2020
962 Clear 24 1011 53 10000 3.6 70 19:58 15.03.2020
963 Clear 24 1011 53 10000 3.6 70 19:40 15.03.2020
964 Clear 24 1011 41 10000 5.1 90 19:22 15.03.2020
965 Clear 24 1011 50 10000 4.1 80 18:56 15.03.2020
966 Clear 24 1011 50 10000 4.6 80 18:38 15.03.2020
967 Clear 24 1011 50 10000 4.6 80 18:20 15.03.2020
968 Clear 25 1010 41 10000 6.2 90 17:41 15.03.2020
969 Clear 25 1010 41 10000 5.7 90 17:22 15.03.2020
970 Clear 25 1010 41 10000 6.2 80 16:59 15.03.2020
971 Clear 25 1010 41 10000 6.2 80 16:40 15.03.2020
972 Clear 25 1010 44 10000 6.2 80 16:21 15.03.2020
973 Clear 25 1010 47 10000 5.7 80 15:54 15.03.2020
974 Clear 25 1010 47 10000 6.2 80 15:36 15.03.2020
975 Clear 25 1010 47 10000 6.2 80 15:18 15.03.2020
976 Clear 26 1010 41 10000 5.7 90 14:39 15.03.2020
977 Clear 27 1010 41 10000 5.7 80 14:21 15.03.2020
978 Clear 28 1009 39 10000 5.7 90 13:56 15.03.2020
979 Clear 28 1009 39 10000 5.7 90 13:37 15.03.2020
980 Clear 29 1009 34 10000 5.7 100 13:18 15.03.2020
981 Clear 28 1010 39 10000 5.1 110 12:40 15.03.2020
982 Clear 28 1010 39 10000 5.1 110 12:22 15.03.2020
983 Clear 28 1010 47 10000 6.2 110 11:44 15.03.2020
984 Clear 29 1010 39 10000 6.7 120 11:25 15.03.2020
985 Clear 29 1011 28 10000 7.7 130 10:59 15.03.2020
986 Clear 29 1011 28 10000 7.7 130 10:40 15.03.2020
987 Clear 29 1011 28 10000 9.3 140 10:21 15.03.2020
988 Clear 28 1011 32 10000 8.7 140 09:59 15.03.2020
989 Clear 28 1011 32 10000 8.7 140 09:38 15.03.2020
990 Clear 28 1012 42 10000 6.7 130 09:19 15.03.2020
991 Clouds 28 1012 45 10000 7.2 130 08:41 15.03.2020
992 Clouds 28 1012 39 10000 7.2 140 08:19 15.03.2020
993 Clouds 26 1012 54 10000 7.2 120 07:45 15.03.2020
994 Clouds 27 1012 61 10000 7.7 120 07:22 15.03.2020
995 Clouds 24 1012 61 10000 6.7 120 06:43 15.03.2020
996 Clouds 24 1012 60 10000 6.2 110 05:48 15.03.2020
997 Clouds 23 1011 69 10000 5.7 110 04:56 15.03.2020
998 Clouds 23 1010 69 10000 5.7 100 04:37 15.03.2020
999 Clouds 22 1010 69 10000 5.7 100 04:18 15.03.2020
1000 Clouds 22 1010 78 10000 5.1 100 03:19 15.03.2020
1001 Clouds 22 1010 78 10000 4.1 100 02:22 15.03.2020
1002 Clouds 22 1010 73 10000 4.6 90 00:58 15.03.2020
1003 Clouds 22 1010 73 10000 4.6 90 00:40 15.03.2020
1004 Clouds 22 1010 73 10000 4.6 90 00:19 15.03.2020
1005 Clouds 22 1011 73 10000 5.1 80 23:39 14.03.2020
1006 Clouds 22 1011 78 10000 5.1 80 23:20 14.03.2020
1007 Clouds 22 1011 78 10000 5.7 70 22:56 14.03.2020
1008 Clouds 22 1011 78 10000 5.7 70 22:37 14.03.2020
1009 Clouds 22 1011 78 10000 5.7 70 22:37 14.03.2020
1010 Clouds 22 1011 78 10000 5.1 70 22:19 14.03.2020
1011 Clouds 23 1011 78 10000 5.1 80 21:55 14.03.2020
1012 Clouds 23 1011 78 10000 5.1 80 21:36 14.03.2020
1013 Clouds 23 1012 73 10000 3.6 70 21:18 14.03.2020
1014 Clouds 23 1012 64 10000 4.1 40 20:56 14.03.2020
1015 Clouds 23 1012 64 10000 4.1 40 20:56 14.03.2020
1016 Clouds 23 1012 64 10000 4.1 40 20:38 14.03.2020
1017 Clouds 23 1012 64 10000 4.6 360 20:18 14.03.2020
1018 Clouds 24 1012 47 10000 1.5 50 19:41 14.03.2020
1019 Clouds 24 1012 47 10000 1 0 19:20 14.03.2020
1020 Clouds 24 1013 50 10000 1 0 18:40 14.03.2020
1021 Clouds 24 1013 50 10000 1 0 18:20 14.03.2020
1022 Clouds 24 1012 47 10000 1 0 17:42 14.03.2020
1023 Clouds 24 1012 47 10000 1 0 17:23 14.03.2020
1024 Rain 25 1011 47 10000 3.1 70 16:59 14.03.2020
1025 Rain 25 1011 47 10000 3.1 70 16:38 14.03.2020
1026 Clouds 25 1012 50 10000 2.6 130 16:19 14.03.2020
1027 Clouds 25 1012 50 10000 1.5 100 15:46 14.03.2020
1028 Clouds 25 1011 53 10000 1.5 90 15:22 14.03.2020
1029 Clouds 25 1010 53 10000 4.6 120 14:43 14.03.2020
1030 Clouds 25 1010 38 10000 5.7 140 14:21 14.03.2020
1031 Clouds 26 1011 38 10000 5.7 140 13:57 14.03.2020
1032 Clouds 26 1011 38 10000 6.2 130 13:38 14.03.2020
1033 Clouds 26 1011 38 10000 6.2 130 13:20 14.03.2020
1034 Clouds 27 1012 32 10000 4.1 170 12:44 14.03.2020
1035 Clouds 27 1012 32 10000 4.1 170 12:26 14.03.2020
1036 Clouds 27 1012 34 10000 6.2 160 11:46 14.03.2020
1037 Clouds 27 1012 34 10000 6.2 160 11:46 14.03.2020
1038 Clouds 27 1012 34 10000 6.2 160 11:26 14.03.2020
1039 Clouds 27 1013 39 10000 7.2 150 10:57 14.03.2020
1040 Clouds 26 1013 44 10000 6.7 130 10:39 14.03.2020
1041 Clouds 26 1013 44 10000 6.7 130 10:20 14.03.2020
1042 Clouds 26 1014 41 10000 7.7 150 09:41 14.03.2020
1043 Clouds 26 1015 47 10000 7.7 140 09:22 14.03.2020
1044 Clouds 25 1015 57 10000 6.2 140 08:47 14.03.2020
1045 Clouds 25 1015 57 10000 6.2 140 08:47 14.03.2020
1046 Clouds 25 1016 57 10000 6.7 120 08:27 14.03.2020
1047 Clouds 25 1016 69 10000 5.7 120 07:49 14.03.2020
1048 Clouds 25 1016 69 10000 6.2 120 07:23 14.03.2020
1049 Clouds 24 1016 60 10000 6.2 130 06:59 14.03.2020
1050 Clouds 24 1016 60 10000 6.7 130 06:39 14.03.2020
1051 Clouds 23 1015 64 10000 4.1 130 05:19 14.03.2020
1052 Clouds 23 1014 64 10000 4.1 110 03:42 14.03.2020
1053 Clouds 23 1014 64 10000 4.1 110 03:23 14.03.2020
1054 Clouds 22 1013 68 10000 4.6 100 02:20 14.03.2020
1055 Clouds 22 1014 73 10000 2.6 100 00:42 14.03.2020
1056 Clouds 22 1014 68 10000 1.5 80 23:45 13.03.2020
1057 Clouds 22 1015 68 10000 1 80 23:26 13.03.2020
1058 Clouds 22 1015 68 10000 1.5 80 22:47 13.03.2020
1059 Clouds 22 1015 64 10000 1 80 22:25 13.03.2020
1060 Clouds 22 1016 68 10000 1 90 21:43 13.03.2020
1061 Clouds 22 1016 64 10000 1.5 80 21:21 13.03.2020
1062 Clouds 22 1016 64 10000 1 0 20:57 13.03.2020
1063 Clouds 22 1016 64 10000 1 0 20:38 13.03.2020
1064 Clouds 22 1016 68 10000 1.5 60 20:19 13.03.2020
1065 Clouds 21 1016 68 10000 1.5 50 19:45 13.03.2020
1066 Clouds 21 1016 73 10000 1.5 30 19:27 13.03.2020
1067 Clouds 21 1016 73 10000 2.1 50 18:47 13.03.2020
1068 Clouds 21 1015 73 10000 2.6 70 18:28 13.03.2020
1069 Clouds 22 1015 73 10000 3.1 80 17:57 13.03.2020
1070 Clouds 22 1014 64 10000 3.1 80 17:37 13.03.2020
1071 Clouds 22 1014 64 10000 3.1 80 17:18 13.03.2020
1072 Clouds 22 1014 68 10000 3.1 90 16:41 13.03.2020
1073 Clouds 23 1014 68 10000 3.6 100 16:23 13.03.2020
1074 Clouds 23 1015 73 10000 4.6 100 15:55 13.03.2020
1075 Clouds 23 1015 73 10000 4.6 100 15:37 13.03.2020
1076 Clouds 24 1015 64 10000 4.6 110 15:18 13.03.2020
1077 Clouds 24 1015 56 10000 5.1 120 14:41 13.03.2020
1078 Clouds 25 1015 53 10000 5.1 110 14:22 13.03.2020
1079 Clouds 26 1015 47 10000 5.1 110 13:56 13.03.2020
1080 Clouds 26 1015 44 10000 4.6 100 13:38 13.03.2020
1081 Clouds 26 1015 44 10000 4.6 100 13:19 13.03.2020
1082 Clouds 27 1015 39 10000 5.1 100 12:40 13.03.2020
1083 Clouds 26 1015 39 10000 5.1 100 12:22 13.03.2020
1084 Clouds 27 1016 39 10000 4.6 100 11:57 13.03.2020
1085 Clouds 27 1016 41 10000 4.6 120 11:39 13.03.2020
1086 Clouds 27 1016 41 10000 4.6 120 11:21 13.03.2020
1087 Clouds 26 1016 36 10000 4.6 110 10:47 13.03.2020
1088 Clouds 26 1017 39 10000 4.6 110 10:27 13.03.2020
1089 Clouds 26 1017 41 10000 5.1 110 09:57 13.03.2020
1090 Clouds 26 1017 41 10000 5.1 110 09:57 13.03.2020
1091 Clouds 26 1017 41 10000 5.1 110 09:39 13.03.2020
1092 Clouds 26 1018 53 10000 4.6 110 09:20 13.03.2020
1093 Clouds 25 1018 60 10000 5.1 120 08:45 13.03.2020
1094 Clouds 25 1018 53 10000 4.1 110 08:22 13.03.2020
1095 Clouds 24 1018 60 10000 4.1 90 07:49 13.03.2020
1096 Clouds 24 1018 64 10000 4.1 110 07:28 13.03.2020
1097 Clouds 22 1018 68 10000 3.6 110 06:47 13.03.2020
1098 Clouds 22 1017 68 10000 3.1 100 06:28 13.03.2020
1099 Clouds 21 1017 77 10000 1.5 80 05:54 13.03.2020
1100 Clouds 18 1016 88 10000 2.1 100 05:22 13.03.2020
1101 Clouds 19 1016 88 10000 2.1 100 04:37 13.03.2020
1102 Clouds 18 1016 82 10000 0.5 0 03:37 13.03.2020
1103 Clouds 19 1015 72 10000 0.5 0 01:46 13.03.2020
1104 Clouds 19 1015 77 10000 1.5 110 01:19 13.03.2020
1105 Clouds 19 1015 77 10000 1 0 00:53 13.03.2020
1106 Clouds 19 1015 72 10000 1.5 80 00:24 13.03.2020
1107 Clouds 19 1015 72 10000 1 130 23:50 12.03.2020
1108 Clouds 19 1015 68 10000 1 90 23:27 12.03.2020
1109 Clouds 19 1016 72 10000 0.5 0 22:56 12.03.2020
1110 Clouds 19 1016 72 10000 0.5 0 22:38 12.03.2020
1111 Clouds 19 1016 68 10000 3.11 94 22:20 12.03.2020
1112 Clouds 20 1016 68 10000 3.11 94 21:43 12.03.2020
1113 Clouds 20 1016 64 10000 1 50 21:25 12.03.2020
1114 Clouds 20 1017 64 10000 0.5 0 20:57 12.03.2020
1115 Clouds 20 1017 64 10000 0.5 0 20:37 12.03.2020
1116 Clouds 20 1017 64 10000 0.5 0 20:37 12.03.2020
1117 Clouds 20 1017 64 10000 0.5 50 20:18 12.03.2020
1118 Clouds 21 1016 56 10000 1 30 19:39 12.03.2020
1119 Clouds 21 1016 56 10000 1 60 19:20 12.03.2020
1120 Clouds 22 1016 56 10000 1 0 18:44 12.03.2020
1121 Clouds 22 1016 60 10000 2.1 110 18:24 12.03.2020
1122 Clear 22 1017 46 10000 2.82 80 17:57 12.03.2020
1123 Clouds 22 1016 56 10000 2.6 100 17:38 12.03.2020
1124 Clouds 22 1016 56 10000 2.6 100 17:19 12.03.2020
1125 Clouds 23 1015 53 10000 2.6 90 16:55 12.03.2020
1126 Clouds 23 1016 53 10000 3.1 120 16:37 12.03.2020
1127 Clouds 23 1016 53 10000 3.1 120 16:18 12.03.2020
1128 Clouds 23 1016 56 10000 3.6 120 15:44 12.03.2020
1129 Clouds 24 1016 46 10000 3.6 110 15:26 12.03.2020
1130 Clouds 24 1016 49 10000 4.1 120 14:40 12.03.2020
1131 Clouds 25 1016 47 10000 4.6 110 14:21 12.03.2020
1132 Clear 25 1016 41 10000 4.6 110 13:56 12.03.2020
1133 Clear 25 1016 41 10000 4.6 110 13:36 12.03.2020
1134 Clear 26 1016 38 10000 4.1 90 13:18 12.03.2020
1135 Clear 25 1016 41 10000 4.1 100 12:41 12.03.2020
1136 Clear 25 1016 41 10000 4.1 100 12:21 12.03.2020
1137 Clear 26 1016 38 10000 4.6 90 11:57 12.03.2020
1138 Clear 26 1016 38 10000 4.6 90 11:38 12.03.2020
1139 Clear 26 1016 38 10000 4.6 90 11:19 12.03.2020
1140 Clear 26 1017 36 10000 3.6 100 10:58 12.03.2020
1141 Clear 26 1017 36 10000 3.6 100 10:40 12.03.2020
1142 Clear 26 1018 44 10000 4.1 100 10:22 12.03.2020
1143 Clear 26 1018 44 10000 4.1 100 09:46 12.03.2020
1144 Clear 26 1018 57 10000 4.1 100 09:25 12.03.2020
1145 Clear 24 1018 61 10000 3.1 90 08:44 12.03.2020
1146 Clouds 24 1018 61 10000 2.1 70 08:20 12.03.2020
1147 Clouds 24 1018 50 10000 1 0 07:56 12.03.2020
1148 Clouds 24 1018 50 10000 1 0 07:38 12.03.2020
1149 Clouds 23 1018 44 10000 1 0 07:20 12.03.2020
1150 Clouds 17 1017 77 6000 0.5 0 05:48 12.03.2020
1151 Clouds 17 1017 77 6000 0.5 0 05:25 12.03.2020
1152 Clear 17 1016 88 7000 1.72 3 02:41 12.03.2020
1153 Clouds 17 1016 88 7000 0.5 0 01:32 12.03.2020
1154 Clouds 18 1016 93 7000 0.5 170 00:47 12.03.2020
1155 Clouds 17 1016 93 8000 0.92 2 00:27 12.03.2020
1156 Clouds 18 1016 93 9000 0.92 2 23:47 11.03.2020
1157 Clouds 18 1016 93 9000 0.92 2 23:25 11.03.2020
1158 Clear 19 1017 93 10000 0.97 96 22:48 11.03.2020
1159 Clear 19 1017 88 10000 0.5 0 22:30 11.03.2020
1160 Clear 19 1017 72 10000 1 60 21:59 11.03.2020
1161 Clear 19 1017 72 10000 1 60 21:41 11.03.2020
1162 Clear 19 1017 72 10000 0.97 96 21:22 11.03.2020
1163 Clear 20 1017 68 10000 1 100 20:58 11.03.2020
1164 Clear 20 1017 68 10000 1 100 20:40 11.03.2020
1165 Clear 20 1017 68 10000 1 140 20:20 11.03.2020
1166 Clear 20 1017 68 10000 1 20 19:57 11.03.2020
1167 Clear 20 1017 68 10000 1 20 19:38 11.03.2020
1168 Clear 20 1017 64 10000 1 80 19:20 11.03.2020
1169 Clear 21 1017 60 10000 1 140 18:43 11.03.2020
1170 Clear 21 1017 60 10000 0.5 0 18:24 11.03.2020
1171 Clear 21 1017 64 10000 2.1 130 17:59 11.03.2020
1172 Clear 21 1016 68 10000 3.1 140 17:39 11.03.2020
1173 Clear 21 1016 68 10000 3.1 140 17:20 11.03.2020
1174 Clear 22 1016 60 10000 3.6 140 16:47 11.03.2020
1175 Clear 23 1016 56 10000 3.1 140 16:23 11.03.2020
1176 Clear 24 1016 53 10000 4.6 120 15:59 11.03.2020
1177 Clear 24 1016 53 10000 4.6 120 15:40 11.03.2020
1178 Clear 24 1016 49 10000 4.1 120 15:22 11.03.2020
1179 Clear 25 1016 46 10000 4.1 110 14:42 11.03.2020
1180 Clear 26 1016 50 10000 4.1 110 14:23 11.03.2020
1181 Clear 26 1016 50 10000 4.1 110 14:23 11.03.2020
1182 Clear 25 1016 50 10000 4.1 110 13:56 11.03.2020
1183 Clear 26 1016 50 10000 4.1 110 13:37 11.03.2020
1184 Clear 26 1016 36 10000 4.6 100 13:19 11.03.2020
1185 Clear 26 1016 44 9000 4.6 110 12:40 11.03.2020
1186 Clear 26 1016 41 9000 4.6 90 12:20 11.03.2020
1187 Clear 26 1017 50 7000 4.6 100 11:56 11.03.2020
1188 Clear 25 1017 50 7000 4.6 100 11:37 11.03.2020
1189 Clear 26 1017 50 7000 4.6 100 11:18 11.03.2020
1190 Clear 25 1017 53 7000 4.1 100 10:42 11.03.2020
1191 Clear 25 1018 64 7000 3.6 90 10:18 11.03.2020
1192 Clear 24 1018 64 7000 3.1 80 09:43 11.03.2020
1193 Clear 24 1018 60 7000 3.1 100 09:25 11.03.2020
1194 Clear 23 1019 60 7000 3.1 90 08:58 11.03.2020
1195 Clear 23 1019 60 7000 3.1 90 08:39 11.03.2020
1196 Clear 23 1019 53 8000 1.5 0 08:18 11.03.2020
1197 Clear 22 1019 47 7000 1 0 07:42 11.03.2020
1198 Clear 21 1019 60 6000 1.5 0 07:19 11.03.2020
1199 Clear 19 1018 73 6000 1 0 06:43 11.03.2020
1200 Mist 16 1018 88 5000 1 0 05:36 11.03.2020
1201 Fog 16 1017 87 100 1.12 31 04:31 11.03.2020
1202 Clear 16 1016 88 6000 1.5 170 02:24 11.03.2020
1203 Clear 17 1016 88 6000 1 190 01:27 11.03.2020
1204 Mist 17 1017 100 1600 1.29 230 00:46 11.03.2020
1205 Mist 19 1017 93 4000 1.29 230 23:58 10.03.2020
1206 Clear 18 1016 82 6000 2.1 240 23:40 10.03.2020
1207 Clear 19 1016 82 6000 2.1 240 23:21 10.03.2020
1208 Clear 19 1017 77 7000 1.5 230 22:39 10.03.2020
1209 Clear 19 1017 77 7000 1.5 230 22:20 10.03.2020
1210 Clear 19 1017 77 8000 1 190 21:57 10.03.2020
1211 Clear 19 1017 77 8000 1 190 21:38 10.03.2020
1212 Clear 19 1017 77 8000 1 190 21:20 10.03.2020
1213 Clear 20 1017 77 8000 1.5 110 20:59 10.03.2020
1214 Clear 20 1017 77 8000 1.5 110 20:41 10.03.2020
1215 Clear 20 1017 77 8000 1.5 110 20:18 10.03.2020
1216 Clear 21 1017 77 9000 2.1 90 19:56 10.03.2020
1217 Clear 21 1017 77 9000 2.1 90 19:37 10.03.2020
1218 Clear 21 1017 77 9000 2.1 90 19:19 10.03.2020
1219 Clear 21 1016 73 9000 2.1 100 18:44 10.03.2020
1220 Clear 21 1016 73 9000 2.1 100 18:26 10.03.2020
1221 Clear 21 1016 73 10000 2.6 100 17:57 10.03.2020
1222 Clear 21 1016 73 10000 2.6 100 17:39 10.03.2020
1223 Clear 21 1016 73 10000 2.6 100 17:39 10.03.2020
1224 Clear 21 1016 73 10000 2.6 100 17:21 10.03.2020
1225 Clear 22 1015 73 10000 3.1 90 16:39 10.03.2020
1226 Clear 22 1015 73 10000 3.1 90 16:19 10.03.2020
1227 Clear 23 1015 68 10000 3.6 90 15:56 10.03.2020
1228 Clear 23 1015 68 10000 3.6 90 15:37 10.03.2020
1229 Clear 23 1015 68 10000 3.6 90 15:19 10.03.2020
1230 Clear 24 1015 68 10000 5.1 70 14:41 10.03.2020
1231 Clear 24 1015 68 10000 5.1 70 14:20 10.03.2020
1232 Clear 25 1015 64 10000 5.1 60 13:58 10.03.2020
1233 Clear 25 1015 64 10000 5.1 60 13:38 10.03.2020
1234 Clear 25 1015 64 10000 5.1 60 13:20 10.03.2020
1235 Clear 26 1015 60 10000 4.6 60 12:42 10.03.2020
1236 Clear 26 1015 60 10000 4.6 60 12:19 10.03.2020
1237 Clear 26 1015 56 10000 6.7 50 11:58 10.03.2020
1238 Clear 26 1015 56 10000 6.7 50 11:40 10.03.2020
1239 Clear 26 1015 56 10000 6.7 50 11:40 10.03.2020
1240 Clear 26 1015 56 10000 6.7 50 11:22 10.03.2020
1241 Clear 26 1016 41 10000 6.7 50 10:42 10.03.2020
1242 Clear 26 1016 41 10000 6.7 50 10:23 10.03.2020
1243 Clear 26 1017 36 10000 5.1 10 09:57 10.03.2020
1244 Clear 26 1017 36 10000 5.1 10 09:39 10.03.2020
1245 Clear 26 1017 36 10000 5.1 10 09:19 10.03.2020
1246 Clear 25 1017 31 10000 4.1 340 08:51 10.03.2020
1247 Clear 25 1017 31 10000 4.1 340 08:32 10.03.2020
1248 Clear 23 1017 35 10000 4.6 330 07:50 10.03.2020
1249 Clear 23 1017 35 10000 4.6 330 07:31 10.03.2020
1250 Clear 20 1017 52 10000 4.6 320 06:47 10.03.2020
1251 Clear 20 1017 52 10000 4.6 320 06:28 10.03.2020
1252 Clear 19 1016 59 10000 3.1 280 05:41 10.03.2020
1253 Clear 18 1016 59 9000 3.1 280 04:48 10.03.2020
1254 Clear 18 1016 59 9000 3.1 280 04:48 10.03.2020
1255 Mist 17 1017 77 5000 2.1 300 03:55 10.03.2020
1256 Clear 17 1014 63 10000 2.1 290 02:27 10.03.2020
1257 Clear 17 1014 59 10000 3.6 320 01:25 10.03.2020
1258 Clear 17 1014 63 10000 4.1 320 00:42 10.03.2020
1259 Clear 18 1014 63 10000 4.1 320 00:23 10.03.2020
1260 Clear 18 1014 56 10000 3.1 310 23:41 09.03.2020
1261 Clear 18 1014 56 10000 3.1 310 23:21 09.03.2020
1262 Clear 19 1014 60 10000 2.6 300 22:43 09.03.2020
1263 Clear 19 1015 60 10000 3.1 310 22:22 09.03.2020
1264 Clear 19 1015 60 10000 3.1 310 22:22 09.03.2020
1265 Clear 19 1015 60 10000 3.1 310 21:59 09.03.2020
1266 Clear 19 1015 60 10000 3.1 310 21:40 09.03.2020
1267 Clear 19 1015 64 10000 2.6 310 21:21 09.03.2020
1268 Clear 19 1015 64 10000 2.6 320 20:56 09.03.2020
1269 Clear 19 1015 64 10000 2.6 320 20:38 09.03.2020
1270 Clear 19 1015 64 10000 3.6 310 20:20 09.03.2020
1271 Clear 20 1015 56 10000 3.6 310 19:45 09.03.2020
1272 Clear 20 1015 56 10000 4.1 310 19:25 09.03.2020
1273 Clear 20 1015 56 10000 3.1 300 18:58 09.03.2020
1274 Clear 21 1014 49 10000 3.1 310 18:38 09.03.2020
1275 Clear 21 1014 49 10000 3.1 310 18:20 09.03.2020
1276 Clear 21 1014 49 10000 3.6 320 17:57 09.03.2020
1277 Clear 21 1014 46 10000 4.6 330 17:38 09.03.2020
1278 Clear 21 1014 46 10000 4.6 330 17:38 09.03.2020
1279 Clear 21 1014 46 10000 4.6 330 17:20 09.03.2020
1280 Clear 23 1014 40 10000 4.6 330 16:58 09.03.2020
1281 Clear 23 1014 40 10000 4.6 330 16:39 09.03.2020
1282 Clear 24 1013 36 8000 4.6 300 16:21 09.03.2020
1283 Clear 24 1013 36 8000 4.6 300 16:21 09.03.2020
1284 Clear 24 1013 36 8000 4.6 300 15:58 09.03.2020
1285 Clear 24 1012 29 8000 4.6 320 15:38 09.03.2020
1286 Clear 24 1012 29 8000 4.6 320 15:20 09.03.2020
1287 Clear 24 1012 31 8000 4.1 350 14:55 09.03.2020
1288 Clear 24 1012 50 9000 4.6 10 14:36 09.03.2020
1289 Clear 24 1012 50 9000 4.6 10 14:18 09.03.2020
1290 Clear 25 1012 50 8000 4.6 10 13:54 09.03.2020
1291 Clear 25 1012 50 7000 4.6 10 13:36 09.03.2020
1292 Clear 25 1012 50 7000 4.6 10 13:18 09.03.2020
1293 Clear 25 1012 47 6000 5.7 10 12:41 09.03.2020
1294 Clear 24 1012 47 6000 5.7 10 12:21 09.03.2020
1295 Clear 24 1012 47 6000 5.7 10 12:21 09.03.2020
1296 Clouds 25 1013 53 6000 5.1 20 11:41 09.03.2020
1297 Clouds 25 1013 53 6000 5.1 20 11:21 09.03.2020
1298 Clouds 25 1013 44 6000 4.6 20 10:58 09.03.2020
1299 Clouds 24 1013 44 6000 4.6 20 10:40 09.03.2020
1300 Clouds 25 1014 44 7000 5.7 10 10:20 09.03.2020
1301 Clouds 25 1014 44 7000 6.2 10 09:44 09.03.2020
1302 Clear 24 1014 44 7000 5.7 360 09:24 09.03.2020
1303 Clear 23 1015 41 7000 5.7 350 08:59 09.03.2020
1304 Clear 23 1015 41 6000 5.7 350 08:41 09.03.2020
1305 Clear 23 1015 41 6000 5.7 350 08:23 09.03.2020
1306 Dust 22 1015 46 5000 5.1 340 07:41 09.03.2020
1307 Dust 22 1015 46 5000 5.1 330 07:21 09.03.2020
1308 Clear 21 1015 60 8000 4.1 310 06:43 09.03.2020
1309 Clear 21 1015 60 8000 4.1 310 06:24 09.03.2020
1310 Clear 20 1014 56 10000 3.6 300 05:47 09.03.2020
1311 Clear 19 1014 56 10000 3.6 300 05:20 09.03.2020
1312 Clear 18 1014 59 9000 2.6 280 04:40 09.03.2020
1313 Clear 18 1013 55 7000 2.6 270 04:21 09.03.2020
1314 Clear 19 1012 45 7000 2.1 250 02:58 09.03.2020
1315 Clear 19 1012 68 7000 2.1 230 01:26 09.03.2020
1316 Clear 19 1012 68 7000 2.1 230 01:26 09.03.2020
1317 Clear 20 1012 60 7000 1.5 230 00:38 09.03.2020
1318 Clear 20 1012 60 7000 1.5 230 00:20 09.03.2020
1319 Clear 20 1012 60 7000 1.5 220 23:47 08.03.2020
1320 Clear 20 1012 60 7000 1 0 23:22 08.03.2020
1321 Clear 20 1012 56 7000 1 0 22:56 08.03.2020
1322 Clear 20 1013 52 7000 1 0 22:38 08.03.2020
1323 Clear 20 1013 52 7000 1 0 22:18 08.03.2020
1324 Clear 20 1013 64 7000 1 0 21:54 08.03.2020
1325 Clear 20 1013 68 7000 1.5 340 21:36 08.03.2020
1326 Clear 20 1013 68 7000 1.5 340 21:18 08.03.2020
1327 Clear 21 1013 68 8000 1 0 20:39 08.03.2020
1328 Clear 21 1013 68 8000 1 0 20:21 08.03.2020
1329 Clear 21 1013 68 8000 1 0 19:54 08.03.2020
1330 Clear 21 1013 73 8000 2.1 30 19:36 08.03.2020
1331 Dust 21 1013 46 9000 2.6 110 19:18 08.03.2020
1332 Clear 21 1013 64 8000 3.1 10 18:40 08.03.2020
1333 Clear 22 1013 53 8000 3.6 10 18:22 08.03.2020
1334 Clear 22 1012 49 8000 3.1 360 17:56 08.03.2020
1335 Clear 22 1012 49 8000 3.1 360 17:37 08.03.2020
1336 Clear 23 1012 49 8000 3.1 360 17:18 08.03.2020
1337 Clear 23 1012 49 8000 3.1 360 16:43 08.03.2020
1338 Dust 23 1013 29 6000 3.1 30 16:25 08.03.2020
1339 Clear 24 1012 31 8000 4.6 20 15:56 08.03.2020
1340 Clear 24 1012 31 8000 4.6 20 15:37 08.03.2020
1341 Dust 25 1013 27 8000 3.1 20 15:19 08.03.2020
1342 Clear 25 1012 29 9000 5.1 20 14:40 08.03.2020
1343 Dust 26 1012 17 6000 5.1 310 14:21 08.03.2020
1344 Dust 26 1012 17 6000 5.1 310 14:21 08.03.2020
1345 Clear 26 1012 31 9000 4.6 20 13:57 08.03.2020
1346 Clear 26 1012 31 9000 4.6 20 13:38 08.03.2020
1347 Clear 26 1012 41 10000 5.7 10 13:19 08.03.2020
1348 Clear 27 1012 26 10000 5.7 10 12:39 08.03.2020
1349 Clear 27 1012 26 10000 4.6 10 12:20 08.03.2020
1350 Clear 28 1012 24 10000 4.6 10 11:44 08.03.2020
1351 Clear 27 1013 44 10000 4.6 40 11:25 08.03.2020
1352 Clear 26 1013 44 10000 4.6 40 10:59 08.03.2020
1353 Clear 26 1013 44 10000 4.6 40 10:41 08.03.2020
1354 Clear 27 1014 24 10000 4.1 330 10:22 08.03.2020
1355 Clear 26 1014 36 10000 1.5 0 09:40 08.03.2020
1356 Clear 26 1014 36 10000 1.5 0 09:22 08.03.2020
1357 Clear 25 1015 39 10000 2.1 0 08:50 08.03.2020
1358 Clear 25 1016 38 10000 2.1 270 08:28 08.03.2020
1359 Clear 24 1015 44 10000 1 0 07:56 08.03.2020
1360 Clear 24 1015 44 10000 1 0 07:37 08.03.2020
1361 Clear 23 1015 50 10000 1.5 320 07:18 08.03.2020
1362 Clear 20 1015 60 10000 2.1 360 06:40 08.03.2020
1363 Clear 20 1015 60 10000 2.1 360 06:22 08.03.2020
1364 Clear 17 1014 72 9000 2.1 320 05:19 08.03.2020
1365 Clear 18 1013 68 10000 3.1 300 03:51 08.03.2020
1366 Clear 18 1012 77 10000 3.1 290 02:28 08.03.2020
1367 Mist 19 1013 87 8000 1.45 170 01:23 08.03.2020
1368 Clear 19 1012 82 10000 1 120 00:44 08.03.2020
1369 Clear 20 1012 82 10000 1 90 00:25 08.03.2020
1370 Clear 19 1012 82 10000 1 90 23:44 07.03.2020
1371 Clear 20 1012 82 10000 1.5 140 23:23 07.03.2020
1372 Clear 20 1013 82 10000 3.1 110 22:40 07.03.2020
1373 Clear 20 1013 82 10000 3.1 110 22:21 07.03.2020
1374 Clear 20 1013 82 10000 4.1 120 21:49 07.03.2020
1375 Clear 20 1014 77 10000 3.1 100 21:26 07.03.2020
1376 Clear 20 1013 72 10000 2.1 100 20:42 07.03.2020
1377 Clear 20 1013 72 10000 2.1 100 20:42 07.03.2020
1378 Clear 20 1013 72 10000 2.1 100 20:24 07.03.2020
1379 Clear 21 1014 68 10000 3.1 90 19:59 07.03.2020
1380 Clear 21 1014 68 10000 3.1 90 19:41 07.03.2020
1381 Clear 21 1014 68 10000 3.1 90 19:21 07.03.2020
1382 Clear 21 1014 68 10000 3.1 100 18:44 07.03.2020
1383 Clear 21 1014 68 10000 3.6 90 18:25 07.03.2020
1384 Clear 22 1013 64 10000 2.6 90 17:57 07.03.2020
1385 Clear 22 1013 60 10000 3.1 80 17:39 07.03.2020
1386 Clear 22 1013 60 10000 3.1 80 17:18 07.03.2020
1387 Clear 22 1013 60 10000 4.1 80 16:43 07.03.2020
1388 Clear 22 1013 60 10000 4.1 80 16:23 07.03.2020
1389 Clear 23 1013 56 10000 5.1 100 15:58 07.03.2020
1390 Clear 23 1012 49 10000 5.1 100 15:40 07.03.2020
1391 Clear 24 1012 49 10000 5.1 100 15:21 07.03.2020
1392 Clear 24 1012 53 10000 4.6 100 14:58 07.03.2020
1393 Clear 25 1012 44 10000 4.6 110 14:39 07.03.2020
1394 Clear 25 1012 44 10000 4.6 110 14:21 07.03.2020
1395 Clear 26 1012 41 10000 5.7 110 13:40 07.03.2020
1396 Clear 26 1012 41 10000 5.7 110 13:21 07.03.2020
1397 Clear 27 1012 29 10000 6.2 120 12:45 07.03.2020
1398 Clear 26 1013 31 10000 6.2 120 12:23 07.03.2020
1399 Clear 26 1013 31 10000 6.7 120 11:59 07.03.2020
1400 Clear 26 1013 31 10000 6.7 120 11:40 07.03.2020
1401 Clear 27 1013 31 10000 7.2 110 11:22 07.03.2020
1402 Clear 26 1014 29 10000 6.7 110 10:44 07.03.2020
1403 Clear 26 1014 31 10000 6.2 110 10:22 07.03.2020
1404 Clear 25 1014 44 10000 3.6 120 09:59 07.03.2020
1405 Clear 25 1015 27 10000 3.6 160 09:40 07.03.2020
1406 Clear 25 1015 27 10000 3.6 160 09:19 07.03.2020
1407 Clear 25 1015 31 10000 3.1 170 08:44 07.03.2020
1408 Clear 25 1015 31 10000 3.1 170 08:44 07.03.2020
1409 Clear 24 1015 41 10000 3.6 170 08:25 07.03.2020
1410 Clear 22 1015 41 10000 4.6 140 07:59 07.03.2020
1411 Clear 22 1015 41 10000 4.6 140 07:41 07.03.2020
1412 Clear 22 1016 44 0 5.6 158 07:20 07.03.2020
1413 Clear 22 1016 44 0 5.6 158 06:38 07.03.2020
1414 Mist 21 1014 93 5000 1 140 05:57 07.03.2020
1415 Mist 18 1014 93 5000 1 140 05:35 07.03.2020
1416 Clear 18 1014 82 0 1.34 157 03:35 07.03.2020
1417 Clear 18 1013 93 6000 4.33 144 02:42 07.03.2020
1418 Clear 17 1013 93 6000 2.55 142 01:51 07.03.2020
1419 Clear 17 1013 88 9000 0.5 0 00:43 07.03.2020
1420 Clear 17 1013 88 10000 1 340 00:23 07.03.2020
1421 Clear 18 1013 88 10000 0.5 330 23:56 06.03.2020
1422 Clear 18 1013 88 10000 1 60 23:38 06.03.2020
1423 Clear 18 1013 88 10000 1 60 23:20 06.03.2020
1424 Clear 18 1014 82 10000 1 50 22:42 06.03.2020
1425 Clear 18 1014 82 10000 1 50 22:19 06.03.2020
1426 Clear 18 1014 82 10000 0.5 0 21:46 06.03.2020
1427 Clear 19 1014 77 10000 1 0 21:20 06.03.2020
1428 Clear 19 1015 72 10000 1 360 20:43 06.03.2020
1429 Clear 19 1015 77 10000 1.5 350 20:21 06.03.2020
1430 Clear 19 1014 77 10000 1.5 120 19:55 06.03.2020
1431 Clear 20 1014 72 10000 2.1 110 19:36 06.03.2020
1432 Clear 20 1014 72 10000 2.1 110 19:18 06.03.2020
1433 Clear 20 1014 72 10000 2.1 100 18:42 06.03.2020
1434 Clear 20 1014 72 10000 2.1 90 18:20 06.03.2020
1435 Clear 21 1014 72 10000 2.1 120 17:56 06.03.2020
1436 Clear 21 1014 68 10000 2.6 110 17:38 06.03.2020
1437 Clear 22 1013 64 10000 3.1 130 17:20 06.03.2020
1438 Clear 22 1013 64 10000 3.1 130 16:43 06.03.2020
1439 Clear 22 1013 64 10000 3.1 130 16:22 06.03.2020
1440 Clear 24 1013 60 10000 3.1 110 15:59 06.03.2020
1441 Clear 24 1013 60 10000 3.1 110 15:40 06.03.2020
1442 Clear 24 1013 46 10000 4.1 110 15:21 06.03.2020
1443 Clear 24 1013 46 10000 3.6 110 14:40 06.03.2020
1444 Clear 25 1013 41 10000 3.6 110 14:21 06.03.2020
1445 Clear 25 1013 33 10000 3.6 110 13:44 06.03.2020
1446 Clear 25 1013 31 10000 3.6 110 13:23 06.03.2020
1447 Clear 26 1013 29 10000 3.6 100 12:59 06.03.2020
1448 Clear 26 1013 29 10000 3.6 100 12:40 06.03.2020
1449 Clear 25 1014 36 10000 3.6 100 12:20 06.03.2020
1450 Clear 25 1014 47 10000 4.1 90 11:59 06.03.2020
1451 Clear 26 1015 27 10000 3.6 70 11:40 06.03.2020
1452 Clear 26 1015 27 10000 3.6 70 11:20 06.03.2020
1453 Clear 25 1016 31 10000 1.5 0 10:42 06.03.2020
1454 Clear 25 1016 31 10000 1.5 0 10:21 06.03.2020
1455 Clear 24 1016 31 10000 1.5 60 09:58 06.03.2020
1456 Clear 23 1016 36 10000 1.5 10 09:39 06.03.2020
1457 Clear 23 1016 36 10000 1.5 10 09:21 06.03.2020
1458 Clear 22 1017 38 10000 1.5 0 08:46 06.03.2020
1459 Clear 21 1017 43 10000 1.5 20 08:27 06.03.2020
1460 Clear 20 1017 52 10000 1.5 40 07:59 06.03.2020
1461 Clear 19 1017 56 10000 1.5 360 07:39 06.03.2020
1462 Clear 19 1017 56 10000 1.5 360 07:20 06.03.2020
1463 Clear 18 1017 60 10000 3.1 340 06:41 06.03.2020
1464 Clear 16 1016 68 6000 3.6 300 05:52 06.03.2020
1465 Clear 16 1016 72 6000 1 0 05:31 06.03.2020
1466 Clear 15 1015 82 6000 1 0 04:59 06.03.2020
1467 Clear 15 1015 82 8000 2.1 250 03:46 06.03.2020
1468 Clear 15 1014 82 9000 1.5 320 01:42 06.03.2020
1469 Clear 15 1014 82 9000 1.5 320 01:24 06.03.2020
1470 Clear 16 1014 82 10000 2.6 330 00:47 06.03.2020
1471 Clear 16 1014 82 10000 2.6 330 00:20 06.03.2020
1472 Clear 17 1014 82 10000 2.6 330 23:43 05.03.2020
1473 Clear 17 1014 82 10000 2.6 330 23:23 05.03.2020
1474 Clear 17 1015 77 10000 4.1 340 22:41 05.03.2020
1475 Clear 17 1015 77 10000 4.1 340 22:23 05.03.2020
1476 Clear 18 1015 77 10000 5.1 340 21:58 05.03.2020
1477 Clear 18 1015 77 10000 4.1 330 21:39 05.03.2020
1478 Clear 18 1015 77 10000 4.1 330 21:21 05.03.2020
1479 Clear 19 1015 72 10000 5.1 330 20:59 05.03.2020
1480 Clear 19 1015 72 10000 5.1 330 20:41 05.03.2020
1481 Clear 19 1016 68 10000 5.1 330 20:20 05.03.2020
1482 Clear 19 1016 63 10000 5.1 330 19:58 05.03.2020
1483 Clear 19 1016 60 10000 3.6 330 19:39 05.03.2020
1484 Clear 19 1016 60 10000 3.6 330 19:20 05.03.2020
1485 Clear 20 1016 56 10000 5.1 340 18:58 05.03.2020
1486 Clear 20 1016 52 10000 4.6 330 18:37 05.03.2020
1487 Clear 20 1016 52 10000 4.6 330 18:18 05.03.2020
1488 Clear 20 1016 49 10000 5.1 330 17:55 05.03.2020
1489 Clear 21 1015 49 10000 6.2 330 17:36 05.03.2020
1490 Clear 21 1015 49 10000 6.2 330 17:36 05.03.2020
1491 Clear 21 1015 49 10000 6.2 330 17:18 05.03.2020
1492 Clear 22 1015 43 10000 5.7 330 16:41 05.03.2020
1493 Clear 22 1015 43 10000 5.1 320 16:22 05.03.2020
1494 Clear 23 1014 41 10000 5.1 310 15:46 05.03.2020
1495 Clear 23 1014 41 10000 4.1 310 15:24 05.03.2020
1496 Clear 23 1014 53 10000 5.7 10 14:59 05.03.2020
1497 Clear 24 1014 53 10000 5.1 10 14:41 05.03.2020
1498 Clear 24 1014 53 10000 5.1 10 14:22 05.03.2020
1499 Clear 24 1013 50 10000 5.7 10 13:57 05.03.2020
1500 Clear 24 1014 47 10000 5.7 10 13:39 05.03.2020
1501 Clear 24 1014 47 10000 5.7 10 13:20 05.03.2020
1502 Clear 24 1014 38 10000 5.7 10 12:43 05.03.2020
1503 Clear 24 1014 38 10000 6.2 20 12:21 05.03.2020
1504 Clear 25 1014 39 10000 6.2 10 11:58 05.03.2020
1505 Clear 25 1014 36 10000 6.7 10 11:39 05.03.2020
1506 Clear 25 1014 36 10000 6.7 10 11:20 05.03.2020
1507 Clear 24 1015 38 10000 5.7 360 10:58 05.03.2020
1508 Clear 24 1015 38 10000 5.7 360 10:40 05.03.2020
1509 Clear 24 1015 36 10000 5.1 320 10:21 05.03.2020
1510 Clear 24 1016 36 10000 4.6 320 09:59 05.03.2020
1511 Clear 24 1016 36 10000 4.1 320 09:40 05.03.2020
1512 Clear 24 1016 36 10000 4.1 320 09:21 05.03.2020
1513 Clear 23 1016 38 10000 4.6 320 08:43 05.03.2020
1514 Clear 23 1016 40 10000 4.6 330 08:24 05.03.2020
1515 Clear 21 1017 43 10000 4.6 310 07:45 05.03.2020
1516 Clear 21 1017 46 10000 4.1 300 07:22 05.03.2020
1517 Clear 20 1017 49 10000 4.1 310 06:45 05.03.2020
1518 Clear 20 1017 49 10000 4.1 310 06:45 05.03.2020
1519 Clear 19 1016 52 10000 2.1 270 06:21 05.03.2020
1520 Clear 16 1016 63 10000 2.1 260 05:38 05.03.2020
1521 Clear 15 1015 63 10000 1.5 250 04:25 05.03.2020
1522 Clear 15 1015 63 10000 3.1 280 03:59 05.03.2020
1523 Clear 16 1015 59 10000 3.1 300 03:18 05.03.2020
1524 Clear 16 1014 63 10000 3.1 310 01:28 05.03.2020
1525 Clear 16 1014 63 10000 2.6 290 00:58 05.03.2020
1526 Clear 17 1014 63 10000 1.5 270 23:59 04.03.2020
1527 Clear 17 1014 55 10000 3.6 290 23:40 04.03.2020
1528 Clear 17 1014 55 10000 3.6 290 23:22 04.03.2020
1529 Clear 18 1015 55 10000 4.1 300 22:56 04.03.2020
1530 Clear 18 1015 59 10000 4.6 310 22:37 04.03.2020
1531 Clear 18 1015 59 10000 4.6 310 22:19 04.03.2020
1532 Clear 18 1015 55 10000 4.6 310 21:56 04.03.2020
1533 Clear 18 1015 59 10000 4.6 310 21:37 04.03.2020
1534 Clear 18 1015 59 10000 4.6 310 21:18 04.03.2020
1535 Clear 19 1015 52 10000 4.1 320 20:40 04.03.2020
1536 Clear 19 1015 52 10000 4.1 320 20:22 04.03.2020
1537 Clear 19 1016 52 10000 3.6 320 19:58 04.03.2020
1538 Clear 19 1016 52 10000 3.6 320 19:58 04.03.2020
1539 Clear 19 1016 52 10000 3.6 320 19:39 04.03.2020
1540 Clear 18 1016 52 10000 3.6 320 19:21 04.03.2020
1541 Clear 19 1015 48 10000 4.6 320 18:42 04.03.2020
1542 Clear 19 1015 48 10000 4.6 320 18:42 04.03.2020
1543 Clear 19 1015 48 10000 5.7 320 18:24 04.03.2020
1544 Clear 20 1015 45 10000 4.1 320 17:59 04.03.2020
1545 Clear 20 1015 42 10000 5.1 320 17:39 04.03.2020
1546 Clear 20 1015 42 10000 5.1 320 17:20 04.03.2020
1547 Clear 20 1015 42 10000 5.7 320 16:56 04.03.2020
1548 Clear 21 1015 40 10000 6.2 310 16:37 04.03.2020
1549 Clear 21 1015 40 10000 6.2 310 16:19 04.03.2020
1550 Clear 22 1015 40 10000 5.1 320 15:44 04.03.2020
1551 Clear 23 1014 38 10000 6.2 320 15:26 04.03.2020
1552 Clear 23 1014 35 10000 6.2 310 14:59 04.03.2020
1553 Clear 24 1014 31 10000 7.2 310 14:40 04.03.2020
1554 Clear 23 1014 31 10000 7.2 310 14:20 04.03.2020
1555 Clear 24 1014 33 10000 6.7 310 13:58 04.03.2020
1556 Clear 24 1014 29 10000 8.2 310 13:39 04.03.2020
1557 Clear 24 1014 29 10000 8.2 310 13:20 04.03.2020
1558 Clear 24 1014 31 10000 8.2 310 12:55 04.03.2020
1559 Clear 24 1014 31 10000 8.2 310 12:37 04.03.2020
1560 Clear 24 1014 31 10000 8.2 310 12:19 04.03.2020
1561 Clear 24 1015 31 10000 7.2 310 11:42 04.03.2020
1562 Clear 24 1015 31 10000 7.2 310 11:42 04.03.2020
1563 Clear 24 1015 31 10000 7.2 310 11:42 04.03.2020
1564 Clear 24 1015 31 10000 7.2 310 11:23 04.03.2020
1565 Clear 24 1015 33 10000 8.2 310 10:58 04.03.2020
1566 Clear 24 1016 33 10000 7.7 310 10:40 04.03.2020
1567 Clear 24 1016 33 10000 7.7 310 10:21 04.03.2020
1568 Clear 24 1017 36 10000 7.7 320 09:43 04.03.2020
1569 Clear 23 1017 36 10000 7.7 320 09:21 04.03.2020
1570 Clear 22 1017 38 10000 8.7 330 08:49 04.03.2020
1571 Clear 22 1017 40 10000 6.2 310 08:28 04.03.2020
1572 Clear 21 1018 46 10000 6.2 320 07:57 04.03.2020
1573 Clear 20 1018 52 10000 5.1 310 07:39 04.03.2020
1574 Clear 20 1018 52 10000 5.1 310 07:20 04.03.2020
1575 Clear 20 1018 52 10000 3.6 310 06:44 04.03.2020
1576 Clear 19 1018 56 10000 4.1 300 06:23 04.03.2020
1577 Clear 17 1017 59 10000 4.6 300 05:50 04.03.2020
1578 Clear 16 1017 63 10000 3.6 300 04:34 04.03.2020
1579 Clear 16 1017 63 10000 3.6 300 03:44 04.03.2020
1580 Clear 16 1016 59 10000 5.1 310 03:25 04.03.2020
1581 Clear 16 1016 55 10000 4.6 310 02:55 04.03.2020
1582 Clear 16 1016 55 10000 5.1 310 02:21 04.03.2020
1583 Clear 17 1015 52 10000 5.1 310 01:55 04.03.2020
1584 Clear 17 1015 52 10000 4.6 310 00:52 04.03.2020
1585 Clear 16 1015 59 10000 5.1 310 00:27 04.03.2020
1586 Clear 17 1016 52 10000 5.1 310 23:48 03.03.2020
1587 Clear 17 1016 52 10000 5.1 320 23:28 03.03.2020
1588 Clear 17 1016 52 10000 5.1 310 22:59 03.03.2020
1589 Clear 17 1016 52 10000 5.1 310 22:40 03.03.2020
1590 Clear 17 1016 52 10000 5.1 310 22:20 03.03.2020
1591 Clear 18 1017 48 10000 5.7 310 21:58 03.03.2020
1592 Clear 18 1017 48 10000 5.1 310 21:39 03.03.2020
1593 Clear 18 1017 48 10000 5.1 310 21:20 03.03.2020
1594 Clear 18 1017 45 10000 5.7 320 20:55 03.03.2020
1595 Clear 18 1017 45 10000 6.2 320 20:36 03.03.2020
1596 Clear 18 1017 45 10000 6.2 320 20:18 03.03.2020
1597 Clear 18 1017 45 10000 6.2 320 19:54 03.03.2020
1598 Clear 18 1017 45 10000 6.7 310 19:36 03.03.2020
1599 Clear 18 1017 45 10000 6.7 310 19:18 03.03.2020
1600 Clear 18 1018 45 10000 5.7 320 18:42 03.03.2020
1601 Clear 18 1017 45 10000 6.7 320 18:22 03.03.2020
1602 Clear 19 1017 48 10000 6.2 320 18:00 03.03.2020
1603 Clear 19 1017 48 10000 6.2 320 18:00 03.03.2020
1604 Clear 19 1017 48 10000 6.2 320 17:40 03.03.2020
1605 Clear 19 1017 48 10000 7.2 320 17:21 03.03.2020
1606 Clear 20 1017 49 10000 6.7 310 16:58 03.03.2020
1607 Clear 20 1017 49 10000 6.7 310 16:38 03.03.2020
1608 Clear 20 1017 49 10000 6.7 310 16:19 03.03.2020
1609 Clear 21 1017 43 10000 6.2 320 15:57 03.03.2020
1610 Clear 21 1017 37 10000 6.7 320 15:38 03.03.2020
1611 Clear 21 1017 37 10000 6.7 320 15:18 03.03.2020
1612 Clear 23 1016 33 10000 7.2 310 14:41 03.03.2020
1613 Clear 23 1016 33 10000 7.2 310 14:19 03.03.2020
1614 Clear 23 1016 33 10000 7.2 310 14:19 03.03.2020
1615 Clear 24 1016 33 10000 7.7 310 13:57 03.03.2020
1616 Clear 24 1016 33 10000 7.7 320 13:39 03.03.2020
1617 Clear 24 1016 33 10000 7.7 320 13:19 03.03.2020
1618 Clear 25 1016 29 10000 7.2 320 12:46 03.03.2020
1619 Clear 24 1016 27 10000 7.7 320 12:25 03.03.2020
1620 Clear 24 1016 27 10000 7.2 310 11:57 03.03.2020
1621 Clear 24 1017 23 10000 7.2 320 11:37 03.03.2020
1622 Clear 24 1017 23 10000 7.2 320 11:18 03.03.2020
1623 Clear 25 1017 27 10000 8.2 320 10:55 03.03.2020
1624 Clear 25 1018 31 10000 7.7 330 10:37 03.03.2020
1625 Clear 25 1018 31 10000 7.7 330 10:18 03.03.2020
1626 Clear 24 1018 38 10000 8.2 330 09:43 03.03.2020
1627 Clear 24 1018 36 10000 6.7 320 09:43 03.03.2020
1628 Clear 24 1018 38 10000 8.2 330 09:22 03.03.2020
1629 Clear 23 1019 38 10000 7.2 320 08:56 03.03.2020
1630 Clear 22 1019 40 10000 9.3 330 08:37 03.03.2020
1631 Clear 22 1019 40 10000 9.3 330 08:19 03.03.2020
1632 Clear 21 1019 40 10000 6.2 320 07:42 03.03.2020
1633 Clear 21 1019 40 10000 6.2 320 07:19 03.03.2020
1634 Clear 20 1019 49 10000 6.2 320 06:41 03.03.2020
1635 Clear 20 1019 49 10000 6.2 320 06:22 03.03.2020
1636 Clear 20 1019 49 10000 6.2 320 06:22 03.03.2020
1637 Clear 18 1019 49 10000 5.1 320 05:46 03.03.2020
1638 Clear 17 1018 55 10000 4.6 320 04:57 03.03.2020
1639 Clear 17 1017 55 10000 5.1 310 03:32 03.03.2020
1640 Clear 17 1016 59 10000 5.1 320 01:40 03.03.2020
1641 Clear 17 1016 63 10000 5.1 310 00:48 03.03.2020
1642 Clear 17 1016 63 10000 5.1 310 00:26 03.03.2020
1643 Clear 17 1016 68 10000 5.7 310 23:51 02.03.2020
1644 Clear 17 1016 68 10000 5.1 320 23:23 02.03.2020
1645 Clear 18 1016 68 10000 4.6 320 22:58 02.03.2020
1646 Clear 18 1016 68 10000 4.6 320 22:39 02.03.2020
1647 Clear 18 1016 68 10000 4.6 320 22:20 02.03.2020
1648 Clear 18 1017 68 10000 5.7 330 21:59 02.03.2020
1649 Clear 18 1017 68 10000 5.1 320 21:39 02.03.2020
1650 Clear 18 1017 68 10000 5.1 320 21:21 02.03.2020
1651 Clear 18 1017 68 10000 5.1 320 20:58 02.03.2020
1652 Clear 18 1017 68 10000 5.1 320 20:38 02.03.2020
1653 Clear 18 1017 68 10000 5.1 320 20:20 02.03.2020
1654 Clear 18 1017 68 10000 5.1 320 20:20 02.03.2020
1655 Clear 19 1017 63 10000 5.1 320 19:55 02.03.2020
1656 Clear 19 1017 63 10000 5.7 330 19:37 02.03.2020
1657 Clear 19 1017 63 10000 5.7 330 19:18 02.03.2020
1658 Clear 19 1017 63 10000 5.7 330 19:18 02.03.2020
1659 Clear 19 1017 64 10000 5.1 320 18:44 02.03.2020
1660 Clear 19 1017 60 10000 5.1 330 18:20 02.03.2020
1661 Clear 20 1016 64 10000 5.7 320 17:59 02.03.2020
1662 Clear 20 1016 64 10000 5.7 320 17:40 02.03.2020
1663 Clear 20 1016 56 9000 6.7 340 17:21 02.03.2020
1664 Clear 21 1015 56 8000 7.2 330 16:55 02.03.2020
1665 Clear 22 1015 53 6000 7.2 340 16:36 02.03.2020
1666 Clear 22 1015 53 6000 7.2 340 16:18 02.03.2020
1667 Dust 23 1015 56 3000 8.7 350 15:43 02.03.2020
1668 Dust 23 1015 56 3000 8.7 350 15:20 02.03.2020
1669 Dust 23 1015 64 2800 7.7 360 14:42 02.03.2020
1670 Dust 24 1014 64 2800 8.2 360 14:20 02.03.2020
1671 Dust 24 1014 69 5000 8.2 360 13:59 02.03.2020
1672 Clear 24 1014 69 6000 8.2 10 13:39 02.03.2020
1673 Clear 24 1014 69 6000 8.2 10 13:18 02.03.2020
1674 Clear 25 1014 69 8000 9.3 10 12:44 02.03.2020
1675 Clear 25 1014 69 8000 8.2 360 12:20 02.03.2020
1676 Clear 25 1014 60 9000 8.2 10 11:56 02.03.2020
1677 Clear 25 1015 64 10000 7.2 10 11:36 02.03.2020
1678 Clear 25 1015 64 10000 7.2 10 11:18 02.03.2020
1679 Clear 25 1015 69 10000 6.7 10 10:42 02.03.2020
1680 Clear 25 1015 57 10000 6.2 10 10:21 02.03.2020
1681 Clear 26 1016 53 10000 6.7 350 09:59 02.03.2020
1682 Clear 26 1016 53 10000 6.7 350 09:59 02.03.2020
1683 Clear 24 1016 53 10000 6.7 350 09:40 02.03.2020
1684 Clear 24 1016 60 9000 6.2 350 09:22 02.03.2020
1685 Clear 23 1016 60 9000 5.7 360 08:43 02.03.2020
1686 Clear 23 1016 69 9000 5.1 350 08:22 02.03.2020
1687 Clear 23 1016 69 7000 5.1 350 07:42 02.03.2020
1688 Clear 22 1016 73 8000 5.1 350 07:19 02.03.2020
1689 Clear 22 1015 77 7000 3.1 350 06:38 02.03.2020
1690 Clear 20 1015 77 7000 2.6 330 05:53 02.03.2020
1691 Clear 18 1013 82 8000 3.1 340 04:25 02.03.2020
1692 Clear 18 1012 88 10000 1 0 03:22 02.03.2020
1693 Clear 19 1011 82 10000 2.1 160 02:46 02.03.2020
1694 Clouds 19 1012 88 10000 0.5 0 01:47 02.03.2020
1695 Clouds 20 1012 82 10000 1.46 167 01:28 02.03.2020
1696 Clouds 20 1012 82 10000 1 0 00:23 02.03.2020
1697 Clouds 20 1012 82 10000 1.5 110 23:56 01.03.2020
1698 Clouds 20 1012 82 10000 2.6 120 23:38 01.03.2020
1699 Clear 20 1012 82 10000 2.6 120 23:19 01.03.2020
1700 Clear 21 1012 77 10000 2.6 120 22:43 01.03.2020
1701 Clear 21 1012 77 10000 2.6 120 22:43 01.03.2020
1702 Clear 21 1012 73 10000 3.1 100 22:20 01.03.2020
1703 Clear 21 1012 77 10000 3.1 100 21:55 01.03.2020
1704 Clear 21 1012 82 10000 2.6 100 21:37 01.03.2020
1705 Clear 21 1012 82 10000 2.6 100 21:18 01.03.2020
1706 Clear 20 1012 88 8000 3.6 100 20:43 01.03.2020
1707 Clear 20 1012 88 8000 3.6 100 20:25 01.03.2020
1708 Clouds 21 1012 77 9000 2.6 110 19:55 01.03.2020
1709 Clouds 20 1012 82 9000 1 90 19:36 01.03.2020
1710 Clouds 20 1012 82 9000 1 90 19:18 01.03.2020
1711 Clouds 21 1012 82 10000 3.6 100 18:40 01.03.2020
1712 Clouds 21 1012 82 10000 3.6 100 18:20 01.03.2020
1713 Clouds 21 1012 77 10000 3.1 90 17:57 01.03.2020
1714 Clouds 21 1011 73 10000 2.6 110 17:39 01.03.2020
1715 Clear 21 1011 73 10000 2.6 110 17:20 01.03.2020
1716 Clear 22 1011 68 10000 3.1 130 16:57 01.03.2020
1717 Clear 22 1011 64 10000 3.6 120 16:38 01.03.2020
1718 Clear 22 1011 64 10000 3.6 120 16:18 01.03.2020
1719 Clear 22 1011 60 10000 4.6 140 15:56 01.03.2020
1720 Clear 22 1011 68 10000 5.1 130 15:38 01.03.2020
1721 Clear 23 1011 68 10000 5.1 130 15:19 01.03.2020
1722 Clear 23 1011 64 10000 4.6 110 14:56 01.03.2020
1723 Clear 24 1011 60 10000 5.1 110 14:38 01.03.2020
1724 Clear 24 1011 60 10000 5.1 110 14:20 01.03.2020
1725 Clear 24 1010 68 10000 4.6 110 13:55 01.03.2020
1726 Clear 24 1010 60 10000 5.7 110 13:37 01.03.2020
1727 Clear 24 1010 60 10000 5.7 110 13:18 01.03.2020
1728 Clear 25 1011 60 10000 5.7 110 12:42 01.03.2020
1729 Clear 25 1011 60 10000 5.7 110 12:42 01.03.2020
1730 Clear 25 1011 60 10000 5.7 110 12:21 01.03.2020
1731 Clear 25 1011 60 10000 5.7 110 12:21 01.03.2020
1732 Clear 25 1011 60 10000 5.7 110 11:43 01.03.2020
1733 Clear 25 1012 64 10000 5.7 100 11:25 01.03.2020
1734 Clear 25 1012 60 10000 5.7 110 10:57 01.03.2020
1735 Clear 25 1012 60 10000 5.7 100 10:38 01.03.2020
1736 Clear 25 1012 60 10000 5.7 100 10:20 01.03.2020
1737 Clear 26 1013 57 10000 5.7 100 09:58 01.03.2020
1738 Clear 26 1013 57 10000 5.7 100 09:58 01.03.2020
1739 Clear 26 1013 53 10000 4.1 130 09:40 01.03.2020
1740 Clear 25 1013 53 10000 4.1 130 09:21 01.03.2020
1741 Clear 24 1014 49 10000 3.6 130 08:42 01.03.2020
1742 Clear 23 1014 49 10000 3.6 130 08:21 01.03.2020
1743 Clear 23 1014 56 10000 3.6 130 07:43 01.03.2020
1744 Clear 23 1014 56 10000 3.6 130 07:43 01.03.2020
1745 Clear 22 1013 60 10000 3.1 140 07:24 01.03.2020
1746 Clear 20 1013 68 10000 3.1 130 06:58 01.03.2020
1747 Clear 21 1013 73 10000 2.1 150 06:39 01.03.2020
1748 Clear 17 1011 82 8000 2.6 160 04:39 01.03.2020
1749 Clear 17 1011 82 9000 1.5 200 02:58 01.03.2020
1750 Clear 17 1010 82 9000 2.1 150 01:54 01.03.2020
1751 Clear 17 1010 82 10000 2.1 180 01:33 01.03.2020
1752 Clear 17 1011 82 10000 1 150 00:46 01.03.2020
1753 Clear 17 1011 82 10000 1 140 00:23 01.03.2020
1754 Clear 17 1011 82 10000 1.5 150 23:54 29.02.2020
1755 Clear 18 1011 82 10000 1.5 140 23:34 29.02.2020
1756 Clear 18 1011 82 10000 1.5 130 22:45 29.02.2020
1757 Clear 18 1012 82 10000 1 130 22:26 29.02.2020
1758 Clear 18 1012 82 10000 1.5 120 21:47 29.02.2020
1759 Clear 18 1012 82 10000 1 100 21:26 29.02.2020
1760 Clear 19 1013 82 10000 1 90 20:58 29.02.2020
1761 Clear 19 1013 77 10000 1 80 20:40 29.02.2020
1762 Clear 19 1013 77 10000 1 80 20:19 29.02.2020
1763 Clear 19 1013 77 10000 1 60 19:41 29.02.2020
1764 Clear 19 1013 77 10000 1 60 19:22 29.02.2020
1765 Clear 19 1013 77 10000 1.5 50 18:57 29.02.2020
1766 Clear 19 1013 77 10000 1.5 70 18:39 29.02.2020
1767 Clear 19 1013 77 10000 1.5 70 18:19 29.02.2020
1768 Clear 20 1013 72 10000 1.5 50 17:55 29.02.2020
1769 Clear 20 1012 72 10000 1.5 50 17:36 29.02.2020
1770 Clear 20 1012 72 10000 1.5 50 17:36 29.02.2020
1771 Clear 20 1012 72 10000 1.5 50 17:18 29.02.2020
1772 Clear 20 1012 72 10000 1.5 40 16:42 29.02.2020
1773 Clear 20 1012 72 9000 2.6 50 16:19 29.02.2020
1774 Clear 21 1012 68 9000 3.1 40 15:43 29.02.2020
1775 Clear 22 1012 68 9000 3.1 40 15:24 29.02.2020
1776 Clear 23 1011 64 9000 3.6 60 14:57 29.02.2020
1777 Clear 23 1011 60 9000 3.6 50 14:38 29.02.2020
1778 Clear 23 1011 60 9000 3.6 50 14:20 29.02.2020
1779 Clear 24 1011 53 9000 3.6 90 13:43 29.02.2020
1780 Clear 25 1011 53 10000 4.1 100 13:25 29.02.2020
1781 Clear 25 1011 50 10000 3.6 110 12:54 29.02.2020
1782 Clear 25 1012 50 10000 3.1 100 12:36 29.02.2020
1783 Clear 25 1012 50 10000 3.1 100 12:18 29.02.2020
1784 Clear 26 1012 50 10000 4.1 100 11:43 29.02.2020
1785 Clear 25 1012 29 10000 2.6 230 11:24 29.02.2020
1786 Clear 25 1013 31 10000 2.1 0 10:50 29.02.2020
1787 Clear 24 1013 36 10000 2.6 280 10:29 29.02.2020
1788 -273 0 0 0 0 0 09:51 29.02.2020
1789 Clear 24 1014 41 10000 2.6 330 09:27 29.02.2020
1790 Clear 23 1015 46 10000 3.1 310 08:58 29.02.2020
1791 Clear 23 1015 53 10000 3.1 340 08:38 29.02.2020
1792 Clear 21 1015 53 10000 3.1 340 08:19 29.02.2020
1793 Clear 21 1015 56 10000 3.6 320 07:45 29.02.2020
1794 Clear 20 1015 60 10000 2.6 330 07:19 29.02.2020
1795 Clear 18 1015 64 9000 2.6 300 06:53 29.02.2020
1796 Clear 19 1014 64 8000 1.5 290 06:27 29.02.2020
1797 Clear 18 1014 72 7000 2.1 260 05:49 29.02.2020
1798 Clear 15 1014 77 7000 1.5 260 05:21 29.02.2020
1799 Clear 15 1013 77 8000 1.5 240 03:44 29.02.2020
1800 Clear 14 1013 77 8000 2.1 240 03:23 29.02.2020
1801 Clear 15 1013 77 8000 2.1 240 02:42 29.02.2020
1802 Clear 15 1013 77 8000 2.1 280 01:32 29.02.2020
1803 Clear 16 1013 72 8000 3.6 300 00:44 29.02.2020
1804 Clear 16 1013 72 8000 3.1 300 00:25 29.02.2020
1805 Clear 16 1013 72 8000 3.6 330 23:38 28.02.2020
1806 Clear 16 1013 72 8000 3.6 330 23:20 28.02.2020
1807 Clear 16 1014 72 8000 3.1 330 22:41 28.02.2020
1808 Clear 16 1014 72 8000 3.1 330 22:19 28.02.2020
1809 Clear 17 1015 72 9000 3.6 330 21:42 28.02.2020
1810 Clear 17 1015 72 9000 3.6 330 21:21 28.02.2020
1811 Clear 18 1015 72 9000 4.6 340 20:56 28.02.2020
1812 Clear 18 1015 72 9000 4.6 340 20:38 28.02.2020
1813 Clear 18 1015 72 9000 4.6 340 20:19 28.02.2020
1814 Clear 18 1015 68 9000 4.6 330 19:56 28.02.2020
1815 Clear 18 1015 68 9000 5.7 330 19:37 28.02.2020
1816 Clear 18 1015 68 9000 5.7 330 19:19 28.02.2020
1817 Clear 19 1015 59 10000 5.7 340 18:46 28.02.2020
1818 Clear 19 1015 59 10000 5.1 340 18:23 28.02.2020
1819 Clear 20 1015 49 10000 4.1 320 17:41 28.02.2020
1820 Clear 20 1015 49 10000 4.1 320 17:23 28.02.2020
1821 Clear 21 1014 46 10000 4.1 320 16:56 28.02.2020
1822 Clear 21 1014 43 10000 3.6 310 16:37 28.02.2020
1823 Clear 21 1014 43 10000 3.6 310 16:19 28.02.2020
1824 Clear 22 1014 40 10000 6.2 330 15:55 28.02.2020
1825 Clear 22 1014 40 10000 6.2 330 15:55 28.02.2020
1826 Clear 22 1014 38 10000 5.7 330 15:36 28.02.2020
1827 Clear 22 1014 38 10000 5.7 330 15:18 28.02.2020
1828 Clear 24 1014 33 10000 5.7 320 14:42 28.02.2020
1829 Clear 24 1014 36 10000 5.7 310 14:19 28.02.2020
1830 Clear 25 1014 33 10000 5.7 310 13:58 28.02.2020
1831 Clear 25 1014 33 10000 6.2 310 13:40 28.02.2020
1832 Clear 25 1014 33 10000 6.2 310 13:19 28.02.2020
1833 Clear 25 1014 31 10000 5.7 330 12:43 28.02.2020
1834 Clear 25 1014 33 10000 5.7 310 12:25 28.02.2020
1835 Clear 25 1015 33 10000 5.1 320 11:55 28.02.2020
1836 Clear 25 1015 38 10000 6.7 320 11:37 28.02.2020
1837 Clear 25 1015 38 10000 6.7 320 11:18 28.02.2020
1838 Clear 25 1015 38 10000 6.7 310 10:43 28.02.2020
1839 Clear 25 1016 38 10000 5.7 320 10:23 28.02.2020
1840 Clear 24 1016 41 10000 5.7 320 09:47 28.02.2020
1841 Clear 24 1017 38 10000 6.2 330 09:22 28.02.2020
1842 Clear 24 1017 41 10000 5.1 320 08:57 28.02.2020
1843 Clear 23 1017 43 10000 6.7 320 08:39 28.02.2020
1844 Clear 22 1017 43 10000 6.7 320 08:20 28.02.2020
1845 Clear 22 1017 43 10000 6.7 320 08:20 28.02.2020
1846 Clear 21 1018 56 10000 4.6 320 07:41 28.02.2020
1847 Clear 21 1018 56 10000 4.6 320 07:22 28.02.2020
1848 Clear 20 1018 64 10000 4.1 310 06:45 28.02.2020
1849 Clear 19 1018 68 10000 4.1 310 06:24 28.02.2020
1850 Clear 16 1017 72 10000 1.5 280 04:46 28.02.2020
1851 Clear 15 1017 77 10000 1 0 04:18 28.02.2020
1852 Clear 16 1016 72 10000 3.1 310 02:46 28.02.2020
1853 Clear 15 1016 72 10000 2.1 310 02:27 28.02.2020
1854 Clear 16 1016 72 10000 3.1 290 01:23 28.02.2020
1855 Clear 16 1016 72 10000 3.6 300 00:28 28.02.2020
1856 Clear 16 1016 72 10000 4.1 310 23:42 27.02.2020
1857 Clear 16 1016 72 10000 4.1 310 23:21 27.02.2020
1858 Clear 16 1017 72 10000 4.6 310 22:46 27.02.2020
1859 Clear 17 1017 63 10000 4.6 310 22:26 27.02.2020
1860 Clear 17 1017 63 10000 4.1 310 21:59 27.02.2020
1861 Clear 17 1017 63 10000 4.1 310 21:39 27.02.2020
1862 Clear 17 1017 63 10000 4.1 310 21:19 27.02.2020
1863 Clear 18 1017 63 10000 4.1 310 20:57 27.02.2020
1864 Clear 17 1017 63 10000 4.1 310 20:38 27.02.2020
1865 Clear 17 1017 63 10000 4.1 310 20:20 27.02.2020
1866 Clear 17 1017 63 10000 4.1 310 20:20 27.02.2020
1867 Clear 18 1017 63 10000 4.6 310 19:55 27.02.2020
1868 Clear 18 1017 55 10000 4.6 310 19:37 27.02.2020
1869 Clear 18 1017 55 10000 4.6 310 19:18 27.02.2020
1870 Clear 18 1017 52 10000 4.6 300 18:40 27.02.2020
1871 Clear 18 1017 52 10000 4.6 300 18:22 27.02.2020
1872 Clear 19 1017 55 10000 5.1 300 17:57 27.02.2020
1873 Clear 19 1017 55 10000 5.1 300 17:57 27.02.2020
1874 Clear 19 1017 52 10000 5.7 310 17:39 27.02.2020
1875 Clear 19 1017 52 10000 5.7 310 17:19 27.02.2020
1876 Clear 20 1017 52 10000 6.2 310 16:55 27.02.2020
1877 Clear 20 1017 52 10000 6.7 310 16:37 27.02.2020
1878 Clear 20 1017 52 10000 6.7 310 16:18 27.02.2020
1879 Clear 21 1017 49 10000 6.7 310 15:54 27.02.2020
1880 Clear 21 1016 43 10000 6.2 310 15:36 27.02.2020
1881 Clear 21 1016 43 10000 6.2 310 15:18 27.02.2020
1882 Clear 22 1016 43 10000 6.7 320 14:41 27.02.2020
1883 Clear 23 1016 40 10000 7.2 300 14:23 27.02.2020
1884 Clear 23 1016 38 10000 8.2 310 13:57 27.02.2020
1885 Clear 23 1016 35 10000 7.7 320 13:38 27.02.2020
1886 Clear 23 1016 35 10000 7.7 320 13:20 27.02.2020
1887 Clear 24 1016 33 10000 7.2 310 12:45 27.02.2020
1888 Clear 24 1017 31 10000 7.2 310 12:22 27.02.2020
1889 Clear 24 1017 27 10000 6.7 300 11:56 27.02.2020
1890 Clear 23 1017 25 10000 6.2 300 11:37 27.02.2020
1891 Clear 24 1017 25 10000 6.2 300 11:18 27.02.2020
1892 Clear 24 1018 23 10000 6.7 310 10:41 27.02.2020
1893 Clear 23 1018 22 10000 6.2 310 10:20 27.02.2020
1894 Clear 24 1018 23 10000 6.2 300 09:45 27.02.2020
1895 Clear 23 1019 25 10000 6.7 300 09:26 27.02.2020
1896 Clear 23 1019 27 10000 6.7 300 08:55 27.02.2020
1897 Clear 22 1020 37 10000 6.7 300 08:37 27.02.2020
1898 Clear 22 1020 37 10000 6.7 300 08:18 27.02.2020
1899 Clear 21 1020 35 10000 5.1 300 07:42 27.02.2020
1900 Clear 20 1020 46 10000 3.1 290 07:24 27.02.2020
1901 Clear 19 1020 63 10000 3.1 280 06:23 27.02.2020
1902 Clear 16 1019 72 8000 2.6 270 05:19 27.02.2020
1903 Clear 16 1018 72 10000 2.6 270 03:19 27.02.2020
1904 Clear 17 1018 67 10000 1.5 250 01:34 27.02.2020
1905 Clear 17 1017 67 10000 2.1 250 00:41 27.02.2020
1906 Clear 17 1018 63 10000 2.1 260 23:56 26.02.2020
1907 Clear 18 1018 55 10000 3.1 300 23:37 26.02.2020
1908 Clear 18 1018 55 10000 3.1 300 23:18 26.02.2020
1909 Clear 18 1018 55 10000 3.1 300 23:18 26.02.2020
1910 Clear 17 1018 59 10000 2.6 300 22:55 26.02.2020
1911 Clear 17 1018 59 10000 2.1 310 22:37 26.02.2020
1912 Clear 17 1018 59 10000 2.1 310 22:18 26.02.2020
1913 Clear 18 1018 59 10000 2.6 320 21:39 26.02.2020
1914 Clear 18 1018 59 10000 2.6 320 21:20 26.02.2020
1915 Clear 18 1018 59 10000 3.1 330 20:56 26.02.2020
1916 Clear 18 1018 59 10000 3.1 330 20:56 26.02.2020
1917 Clear 18 1018 63 10000 2.6 330 20:38 26.02.2020
1918 Clear 18 1018 63 10000 2.6 330 20:19 26.02.2020
1919 Clear 19 1018 63 10000 3.6 340 19:56 26.02.2020
1920 Clear 19 1018 63 10000 4.6 340 19:37 26.02.2020
1921 Clear 19 1018 63 10000 4.6 340 19:18 26.02.2020
1922 Clear 19 1018 59 10000 5.1 340 18:56 26.02.2020
1923 Clear 19 1019 55 10000 4.6 330 18:37 26.02.2020
1924 Clear 19 1019 55 10000 4.6 330 18:18 26.02.2020
1925 Clear 19 1018 49 10000 5.7 330 17:40 26.02.2020
1926 Clear 20 1018 49 10000 5.7 330 17:19 26.02.2020
1927 Clear 21 1017 43 9000 5.7 330 16:56 26.02.2020
1928 Clear 21 1017 43 9000 6.2 330 16:38 26.02.2020
1929 Clear 21 1017 43 9000 6.2 330 16:20 26.02.2020
1930 Clear 22 1016 37 8000 7.7 330 15:44 26.02.2020
1931 Clear 22 1016 40 6000 7.2 330 15:26 26.02.2020
1932 Dust 23 1016 35 5000 7.7 330 14:43 26.02.2020
1933 Dust 23 1015 35 5000 8.2 330 14:24 26.02.2020
1934 Dust 23 1015 38 5000 8.7 330 13:57 26.02.2020
1935 Dust 23 1015 36 5000 9.3 330 13:39 26.02.2020
1936 Dust 23 1015 36 5000 9.3 330 13:18 26.02.2020
1937 Clouds 24 1015 33 6000 6.7 320 12:38 26.02.2020
1938 Clouds 24 1015 33 6000 6.7 320 12:19 26.02.2020
1939 Dust 25 1015 29 2500 7.2 310 11:55 26.02.2020
1940 Dust 25 1015 29 2500 7.2 310 11:55 26.02.2020
1941 Dust 25 1015 23 3500 6.2 310 11:36 26.02.2020
1942 Dust 25 1015 23 3500 6.2 310 11:36 26.02.2020
1943 Dust 25 1015 23 3500 6.2 310 11:18 26.02.2020
1944 Dust 24 1016 27 5000 7.2 310 10:41 26.02.2020
1945 Dust 24 1016 27 5000 7.2 310 10:22 26.02.2020
1946 Dust 24 1016 31 5000 7.2 310 09:45 26.02.2020
1947 Dust 24 1016 29 4000 6.7 320 09:25 26.02.2020
1948 Dust 23 1017 31 3500 8.7 320 08:59 26.02.2020
1949 Dust 23 1017 37 2500 8.2 330 08:38 26.02.2020
1950 Dust 23 1017 37 2500 8.2 330 08:19 26.02.2020
1951 Haze 22 1018 28 4000 12.9 320 07:45 26.02.2020
1952 Dust 22 1017 37 2500 7.7 310 07:26 26.02.2020
1953 Dust 22 1016 40 3500 7.7 310 06:53 26.02.2020
1954 Dust 22 1015 46 3500 6.2 320 06:34 26.02.2020
1955 Dust 22 1015 53 2600 7.7 310 05:53 26.02.2020
1956 Dust 21 1015 56 2000 9.3 310 05:28 26.02.2020
1957 Dust 22 1013 49 3000 7.7 310 04:36 26.02.2020
1958 Clouds 25 1010 50 6000 3.1 270 02:33 26.02.2020
1959 Clouds 25 1009 53 10000 3.1 250 01:48 26.02.2020
1960 Clouds 23 1007 73 10000 6.7 150 00:50 26.02.2020
1961 Clouds 23 1007 73 10000 7.7 130 00:25 26.02.2020
1962 Clouds 23 1007 73 10000 7.7 130 00:25 26.02.2020
1963 Clouds 24 1007 73 10000 9.3 130 23:56 25.02.2020
1964 Clouds 24 1007 73 10000 9.3 120 23:37 25.02.2020
1965 Clouds 24 1007 73 10000 9.3 120 23:19 25.02.2020
1966 Clouds 24 1007 73 10000 9.8 120 22:42 25.02.2020
1967 Clouds 25 1008 64 10000 8.2 120 22:19 25.02.2020
1968 Clouds 25 1008 64 10000 8.2 120 21:56 25.02.2020
1969 Clouds 25 1009 64 10000 7.7 120 21:36 25.02.2020
1970 Clouds 25 1009 64 10000 7.7 120 21:18 25.02.2020
1971 Clouds 25 1009 64 10000 6.7 120 20:55 25.02.2020
1972 Clouds 24 1009 64 10000 6.7 120 20:36 25.02.2020
1973 Clouds 24 1009 64 10000 6.7 120 20:18 25.02.2020
1974 Clouds 24 1009 60 10000 6.7 120 19:42 25.02.2020
1975 Clouds 24 1010 64 10000 6.7 120 19:19 25.02.2020
1976 Clouds 24 1010 64 10000 7.2 110 18:43 25.02.2020
1977 Clouds 24 1010 64 10000 5.7 110 18:22 25.02.2020
1978 Clouds 24 1010 64 10000 4.1 100 18:00 25.02.2020
1979 Clouds 24 1010 64 10000 3.6 100 17:38 25.02.2020
1980 Clouds 24 1010 64 10000 3.6 100 17:20 25.02.2020
1981 Clouds 24 1009 64 10000 4.6 100 16:59 25.02.2020
1982 Clouds 24 1009 64 10000 4.6 100 16:41 25.02.2020
1983 Clouds 24 1009 64 10000 4.1 100 16:22 25.02.2020
1984 Clouds 25 1009 61 10000 5.1 90 15:59 25.02.2020
1985 Clouds 25 1009 61 10000 5.1 90 15:41 25.02.2020
1986 Clouds 26 1009 61 10000 4.6 90 15:19 25.02.2020
1987 Clouds 27 1009 61 10000 5.1 90 14:58 25.02.2020
1988 Clouds 27 1010 57 10000 6.2 90 14:38 25.02.2020
1989 Clouds 27 1010 57 10000 6.2 90 14:18 25.02.2020
1990 Clouds 27 1010 57 10000 6.2 90 14:18 25.02.2020
1991 Clouds 28 1010 57 10000 6.2 90 13:55 25.02.2020
1992 Clouds 28 1010 57 10000 6.2 90 13:37 25.02.2020
1993 Clouds 28 1010 57 10000 6.2 90 13:19 25.02.2020
1994 Clouds 29 1011 51 10000 5.7 100 12:42 25.02.2020
1995 Clouds 29 1011 51 10000 5.7 100 12:22 25.02.2020
1996 Clouds 29 1011 51 10000 7.2 110 11:57 25.02.2020
1997 Clouds 29 1012 54 10000 5.7 120 11:39 25.02.2020
1998 Clouds 29 1012 54 10000 5.7 120 11:19 25.02.2020
1999 Clouds 29 1012 57 10000 5.7 120 10:59 25.02.2020
2000 Clouds 29 1013 54 10000 6.2 120 10:40 25.02.2020
2001 Clouds 29 1013 54 10000 6.2 120 10:21 25.02.2020
2002 Clouds 28 1014 54 10000 5.7 110 09:42 25.02.2020
2003 Clouds 28 1014 54 10000 5.7 110 09:22 25.02.2020
2004 Clouds 28 1014 57 10000 5.1 130 08:54 25.02.2020
2005 Clouds 28 1014 57 10000 5.1 130 08:36 25.02.2020
2006 Clouds 28 1014 57 10000 5.1 130 08:18 25.02.2020
2007 Clouds 27 1014 61 10000 4.6 110 07:39 25.02.2020
2008 Clouds 26 1014 61 10000 4.6 110 07:19 25.02.2020
2009 Clouds 25 1013 64 10000 4.6 120 06:32 25.02.2020
2010 Clouds 23 1013 83 10000 2.6 120 05:29 25.02.2020
2011 Clouds 22 1012 73 10000 2.6 110 03:30 25.02.2020
2012 Clouds 22 1011 73 10000 3.6 130 01:32 25.02.2020
2013 Clouds 22 1011 73 10000 4.6 120 00:47 25.02.2020
2014 Clouds 23 1011 73 10000 5.1 130 00:29 25.02.2020
2015 Clouds 23 1011 73 10000 5.1 130 23:42 24.02.2020
2016 Clouds 23 1011 73 10000 4.6 130 23:20 24.02.2020
2017 Clouds 23 1012 68 10000 4.6 130 22:42 24.02.2020
2018 Clouds 23 1012 69 10000 4.1 130 22:20 24.02.2020
2019 Clouds 22 1012 69 10000 5.1 120 21:57 24.02.2020
2020 Clouds 22 1013 73 10000 3.6 110 21:39 24.02.2020
2021 Clouds 22 1013 73 10000 3.6 110 21:20 24.02.2020
2022 Clouds 23 1013 64 10000 3.6 100 20:58 24.02.2020
2023 Clouds 23 1013 64 10000 2.6 70 20:40 24.02.2020
2024 Clouds 23 1013 64 10000 2.6 70 20:19 24.02.2020
2025 Clouds 23 1014 64 10000 3.6 90 19:56 24.02.2020
2026 Clouds 24 1014 57 10000 4.1 90 19:38 24.02.2020
2027 Clouds 24 1014 57 10000 4.1 90 19:20 24.02.2020
2028 Clouds 24 1014 53 10000 4.6 90 18:54 24.02.2020
2029 Clouds 24 1013 57 10000 4.1 80 18:36 24.02.2020
2030 Clouds 24 1013 57 10000 4.1 80 18:18 24.02.2020
2031 Clouds 24 1013 69 10000 4.6 70 17:40 24.02.2020
2032 Clouds 24 1013 69 10000 4.6 70 17:20 24.02.2020
2033 Clouds 24 1014 73 10000 3.6 80 16:58 24.02.2020
2034 Clouds 24 1014 73 10000 3.1 60 16:39 24.02.2020
2035 Clouds 24 1014 73 10000 3.1 60 16:20 24.02.2020
2036 Clouds 24 1014 73 10000 3.1 60 16:20 24.02.2020
2037 Clouds 25 1014 69 10000 3.1 70 15:58 24.02.2020
2038 Clouds 25 1014 57 10000 3.6 80 15:39 24.02.2020
2039 Clouds 25 1014 57 10000 3.6 80 15:21 24.02.2020
2040 Clouds 26 1014 61 10000 4.6 100 14:57 24.02.2020
2041 Clouds 26 1014 61 10000 4.1 110 14:38 24.02.2020
2042 Clouds 26 1014 61 10000 4.1 110 14:18 24.02.2020
2043 Clouds 27 1014 57 10000 4.6 110 13:56 24.02.2020
2044 Clouds 27 1014 54 10000 5.7 120 13:36 24.02.2020
2045 Clouds 27 1014 54 10000 5.7 120 13:18 24.02.2020
2046 Clouds 28 1014 54 10000 5.7 120 12:42 24.02.2020
2047 Clouds 28 1014 54 10000 5.7 120 12:24 24.02.2020
2048 Clouds 28 1014 47 10000 5.7 110 11:51 24.02.2020
2049 Clouds 28 1015 42 10000 6.2 120 11:32 24.02.2020
2050 Clouds 28 1015 47 10000 5.7 110 10:59 24.02.2020
2051 Clouds 28 1016 51 10000 5.1 110 10:40 24.02.2020
2052 Clouds 28 1016 51 10000 5.1 110 10:22 24.02.2020
2053 Clouds 27 1016 54 10000 5.1 110 09:40 24.02.2020
2054 Clouds 27 1016 54 10000 5.1 110 09:19 24.02.2020
2055 Clouds 26 1017 57 10000 5.1 120 08:53 24.02.2020
2056 Clouds 26 1017 61 10000 4.6 120 08:29 24.02.2020
2057 Clouds 25 1017 69 9000 4.1 120 07:56 24.02.2020
2058 Clouds 25 1017 73 9000 3.6 100 07:33 24.02.2020
2059 Clouds 24 1017 78 9000 4.1 100 06:53 24.02.2020
2060 Clouds 23 1017 78 8000 3.1 110 06:26 24.02.2020
2061 Clouds 22 1017 88 8000 2.1 120 05:46 24.02.2020
2062 Clouds 22 1017 88 8000 2.1 120 05:46 24.02.2020
2063 Clouds 22 1017 88 6000 1 130 05:25 24.02.2020
2064 Clouds 21 1015 94 7000 1.5 10 02:58 24.02.2020
2065 Clouds 21 1015 88 7000 2.6 30 02:31 24.02.2020
2066 Clouds 21 1015 88 6000 2.6 40 01:39 24.02.2020
2067 Clouds 21 1015 88 6000 3.1 30 00:50 24.02.2020
2068 Mist 21 1015 94 3000 2.6 40 00:21 24.02.2020
2069 Mist 21 1015 94 3000 2.6 40 23:55 23.02.2020
2070 Mist 21 1016 94 3000 2.1 40 23:36 23.02.2020
2071 Mist 21 1016 94 3000 2.1 40 23:18 23.02.2020
2072 Mist 21 1016 94 3000 2.6 30 22:43 23.02.2020
2073 Mist 21 1016 94 3000 3.1 40 22:22 23.02.2020
2074 Mist 21 1016 94 3000 2.1 50 21:55 23.02.2020
2075 Mist 21 1017 94 3000 2.6 40 21:37 23.02.2020
2076 Mist 21 1017 94 3000 2.6 40 21:18 23.02.2020
2077 Mist 21 1017 94 3000 2.6 40 20:55 23.02.2020
2078 Mist 21 1017 94 3000 2.6 30 20:37 23.02.2020
2079 Mist 21 1017 94 3000 2.6 30 20:18 23.02.2020
2080 Mist 22 1017 94 4000 1.5 40 19:42 23.02.2020
2081 Mist 22 1017 88 4500 2.1 40 19:20 23.02.2020
2082 Mist 22 1017 88 5000 2.1 30 18:59 23.02.2020
2083 Mist 22 1017 88 5000 2.1 30 18:41 23.02.2020
2084 Mist 22 1017 88 5000 2.1 30 18:21 23.02.2020
2085 Mist 22 1017 88 5000 2.1 30 17:58 23.02.2020
2086 Clouds 22 1017 88 6000 3.1 40 17:40 23.02.2020
2087 Clouds 22 1017 88 6000 3.1 40 17:21 23.02.2020
2088 Haze 23 1017 88 6000 2.6 30 16:56 23.02.2020
2089 Haze 23 1016 83 5000 3.6 50 16:38 23.02.2020
2090 Haze 23 1016 83 5000 3.6 50 16:19 23.02.2020
2091 Haze 23 1016 83 5000 3.6 50 15:54 23.02.2020
2092 Haze 23 1016 83 5000 3.6 60 15:36 23.02.2020
2093 Haze 23 1016 83 5000 3.6 60 15:18 23.02.2020
2094 Haze 24 1016 83 5000 4.1 60 14:55 23.02.2020
2095 Haze 24 1016 83 5000 4.1 90 14:37 23.02.2020
2096 Haze 24 1016 83 5000 4.1 90 14:18 23.02.2020
2097 Haze 25 1016 78 5000 4.6 80 13:42 23.02.2020
2098 Haze 25 1016 78 5000 4.6 80 13:22 23.02.2020
2099 Haze 26 1016 78 5000 5.1 80 12:59 23.02.2020
2100 Clear 26 1017 73 6000 4.1 60 12:39 23.02.2020
2101 Clear 26 1017 73 6000 4.1 60 12:39 23.02.2020
2102 Clear 26 1017 73 6000 4.1 60 12:20 23.02.2020
2103 Clouds 25 1018 78 6000 4.6 70 11:39 23.02.2020
2104 Clouds 25 1018 78 6000 4.6 70 11:20 23.02.2020
2105 Clouds 25 1018 78 6000 4.1 60 10:58 23.02.2020
2106 Clouds 25 1018 78 6000 4.1 90 10:39 23.02.2020
2107 Clouds 25 1018 78 6000 4.1 90 10:21 23.02.2020
2108 Haze 25 1019 78 5000 4.6 100 09:56 23.02.2020
2109 Haze 24 1019 83 5000 4.1 100 09:37 23.02.2020
2110 Haze 24 1019 83 5000 4.1 100 09:18 23.02.2020
2111 Haze 24 1020 88 2500 4.1 90 08:44 23.02.2020
2112 Haze 23 1020 88 2500 4.1 90 08:25 23.02.2020
2113 Mist 23 1020 78 1500 3.6 80 07:44 23.02.2020
2114 Mist 22 1020 88 1500 3.1 60 07:26 23.02.2020
2115 Mist 21 1019 94 1500 3.1 60 06:20 23.02.2020
2116 Mist 20 1018 94 2300 3.1 20 05:19 23.02.2020
2117 Mist 18 1018 100 2500 3.6 20 04:23 23.02.2020
2118 Mist 19 1017 94 3000 3.1 10 02:44 23.02.2020
2119 Mist 19 1017 93 3000 1.5 10 01:39 23.02.2020
2120 Mist 19 1017 93 3000 1.5 10 01:20 23.02.2020
2121 Mist 19 1017 93 3500 1 40 00:43 23.02.2020
2122 Mist 19 1017 93 3500 1.5 10 00:20 23.02.2020
2123 Mist 19 1018 93 4000 2.1 10 23:43 22.02.2020
2124 Mist 19 1018 93 4000 1.5 10 23:22 22.02.2020
2125 Mist 19 1018 93 5000 1 360 22:45 22.02.2020
2126 Clear 19 1018 93 6000 1.5 360 22:20 22.02.2020
2127 Clear 19 1018 88 6000 2.1 350 21:46 22.02.2020
2128 Clear 19 1018 93 6000 1.5 350 21:28 22.02.2020
2129 Clear 20 1018 88 7000 1.5 360 20:58 22.02.2020
2130 Clear 20 1018 88 7000 1.5 20 20:40 22.02.2020
2131 Clear 20 1018 88 7000 1.5 20 20:21 22.02.2020
2132 Clear 20 1018 88 6000 2.1 20 19:43 22.02.2020
2133 Clear 20 1019 88 6000 2.6 10 19:24 22.02.2020
2134 Clear 20 1019 88 7000 3.1 10 18:57 22.02.2020
2135 Clear 20 1019 88 8000 3.6 20 18:37 22.02.2020
2136 Clear 20 1019 88 8000 3.6 20 18:19 22.02.2020
2137 Clear 20 1018 88 8000 3.1 10 17:44 22.02.2020
2138 Clear 21 1018 83 8000 3.1 40 17:26 22.02.2020
2139 Clear 21 1018 77 8000 3.1 40 16:59 22.02.2020
2140 Clear 21 1018 77 7000 3.1 40 16:40 22.02.2020
2141 Clear 21 1018 77 7000 3.1 40 16:20 22.02.2020
2142 Clear 22 1018 77 7000 3.6 40 15:56 22.02.2020
2143 Clear 22 1017 77 7000 4.1 10 15:38 22.02.2020
2144 Clear 22 1017 77 7000 4.1 10 15:20 22.02.2020
2145 Clear 23 1017 68 9000 5.7 360 14:42 22.02.2020
2146 Clear 23 1017 68 9000 5.7 360 14:21 22.02.2020
2147 Clear 23 1017 64 10000 5.1 360 13:44 22.02.2020
2148 Clear 23 1017 64 10000 5.1 360 13:20 22.02.2020
2149 Clear 24 1018 56 10000 4.6 360 12:59 22.02.2020
2150 Clear 24 1018 56 10000 4.1 10 12:39 22.02.2020
2151 Clear 24 1018 56 10000 4.1 10 12:21 22.02.2020
2152 Clear 24 1018 56 10000 4.6 10 11:44 22.02.2020
2153 Clear 24 1018 56 10000 4.6 360 11:26 22.02.2020
2154 Clear 24 1019 53 10000 4.1 10 10:55 22.02.2020
2155 Clear 24 1019 53 10000 4.6 10 10:37 22.02.2020
2156 Clear 24 1019 53 10000 4.6 10 10:18 22.02.2020
2157 Clear 24 1019 53 9000 5.1 10 09:55 22.02.2020
2158 Clear 24 1020 56 9000 4.6 40 09:37 22.02.2020
2159 Clear 23 1020 56 9000 4.6 40 09:18 22.02.2020
2160 Clear 23 1020 56 9000 4.6 40 08:44 22.02.2020
2161 Clear 23 1020 64 9000 3.6 20 08:25 22.02.2020
2162 Clear 22 1020 68 8000 3.6 10 07:39 22.02.2020
2163 Clear 21 1020 68 8000 3.6 10 07:18 22.02.2020
2164 Clear 20 1020 72 8000 3.1 360 06:45 22.02.2020
2165 Clear 17 1019 72 10000 1.5 320 04:54 22.02.2020
2166 Clear 17 1018 72 9000 2.1 310 04:28 22.02.2020
2167 Clear 17 1017 77 9000 2.6 310 02:42 22.02.2020
2168 Clear 17 1017 72 9000 1.5 310 01:51 22.02.2020
2169 Clear 17 1017 77 9000 1 0 01:30 22.02.2020
2170 Clear 17 1017 77 10000 0.5 0 00:50 22.02.2020
2171 Clear 17 1017 72 10000 0.5 0 00:32 22.02.2020
2172 Clear 17 1017 72 10000 1.5 340 23:56 21.02.2020
2173 Clear 17 1017 77 10000 2.1 340 23:37 21.02.2020
2174 Clear 17 1017 77 10000 2.1 340 23:18 21.02.2020
2175 Clear 17 1017 77 10000 2.1 340 23:18 21.02.2020
2176 Clear 18 1017 77 10000 3.1 330 22:42 21.02.2020
2177 Clear 18 1017 77 10000 3.1 340 22:24 21.02.2020
2178 Clear 18 1017 77 10000 3.6 340 21:56 21.02.2020
2179 Clear 18 1017 68 10000 3.6 330 21:37 21.02.2020
2180 Clear 18 1017 68 10000 3.6 330 21:19 21.02.2020
2181 Clear 19 1017 72 10000 4.1 340 20:42 21.02.2020
2182 Clouds 19 1017 68 10000 3.1 340 20:23 21.02.2020
2183 Clear 19 1017 68 10000 3.6 340 19:40 21.02.2020
2184 Clear 19 1017 68 10000 3.6 340 19:21 21.02.2020
2185 Clear 20 1017 64 10000 4.1 340 18:44 21.02.2020
2186 Clear 19 1017 64 10000 5.1 330 18:24 21.02.2020
2187 Clear 20 1016 72 10000 4.6 350 17:57 21.02.2020
2188 Clear 20 1016 72 10000 6.2 350 17:38 21.02.2020
2189 Clear 20 1016 72 10000 6.2 350 17:19 21.02.2020
2190 Clear 21 1015 64 10000 5.7 350 16:54 21.02.2020
2191 Clear 21 1015 68 10000 5.7 10 16:36 21.02.2020
2192 Clear 21 1015 68 10000 5.7 10 16:18 21.02.2020
2193 Clear 22 1015 68 10000 6.2 20 15:39 21.02.2020
2194 Clear 22 1015 68 10000 6.2 20 15:19 21.02.2020
2195 Clear 22 1015 64 10000 6.7 20 14:43 21.02.2020
2196 Clear 23 1014 64 10000 6.7 20 14:22 21.02.2020
2197 Clear 24 1014 64 10000 6.7 20 13:59 21.02.2020
2198 Clear 24 1014 56 10000 7.2 20 13:40 21.02.2020
2199 Clear 24 1014 56 10000 7.2 20 13:21 21.02.2020
2200 Clear 24 1014 53 10000 6.7 20 12:46 21.02.2020
2201 Clear 24 1014 47 10000 5.7 20 12:27 21.02.2020
2202 Clear 25 1014 41 10000 6.7 350 11:57 21.02.2020
2203 Clear 25 1014 41 10000 7.2 360 11:38 21.02.2020
2204 Clear 25 1014 41 10000 7.2 360 11:20 21.02.2020
2205 Clear 24 1015 41 10000 7.2 360 10:42 21.02.2020
2206 Clear 25 1015 44 10000 7.2 350 10:22 21.02.2020
2207 Clear 25 1016 38 10000 6.2 340 09:58 21.02.2020
2208 Clear 25 1016 44 10000 4.6 330 09:39 21.02.2020
2209 Clear 24 1016 44 10000 4.6 330 09:20 21.02.2020
2210 Clear 24 1016 44 10000 6.7 330 08:56 21.02.2020
2211 Clear 23 1017 49 10000 5.7 330 08:36 21.02.2020
2212 Clouds 23 1017 49 10000 5.7 330 08:18 21.02.2020
2213 Clouds 22 1017 60 10000 5.1 320 07:41 21.02.2020
2214 Clouds 22 1017 60 10000 4.6 320 07:21 21.02.2020
2215 Clouds 21 1016 64 10000 5.1 310 06:56 21.02.2020
2216 Clouds 21 1016 68 10000 4.1 310 06:32 21.02.2020
2217 Clouds 19 1016 72 10000 4.6 300 05:56 21.02.2020
2218 Clouds 18 1016 72 10000 4.6 300 05:30 21.02.2020
2219 Clouds 18 1015 72 9000 4.6 310 04:25 21.02.2020
2220 Clouds 18 1014 68 10000 4.6 310 03:46 21.02.2020
2221 Clouds 19 1013 60 10000 4.6 320 02:58 21.02.2020
2222 Clouds 19 1013 60 10000 5.1 320 01:32 21.02.2020
2223 Clouds 19 1013 68 10000 5.1 320 00:46 21.02.2020
2224 Clouds 19 1013 68 10000 5.1 320 00:24 21.02.2020
2225 Clouds 20 1014 68 10000 5.7 330 23:58 20.02.2020
2226 Clouds 20 1014 68 10000 5.7 330 23:39 20.02.2020
2227 Clouds 20 1014 68 10000 5.7 330 23:21 20.02.2020
2228 Clouds 20 1014 68 10000 5.7 330 23:21 20.02.2020
2229 Clouds 20 1014 60 10000 7.2 330 22:40 20.02.2020
2230 Clouds 20 1014 60 10000 7.2 330 22:21 20.02.2020
2231 Clouds 20 1014 56 10000 6.2 330 21:57 20.02.2020
2232 Clouds 21 1014 56 10000 5.7 330 21:39 20.02.2020
2233 Clouds 21 1014 56 10000 5.7 330 21:39 20.02.2020
2234 Clouds 21 1014 56 10000 5.7 330 21:19 20.02.2020
2235 Clouds 21 1014 56 10000 5.7 330 21:19 20.02.2020
2236 Clouds 21 1014 56 10000 6.2 330 20:56 20.02.2020
2237 Clouds 21 1014 53 10000 5.7 330 20:38 20.02.2020
2238 Clouds 21 1014 53 10000 5.7 330 20:19 20.02.2020
2239 Clouds 21 1014 56 10000 4.6 320 19:58 20.02.2020
2240 Clouds 21 1014 56 10000 4.6 320 19:40 20.02.2020
2241 Clouds 21 1014 60 10000 5.1 330 19:22 20.02.2020
2242 Clouds 21 1013 60 10000 7.7 340 18:40 20.02.2020
2243 Clouds 21 1013 60 10000 7.7 340 18:21 20.02.2020
2244 Clouds 21 1013 60 10000 7.7 340 18:21 20.02.2020
2245 Clouds 22 1012 60 10000 7.7 330 17:58 20.02.2020
2246 Clouds 22 1012 60 10000 7.7 330 17:39 20.02.2020
2247 Clouds 22 1012 60 10000 7.7 330 17:38 20.02.2020
2248 Clouds 22 1012 60 10000 7.7 330 17:19 20.02.2020
2249 Clouds 22 1012 56 10000 8.2 330 16:56 20.02.2020
2250 Clouds 22 1011 56 10000 7.7 330 16:38 20.02.2020
2251 Clouds 22 1011 56 10000 7.7 330 16:18 20.02.2020
2252 Clouds 25 1011 44 7000 7.7 330 15:42 20.02.2020
2253 Clouds 24 1010 50 10000 1 0 15:22 20.02.2020
2254 Clouds 25 1010 50 10000 2.6 120 14:57 20.02.2020
2255 Clouds 26 1009 47 10000 3.1 110 14:39 20.02.2020
2256 Clouds 27 1009 47 10000 3.1 110 14:21 20.02.2020
2257 Clouds 27 1010 47 10000 2.6 90 13:54 20.02.2020
2258 Clouds 28 1009 47 10000 2.6 110 13:36 20.02.2020
2259 Clouds 28 1009 47 10000 2.6 110 13:18 20.02.2020
2260 Clouds 27 1010 50 10000 3.6 120 12:42 20.02.2020
2261 Clouds 27 1010 53 10000 5.1 100 12:21 20.02.2020
2262 Clouds 28 1010 50 10000 4.1 110 11:57 20.02.2020
2263 Clouds 28 1011 53 10000 5.1 90 11:39 20.02.2020
2264 Clouds 28 1011 53 10000 5.1 90 11:39 20.02.2020
2265 Clouds 28 1011 53 10000 5.1 90 11:20 20.02.2020
2266 Clouds 28 1011 44 10000 4.1 120 10:55 20.02.2020
2267 Clouds 28 1012 42 10000 2.6 120 10:37 20.02.2020
2268 Clouds 28 1012 42 10000 2.6 120 10:19 20.02.2020
2269 Clouds 28 1012 36 10000 4.1 190 09:38 20.02.2020
2270 Clouds 27 1012 36 10000 4.1 190 09:19 20.02.2020
2271 Clouds 27 1013 39 10000 2.6 160 08:41 20.02.2020
2272 Clouds 27 1013 41 10000 2.1 200 08:23 20.02.2020
2273 Clouds 25 1013 47 10000 4.6 170 07:47 20.02.2020
2274 Clouds 25 1013 47 10000 4.6 170 07:27 20.02.2020
2275 Clouds 25 1013 47 10000 4.6 170 07:27 20.02.2020
2276 Clouds 23 1013 56 10000 3.1 160 06:57 20.02.2020
2277 Clouds 23 1013 60 10000 2.6 170 06:38 20.02.2020
2278 Clouds 22 1011 64 10000 3.6 110 05:47 20.02.2020
2279 Clouds 21 1011 68 10000 2.6 150 05:24 20.02.2020
2280 Clouds 21 1011 68 10000 3.1 140 04:47 20.02.2020
2281 Clouds 21 1009 73 10000 4.6 120 03:46 20.02.2020
2282 Clouds 21 1009 73 10000 4.6 120 03:46 20.02.2020
2283 Clouds 20 1009 72 10000 3.1 120 02:46 20.02.2020
2284 Clouds 20 1010 77 10000 1 150 01:24 20.02.2020
2285 Clouds 20 1010 72 10000 1 110 00:42 20.02.2020
2286 Clouds 20 1010 72 10000 1 110 00:19 20.02.2020
2287 Clouds 20 1011 72 10000 0.5 100 23:42 19.02.2020
2288 Clouds 20 1011 72 10000 0.5 100 23:18 19.02.2020
2289 Clouds 20 1011 72 10000 1 120 22:41 19.02.2020
2290 Clouds 20 1011 72 10000 0.5 0 22:22 19.02.2020
2291 Clouds 21 1012 77 10000 0.5 0 21:57 19.02.2020
2292 Clouds 21 1012 72 10000 3.93 123 21:39 19.02.2020
2293 Clouds 21 1012 72 10000 3.93 123 21:19 19.02.2020
2294 Clouds 21 1012 68 10000 2.6 110 20:56 19.02.2020
2295 Clouds 21 1012 68 10000 3.6 100 20:37 19.02.2020
2296 Clouds 21 1012 68 10000 3.6 100 20:18 19.02.2020
2297 Clouds 21 1012 68 10000 3.6 90 19:56 19.02.2020
2298 Clouds 21 1012 68 10000 2.6 100 19:37 19.02.2020
2299 Clouds 21 1012 68 10000 2.6 100 19:18 19.02.2020
2300 Clouds 21 1012 73 10000 1.5 90 18:57 19.02.2020
2301 Clouds 21 1012 68 10000 1.5 110 18:39 19.02.2020
2302 Clouds 21 1012 68 10000 1.5 110 18:20 19.02.2020
2303 Clouds 22 1012 77 10000 1.5 60 17:43 19.02.2020
2304 Clouds 21 1012 77 10000 1.5 60 17:20 19.02.2020
2305 Clouds 22 1012 77 10000 2.6 110 16:45 19.02.2020
2306 Clouds 22 1011 77 10000 3.1 110 16:20 19.02.2020
2307 Clouds 24 1011 68 10000 4.1 110 15:59 19.02.2020
2308 Clouds 24 1011 68 10000 4.1 110 15:41 19.02.2020
2309 Clouds 24 1012 73 10000 4.1 120 15:23 19.02.2020
2310 Clouds 25 1011 64 10000 4.1 120 14:56 19.02.2020
2311 -273 0 0 0 0 0 14:37 19.02.2020
2312 Clear 26 1012 57 10000 4.6 110 14:19 19.02.2020
2313 Clear 26 1012 60 10000 4.1 110 13:41 19.02.2020
2314 Clouds 27 1012 57 10000 4.1 110 13:21 19.02.2020
2315 Clouds 27 1012 64 10000 4.6 110 12:42 19.02.2020
2316 Clouds 27 1013 53 10000 4.1 110 12:19 19.02.2020
2317 Clouds 27 1013 47 10000 4.1 130 11:59 19.02.2020
2318 Clouds 27 1014 57 10000 4.1 120 11:38 19.02.2020
2319 Clear 27 1014 57 10000 4.1 120 11:20 19.02.2020
2320 Clear 27 1014 50 10000 4.6 120 10:58 19.02.2020
2321 Clear 27 1015 50 10000 4.1 120 10:38 19.02.2020
2322 Clear 27 1015 50 10000 4.1 120 10:38 19.02.2020
2323 Clear 27 1015 50 10000 4.1 120 10:19 19.02.2020
2324 Clear 25 1015 47 10000 4.6 120 09:58 19.02.2020
2325 Clear 26 1016 57 10000 4.6 120 09:37 19.02.2020
2326 Clear 26 1016 57 10000 4.6 120 09:18 19.02.2020
2327 Clear 26 1016 57 10000 4.6 120 09:18 19.02.2020
2328 Clear 25 1016 57 10000 4.6 120 08:45 19.02.2020
2329 Clear 25 1016 60 10000 4.6 120 08:24 19.02.2020
2330 Clear 24 1017 69 10000 4.1 110 07:42 19.02.2020
2331 Clear 24 1017 69 10000 4.1 110 07:42 19.02.2020
2332 Clear 24 1017 69 9000 4.1 110 07:21 19.02.2020
2333 Clear 23 1017 73 9000 3.6 100 06:53 19.02.2020
2334 Clear 23 1016 73 9000 2.6 110 06:23 19.02.2020
2335 Clear 18 1015 93 9000 3.38 111 04:24 19.02.2020
2336 Clear 19 1015 88 10000 1.5 20 02:56 19.02.2020
2337 Clear 19 1014 88 10000 1 60 02:31 19.02.2020
2338 Clouds 19 1015 93 10000 2.94 89 01:24 19.02.2020
2339 Clouds 19 1015 93 10000 0.5 70 00:50 19.02.2020
2340 Clouds 19 1015 88 10000 1 10 00:30 19.02.2020
2341 Clouds 19 1015 88 10000 1.5 350 23:44 18.02.2020
2342 Clouds 19 1016 88 10000 1.5 350 23:21 18.02.2020
2343 Clouds 20 1016 88 10000 1.5 350 22:59 18.02.2020
2344 Clouds 20 1016 88 10000 1 360 22:41 18.02.2020
2345 Clouds 20 1016 88 10000 1 360 22:19 18.02.2020
2346 Clouds 20 1016 88 10000 2.1 330 21:56 18.02.2020
2347 Clouds 21 1016 72 10000 1.5 350 21:37 18.02.2020
2348 Clouds 20 1016 72 10000 1.5 350 21:19 18.02.2020
2349 Clouds 21 1017 72 10000 1.5 360 20:56 18.02.2020
2350 Clouds 21 1017 72 10000 1.5 360 20:56 18.02.2020
2351 Clouds 21 1017 68 10000 1 20 20:38 18.02.2020
2352 Clouds 21 1017 68 10000 1 20 20:38 18.02.2020
2353 Clouds 21 1017 68 10000 1 20 20:20 18.02.2020
2354 Clouds 21 1017 72 10000 1 0 19:43 18.02.2020
2355 Clouds 21 1017 72 10000 1 0 19:20 18.02.2020
2356 Clouds 22 1017 68 10000 2.1 360 18:59 18.02.2020
2357 Clouds 22 1017 73 10000 1 60 18:41 18.02.2020
2358 Clouds 22 1017 73 10000 1 60 18:20 18.02.2020
2359 Clouds 22 1017 73 10000 1.5 50 17:56 18.02.2020
2360 Clouds 22 1017 73 10000 1.5 40 17:37 18.02.2020
2361 Clouds 22 1017 73 10000 1.5 40 17:18 18.02.2020
2362 Clouds 23 1016 64 10000 1 90 16:39 18.02.2020
2363 Clouds 23 1016 64 10000 1 90 16:19 18.02.2020
2364 Clouds 24 1016 60 10000 2.6 100 15:40 18.02.2020
2365 Clouds 24 1016 60 10000 2.6 100 15:20 18.02.2020
2366 Clouds 25 1016 50 10000 2.6 100 14:57 18.02.2020
2367 Clouds 25 1016 50 10000 2.6 100 14:57 18.02.2020
2368 Clouds 25 1016 47 10000 2.6 120 14:39 18.02.2020
2369 Clouds 26 1016 47 10000 2.6 120 14:20 18.02.2020
2370 Clouds 27 1016 39 10000 2.6 120 13:42 18.02.2020
2371 Clouds 27 1016 44 10000 3.1 120 13:23 18.02.2020
2372 Clouds 27 1016 44 10000 3.6 130 12:59 18.02.2020
2373 Clouds 27 1016 44 10000 3.6 130 12:59 18.02.2020
2374 Clouds 27 1016 39 10000 3.6 110 12:40 18.02.2020
2375 Clouds 27 1016 39 10000 3.6 110 12:22 18.02.2020
2376 Clouds 27 1017 36 10000 4.1 110 11:46 18.02.2020
2377 Clouds 27 1017 36 10000 4.6 120 11:26 18.02.2020
2378 Clouds 27 1017 44 10000 3.1 110 10:58 18.02.2020
2379 Clouds 27 1018 50 9000 3.1 120 10:39 18.02.2020
2380 Clouds 27 1018 50 9000 3.1 120 10:18 18.02.2020
2381 Clouds 27 1018 53 9000 4.1 120 09:56 18.02.2020
2382 Clouds 27 1018 47 9000 4.1 120 09:37 18.02.2020
2383 Clouds 27 1018 47 9000 4.1 120 09:19 18.02.2020
2384 Clouds 26 1019 44 10000 4.1 110 08:43 18.02.2020
2385 Clouds 26 1019 41 10000 3.1 120 08:21 18.02.2020
2386 Clouds 25 1019 47 10000 2.6 110 07:57 18.02.2020
2387 Clouds 24 1019 57 10000 2.6 120 07:36 18.02.2020
2388 Clouds 24 1019 57 10000 2.6 120 07:18 18.02.2020
2389 Clouds 23 1019 73 10000 1 0 06:41 18.02.2020
2390 Clouds 22 1019 73 10000 1 0 06:21 18.02.2020
2391 Clouds 20 1018 77 10000 3.35 116 05:46 18.02.2020
2392 Clouds 18 1017 82 10000 2.76 118 04:40 18.02.2020
2393 Clouds 19 1016 82 10000 2.76 118 03:36 18.02.2020
2394 Clouds 19 1016 82 10000 2.76 118 02:49 18.02.2020
2395 Clouds 19 1016 82 10000 0.5 0 01:21 18.02.2020
2396 Clouds 19 1016 77 10000 1 0 00:22 18.02.2020
2397 Clouds 19 1016 77 10000 0.5 0 23:57 17.02.2020
2398 Clouds 19 1016 77 10000 1.5 100 23:38 17.02.2020
2399 Clouds 19 1016 77 10000 1.5 100 23:19 17.02.2020
2400 Clouds 19 1017 82 10000 1 0 22:42 17.02.2020
2401 Clouds 19 1017 82 10000 1 0 22:21 17.02.2020
2402 Clouds 19 1017 77 10000 1 0 21:59 17.02.2020
2403 Clouds 20 1017 77 9000 1.5 90 21:38 17.02.2020
2404 -273 0 0 0 0 0 21:18 17.02.2020
2405 Haze 20 1017 77 8000 3.1 90 20:42 17.02.2020
2406 Clouds 20 1017 77 7000 3.1 100 20:42 17.02.2020
2407 Clouds 20 1017 77 7000 3.1 100 20:21 17.02.2020
2408 Clouds 20 1017 77 7000 3.1 90 19:59 17.02.2020
2409 Clouds 20 1017 82 7000 2.6 70 19:40 17.02.2020
2410 Clouds 20 1017 82 7000 2.6 70 19:40 17.02.2020
2411 Clouds 20 1017 82 7000 2.6 70 19:20 17.02.2020
2412 Clouds 20 1017 82 7000 2.1 50 18:38 17.02.2020
2413 Clouds 20 1017 82 7000 2.1 50 18:38 17.02.2020
2414 Clouds 20 1017 82 7000 2.1 50 18:20 17.02.2020
2415 Clouds 20 1017 82 7000 2.1 50 18:20 17.02.2020
2416 Clouds 20 1017 88 7000 2.1 30 17:58 17.02.2020
2417 Clouds 20 1017 88 7000 2.1 50 17:38 17.02.2020
2418 Clouds 20 1017 88 7000 2.1 50 17:38 17.02.2020
2419 Clouds 20 1017 88 7000 2.1 50 17:19 17.02.2020
2420 Clouds 20 1017 88 7000 2.6 50 16:56 17.02.2020
2421 Clouds 21 1017 82 7000 2.6 50 16:38 17.02.2020
2422 Clouds 22 1016 77 7000 2.6 50 16:20 17.02.2020
2423 Clouds 20 1017 82 7000 2.6 50 16:20 17.02.2020
2424 Clouds 22 1016 77 7000 2.6 50 15:45 17.02.2020
2425 Clouds 22 1016 68 9000 3.6 70 15:26 17.02.2020
2426 Clouds 23 1016 68 9000 3.6 80 14:56 17.02.2020
2427 Clouds 24 1016 60 9000 4.6 80 14:37 17.02.2020
2428 Clouds 24 1016 60 9000 4.6 80 14:19 17.02.2020
2429 Clouds 24 1016 56 9000 4.6 100 13:41 17.02.2020
2430 Clouds 24 1016 56 9000 4.6 100 13:20 17.02.2020
2431 Clouds 25 1016 56 9000 4.6 110 12:58 17.02.2020
2432 Clouds 26 1016 56 10000 5.1 120 12:39 17.02.2020
2433 Clouds 26 1016 56 10000 5.1 120 12:21 17.02.2020
2434 Clouds 26 1016 60 10000 5.1 110 11:46 17.02.2020
2435 Clouds 26 1016 53 10000 6.7 120 11:27 17.02.2020
2436 Clouds 25 1017 56 10000 6.7 110 10:58 17.02.2020
2437 Clouds 25 1017 53 10000 5.7 140 10:39 17.02.2020
2438 Clouds 25 1017 53 10000 5.7 140 10:20 17.02.2020
2439 Clouds 25 1018 53 10000 6.7 140 09:57 17.02.2020
2440 Clouds 25 1018 53 10000 7.2 130 09:38 17.02.2020
2441 Clouds 25 1018 53 10000 7.2 130 09:19 17.02.2020
2442 Clouds 24 1018 60 10000 6.2 140 08:42 17.02.2020
2443 Clouds 23 1019 64 10000 5.7 140 08:23 17.02.2020
2444 Clouds 22 1019 64 10000 5.1 140 07:59 17.02.2020
2445 Clouds 22 1019 77 9000 4.6 140 07:39 17.02.2020
2446 -273 0 0 0 0 0 07:21 17.02.2020
2447 Clouds 20 1019 82 9000 5.1 130 06:46 17.02.2020
2448 Clouds 19 1018 93 7000 4.6 130 06:27 17.02.2020
2449 Rain 19 1018 93 4000 2.6 130 05:40 17.02.2020
2450 Mist 18 1017 93 4000 2.6 120 04:39 17.02.2020
2451 Mist 17 1016 100 4000 2.1 120 02:59 17.02.2020
2452 Haze 17 1016 100 7000 1 120 01:23 17.02.2020
2453 Fog 16 1016 100 200 3.1 144 00:39 17.02.2020
2454 Fog 16 1016 100 200 3.1 144 00:19 17.02.2020
2455 Fog 16 1016 100 100 1 0 23:52 16.02.2020
2456 Fog 17 1016 93 100 1 0 23:27 16.02.2020
2457 Fog 17 1016 93 100 1.5 110 22:56 16.02.2020
2458 Fog 16 1017 93 100 1 0 22:38 16.02.2020
2459 Fog 16 1017 93 100 1 0 22:38 16.02.2020
2460 Fog 16 1017 93 100 1 0 22:19 16.02.2020
2461 Fog 16 1017 100 150 1 0 21:55 16.02.2020
2462 Haze 17 1017 93 5000 1.5 90 21:36 16.02.2020
2463 Haze 16 1017 93 5000 1.5 90 21:18 16.02.2020
2464 Haze 17 1017 93 5000 1 80 20:54 16.02.2020
2465 Clouds 17 1017 93 7000 3.92 128 20:36 16.02.2020
2466 Clouds 17 1017 93 7000 4.17 116 20:18 16.02.2020
2467 Clouds 17 1017 93 7000 1.5 130 19:54 16.02.2020
2468 Clouds 18 1017 93 7000 1 100 19:36 16.02.2020
2469 Clouds 18 1017 93 7000 1 100 19:18 16.02.2020
2470 Clouds 17 1017 100 7000 1.5 120 18:41 16.02.2020
2471 Clouds 17 1017 100 7000 1.5 120 18:23 16.02.2020
2472 Fog 18 1017 100 1200 2.1 130 17:45 16.02.2020
2473 Fog 18 1017 93 800 2.1 120 17:21 16.02.2020
2474 Clouds 18 1017 88 7000 2.1 100 16:58 16.02.2020
2475 Clouds 19 1017 93 7000 1.5 100 16:39 16.02.2020
2476 Clouds 19 1017 93 7000 1.5 100 16:39 16.02.2020
2477 Clouds 19 1017 93 7000 1.5 100 16:21 16.02.2020
2478 Clouds 19 1017 93 7000 1.5 100 16:21 16.02.2020
2479 Clouds 20 1017 88 7000 1.5 80 15:57 16.02.2020
2480 Clouds 20 1017 82 7000 1.5 130 15:38 16.02.2020
2481 Clouds 20 1017 82 7000 1.5 130 15:18 16.02.2020
2482 Clouds 22 1017 77 7000 3.1 100 14:40 16.02.2020
2483 Clouds 22 1017 77 7000 3.1 100 14:22 16.02.2020
2484 Clouds 22 1017 68 7000 4.1 110 13:48 16.02.2020
2485 Clouds 22 1017 73 7000 3.6 110 13:25 16.02.2020
2486 Clouds 23 1017 73 8000 3.6 110 12:56 16.02.2020
2487 Clouds 23 1017 68 9000 4.1 90 12:38 16.02.2020
2488 Clouds 23 1017 68 9000 4.1 90 12:19 16.02.2020
2489 Clouds 23 1017 64 10000 4.1 90 11:39 16.02.2020
2490 Clouds 23 1017 64 10000 4.1 90 11:19 16.02.2020
2491 Clouds 23 1018 64 10000 4.1 100 10:56 16.02.2020
2492 Clouds 23 1018 64 10000 3.1 80 10:38 16.02.2020
2493 Clouds 23 1018 64 10000 3.1 80 10:20 16.02.2020
2494 Clouds 23 1019 60 10000 2.1 40 09:57 16.02.2020
2495 Clouds 22 1019 68 10000 2.6 60 09:37 16.02.2020
2496 Clouds 22 1019 68 10000 2.6 60 09:19 16.02.2020
2497 Clouds 22 1020 68 10000 3.1 20 08:46 16.02.2020
2498 Clouds 20 1020 68 10000 2.6 20 08:21 16.02.2020
2499 Clouds 19 1020 72 10000 2.1 10 07:55 16.02.2020
2500 Clouds 19 1020 68 8000 1 0 07:34 16.02.2020
2501 Clouds 18 1020 72 8000 1.4 352 06:35 16.02.2020
2502 Clouds 13 1019 87 7000 0.5 0 04:57 16.02.2020
2503 Clouds 14 1018 87 10000 1.5 240 03:34 16.02.2020
2504 Clouds 14 1018 82 10000 2.88 341 02:32 16.02.2020
2505 Clear 14 1018 87 10000 3.85 343 01:45 16.02.2020
2506 Clear 14 1018 82 10000 1 0 01:26 16.02.2020
2507 Clear 15 1018 82 10000 1.5 290 00:59 16.02.2020
2508 Clear 15 1018 77 10000 1 0 00:39 16.02.2020
2509 Clear 15 1018 77 10000 1 0 00:19 16.02.2020
2510 Clear 16 1018 77 10000 1.5 300 23:42 15.02.2020
2511 Clear 16 1019 77 10000 2.1 310 23:23 15.02.2020
2512 Clear 16 1019 77 10000 2.1 310 22:56 15.02.2020
2513 Clear 16 1019 72 10000 2.1 310 22:37 15.02.2020
2514 Clear 16 1019 72 10000 2.1 310 22:18 15.02.2020
2515 Clear 17 1019 68 10000 2.6 320 21:42 15.02.2020
2516 Clear 17 1019 68 10000 2.1 320 21:23 15.02.2020
2517 Clear 17 1020 68 10000 2.1 300 20:43 15.02.2020
2518 Clear 17 1020 68 10000 2.1 300 20:43 15.02.2020
2519 Clear 17 1020 59 10000 2.1 300 20:21 15.02.2020
2520 Clear 18 1020 55 10000 2.6 320 19:59 15.02.2020
2521 Clear 18 1020 52 10000 2.1 330 19:40 15.02.2020
2522 Clear 18 1020 52 10000 2.1 330 19:21 15.02.2020
2523 Clear 19 1020 52 10000 2.6 330 18:40 15.02.2020
2524 Clear 19 1020 52 10000 2.6 330 18:20 15.02.2020
2525 Clear 20 1020 46 10000 4.1 310 17:55 15.02.2020
2526 Clear 20 1019 40 10000 4.1 330 17:37 15.02.2020
2527 Clear 20 1019 40 10000 4.1 330 17:18 15.02.2020
2528 Clear 22 1018 35 10000 3.1 330 16:39 15.02.2020
2529 Clear 22 1018 35 10000 3.1 330 16:20 15.02.2020
2530 Clear 23 1018 40 10000 3.1 330 15:49 15.02.2020
2531 Clear 23 1018 33 10000 4.1 360 15:31 15.02.2020
2532 Clear 24 1018 33 10000 3.6 10 14:55 15.02.2020
2533 Clear 24 1018 33 10000 4.1 360 14:37 15.02.2020
2534 Clear 25 1018 33 10000 4.1 360 14:18 15.02.2020
2535 Clear 25 1017 36 10000 5.7 10 13:41 15.02.2020
2536 Clear 24 1017 36 10000 5.7 10 13:22 15.02.2020
2537 Clear 24 1018 36 10000 5.7 360 12:55 15.02.2020
2538 Clear 24 1018 33 10000 6.2 360 12:37 15.02.2020
2539 Clear 25 1018 33 10000 6.2 360 12:19 15.02.2020
2540 Clear 25 1018 33 10000 6.7 350 11:41 15.02.2020
2541 Clear 25 1018 38 10000 6.2 350 11:23 15.02.2020
2542 Clear 25 1019 38 10000 5.7 350 10:47 15.02.2020
2543 Clear 25 1019 36 10000 5.7 330 10:29 15.02.2020
2544 Clear 24 1020 36 10000 4.6 310 09:45 15.02.2020
2545 Clear 23 1020 38 10000 4.6 310 09:26 15.02.2020
2546 Clear 22 1021 40 10000 4.1 300 08:59 15.02.2020
2547 Clear 22 1021 40 10000 3.1 290 08:41 15.02.2020
2548 Clear 22 1021 40 10000 3.1 290 08:22 15.02.2020
2549 Clear 19 1021 55 10000 3.1 290 07:44 15.02.2020
2550 Clear 18 1021 55 10000 3.1 290 07:25 15.02.2020
2551 Clear 18 1021 63 10000 2.6 270 06:40 15.02.2020
2552 Clear 17 1021 63 10000 2.6 270 06:21 15.02.2020
2553 Clear 13 1020 67 10000 3.1 240 04:57 15.02.2020
2554 Clear 13 1020 67 10000 2.6 240 04:31 15.02.2020
2555 Clear 13 1019 67 10000 2.1 240 03:21 15.02.2020
2556 Clear 14 1019 63 10000 2.1 290 02:41 15.02.2020
2557 Clear 14 1019 63 10000 2.1 290 02:19 15.02.2020
2558 Clear 14 1019 67 10000 2.6 300 01:38 15.02.2020
2559 Clear 14 1019 67 10000 3.6 310 00:36 15.02.2020
2560 Clear 14 1019 72 10000 3.6 310 00:18 15.02.2020
2561 Clear 14 1020 77 10000 2.6 300 23:39 14.02.2020
2562 Clear 14 1020 77 10000 2.6 300 23:18 14.02.2020
2563 Clear 15 1020 77 10000 2.6 310 22:43 14.02.2020
2564 Clear 15 1020 77 10000 2.1 310 22:22 14.02.2020
2565 Clear 15 1020 77 10000 2.1 300 21:50 14.02.2020
2566 Clear 15 1021 77 10000 3.1 310 21:31 14.02.2020
2567 Clear 16 1021 67 10000 2.1 310 20:58 14.02.2020
2568 Clear 16 1021 67 10000 2.1 320 20:38 14.02.2020
2569 Clear 16 1021 67 10000 2.1 320 20:38 14.02.2020
2570 Clear 16 1021 67 10000 2.1 320 20:19 14.02.2020
2571 Clear 16 1021 67 10000 2.1 320 20:19 14.02.2020
2572 Clear 16 1021 67 10000 2.1 320 19:42 14.02.2020
2573 Clear 16 1022 67 10000 3.1 320 19:23 14.02.2020
2574 Clear 16 1022 67 10000 2.1 320 18:58 14.02.2020
2575 Clear 17 1022 59 10000 3.6 330 18:40 14.02.2020
2576 Clear 17 1022 59 10000 3.6 330 18:20 14.02.2020
2577 Clear 18 1022 59 10000 4.1 330 17:44 14.02.2020
2578 Clear 18 1022 59 10000 4.1 330 17:44 14.02.2020
2579 Clear 18 1021 59 10000 4.6 340 17:23 14.02.2020
2580 Clear 18 1021 59 10000 4.6 340 17:23 14.02.2020
2581 Clear 19 1021 55 10000 6.2 340 16:59 14.02.2020
2582 Clear 19 1021 56 10000 6.2 340 16:41 14.02.2020
2583 Clear 19 1021 56 10000 6.2 340 16:23 14.02.2020
2584 Clear 20 1021 68 10000 4.1 360 15:56 14.02.2020
2585 Clear 20 1021 64 10000 4.6 360 15:38 14.02.2020
2586 Clear 20 1021 64 10000 4.6 360 15:38 14.02.2020
2587 Clear 20 1021 64 10000 4.6 360 15:20 14.02.2020
2588 Clear 21 1021 64 10000 4.6 10 14:59 14.02.2020
2589 Clear 21 1020 56 10000 4.6 10 14:40 14.02.2020
2590 Clear 21 1020 56 10000 4.6 10 14:22 14.02.2020
2591 Clear 23 1020 49 10000 5.1 10 13:56 14.02.2020
2592 Clear 23 1020 46 10000 5.7 360 13:38 14.02.2020
2593 Clear 22 1020 46 10000 5.7 360 13:19 14.02.2020
2594 Clear 22 1020 46 10000 5.7 360 12:56 14.02.2020
2595 Clear 23 1021 46 10000 4.1 10 12:38 14.02.2020
2596 Clear 22 1021 46 10000 4.1 10 12:19 14.02.2020
2597 Clear 23 1021 40 10000 3.6 310 11:55 14.02.2020
2598 Clear 23 1021 43 10000 4.1 310 11:36 14.02.2020
2599 Clear 22 1021 43 10000 4.1 310 11:18 14.02.2020
2600 Clear 20 1022 49 10000 4.1 330 10:41 14.02.2020
2601 Clear 21 1022 49 10000 4.1 330 10:22 14.02.2020
2602 Clear 21 1023 49 10000 4.1 300 09:45 14.02.2020
2603 Clear 20 1023 52 10000 4.1 320 09:23 14.02.2020
2604 Clear 20 1024 52 10000 3.6 290 08:57 14.02.2020
2605 Clear 19 1024 55 10000 4.1 300 08:39 14.02.2020
2606 Clear 18 1024 55 10000 4.1 300 08:20 14.02.2020
2607 Clear 17 1024 59 10000 3.6 290 07:49 14.02.2020
2608 Clear 17 1024 63 10000 3.6 290 07:29 14.02.2020
2609 Clear 16 1024 67 10000 4.1 280 06:39 14.02.2020
2610 Clear 15 1024 67 10000 4.1 280 06:20 14.02.2020
2611 Clear 13 1023 76 10000 2.6 250 05:29 14.02.2020
2612 Clear 12 1023 81 10000 2.6 270 03:49 14.02.2020
2613 Clear 12 1023 76 10000 2.1 260 02:58 14.02.2020
2614 Clear 12 1023 76 10000 1.5 260 01:57 14.02.2020
2615 Clear 13 1023 71 10000 3.6 300 00:52 14.02.2020
2616 Clear 13 1023 71 10000 4.1 310 00:31 14.02.2020
2617 Clear 13 1023 71 10000 3.1 300 23:57 13.02.2020
2618 Clear 13 1024 71 10000 3.6 300 23:38 13.02.2020
2619 Clear 13 1024 71 10000 3.6 300 23:18 13.02.2020
2620 Clear 13 1024 71 10000 3.6 310 22:40 13.02.2020
2621 Clear 13 1024 71 10000 3.6 310 22:19 13.02.2020
2622 Clear 13 1024 71 10000 4.1 300 21:58 13.02.2020
2623 Clear 14 1024 71 10000 4.1 310 21:40 13.02.2020
2624 Clear 14 1024 71 10000 4.1 310 21:40 13.02.2020
2625 Clear 13 1024 71 10000 4.1 310 21:20 13.02.2020
2626 Clear 14 1025 67 10000 4.1 310 20:42 13.02.2020
2627 Clear 14 1025 67 10000 4.1 310 20:22 13.02.2020
2628 Clear 14 1025 62 10000 4.1 310 19:58 13.02.2020
2629 Clear 14 1025 62 10000 4.1 310 19:39 13.02.2020
2630 Clear 14 1025 62 10000 4.1 310 19:20 13.02.2020
2631 Clear 15 1025 62 10000 3.6 310 18:58 13.02.2020
2632 Clear 15 1025 55 10000 4.1 320 18:39 13.02.2020
2633 Clear 15 1025 55 10000 4.1 320 18:21 13.02.2020
2634 Clear 15 1025 55 10000 4.1 320 17:57 13.02.2020
2635 Clear 16 1025 55 10000 5.1 330 17:37 13.02.2020
2636 Clear 16 1025 55 10000 5.1 330 17:19 13.02.2020
2637 Clear 16 1025 55 10000 4.1 320 16:42 13.02.2020
2638 Clear 16 1025 51 10000 5.7 330 16:21 13.02.2020
2639 Clear 17 1025 51 10000 6.7 330 15:58 13.02.2020
2640 Clear 17 1024 45 10000 7.7 330 15:39 13.02.2020
2641 Clear 17 1024 45 10000 7.7 330 15:20 13.02.2020
2642 Clear 19 1024 42 10000 8.2 330 14:59 13.02.2020
2643 Clear 19 1024 45 10000 6.7 330 14:40 13.02.2020
2644 Clear 19 1024 45 10000 6.7 330 14:22 13.02.2020
2645 Clear 19 1024 45 10000 6.2 330 13:54 13.02.2020
2646 Clear 19 1025 42 10000 5.7 320 13:36 13.02.2020
2647 Clear 19 1025 42 10000 5.7 320 13:18 13.02.2020
2648 Clear 20 1025 40 10000 6.2 330 12:48 13.02.2020
2649 Clear 20 1025 40 10000 6.2 330 12:30 13.02.2020
2650 Clear 20 1025 40 10000 5.7 330 11:57 13.02.2020
2651 Clear 19 1025 42 10000 5.1 310 11:39 13.02.2020
2652 Clear 19 1025 42 10000 5.1 310 11:18 13.02.2020
2653 Clear 19 1026 37 10000 5.7 320 10:43 13.02.2020
2654 -273 0 0 0 0 0 10:23 13.02.2020
2655 Clear 18 1027 45 10000 6.2 300 09:46 13.02.2020
2656 Clear 18 1027 45 10000 5.1 310 09:24 13.02.2020
2657 Clear 17 1027 48 10000 6.7 300 08:47 13.02.2020
2658 Clear 17 1028 51 10000 5.7 310 08:20 13.02.2020
2659 Clear 15 1028 54 10000 5.1 310 07:44 13.02.2020
2660 Clear 15 1028 54 10000 5.1 310 07:44 13.02.2020
2661 Clear 15 1028 51 10000 4.6 300 07:24 13.02.2020
2662 Clear 15 1028 51 10000 4.6 300 07:24 13.02.2020
2663 Clear 14 1028 54 10000 4.6 300 06:54 13.02.2020
2664 Clear 13 1028 58 10000 3.6 280 06:36 13.02.2020
2665 Clear 12 1028 58 10000 3.6 280 05:56 13.02.2020
2666 Clear 11 1027 62 10000 4.1 280 04:50 13.02.2020
2667 Clear 10 1027 62 10000 4.6 290 04:24 13.02.2020
2668 Clear 11 1026 62 10000 3.1 280 03:41 13.02.2020
2669 Clear 11 1026 57 10000 4.1 290 02:59 13.02.2020
2670 Clear 11 1025 62 10000 5.1 290 02:20 13.02.2020
2671 Clear 11 1026 66 10000 4.6 290 01:54 13.02.2020
2672 Clear 11 1026 66 10000 4.6 290 01:54 13.02.2020
2673 Clear 11 1026 66 10000 3.6 290 01:25 13.02.2020
2674 Clear 11 1026 62 10000 2.1 270 00:28 13.02.2020
2675 Clear 11 1027 62 10000 2.1 270 23:57 12.02.2020
2676 Clear 11 1027 62 10000 2.6 270 23:37 12.02.2020
2677 Clear 11 1027 62 10000 2.6 270 23:18 12.02.2020
2678 Clear 11 1027 58 10000 2.1 260 22:41 12.02.2020
2679 Clear 11 1027 62 10000 2.6 280 22:23 12.02.2020
2680 Clear 11 1027 62 10000 2.6 270 21:56 12.02.2020
2681 Clear 11 1027 58 10000 3.6 290 21:37 12.02.2020
2682 Clear 11 1027 58 10000 3.6 290 21:37 12.02.2020
2683 Clear 11 1027 58 10000 3.6 290 21:18 12.02.2020
2684 Clear 12 1027 58 10000 3.6 310 20:54 12.02.2020
2685 Clear 12 1028 58 10000 4.1 310 20:36 12.02.2020
2686 Clear 12 1028 58 10000 4.1 310 20:18 12.02.2020
2687 Clear 12 1028 58 10000 4.1 310 19:43 12.02.2020
2688 Clear 12 1028 58 10000 5.1 310 19:22 12.02.2020
2689 Clear 12 1028 58 10000 5.1 310 18:54 12.02.2020
2690 Clear 12 1027 58 10000 5.1 320 18:36 12.02.2020
2691 Clear 12 1027 58 10000 5.1 320 18:18 12.02.2020
2692 Clear 12 1027 50 10000 6.2 320 17:40 12.02.2020
2693 Clear 12 1027 50 10000 6.2 320 17:19 12.02.2020
2694 Clear 13 1027 50 10000 7.2 320 16:57 12.02.2020
2695 Clear 12 1026 47 10000 6.7 320 16:37 12.02.2020
2696 Clear 13 1026 47 10000 6.7 320 16:18 12.02.2020
2697 Clear 13 1026 47 10000 6.7 310 15:39 12.02.2020
2698 Clear 13 1026 47 10000 6.7 310 15:20 12.02.2020
2699 Clear 14 1026 44 10000 6.7 320 14:54 12.02.2020
2700 Clear 14 1025 38 10000 8.2 320 14:36 12.02.2020
2701 Clear 15 1025 38 10000 8.2 320 14:18 12.02.2020
2702 Clear 15 1025 38 10000 8.2 320 13:55 12.02.2020
2703 Clear 15 1025 41 10000 9.8 320 13:36 12.02.2020
2704 Clear 15 1025 41 10000 9.8 320 13:18 12.02.2020
2705 Clear 16 1025 38 10000 7.7 320 12:55 12.02.2020
2706 Clear 16 1025 36 10000 8.7 310 12:36 12.02.2020
2707 Clear 16 1025 36 10000 8.7 310 12:18 12.02.2020
2708 Clear 16 1026 36 10000 8.2 310 11:41 12.02.2020
2709 Clear 16 1026 36 10000 8.2 310 11:21 12.02.2020
2710 Clear 16 1026 36 10000 8.7 320 10:58 12.02.2020
2711 Clear 16 1026 36 10000 8.7 320 10:58 12.02.2020
2712 Clear 16 1026 36 10000 7.2 310 10:40 12.02.2020
2713 Clear 16 1026 36 10000 7.2 310 10:20 12.02.2020
2714 Clear 16 1026 36 10000 7.2 310 10:20 12.02.2020
2715 Clear 16 1027 36 10000 7.7 320 09:54 12.02.2020
2716 Clear 16 1027 38 10000 8.2 320 09:36 12.02.2020
2717 Clear 16 1027 38 10000 8.2 320 09:18 12.02.2020
2718 Clear 15 1027 38 10000 6.7 310 08:55 12.02.2020
2719 Clear 15 1027 41 10000 6.7 320 08:36 12.02.2020
2720 Clear 14 1027 50 10000 6.7 310 08:18 12.02.2020
2721 Clear 14 1027 47 10000 6.2 310 07:41 12.02.2020
2722 Clear 14 1027 47 10000 6.2 310 07:20 12.02.2020
2723 Clear 13 1027 50 10000 5.7 300 06:47 12.02.2020
2724 Clear 13 1027 50 10000 6.7 290 06:20 12.02.2020
2725 Clear 11 1026 53 10000 6.7 290 05:32 12.02.2020
2726 Clear 11 1025 50 10000 6.7 300 04:43 12.02.2020
2727 Clear 11 1025 65 10000 7.2 300 03:59 12.02.2020
2728 Clear 11 1024 65 10000 6.2 300 03:30 12.02.2020
2729 Clear 12 1024 46 10000 6.2 300 02:46 12.02.2020
2730 Clear 12 1024 46 10000 5.7 300 02:27 12.02.2020
2731 Clear 12 1023 58 10000 5.7 300 01:34 12.02.2020
2732 Clear 13 1023 58 10000 7.2 300 00:41 12.02.2020
2733 Clear 13 1023 58 10000 6.2 300 00:23 12.02.2020
2734 Clear 14 1023 41 10000 6.2 300 23:51 11.02.2020
2735 Clear 14 1023 44 10000 4.1 310 23:33 11.02.2020
2736 Clear 14 1023 44 10000 3.6 310 22:58 11.02.2020
2737 Clear 14 1023 47 10000 3.6 310 22:40 11.02.2020
2738 Clear 14 1023 47 10000 3.6 310 22:20 11.02.2020
2739 Clear 14 1023 44 10000 4.6 320 21:57 11.02.2020
2740 Clear 14 1023 47 10000 5.1 310 21:39 11.02.2020
2741 Clear 14 1023 47 10000 5.1 320 21:19 11.02.2020
2742 Clear 14 1023 47 10000 5.1 320 20:59 11.02.2020
2743 Clear 14 1023 47 10000 4.6 320 20:39 11.02.2020
2744 Clear 14 1023 47 10000 4.6 320 20:19 11.02.2020
2745 Clear 14 1023 50 10000 4.6 330 19:58 11.02.2020
2746 Clear 14 1023 47 10000 5.7 330 19:39 11.02.2020
2747 Clear 14 1023 47 10000 5.7 330 19:20 11.02.2020
2748 Clear 15 1022 47 10000 5.7 320 18:45 11.02.2020
2749 Clear 15 1022 47 10000 5.7 320 18:27 11.02.2020
2750 Clear 15 1022 47 10000 8.2 340 17:57 11.02.2020
2751 Clear 15 1021 47 10000 8.7 330 17:39 11.02.2020
2752 Clear 15 1021 47 10000 8.7 330 17:19 11.02.2020
2753 Clouds 15 1021 47 10000 6.7 320 16:58 11.02.2020
2754 Clouds 15 1021 44 10000 7.2 330 16:39 11.02.2020
2755 Clouds 15 1021 44 10000 7.2 330 16:21 11.02.2020
2756 Clouds 16 1020 44 10000 10.3 340 15:57 11.02.2020
2757 Clouds 16 1020 44 10000 6.2 320 15:39 11.02.2020
2758 Clouds 16 1020 42 10000 9.3 340 15:20 11.02.2020
2759 Clouds 16 1020 42 10000 9.3 340 14:41 11.02.2020
2760 Clouds 17 1019 42 10000 10.3 340 14:19 11.02.2020
2761 Clouds 17 1019 39 10000 10.3 340 13:56 11.02.2020
2762 Clouds 17 1019 39 10000 10.3 340 13:38 11.02.2020
2763 Clouds 18 1019 39 10000 10.3 340 13:19 11.02.2020
2764 Clouds 18 1019 42 10000 11.3 340 12:41 11.02.2020
2765 Clouds 18 1019 42 10000 11.3 340 12:22 11.02.2020
2766 Clouds 18 1019 42 10000 11.3 340 12:22 11.02.2020
2767 Clouds 19 1018 45 10000 12.3 350 11:59 11.02.2020
2768 Clouds 19 1019 45 10000 12.3 350 11:40 11.02.2020
2769 Clouds 19 1019 45 10000 12.3 350 11:19 11.02.2020
2770 Clouds 19 1019 48 10000 12.3 350 10:54 11.02.2020
2771 Clouds 19 1019 45 10000 11.8 340 10:36 11.02.2020
2772 Clouds 19 1019 45 10000 11.8 340 10:18 11.02.2020
2773 Clouds 19 1019 45 10000 11.3 340 09:42 11.02.2020
2774 Clouds 19 1020 48 10000 11.8 350 09:22 11.02.2020
2775 Clouds 19 1020 45 10000 10.8 340 08:55 11.02.2020
2776 Clouds 19 1020 52 10000 10.8 340 08:37 11.02.2020
2777 Clouds 18 1020 52 10000 10.8 340 08:18 11.02.2020
2778 Clouds 17 1020 59 10000 10.8 340 07:41 11.02.2020
2779 Clouds 17 1020 59 10000 10.8 340 07:19 11.02.2020
2780 Clouds 17 1020 59 10000 10.8 340 07:19 11.02.2020
2781 Clear 16 1019 63 10000 10.3 330 06:40 11.02.2020
2782 Clear 16 1019 63 10000 10.3 330 06:20 11.02.2020
2783 Clouds 16 1018 63 10000 10.3 330 05:47 11.02.2020
2784 Clouds 16 1018 63 10000 10.3 330 05:47 11.02.2020
2785 Clouds 16 1018 63 10000 10.3 330 05:20 11.02.2020
2786 Clouds 16 1017 63 10000 8.2 330 04:35 11.02.2020
2787 Clear 17 1015 59 10000 8.7 330 02:40 11.02.2020
2788 Clouds 17 1015 59 10000 8.7 330 02:22 11.02.2020
2789 Clouds 17 1016 55 10000 9.3 330 01:32 11.02.2020
2790 Clouds 18 1016 45 10000 7.7 330 00:28 11.02.2020
2791 Clouds 18 1016 45 10000 6.2 320 23:52 10.02.2020
2792 Clouds 18 1016 45 10000 6.7 330 23:31 10.02.2020
2793 Clouds 18 1016 45 10000 6.2 320 22:58 10.02.2020
2794 Clouds 18 1016 45 10000 6.2 320 22:38 10.02.2020
2795 Clouds 18 1016 45 10000 6.2 320 22:19 10.02.2020
2796 Clouds 18 1016 45 10000 6.7 320 21:43 10.02.2020
2797 Clouds 18 1016 45 10000 6.7 320 21:25 10.02.2020
2798 Clouds 18 1016 45 10000 6.7 320 20:57 10.02.2020
2799 Clouds 18 1016 48 10000 5.7 320 20:38 10.02.2020
2800 Clouds 18 1016 48 10000 5.7 320 20:20 10.02.2020
2801 Clouds 19 1016 42 10000 7.2 330 19:58 10.02.2020
2802 Clouds 19 1016 42 10000 6.2 320 19:38 10.02.2020
2803 Clouds 19 1016 42 10000 6.2 320 19:18 10.02.2020
2804 Clouds 19 1016 45 10000 6.2 330 18:58 10.02.2020
2805 Clouds 19 1016 45 10000 6.2 330 18:39 10.02.2020
2806 Clouds 19 1016 45 10000 6.2 330 18:20 10.02.2020
2807 Clouds 19 1016 45 10000 6.7 330 17:56 10.02.2020
2808 Clouds 19 1015 45 10000 8.2 340 17:37 10.02.2020
2809 Clouds 19 1015 45 10000 8.2 340 17:19 10.02.2020
2810 Clouds 20 1015 45 10000 7.7 330 16:58 10.02.2020
2811 Clouds 20 1015 45 10000 8.2 340 16:38 10.02.2020
2812 Clouds 20 1015 45 10000 8.2 340 16:19 10.02.2020
2813 Clouds 20 1015 42 10000 9.3 340 15:55 10.02.2020
2814 Clouds 21 1015 43 10000 9.3 340 15:37 10.02.2020
2815 Clouds 21 1015 43 10000 9.3 340 15:18 10.02.2020
2816 Clouds 21 1014 52 10000 8.7 360 14:41 10.02.2020
2817 Clouds 22 1014 52 10000 8.7 360 14:20 10.02.2020
2818 Clouds 22 1014 52 10000 8.7 360 14:20 10.02.2020
2819 Clouds 22 1014 49 10000 8.7 360 13:57 10.02.2020
2820 Clouds 21 1014 49 10000 7.7 360 13:39 10.02.2020
2821 Clouds 21 1014 49 10000 7.7 360 13:21 10.02.2020
2822 Clouds 22 1014 49 8000 8.2 350 12:47 10.02.2020
2823 Clouds 21 1015 52 7000 7.7 10 12:26 10.02.2020
2824 Clouds 22 1015 46 7000 8.2 350 11:56 10.02.2020
2825 Clouds 22 1015 53 6000 7.7 360 11:38 10.02.2020
2826 Clouds 22 1015 53 6000 7.7 360 11:19 10.02.2020
2827 Clouds 23 1015 53 6000 8.7 360 10:46 10.02.2020
2828 Clouds 22 1016 56 6000 8.7 350 10:27 10.02.2020
2829 Clouds 22 1016 53 6000 7.7 360 09:47 10.02.2020
2830 Haze 22 1017 49 5000 8.7 340 09:26 10.02.2020
2831 Haze 22 1017 53 5000 9.3 340 08:56 10.02.2020
2832 Haze 22 1018 56 4500 8.7 340 08:37 10.02.2020
2833 Haze 21 1018 56 4500 8.7 340 08:18 10.02.2020
2834 Haze 21 1018 56 4500 8.7 340 07:47 10.02.2020
2835 Haze 21 1018 60 4500 8.7 340 07:26 10.02.2020
2836 Haze 20 1017 64 5000 9.8 340 06:19 10.02.2020
2837 Clouds 19 1016 63 8000 7.2 330 04:27 10.02.2020
2838 Clouds 20 1015 56 10000 7.7 330 03:34 10.02.2020
2839 Clouds 20 1015 56 10000 7.7 330 02:54 10.02.2020
2840 Clouds 20 1015 60 10000 6.7 330 01:55 10.02.2020
2841 Clouds 20 1015 64 10000 5.7 320 00:49 10.02.2020
2842 Clouds 20 1016 60 10000 5.7 330 00:31 10.02.2020
2843 Clouds 20 1016 64 10000 5.1 320 23:56 09.02.2020
2844 Clouds 20 1016 64 10000 5.1 330 23:38 09.02.2020
2845 Clouds 20 1016 64 10000 5.1 330 23:19 09.02.2020
2846 Clouds 20 1016 68 10000 5.1 320 22:39 09.02.2020
2847 Clouds 20 1016 68 10000 5.1 320 22:21 09.02.2020
2848 Clouds 20 1016 68 10000 4.6 310 21:43 09.02.2020
2849 Clouds 20 1016 73 10000 4.6 310 21:24 09.02.2020
2850 Clouds 21 1016 73 10000 3.6 330 20:48 09.02.2020
2851 Clouds 21 1016 73 10000 4.6 330 20:28 09.02.2020
2852 Clouds 21 1016 77 10000 4.1 340 19:58 09.02.2020
2853 Clouds 21 1016 83 9000 6.2 340 19:39 09.02.2020
2854 Clouds 21 1016 83 9000 6.2 340 19:21 09.02.2020
2855 Clouds 21 1016 78 9000 5.7 340 18:57 09.02.2020
2856 Clouds 21 1016 78 10000 6.2 340 18:38 09.02.2020
2857 Clouds 22 1016 78 10000 6.2 340 18:20 09.02.2020
2858 Clouds 22 1016 78 10000 5.7 340 17:42 09.02.2020
2859 Clear 22 1015 73 10000 5.1 340 17:22 09.02.2020
2860 Clear 22 1015 64 10000 6.2 340 16:56 09.02.2020
2861 Clear 22 1015 64 10000 6.2 340 16:56 09.02.2020
2862 Clear 22 1014 56 10000 6.7 330 16:37 09.02.2020
2863 Clear 23 1014 56 10000 6.7 330 16:18 09.02.2020
2864 Clear 25 1014 50 10000 6.7 330 15:54 09.02.2020
2865 Clear 26 1014 47 10000 4.6 290 15:36 09.02.2020
2866 Clear 26 1014 47 10000 4.6 290 15:18 09.02.2020
2867 Clear 28 1013 30 10000 4.1 220 14:41 09.02.2020
2868 Clear 28 1013 30 10000 4.1 220 14:23 09.02.2020
2869 Clouds 28 1014 32 10000 4.6 230 13:47 09.02.2020
2870 Clouds 28 1014 30 10000 5.1 230 13:28 09.02.2020
2871 Clouds 29 1014 30 10000 4.6 230 12:57 09.02.2020
2872 Clouds 29 1014 28 10000 5.7 220 12:39 09.02.2020
2873 Clouds 29 1014 28 10000 5.7 220 12:19 09.02.2020
2874 Clouds 29 1014 28 10000 4.6 230 11:55 09.02.2020
2875 Clouds 29 1015 28 10000 5.1 230 11:36 09.02.2020
2876 Clouds 29 1015 28 10000 5.1 230 11:18 09.02.2020
2877 Clouds 28 1015 30 10000 6.2 200 10:41 09.02.2020
2878 Clouds 28 1015 30 10000 6.2 200 10:22 09.02.2020
2879 Clouds 27 1016 30 10000 5.7 200 09:47 09.02.2020
2880 Clouds 27 1016 36 10000 4.1 190 09:28 09.02.2020
2881 Clouds 26 1017 47 10000 2.6 130 08:55 09.02.2020
2882 Clouds 26 1017 47 10000 2.1 130 08:37 09.02.2020
2883 Clouds 24 1017 47 10000 2.1 130 08:19 09.02.2020
2884 Clouds 23 1017 47 10000 3.1 130 07:49 09.02.2020
2885 Clouds 24 1017 50 10000 1 0 06:54 09.02.2020
2886 Clouds 23 1017 56 10000 1 0 06:36 09.02.2020
2887 Clouds 21 1017 56 10000 1 0 05:49 09.02.2020
2888 Clouds 20 1016 60 10000 1.5 50 05:31 09.02.2020
2889 Clouds 20 1015 56 10000 4.1 290 03:58 09.02.2020
2890 Clouds 20 1015 64 10000 2.6 250 02:47 09.02.2020
2891 Clouds 20 1014 64 10000 4.6 160 02:27 09.02.2020
2892 Clear 20 1014 68 10000 4.6 150 01:35 09.02.2020
2893 Clear 21 1014 68 10000 4.1 150 00:55 09.02.2020
2894 Clear 21 1014 64 10000 4.6 140 00:29 09.02.2020
2895 Clear 21 1014 64 10000 4.6 140 23:48 08.02.2020
2896 Clear 21 1015 60 10000 4.6 130 23:23 08.02.2020
2897 Clear 21 1014 64 10000 5.1 130 22:56 08.02.2020
2898 Clear 21 1015 60 10000 5.1 130 22:38 08.02.2020
2899 Clear 21 1015 60 10000 5.1 130 22:20 08.02.2020
2900 Clear 21 1015 68 10000 4.6 130 21:44 08.02.2020
2901 Clear 21 1015 68 10000 5.1 130 21:25 08.02.2020
2902 Clear 22 1015 68 10000 4.6 130 20:58 08.02.2020
2903 Clear 22 1016 68 10000 4.1 130 20:39 08.02.2020
2904 Clear 22 1016 68 10000 4.1 130 20:19 08.02.2020
2905 Clear 21 1016 73 10000 3.6 120 19:56 08.02.2020
2906 Clear 21 1016 73 10000 3.6 120 19:38 08.02.2020
2907 Clear 21 1016 73 10000 3.6 120 19:19 08.02.2020
2908 Clear 21 1016 68 10000 3.6 110 18:43 08.02.2020
2909 Clear 21 1016 68 10000 3.6 110 18:25 08.02.2020
2910 Clear 22 1016 60 10000 4.1 110 17:58 08.02.2020
2911 Clear 22 1016 60 10000 2.6 100 17:40 08.02.2020
2912 Clear 22 1016 60 10000 2.6 100 17:18 08.02.2020
2913 Clear 22 1015 60 10000 4.1 100 16:40 08.02.2020
2914 Clear 22 1015 60 10000 4.1 100 16:22 08.02.2020
2915 Clear 23 1015 60 8000 5.1 110 15:57 08.02.2020
2916 Clear 23 1015 64 8000 4.1 100 15:39 08.02.2020
2917 Clear 23 1015 64 8000 4.1 100 15:18 08.02.2020
2918 Clear 24 1015 56 8000 4.6 100 14:44 08.02.2020
2919 Clear 24 1015 56 8000 4.6 100 14:20 08.02.2020
2920 Clear 25 1015 60 8000 6.2 110 13:56 08.02.2020
2921 Clear 25 1015 60 8000 6.7 120 13:38 08.02.2020
2922 Clear 25 1015 60 8000 6.7 120 13:19 08.02.2020
2923 Clear 25 1015 64 8000 8.2 120 12:40 08.02.2020
2924 Clear 25 1015 64 8000 8.2 120 12:21 08.02.2020
2925 Clear 25 1016 64 10000 6.2 110 11:55 08.02.2020
2926 Clear 25 1016 50 10000 7.2 130 11:37 08.02.2020
2927 Clear 25 1016 50 10000 7.2 130 11:18 08.02.2020
2928 Clear 25 1017 53 10000 7.2 140 10:42 08.02.2020
2929 Clear 25 1017 53 10000 7.2 140 10:21 08.02.2020
2930 Clear 25 1017 57 10000 7.2 140 09:51 08.02.2020
2931 Clear 25 1018 57 10000 6.7 140 09:27 08.02.2020
2932 Clear 24 1018 57 10000 6.7 140 08:54 08.02.2020
2933 Clear 24 1019 60 10000 6.2 140 08:36 08.02.2020
2934 Clear 24 1019 60 10000 6.2 140 08:36 08.02.2020
2935 Clear 24 1019 60 10000 6.2 140 08:18 08.02.2020
2936 Clear 23 1019 64 10000 6.2 140 07:43 08.02.2020
2937 Clear 22 1019 73 10000 6.2 140 07:18 08.02.2020
2938 Clear 21 1019 82 10000 2.6 130 06:23 08.02.2020
2939 Clear 20 1019 82 10000 2.6 140 05:47 08.02.2020
2940 Clear 19 1018 82 10000 2.1 130 05:28 08.02.2020
2941 Clear 18 1018 77 10000 1 130 04:37 08.02.2020
2942 Clear 18 1017 77 10000 1 140 03:41 08.02.2020
2943 Clear 18 1017 72 10000 0.5 110 02:43 08.02.2020
2944 Clear 19 1017 68 10000 1 170 01:37 08.02.2020
2945 Clear 19 1017 68 10000 1 170 01:19 08.02.2020
2946 Clear 19 1017 60 10000 2.6 140 00:38 08.02.2020
2947 Clear 19 1017 60 10000 2.6 140 00:20 08.02.2020
2948 Clear 19 1017 63 10000 2.6 140 23:42 07.02.2020
2949 Clear 19 1017 56 10000 2.6 150 23:20 07.02.2020
2950 Clear 19 1017 59 10000 3.1 140 22:56 07.02.2020
2951 Clear 20 1017 56 10000 3.1 150 22:37 07.02.2020
2952 Clear 20 1017 56 10000 3.1 150 22:19 07.02.2020
2953 Clear 20 1017 59 10000 3.6 150 21:42 07.02.2020
2954 Clear 20 1018 56 10000 2.6 150 21:22 07.02.2020
2955 Clear 20 1018 68 10000 2.1 130 20:41 07.02.2020
2956 Clear 20 1018 68 10000 2.1 130 20:22 07.02.2020
2957 Clear 20 1018 64 10000 1.5 120 19:57 07.02.2020
2958 Clear 20 1018 64 10000 1 110 19:38 07.02.2020
2959 Clear 20 1018 64 10000 1 110 19:19 07.02.2020
2960 Clear 21 1018 68 10000 1.5 130 18:46 07.02.2020
2961 Clear 21 1018 68 10000 1.5 130 18:27 07.02.2020
2962 Clear 21 1018 68 10000 2.6 120 17:57 07.02.2020
2963 Clear 21 1018 68 10000 2.1 130 17:39 07.02.2020
2964 Clear 21 1018 68 10000 2.1 130 17:21 07.02.2020
2965 Clear 21 1018 68 10000 2.6 120 16:52 07.02.2020
2966 Clear 21 1018 68 10000 2.6 120 16:52 07.02.2020
2967 Clear 22 1017 64 10000 3.6 120 16:25 07.02.2020
2968 Clear 22 1017 52 10000 3.6 120 15:56 07.02.2020
2969 Clear 23 1017 46 10000 3.6 120 15:38 07.02.2020
2970 Clear 23 1017 46 10000 3.6 120 15:20 07.02.2020
2971 Clear 23 1017 46 10000 3.6 120 15:20 07.02.2020
2972 Clear 23 1017 46 10000 4.6 120 14:42 07.02.2020
2973 Clear 25 1017 29 10000 4.6 120 14:24 07.02.2020
2974 Clouds 26 1017 31 10000 4.6 120 13:57 07.02.2020
2975 Clouds 26 1017 22 10000 4.6 120 13:39 07.02.2020
2976 Clouds 26 1017 22 10000 4.6 120 13:39 07.02.2020
2977 Clear 26 1017 22 10000 4.6 120 13:20 07.02.2020
2978 Clear 26 1017 42 10000 5.1 110 12:45 07.02.2020
2979 Clear 27 1017 20 10000 5.1 100 12:26 07.02.2020
2980 Clear 27 1017 19 10000 3.6 120 11:59 07.02.2020
2981 Clear 26 1018 20 10000 3.1 130 11:40 07.02.2020
2982 Clear 26 1018 20 10000 3.1 130 11:19 07.02.2020
2983 Clear 25 1019 39 10000 4.6 110 10:41 07.02.2020
2984 Clear 25 1019 39 10000 4.6 110 10:22 07.02.2020
2985 Clear 26 1019 39 10000 5.7 110 09:56 07.02.2020
2986 Clear 26 1019 16 10000 4.1 130 09:37 07.02.2020
2987 Clear 25 1019 16 10000 4.1 130 09:19 07.02.2020
2988 Clear 25 1020 23 10000 2.6 130 08:42 07.02.2020
2989 Clouds 23 1020 23 10000 2.6 130 08:20 07.02.2020
2990 Clouds 23 1020 43 10000 2.1 160 07:44 07.02.2020
2991 Clouds 23 1020 22 10000 1.5 160 07:26 07.02.2020
2992 Clouds 22 1020 27 10000 1.5 190 06:45 07.02.2020
2993 Clouds 21 1020 43 10000 2.11 159 06:25 07.02.2020
2994 Clouds 19 1019 45 10000 2.11 159 05:44 07.02.2020
2995 Clear 17 1019 55 10000 1 0 04:42 07.02.2020
2996 Clear 17 1017 52 10000 2.1 220 02:50 07.02.2020
2997 Clear 17 1017 59 10000 1.5 250 01:42 07.02.2020
2998 Clear 17 1017 63 10000 0.5 0 00:48 07.02.2020
2999 Clear 18 1017 59 10000 1.58 162 00:19 07.02.2020
3000 Clear 18 1018 55 10000 1 250 23:37 06.02.2020
3001 Clear 18 1018 55 10000 1 250 23:19 06.02.2020
3002 Clear 18 1018 55 10000 0.5 0 22:44 06.02.2020
3003 Clear 18 1018 55 10000 0.5 0 22:25 06.02.2020
3004 Clear 19 1019 56 10000 1.5 210 21:38 06.02.2020
3005 Clear 19 1019 56 10000 1.5 210 21:20 06.02.2020
3006 Clear 19 1019 52 10000 1 0 20:58 06.02.2020
3007 Clear 19 1019 52 10000 1.5 200 20:39 06.02.2020
3008 Clear 19 1019 52 10000 1.5 200 20:19 06.02.2020
3009 Clear 20 1019 45 10000 0.5 0 19:59 06.02.2020
3010 Clear 20 1019 46 10000 1 0 19:40 06.02.2020
3011 Clear 20 1019 46 10000 1 0 19:22 06.02.2020
3012 Clear 20 1019 49 10000 0.5 140 18:58 06.02.2020
3013 Clear 21 1019 52 10000 1 130 18:39 06.02.2020
3014 Clear 20 1019 52 10000 1 130 18:20 06.02.2020
3015 Clear 21 1019 60 10000 0.5 80 17:44 06.02.2020
3016 Clear 21 1019 60 10000 0.5 80 17:44 06.02.2020
3017 Clear 21 1019 60 10000 0.5 80 17:21 06.02.2020
3018 Clear 22 1019 56 10000 0.5 80 16:59 06.02.2020
3019 Clear 22 1019 52 10000 1 90 16:40 06.02.2020
3020 Clear 22 1019 52 10000 1 90 16:22 06.02.2020
3021 Clear 23 1018 46 10000 1 110 15:42 06.02.2020
3022 Clear 23 1018 43 10000 2.1 110 15:22 06.02.2020
3023 Clear 24 1018 53 10000 2.1 100 14:49 06.02.2020
3024 Clear 25 1018 49 10000 2.6 90 14:28 06.02.2020
3025 Clear 25 1018 46 10000 2.6 100 13:57 06.02.2020
3026 Clear 24 1018 53 10000 3.1 90 13:39 06.02.2020
3027 Clear 24 1018 53 10000 3.1 90 13:19 06.02.2020
3028 Clear 26 1019 41 10000 3.1 100 12:43 06.02.2020
3029 Clear 26 1019 41 10000 3.6 90 12:19 06.02.2020
3030 Clear 27 1019 29 10000 1.5 0 11:56 06.02.2020
3031 Clear 26 1019 38 10000 3.1 40 11:38 06.02.2020
3032 Clear 25 1019 38 10000 3.1 40 11:18 06.02.2020
3033 Clear 25 1020 36 10000 2.1 350 10:56 06.02.2020
3034 Clear 25 1020 36 10000 1 0 10:37 06.02.2020
3035 Clear 25 1020 36 10000 1 0 10:18 06.02.2020
3036 Clear 25 1021 43 10000 2.6 360 09:43 06.02.2020
3037 Clear 25 1021 43 10000 2.6 360 09:43 06.02.2020
3038 Clear 25 1021 43 10000 2.6 360 09:20 06.02.2020
3039 Clear 24 1022 40 10000 2.6 10 08:47 06.02.2020
3040 Clear 22 1022 60 10000 2.1 360 08:25 06.02.2020
3041 Clear 20 1022 68 10000 2.6 360 07:58 06.02.2020
3042 Clear 20 1022 56 10000 3.1 350 07:35 06.02.2020
3043 Clear 20 1021 49 10000 1.5 340 06:59 06.02.2020
3044 Clear 20 1021 56 10000 0.5 0 06:21 06.02.2020
3045 Clear 18 1021 68 10000 0.5 0 05:44 06.02.2020
3046 Clear 15 1020 82 10000 2.42 337 04:18 06.02.2020
3047 Clear 15 1019 82 10000 1.5 330 03:18 06.02.2020
3048 Clear 15 1019 82 10000 1.5 340 02:25 06.02.2020
3049 Clear 15 1019 82 10000 1.98 319 01:25 06.02.2020
3050 Clear 16 1019 77 10000 1.98 319 00:42 06.02.2020
3051 Clear 16 1019 77 10000 1.98 319 00:21 06.02.2020
3052 Clear 16 1019 77 10000 1 0 23:43 05.02.2020
3053 Clear 16 1019 77 10000 1 0 23:24 05.02.2020
3054 Clear 16 1020 82 10000 1 0 22:56 05.02.2020
3055 Clear 17 1020 77 10000 1.5 210 22:37 05.02.2020
3056 Clear 17 1020 77 10000 1.5 210 22:19 05.02.2020
3057 Clear 17 1020 77 10000 0.5 0 21:40 05.02.2020
3058 Clear 17 1020 77 10000 0.5 0 21:22 05.02.2020
3059 Clear 17 1020 77 10000 0.5 320 20:55 05.02.2020
3060 Clear 17 1020 77 10000 1 360 20:36 05.02.2020
3061 Clear 17 1020 77 10000 1 360 20:18 05.02.2020
3062 Clear 17 1020 82 10000 1 340 19:55 05.02.2020
3063 Clear 18 1020 77 10000 1 0 19:36 05.02.2020
3064 Clear 18 1020 77 10000 1 0 19:18 05.02.2020
3065 Clear 18 1020 77 10000 1 350 18:43 05.02.2020
3066 Clear 18 1020 77 10000 1 350 18:20 05.02.2020
3067 Clear 19 1020 77 10000 1.5 360 17:55 05.02.2020
3068 Clear 19 1020 72 10000 2.6 10 17:36 05.02.2020
3069 Clear 20 1020 77 10000 2.6 10 17:18 05.02.2020
3070 Clear 20 1019 77 10000 2.6 10 16:42 05.02.2020
3071 Clear 20 1019 77 10000 2.6 10 16:24 05.02.2020
3072 Clear 20 1019 77 10000 2.6 10 15:58 05.02.2020
3073 Clear 21 1019 68 10000 3.1 10 15:38 05.02.2020
3074 Clear 21 1019 68 10000 3.1 10 15:18 05.02.2020
3075 Clear 21 1019 68 10000 4.1 10 14:42 05.02.2020
3076 Clear 22 1019 60 10000 4.1 20 14:23 05.02.2020
3077 Clear 23 1019 56 10000 3.6 30 13:57 05.02.2020
3078 Clear 23 1018 53 10000 3.6 30 13:38 05.02.2020
3079 Clear 23 1018 53 10000 3.6 30 13:19 05.02.2020
3080 Clear 23 1019 43 10000 3.1 10 12:42 05.02.2020
3081 Clear 24 1019 43 10000 3.1 10 12:22 05.02.2020
3082 Clear 24 1019 43 10000 3.1 10 11:54 05.02.2020
3083 Clear 24 1019 46 10000 3.6 10 11:36 05.02.2020
3084 Clear 22 1019 46 10000 3.6 10 11:18 05.02.2020
3085 Clear 21 1020 49 10000 3.6 10 10:42 05.02.2020
3086 Clear 21 1020 49 10000 3.6 10 10:23 05.02.2020
3087 Clear 21 1020 49 10000 3.6 10 10:23 05.02.2020
3088 Clear 22 1021 49 10000 4.1 360 09:44 05.02.2020
3089 Clear 22 1021 49 10000 4.1 360 09:23 05.02.2020
3090 Clear 21 1021 40 10000 2.1 310 08:59 05.02.2020
3091 Clear 21 1021 46 10000 2.6 310 08:41 05.02.2020
3092 Clear 19 1021 46 10000 2.6 310 08:22 05.02.2020
3093 Clear 18 1021 63 10000 3.1 310 07:44 05.02.2020
3094 Clear 18 1021 63 10000 3.1 310 07:26 05.02.2020
3095 Clear 18 1021 59 10000 2.1 320 06:42 05.02.2020
3096 Clear 17 1020 63 10000 2.1 320 06:22 05.02.2020
3097 Clear 16 1020 63 10000 1 0 05:48 05.02.2020
3098 Clear 14 1020 72 10000 1 0 05:18 05.02.2020
3099 Clear 14 1019 72 10000 1 0 04:41 05.02.2020
3100 Clear 14 1018 71 10000 1.5 320 03:18 05.02.2020
3101 Clear 14 1018 72 10000 1 0 02:23 05.02.2020
3102 Clouds 15 1017 67 10000 1 0 01:35 05.02.2020
3103 Clouds 15 1017 72 10000 2.6 330 00:33 05.02.2020
3104 Clouds 15 1018 67 10000 1 0 23:42 04.02.2020
3105 Clouds 15 1018 67 10000 1 0 23:23 04.02.2020
3106 Clear 15 1018 67 10000 1 0 22:58 04.02.2020
3107 Clear 15 1018 72 10000 1.5 10 22:40 04.02.2020
3108 Clear 15 1018 72 10000 1.5 10 22:21 04.02.2020
3109 Clear 16 1018 67 10000 1.5 340 21:57 04.02.2020
3110 Clear 16 1019 67 10000 1.5 340 21:39 04.02.2020
3111 Clear 16 1019 67 10000 1.5 340 21:19 04.02.2020
3112 Clear 16 1019 67 10000 2.1 330 20:57 04.02.2020
3113 Clear 16 1019 63 10000 2.6 330 20:38 04.02.2020
3114 Clear 16 1019 63 10000 2.6 330 20:19 04.02.2020
3115 Clear 17 1019 63 10000 3.6 340 19:55 04.02.2020
3116 Clear 17 1020 59 10000 4.1 330 19:36 04.02.2020
3117 Clear 17 1020 59 10000 4.1 330 19:18 04.02.2020
3118 Clear 17 1020 55 10000 4.6 330 18:41 04.02.2020
3119 Clear 17 1020 55 10000 4.6 330 18:21 04.02.2020
3120 Clear 18 1019 55 10000 4.1 330 17:58 04.02.2020
3121 Clear 17 1019 55 10000 3.1 330 17:40 04.02.2020
3122 Clear 18 1019 52 10000 3.6 330 17:19 04.02.2020
3123 Clear 18 1019 48 10000 4.1 320 16:39 04.02.2020
3124 Clear 18 1019 48 10000 4.1 320 16:21 04.02.2020
3125 Clear 18 1019 48 10000 4.1 320 16:21 04.02.2020
3126 Clear 19 1019 63 10000 2.6 10 15:57 04.02.2020
3127 Clear 19 1018 63 10000 4.6 10 15:39 04.02.2020
3128 Clear 19 1018 63 10000 4.6 10 15:20 04.02.2020
3129 Clear 19 1018 63 10000 4.6 20 14:55 04.02.2020
3130 Clear 20 1018 56 10000 4.1 10 14:37 04.02.2020
3131 Clear 20 1018 56 10000 4.1 10 14:18 04.02.2020
3132 Clear 21 1018 56 10000 3.6 20 13:41 04.02.2020
3133 Clear 21 1018 52 10000 4.1 30 13:22 04.02.2020
3134 Clear 22 1018 46 10000 5.7 10 12:57 04.02.2020
3135 Clear 21 1018 46 10000 4.6 10 12:37 04.02.2020
3136 Clear 21 1018 46 10000 4.6 10 12:19 04.02.2020
3137 Clear 21 1018 43 10000 5.1 360 11:55 04.02.2020
3138 Clear 21 1018 43 10000 5.1 360 11:55 04.02.2020
3139 Clear 22 1018 46 10000 5.7 350 11:36 04.02.2020
3140 Clear 21 1018 46 10000 5.7 350 11:18 04.02.2020
3141 Clear 20 1019 40 10000 5.7 340 10:44 04.02.2020
3142 Clear 20 1019 40 10000 5.7 340 10:24 04.02.2020
3143 Clear 21 1019 43 10000 4.6 330 09:56 04.02.2020
3144 Clear 21 1020 45 10000 4.1 320 09:37 04.02.2020
3145 Clear 20 1020 45 10000 4.1 320 09:18 04.02.2020
3146 Clear 20 1021 45 10000 4.6 320 08:43 04.02.2020
3147 Clear 19 1021 48 10000 5.1 300 08:24 04.02.2020
3148 Clear 18 1021 48 10000 5.7 320 07:49 04.02.2020
3149 Clear 17 1021 52 10000 4.1 320 07:24 04.02.2020
3150 Clear 17 1021 52 10000 2.6 310 06:44 04.02.2020
3151 Clear 17 1021 51 10000 3.6 300 06:26 04.02.2020
3152 Clear 14 1020 58 10000 2.6 290 05:29 04.02.2020
3153 Clear 13 1019 58 10000 3.1 300 03:54 04.02.2020
3154 Clear 13 1019 54 10000 3.1 310 03:34 04.02.2020
3155 Clear 14 1019 58 10000 3.1 310 02:59 04.02.2020
3156 Clear 13 1019 58 10000 3.1 310 02:32 04.02.2020
3157 Clear 14 1019 58 10000 3.1 310 01:55 04.02.2020
3158 Clear 14 1020 58 10000 2.6 320 01:35 04.02.2020
3159 Clear 14 1020 62 10000 3.1 310 00:49 04.02.2020
3160 Clear 14 1020 58 10000 3.6 310 00:22 04.02.2020
3161 Clear 14 1020 58 10000 3.6 300 23:41 03.02.2020
3162 Clear 14 1020 55 10000 4.1 320 23:22 03.02.2020
3163 Clear 15 1021 55 10000 5.1 320 22:40 03.02.2020
3164 Clear 15 1021 55 10000 5.1 320 22:21 03.02.2020
3165 Clear 15 1021 55 10000 4.6 330 21:56 03.02.2020
3166 Clear 15 1021 55 10000 5.1 330 21:37 03.02.2020
3167 Clear 15 1021 55 10000 5.1 330 21:19 03.02.2020
3168 Clear 15 1021 51 10000 5.7 330 20:42 03.02.2020
3169 Clear 16 1022 48 10000 5.1 330 20:19 03.02.2020
3170 Clear 16 1022 48 10000 4.6 320 19:58 03.02.2020
3171 Clear 16 1022 48 10000 4.6 320 19:58 03.02.2020
3172 Clear 16 1022 48 10000 4.6 330 19:40 03.02.2020
3173 Clear 16 1022 48 10000 4.6 330 19:20 03.02.2020
3174 Clear 17 1022 48 10000 4.1 320 18:56 03.02.2020
3175 Clear 17 1022 48 10000 4.6 330 18:37 03.02.2020
3176 Clear 17 1022 48 10000 4.6 330 18:37 03.02.2020
3177 Clear 17 1022 48 10000 4.6 330 18:18 03.02.2020
3178 Clear 17 1022 45 10000 4.6 330 17:40 03.02.2020
3179 Clear 17 1022 45 10000 4.6 330 17:20 03.02.2020
3180 Clear 18 1021 45 10000 4.6 320 16:59 03.02.2020
3181 Clear 18 1021 42 10000 4.6 330 16:39 03.02.2020
3182 Clear 19 1021 42 10000 4.6 330 16:20 03.02.2020
3183 Clear 19 1021 42 10000 4.1 320 15:56 03.02.2020
3184 Clear 19 1021 32 10000 4.1 310 15:37 03.02.2020
3185 Clear 19 1021 32 10000 4.1 310 15:18 03.02.2020
3186 Clear 21 1021 28 10000 4.1 310 14:42 03.02.2020
3187 Clear 21 1021 28 10000 4.1 310 14:23 03.02.2020
3188 Clear 22 1021 30 10000 5.1 310 13:57 03.02.2020
3189 Clear 22 1021 28 10000 5.1 290 13:39 03.02.2020
3190 Clear 21 1021 28 10000 5.1 290 13:19 03.02.2020
3191 Clear 22 1021 28 10000 4.1 300 12:55 03.02.2020
3192 Clear 22 1021 30 10000 5.1 310 12:36 03.02.2020
3193 Clear 22 1021 30 10000 5.1 310 12:18 03.02.2020
3194 Clear 22 1021 33 10000 3.6 290 11:38 03.02.2020
3195 Clouds 21 1021 33 10000 3.6 290 11:19 03.02.2020
3196 Clouds 21 1022 33 10000 4.1 280 10:57 03.02.2020
3197 Clouds 21 1022 33 10000 4.1 300 10:38 03.02.2020
3198 Clouds 21 1022 33 10000 4.1 300 10:38 03.02.2020
3199 Clouds 21 1022 33 10000 4.1 300 10:19 03.02.2020
3200 Clouds 21 1023 37 10000 5.1 330 09:39 03.02.2020
3201 Clouds 21 1023 37 10000 5.1 330 09:19 03.02.2020
3202 Clouds 20 1024 42 10000 3.6 310 08:41 03.02.2020
3203 Clouds 19 1024 42 10000 3.6 310 08:23 03.02.2020
3204 Clouds 18 1024 48 10000 4.1 300 07:43 03.02.2020
3205 Clouds 18 1024 52 10000 2.6 290 07:23 03.02.2020
3206 Clouds 18 1024 55 10000 3.1 290 06:57 03.02.2020
3207 Clouds 17 1023 63 10000 2.1 280 06:31 03.02.2020
3208 Clouds 16 1023 63 10000 2.1 260 05:58 03.02.2020
3209 Clouds 15 1023 63 10000 1.5 270 05:34 03.02.2020
3210 Clear 14 1022 59 10000 3.1 300 04:47 03.02.2020
3211 Clear 15 1021 51 10000 2.6 310 02:53 03.02.2020
3212 Clear 15 1021 51 10000 3.6 310 02:32 03.02.2020
3213 Clear 14 1021 51 10000 3.6 300 00:50 03.02.2020
3214 Clear 14 1021 51 10000 3.6 300 00:30 03.02.2020
3215 Clear 15 1021 51 10000 3.6 310 23:59 02.02.2020
3216 Clear 15 1021 51 10000 4.1 310 23:37 02.02.2020
3217 Clear 15 1021 51 10000 4.1 310 23:18 02.02.2020
3218 Clear 15 1021 51 10000 4.1 310 23:18 02.02.2020
3219 Clear 15 1022 51 10000 3.6 310 22:40 02.02.2020
3220 Clear 15 1022 51 10000 3.6 310 22:22 02.02.2020
3221 Clear 15 1022 51 10000 4.1 310 21:58 02.02.2020
3222 Clear 16 1022 48 10000 3.6 320 21:39 02.02.2020
3223 Clear 16 1022 48 10000 3.6 320 21:20 02.02.2020
3224 Clear 16 1022 48 10000 4.1 320 20:57 02.02.2020
3225 Clouds 16 1022 45 10000 3.1 320 20:39 02.02.2020
3226 Clouds 16 1022 45 10000 3.1 320 20:20 02.02.2020
3227 Clouds 16 1022 45 10000 4.6 320 19:57 02.02.2020
3228 Clouds 16 1022 48 10000 3.6 320 19:39 02.02.2020
3229 Clouds 16 1022 48 10000 3.6 320 19:21 02.02.2020
3230 Clouds 16 1022 45 10000 4.6 320 18:56 02.02.2020
3231 Clouds 17 1022 48 10000 5.7 330 18:37 02.02.2020
3232 Clouds 17 1022 48 10000 5.7 330 18:19 02.02.2020
3233 Clouds 17 1022 45 10000 4.6 320 17:57 02.02.2020
3234 Clouds 17 1022 45 10000 4.6 320 17:37 02.02.2020
3235 Clouds 17 1022 45 10000 4.6 320 17:37 02.02.2020
3236 Clouds 17 1022 45 10000 4.6 320 17:18 02.02.2020
3237 Clouds 17 1022 45 10000 4.6 320 17:18 02.02.2020
3238 Clouds 18 1021 45 10000 5.1 330 16:57 02.02.2020
3239 Clouds 18 1021 39 10000 5.1 320 16:37 02.02.2020
3240 Clouds 18 1021 39 10000 5.1 320 16:18 02.02.2020
3241 Clouds 19 1020 39 10000 6.2 330 15:55 02.02.2020
3242 Clouds 19 1020 34 10000 5.1 320 15:36 02.02.2020
3243 Clouds 19 1020 34 10000 5.1 320 15:18 02.02.2020
3244 Clouds 21 1020 32 10000 7.2 330 14:43 02.02.2020
3245 Clouds 21 1019 32 10000 7.7 340 14:19 02.02.2020
3246 Clouds 21 1019 32 10000 7.7 340 14:19 02.02.2020
3247 Clouds 22 1019 33 10000 7.2 330 13:58 02.02.2020
3248 Clouds 22 1019 40 10000 7.2 340 13:39 02.02.2020
3249 Clouds 22 1019 40 10000 7.2 340 13:20 02.02.2020
3250 Clouds 22 1019 49 10000 7.7 350 12:56 02.02.2020
3251 Clouds 22 1019 49 10000 7.7 350 12:37 02.02.2020
3252 Clouds 22 1019 49 10000 7.7 350 12:18 02.02.2020
3253 Clouds 22 1019 53 10000 8.2 360 11:42 02.02.2020
3254 Clouds 22 1019 53 10000 8.2 360 11:19 02.02.2020
3255 Clouds 22 1019 53 9000 7.7 350 10:57 02.02.2020
3256 Clouds 22 1020 53 9000 7.7 350 10:38 02.02.2020
3257 Clouds 22 1020 53 9000 7.7 350 10:20 02.02.2020
3258 Clouds 22 1020 56 9000 7.7 350 09:57 02.02.2020
3259 Clouds 22 1020 60 9000 8.2 350 09:38 02.02.2020
3260 Clouds 22 1020 60 9000 8.2 350 09:38 02.02.2020
3261 Clouds 22 1020 60 9000 8.2 350 09:20 02.02.2020
3262 Clouds 21 1021 64 9000 8.2 340 08:44 02.02.2020
3263 Clouds 20 1021 64 8000 6.7 330 08:25 02.02.2020
3264 Clouds 20 1021 68 7000 4.6 310 07:47 02.02.2020
3265 Clouds 20 1021 68 6000 4.1 300 07:28 02.02.2020
3266 Haze 18 1020 77 5000 2.6 280 06:45 02.02.2020
3267 Haze 18 1020 77 5000 2.6 280 06:27 02.02.2020
3268 Haze 17 1020 82 4500 2.1 270 05:49 02.02.2020
3269 Haze 16 1019 87 4000 2.6 280 04:52 02.02.2020
3270 Clouds 16 1018 87 6000 3.1 290 03:30 02.02.2020
3271 Clouds 16 1017 77 7000 3.1 290 02:35 02.02.2020
3272 Clouds 16 1017 67 10000 4.6 270 01:56 02.02.2020
3273 Clouds 16 1017 63 10000 3.6 270 01:26 02.02.2020
3274 Clouds 16 1017 63 8000 3.1 260 00:44 02.02.2020
3275 Clouds 16 1017 77 7000 3.6 270 00:23 02.02.2020
3276 Clouds 16 1017 77 7000 3.6 250 23:47 01.02.2020
3277 Clouds 16 1017 77 7000 3.6 250 23:47 01.02.2020
3278 Clouds 16 1017 77 7000 3.6 250 23:47 01.02.2020
3279 Clouds 16 1017 82 9000 1 250 23:23 01.02.2020
3280 Clouds 17 1017 82 9000 0.5 0 22:59 01.02.2020
3281 Clouds 17 1017 82 9000 2.1 160 22:41 01.02.2020
3282 Clouds 17 1017 82 9000 2.1 160 22:18 01.02.2020
3283 Clouds 18 1018 82 10000 1.5 140 21:39 01.02.2020
3284 Clouds 18 1018 82 10000 1.5 140 21:18 01.02.2020
3285 Clouds 18 1018 82 10000 3.1 110 20:41 01.02.2020
3286 Clouds 18 1018 82 10000 3.1 110 20:20 01.02.2020
3287 Clouds 18 1018 82 10000 3.1 110 19:57 01.02.2020
3288 Clouds 18 1018 82 10000 2.1 90 19:39 01.02.2020
3289 Clouds 18 1018 82 10000 2.1 90 19:20 01.02.2020
3290 Clouds 18 1017 82 10000 3.1 110 18:58 01.02.2020
3291 Clouds 18 1017 82 10000 3.6 110 18:40 01.02.2020
3292 Clouds 18 1017 82 10000 3.6 110 18:22 01.02.2020
3293 Clouds 18 1017 82 10000 3.1 100 17:58 01.02.2020
3294 Clouds 18 1017 82 10000 3.6 110 17:39 01.02.2020
3295 Clouds 18 1017 82 10000 3.6 110 17:19 01.02.2020
3296 Clouds 18 1017 82 10000 3.6 110 16:43 01.02.2020
3297 Clouds 18 1017 82 10000 3.6 110 16:25 01.02.2020
3298 Clouds 20 1016 68 10000 4.6 120 15:59 01.02.2020
3299 Clouds 20 1016 63 10000 5.1 120 15:40 01.02.2020
3300 Clouds 20 1016 63 10000 5.1 120 15:22 01.02.2020
3301 Clouds 20 1016 52 10000 5.1 120 14:41 01.02.2020
3302 Clouds 21 1016 52 10000 5.1 120 14:22 01.02.2020
3303 Clouds 21 1016 52 10000 5.1 120 13:59 01.02.2020
3304 Clouds 22 1016 56 10000 5.1 120 13:41 01.02.2020
3305 Clouds 21 1016 56 10000 5.1 120 13:18 01.02.2020
3306 Clouds 21 1016 60 10000 6.2 130 12:43 01.02.2020
3307 Clouds 22 1016 64 10000 6.7 130 12:24 01.02.2020
3308 Clouds 22 1016 53 10000 4.6 160 11:45 01.02.2020
3309 Clouds 22 1016 60 10000 5.7 150 11:24 01.02.2020
3310 Clouds 22 1017 64 10000 5.1 130 10:59 01.02.2020
3311 Clouds 22 1018 60 10000 4.6 130 10:41 01.02.2020
3312 Clouds 21 1018 60 10000 4.6 130 10:23 01.02.2020
3313 Clear 21 1018 56 10000 4.6 140 09:59 01.02.2020
3314 Clear 21 1018 60 10000 4.1 120 09:41 01.02.2020
3315 Clear 21 1018 60 10000 4.1 120 09:21 01.02.2020
3316 Clear 21 1018 52 10000 3.6 130 08:58 01.02.2020
3317 Clear 19 1019 56 10000 3.6 130 08:22 01.02.2020
3318 Clear 18 1019 63 10000 3.6 140 07:43 01.02.2020
3319 Clear 18 1018 63 10000 4.1 130 07:24 01.02.2020
3320 Clear 19 1018 72 10000 1.5 150 06:44 01.02.2020
3321 Clear 16 1018 77 10000 1.5 200 05:54 01.02.2020
3322 Clear 14 1017 87 9000 2.55 160 04:32 01.02.2020
3323 Clear 14 1016 82 9000 0.5 0 03:26 01.02.2020
3324 Clear 14 1016 82 9000 0.5 170 02:59 01.02.2020
3325 Clear 14 1016 82 9000 0.5 150 02:40 01.02.2020
3326 Clear 14 1016 82 9000 0.5 150 02:20 01.02.2020
3327 Clear 14 1016 87 9000 1 0 01:46 01.02.2020
3328 Clear 14 1016 82 10000 1 0 01:27 01.02.2020
3329 Clear 14 1016 77 10000 1 220 00:24 01.02.2020
3330 Clear 15 1016 77 10000 1 0 23:41 31.01.2020
3331 Clear 15 1016 77 10000 1 0 23:19 31.01.2020
3332 Clear 15 1016 77 10000 0.5 0 22:57 31.01.2020
3333 Clear 15 1016 77 10000 1 140 22:38 31.01.2020
3334 Clear 15 1016 77 10000 1 140 22:20 31.01.2020
3335 Clear 16 1016 82 10000 1.5 130 21:55 31.01.2020
3336 Clear 16 1017 82 10000 1 120 21:37 31.01.2020
3337 Clear 16 1017 82 10000 1 120 21:18 31.01.2020
3338 Clear 17 1017 72 10000 1 140 20:54 31.01.2020
3339 Clear 17 1017 72 10000 1 140 20:54 31.01.2020
3340 Clear 17 1017 72 10000 1.5 160 20:36 31.01.2020
3341 Clear 17 1017 72 10000 1.5 160 20:36 31.01.2020
3342 Clear 17 1018 72 10000 1 0 20:18 31.01.2020
3343 Clear 17 1018 72 10000 1 0 19:42 31.01.2020
3344 Clear 17 1018 72 10000 1 140 19:24 31.01.2020
3345 Clear 17 1018 72 10000 1 140 19:24 31.01.2020
3346 Clear 17 1018 77 10000 1.5 150 18:58 31.01.2020
3347 Clear 17 1018 72 10000 1.5 130 18:38 31.01.2020
3348 Clear 17 1018 72 10000 1.5 130 18:20 31.01.2020
3349 Clear 18 1018 72 10000 1 60 17:46 31.01.2020
3350 Clear 18 1017 68 10000 1.5 60 17:27 31.01.2020
3351 Clear 18 1017 68 10000 1.5 110 16:57 31.01.2020
3352 Clear 18 1017 68 10000 1.5 100 16:38 31.01.2020
3353 Clear 18 1017 68 10000 1.5 100 16:19 31.01.2020
3354 Clear 19 1017 68 10000 2.6 110 15:58 31.01.2020
3355 Clear 20 1017 63 10000 2.6 100 15:39 31.01.2020
3356 Clear 20 1017 63 10000 2.6 100 15:20 31.01.2020
3357 Clear 20 1017 59 10000 2.6 110 14:44 31.01.2020
3358 Clear 21 1017 60 10000 3.1 100 14:24 31.01.2020
3359 Clear 22 1017 60 10000 3.6 100 13:56 31.01.2020
3360 Clear 22 1016 49 10000 3.6 60 13:37 31.01.2020
3361 Clear 22 1016 49 10000 3.6 60 13:18 31.01.2020
3362 Clear 22 1017 46 10000 3.6 30 12:43 31.01.2020
3363 Clear 22 1017 37 10000 3.6 10 12:23 31.01.2020
3364 Clear 21 1017 40 10000 3.1 360 11:55 31.01.2020
3365 Clear 21 1017 37 10000 3.6 360 11:37 31.01.2020
3366 Clear 21 1017 37 10000 3.6 360 11:18 31.01.2020
3367 Clear 21 1018 37 10000 3.1 10 10:43 31.01.2020
3368 Clear 21 1019 37 10000 3.1 10 10:22 31.01.2020
3369 Clear 22 1019 37 10000 3.1 0 09:57 31.01.2020
3370 Clear 22 1020 37 10000 2.6 330 09:39 31.01.2020
3371 Clear 22 1020 37 10000 2.6 330 09:39 31.01.2020
3372 Clear 21 1020 37 10000 2.6 330 09:19 31.01.2020
3373 Clear 21 1020 40 10000 2.6 350 08:52 31.01.2020
3374 Clear 21 1020 37 10000 3.1 340 08:28 31.01.2020
3375 Clear 19 1021 42 10000 1.5 0 07:54 31.01.2020
3376 Clear 17 1021 48 10000 1.5 260 07:26 31.01.2020
3377 Clear 17 1021 51 10000 2.1 240 06:59 31.01.2020
3378 Clear 16 1021 55 10000 1.5 230 06:20 31.01.2020
3379 Clear 15 1020 54 10000 1 0 05:50 31.01.2020
3380 Clear 13 1020 62 10000 1.5 240 04:56 31.01.2020
3381 Clear 12 1019 71 10000 1.5 220 03:26 31.01.2020
3382 Clear 12 1018 71 10000 2.1 240 01:40 31.01.2020
3383 Clear 13 1018 71 10000 1.5 240 00:46 31.01.2020
3384 Clear 13 1019 67 10000 1.5 230 00:27 31.01.2020
3385 Clear 13 1019 67 10000 1.5 240 23:57 30.01.2020
3386 Clear 13 1019 72 10000 1.5 240 23:26 30.01.2020
3387 Clear 14 1019 72 10000 1 220 22:58 30.01.2020
3388 Clear 14 1019 72 10000 1 0 22:37 30.01.2020
3389 Clear 14 1019 72 10000 1 0 22:37 30.01.2020
3390 Clear 14 1019 72 10000 1 0 22:37 30.01.2020
3391 Clear 14 1019 72 10000 1 0 22:18 30.01.2020
3392 Clear 15 1019 67 10000 0.5 0 21:57 30.01.2020
3393 Clear 15 1019 67 10000 3.43 301 21:38 30.01.2020
3394 Clear 15 1019 67 10000 3.43 301 21:38 30.01.2020
3395 Clear 15 1019 63 10000 1 0 21:18 30.01.2020
3396 Clear 15 1019 67 10000 3.43 301 21:18 30.01.2020
3397 Clear 15 1019 67 10000 1 0 20:41 30.01.2020
3398 Clear 15 1019 67 10000 1 0 20:22 30.01.2020
3399 Clear 15 1019 67 10000 1 0 20:22 30.01.2020
3400 Clear 15 1019 67 10000 1 0 20:22 30.01.2020
3401 Clear 16 1020 77 10000 1.5 330 19:57 30.01.2020
3402 Clear 16 1020 72 10000 1.5 360 19:39 30.01.2020
3403 Clear 16 1020 72 10000 1.5 360 19:19 30.01.2020
3404 Clear 16 1020 67 10000 2.6 340 18:42 30.01.2020
3405 Clear 17 1019 63 10000 2.6 340 18:23 30.01.2020
3406 Clear 18 1019 55 10000 2.6 340 17:58 30.01.2020
3407 Clear 18 1019 48 10000 2.1 340 17:39 30.01.2020
3408 Clear 18 1019 48 10000 2.1 340 17:19 30.01.2020
3409 Clear 19 1018 52 10000 1 360 16:58 30.01.2020
3410 Clear 19 1018 55 10000 1 80 16:39 30.01.2020
3411 Clear 19 1018 55 10000 1 80 16:20 30.01.2020
3412 Clear 20 1018 52 10000 1.5 80 15:44 30.01.2020
3413 Clear 20 1018 45 10000 2.1 80 15:20 30.01.2020
3414 Clear 21 1018 45 10000 2.1 110 14:50 30.01.2020
3415 Clear 22 1017 42 10000 2.6 90 14:27 30.01.2020
3416 Clear 21 1017 43 9000 3.1 110 13:59 30.01.2020
3417 Clear 21 1017 43 9000 3.1 110 13:40 30.01.2020
3418 Clear 21 1017 40 9000 2.6 90 13:22 30.01.2020
3419 Clouds 24 1017 23 9000 0.5 0 12:54 30.01.2020
3420 Clouds 23 1018 25 8000 1.5 330 12:36 30.01.2020
3421 Clouds 23 1018 25 8000 1.5 330 12:18 30.01.2020
3422 Clouds 22 1018 26 7000 3.1 330 11:40 30.01.2020
3423 Clear 21 1018 26 7000 3.1 330 11:21 30.01.2020
3424 Clear 21 1019 26 7000 2.6 340 10:57 30.01.2020
3425 Clear 21 1019 30 7000 1.5 0 10:38 30.01.2020
3426 Clear 21 1019 30 7000 1.5 0 10:19 30.01.2020
3427 Clear 21 1021 32 10000 4.6 200 09:43 30.01.2020
3428 Clear 21 1021 32 10000 4.6 200 09:22 30.01.2020
3429 Clear 20 1021 32 10000 4.6 190 08:42 30.01.2020
3430 Clouds 18 1021 37 10000 4.6 190 08:22 30.01.2020
3431 Clouds 17 1021 55 10000 4.6 200 07:55 30.01.2020
3432 Clouds 17 1021 67 10000 5.7 200 07:37 30.01.2020
3433 Clouds 17 1021 72 8000 4.1 190 06:56 30.01.2020
3434 Clouds 16 1021 82 7000 3.1 200 06:33 30.01.2020
3435 Clouds 15 1021 87 6000 2.6 200 05:53 30.01.2020
3436 Clouds 13 1020 82 7000 2.6 210 05:28 30.01.2020
3437 Clear 13 1019 77 10000 1.5 200 04:40 30.01.2020
3438 Clear 13 1019 82 10000 1 200 03:47 30.01.2020
3439 Clear 14 1019 77 10000 1 190 02:54 30.01.2020
3440 Clear 14 1019 72 10000 1 180 00:57 30.01.2020
3441 Clear 14 1019 72 10000 1.5 180 00:27 30.01.2020
3442 Clear 14 1018 77 10000 1.5 130 23:55 29.01.2020
3443 Clear 14 1019 72 10000 1.5 150 23:37 29.01.2020
3444 Clear 14 1019 72 10000 1.5 150 23:19 29.01.2020
3445 Clear 15 1019 72 10000 1.5 150 22:54 29.01.2020
3446 Clear 15 1019 72 10000 1 160 22:36 29.01.2020
3447 Clear 15 1019 72 10000 1 160 22:18 29.01.2020
3448 Clear 15 1019 72 10000 1 120 21:54 29.01.2020
3449 Clear 15 1019 72 10000 1 120 21:36 29.01.2020
3450 Clear 15 1019 72 10000 1 120 21:18 29.01.2020
3451 Clear 16 1019 67 10000 2.1 140 20:40 29.01.2020
3452 Clouds 16 1019 67 10000 2.1 140 20:21 29.01.2020
3453 Clouds 16 1019 67 10000 2.1 140 20:21 29.01.2020
3454 Clouds 16 1019 67 10000 2.1 140 19:57 29.01.2020
3455 Clouds 16 1019 67 10000 2.6 120 19:38 29.01.2020
3456 Clouds 16 1019 67 10000 2.6 120 19:20 29.01.2020
3457 Clouds 17 1019 72 10000 2.6 130 18:55 29.01.2020
3458 Clouds 17 1019 67 10000 4.1 120 18:37 29.01.2020
3459 Clouds 17 1019 67 10000 4.1 120 18:37 29.01.2020
3460 Clouds 17 1019 67 10000 4.1 120 18:18 29.01.2020
3461 Clouds 17 1019 67 10000 4.1 110 17:40 29.01.2020
3462 Clouds 17 1019 67 10000 4.1 110 17:22 29.01.2020
3463 Clouds 17 1019 67 10000 4.1 110 17:22 29.01.2020
3464 Clouds 17 1019 67 10000 4.1 110 17:22 29.01.2020
3465 Clouds 17 1019 67 10000 4.1 110 17:22 29.01.2020
3466 Clouds 17 1019 63 10000 3.6 110 16:43 29.01.2020
3467 Clouds 17 1019 63 10000 3.6 110 16:23 29.01.2020
3468 Clouds 18 1018 59 10000 4.1 100 15:59 29.01.2020
3469 Clouds 18 1018 59 10000 4.1 110 15:38 29.01.2020
3470 Clouds 18 1018 59 10000 4.1 110 15:20 29.01.2020
3471 Clouds 19 1018 55 10000 4.1 110 14:45 29.01.2020
3472 Clouds 19 1018 55 10000 5.1 110 14:22 29.01.2020
3473 Clouds 20 1018 52 10000 5.7 110 13:57 29.01.2020
3474 Clouds 21 1018 52 10000 5.7 110 13:38 29.01.2020
3475 Clouds 21 1018 52 10000 5.7 110 13:20 29.01.2020
3476 Clouds 21 1018 48 10000 5.1 110 12:56 29.01.2020
3477 Clouds 21 1018 52 10000 4.6 100 12:37 29.01.2020
3478 Clouds 20 1018 52 10000 4.6 100 12:19 29.01.2020
3479 Clouds 20 1018 42 10000 5.1 100 11:45 29.01.2020
3480 Clouds 20 1019 42 10000 3.1 90 11:22 29.01.2020
3481 Clouds 20 1019 45 10000 3.1 80 10:47 29.01.2020
3482 Clouds 20 1021 40 10000 1 0 10:28 29.01.2020
3483 Clouds 21 1021 40 10000 1 0 09:59 29.01.2020
3484 Clouds 21 1021 40 10000 1 0 09:40 29.01.2020
3485 Clouds 21 1021 40 10000 1 0 09:21 29.01.2020
3486 Clouds 19 1021 45 10000 1.5 0 08:56 29.01.2020
3487 Clouds 19 1021 45 10000 1.5 0 08:56 29.01.2020
3488 Clouds 20 1021 48 10000 1.5 190 08:38 29.01.2020
3489 Clouds 18 1021 48 10000 1.5 190 08:18 29.01.2020
3490 Clouds 17 1021 55 10000 2.1 190 07:43 29.01.2020
3491 Clouds 17 1022 63 10000 1.5 250 07:23 29.01.2020
3492 Clouds 16 1021 77 10000 1 0 06:39 29.01.2020
3493 Clouds 15 1021 77 10000 1 0 06:21 29.01.2020
3494 Clouds 14 1021 77 10000 1.5 280 05:55 29.01.2020
3495 Clouds 14 1021 82 10000 2.1 260 05:36 29.01.2020
3496 Clear 12 1020 82 10000 2.1 250 04:49 29.01.2020
3497 Clear 12 1020 82 10000 1.5 240 04:25 29.01.2020
3498 Clear 13 1019 76 10000 2.1 270 02:41 29.01.2020
3499 Clear 12 1018 82 10000 2.1 250 01:44 29.01.2020
3500 Clear 13 1018 82 10000 1.5 220 00:41 29.01.2020
3501 Clear 13 1018 76 10000 1 230 00:23 29.01.2020
3502 Clear 14 1019 77 10000 1 0 23:44 28.01.2020
3503 Clear 14 1019 72 10000 1 0 23:21 28.01.2020
3504 Clear 15 1020 72 10000 1.5 300 22:57 28.01.2020
3505 Clear 15 1020 67 10000 2.1 300 22:39 28.01.2020
3506 Clear 15 1020 67 10000 2.1 300 22:20 28.01.2020
3507 Clear 15 1020 67 10000 2.1 330 21:42 28.01.2020
3508 Clear 15 1020 67 10000 2.1 330 21:20 28.01.2020
3509 Clear 15 1020 67 10000 2.1 320 20:57 28.01.2020
3510 Clear 15 1021 67 10000 2.6 320 20:39 28.01.2020
3511 Clear 15 1021 67 10000 2.6 320 20:21 28.01.2020
3512 Clear 16 1021 67 10000 3.1 320 19:39 28.01.2020
3513 Clear 16 1021 67 10000 3.1 320 19:20 28.01.2020
3514 Clear 16 1021 67 10000 3.1 330 18:58 28.01.2020
3515 Clear 17 1021 63 10000 3.6 330 18:39 28.01.2020
3516 Clear 16 1021 63 10000 3.6 330 18:21 28.01.2020
3517 Clear 17 1021 63 10000 3.6 330 17:57 28.01.2020
3518 Clear 17 1020 59 10000 4.1 330 17:37 28.01.2020
3519 Clear 17 1020 59 10000 4.1 330 17:19 28.01.2020
3520 Clear 17 1020 59 10000 4.1 330 17:19 28.01.2020
3521 Clear 17 1020 59 10000 4.1 330 17:19 28.01.2020
3522 Clear 17 1020 77 10000 1.5 340 16:46 28.01.2020
3523 Clear 18 1020 68 10000 2.1 10 16:27 28.01.2020
3524 Clear 18 1020 68 10000 2.6 20 15:59 28.01.2020
3525 Clear 19 1020 63 10000 3.6 10 15:41 28.01.2020
3526 Clear 19 1020 63 10000 3.6 10 15:18 28.01.2020
3527 Clear 19 1020 59 10000 4.1 10 14:45 28.01.2020
3528 Clouds 20 1020 59 10000 4.1 10 14:20 28.01.2020
3529 Clouds 21 1019 56 10000 4.1 20 13:57 28.01.2020
3530 Clouds 21 1019 52 10000 4.6 20 13:38 28.01.2020
3531 Clouds 20 1019 52 10000 4.6 20 13:19 28.01.2020
3532 Clouds 21 1020 49 10000 6.2 350 12:42 28.01.2020
3533 Clouds 21 1020 49 10000 6.2 350 12:22 28.01.2020
3534 Clouds 21 1020 49 10000 5.7 360 11:48 28.01.2020
3535 Clouds 20 1021 49 10000 3.6 340 11:23 28.01.2020
3536 Clouds 21 1021 46 10000 4.6 340 10:58 28.01.2020
3537 Clouds 20 1022 52 10000 4.6 340 10:39 28.01.2020
3538 Clouds 20 1022 52 10000 4.6 340 10:20 28.01.2020
3539 Clear 21 1022 55 10000 4.1 320 09:42 28.01.2020
3540 Clear 20 1022 55 10000 4.1 320 09:21 28.01.2020
3541 Clear 19 1023 55 10000 4.6 310 08:56 28.01.2020
3542 Clear 18 1023 59 10000 5.1 300 08:38 28.01.2020
3543 Clear 17 1023 59 10000 5.1 300 08:18 28.01.2020
3544 Clear 17 1023 59 10000 4.1 300 07:36 28.01.2020
3545 Clear 16 1023 63 10000 2.1 270 06:49 28.01.2020
3546 Clear 15 1023 67 10000 2.6 270 06:25 28.01.2020
3547 Clear 15 1022 67 10000 1.5 250 05:53 28.01.2020
3548 Clear 14 1022 71 10000 1 0 05:25 28.01.2020
3549 Clear 12 1021 71 10000 2.1 240 03:57 28.01.2020
3550 Clear 12 1021 66 10000 2.6 280 02:58 28.01.2020
3551 Clear 12 1021 66 10000 1.5 260 02:25 28.01.2020
3552 Clear 12 1021 66 10000 2.1 270 01:57 28.01.2020
3553 Clear 12 1021 66 10000 1 0 01:23 28.01.2020
3554 Clear 12 1021 66 10000 2.1 280 00:45 28.01.2020
3555 Clear 13 1021 62 10000 2.1 280 00:24 28.01.2020
3556 Clear 13 1021 62 10000 2.6 280 23:48 27.01.2020
3557 Clear 13 1022 58 10000 2.1 280 23:29 27.01.2020
3558 Clear 13 1022 58 10000 3.1 300 22:54 27.01.2020
3559 Clear 13 1022 54 10000 3.6 310 22:36 27.01.2020
3560 Clear 13 1022 54 10000 3.6 310 22:18 27.01.2020
3561 Clear 13 1022 58 10000 3.1 310 21:40 27.01.2020
3562 Clear 13 1022 58 10000 3.1 310 21:19 27.01.2020
3563 Clear 15 1022 62 10000 3.6 310 20:59 27.01.2020
3564 Clear 15 1022 62 10000 3.6 310 20:40 27.01.2020
3565 Clear 15 1022 62 10000 3.6 310 20:21 27.01.2020
3566 Clear 15 1022 62 10000 3.6 310 20:21 27.01.2020
3567 Clear 14 1022 62 10000 4.6 300 19:59 27.01.2020
3568 Clear 14 1022 62 10000 4.6 300 19:40 27.01.2020
3569 Clear 14 1022 67 10000 3.1 300 19:21 27.01.2020
3570 Clear 15 1022 62 10000 3.6 300 18:56 27.01.2020
3571 Clear 15 1022 67 10000 3.6 310 18:37 27.01.2020
3572 Clear 15 1022 67 10000 3.6 310 18:37 27.01.2020
3573 Clear 15 1022 67 10000 3.6 310 18:19 27.01.2020
3574 Clear 15 1022 67 10000 3.6 310 18:19 27.01.2020
3575 Clouds 16 1022 63 10000 5.7 310 17:39 27.01.2020
3576 Clouds 16 1022 63 10000 5.7 310 17:39 27.01.2020
3577 Clouds 16 1022 63 10000 5.7 310 17:19 27.01.2020
3578 Clouds 16 1022 63 10000 5.7 310 16:57 27.01.2020
3579 Clouds 16 1022 59 10000 6.2 310 16:39 27.01.2020
3580 Clouds 16 1022 59 10000 6.2 310 16:21 27.01.2020
3581 Clouds 17 1022 55 10000 5.7 320 15:55 27.01.2020
3582 Clouds 17 1021 55 10000 5.7 320 15:36 27.01.2020
3583 Clouds 17 1021 55 10000 5.7 320 15:18 27.01.2020
3584 Clouds 18 1021 48 10000 5.7 310 14:41 27.01.2020
3585 Clouds 18 1021 48 10000 5.7 310 14:22 27.01.2020
3586 Clouds 19 1021 45 10000 6.2 320 13:54 27.01.2020
3587 Clouds 19 1021 45 10000 7.2 320 13:36 27.01.2020
3588 Clouds 19 1021 45 10000 7.2 320 13:18 27.01.2020
3589 Clouds 19 1021 45 10000 6.7 320 12:42 27.01.2020
3590 Clouds 19 1021 45 10000 6.2 310 12:22 27.01.2020
3591 Clouds 19 1021 45 10000 7.2 320 11:55 27.01.2020
3592 Clouds 19 1022 45 10000 6.7 310 11:36 27.01.2020
3593 Clouds 19 1022 45 10000 6.7 310 11:18 27.01.2020
3594 Clouds 19 1023 45 10000 6.2 300 10:42 27.01.2020
3595 Clouds 19 1023 45 10000 6.2 300 10:23 27.01.2020
3596 Clouds 19 1024 48 10000 6.7 310 09:40 27.01.2020
3597 Clouds 18 1024 48 10000 6.7 310 09:19 27.01.2020
3598 Clouds 18 1024 48 10000 6.2 310 08:58 27.01.2020
3599 Clear 18 1024 52 10000 6.2 300 08:40 27.01.2020
3600 Clear 17 1024 52 10000 6.2 300 08:19 27.01.2020
3601 Clear 16 1025 51 10000 5.7 290 07:50 27.01.2020
3602 Clear 17 1025 59 10000 5.1 300 07:32 27.01.2020
3603 Clear 16 1024 58 10000 6.2 290 06:39 27.01.2020
3604 Clear 15 1024 58 10000 6.2 300 05:51 27.01.2020
3605 Clear 14 1023 62 10000 6.2 300 05:18 27.01.2020
3606 Clear 14 1022 67 10000 5.1 300 03:35 27.01.2020
3607 Clear 14 1022 67 10000 5.7 290 01:57 27.01.2020
3608 Clear 14 1022 62 10000 4.1 290 01:28 27.01.2020
3609 Clear 14 1022 67 10000 4.6 290 00:42 27.01.2020
3610 Clear 14 1022 67 10000 4.6 290 00:22 27.01.2020
3611 Clear 14 1022 67 10000 4.1 290 23:46 26.01.2020
3612 Clear 14 1022 67 10000 3.6 290 23:27 26.01.2020
3613 Clear 14 1022 67 10000 3.6 280 22:59 26.01.2020
3614 Clear 14 1022 62 10000 3.6 290 22:39 26.01.2020
3615 Clear 14 1022 62 10000 3.6 290 22:20 26.01.2020
3616 Clear 14 1022 62 10000 4.1 290 21:58 26.01.2020
3617 Clear 14 1022 62 10000 4.6 300 21:40 26.01.2020
3618 Clear 15 1022 62 10000 4.6 300 21:21 26.01.2020
3619 Clear 15 1023 62 10000 5.1 300 20:58 26.01.2020
3620 Clear 15 1023 62 10000 6.2 300 20:38 26.01.2020
3621 Clear 15 1023 62 10000 6.2 300 20:19 26.01.2020
3622 Clear 15 1023 62 10000 5.7 300 19:59 26.01.2020
3623 Clear 15 1023 62 10000 5.7 300 19:59 26.01.2020
3624 Clear 15 1023 62 10000 5.7 300 19:59 26.01.2020
3625 Clear 15 1023 67 10000 6.7 300 19:39 26.01.2020
3626 Clear 15 1023 67 10000 6.7 300 19:21 26.01.2020
3627 Clear 15 1023 67 10000 5.7 300 18:58 26.01.2020
3628 Clear 15 1022 63 10000 6.2 310 18:39 26.01.2020
3629 Clear 15 1022 63 10000 6.2 310 18:21 26.01.2020
3630 Clear 16 1022 63 10000 6.2 300 17:55 26.01.2020
3631 Clear 16 1022 59 10000 6.2 300 17:37 26.01.2020
3632 Clear 16 1022 59 10000 6.2 300 17:18 26.01.2020
3633 Clear 16 1022 55 10000 6.2 310 16:56 26.01.2020
3634 Clear 16 1022 55 10000 6.7 300 16:38 26.01.2020
3635 Clear 16 1022 55 10000 6.7 300 16:19 26.01.2020
3636 Clear 16 1022 55 10000 6.7 300 16:19 26.01.2020
3637 Clear 16 1023 56 0 5.36 334 15:43 26.01.2020
3638 Clear 17 1023 53 0 5.36 88 15:22 26.01.2020
3639 Clear 15 1022 71 0 9.97 312 14:58 26.01.2020
3640 Clear 15 1022 71 0 9.97 312 14:38 26.01.2020
3641 Clear 18 1022 42 0 7.15 335 14:19 26.01.2020
3642 Clear 19 1022 40 0 6.26 12 13:40 26.01.2020
3643 Clear 19 1022 40 0 4.47 275 13:19 26.01.2020
3644 Clear 19 1022 40 0 5.81 292 12:56 26.01.2020
3645 Clear 19 1022 39 0 6.26 309 12:37 26.01.2020
3646 Clear 19 1022 38 0 6.26 23 12:19 26.01.2020
3647 Clear 19 1022 40 0 7.15 323 11:57 26.01.2020
3648 Clear 19 1022 40 0 7.15 341 11:36 26.01.2020
3649 Clear 16 1022 44 10000 7.7 290 11:18 26.01.2020
3650 Clear 16 1022 44 10000 7.7 290 10:55 26.01.2020
3651 Clear 16 1022 44 10000 7.7 290 10:37 26.01.2020
3652 Clear 16 1022 44 10000 7.7 290 10:18 26.01.2020
3653 Clear 16 1023 47 9000 7.2 300 09:41 26.01.2020
3654 Clear 16 1023 47 9000 7.2 300 09:23 26.01.2020
3655 Clear 15 1023 50 9000 7.7 300 08:59 26.01.2020
3656 Clear 15 1023 50 9000 7.7 300 08:41 26.01.2020
3657 Clouds 14 1024 50 9000 6.7 310 08:21 26.01.2020
3658 Clouds 14 1024 50 8000 6.2 300 07:50 26.01.2020
3659 Clouds 13 1024 54 6000 6.2 300 07:26 26.01.2020
3660 Clear 13 1023 50 6000 7.7 310 06:40 26.01.2020
3661 Clear 13 1023 50 6000 7.7 310 06:22 26.01.2020
3662 Dust 13 1022 47 3000 6.2 290 05:27 26.01.2020
3663 Dust 14 1021 30 3000 4.6 290 03:23 26.01.2020
3664 Clear 14 1020 28 6000 5.1 300 02:38 26.01.2020
3665 Clear 14 1021 24 10000 5.7 290 01:43 26.01.2020
3666 Clear 13 1021 24 10000 5.7 300 01:22 26.01.2020
3667 Clear 14 1020 26 10000 5.1 300 00:42 26.01.2020
3668 Clear 14 1021 26 10000 6.2 300 00:23 26.01.2020
3669 Clear 14 1022 30 0 3.13 357 23:39 25.01.2020
3670 Clear 15 1022 28 0 4.47 10 23:20 25.01.2020
3671 Clear 15 1022 31 0 4.47 338 22:56 25.01.2020
3672 Clear 15 1022 32 0 3.58 36 22:36 25.01.2020
3673 Clear 15 1022 34 0 3.13 56 22:18 25.01.2020
3674 Clear 16 1022 40 0 4.02 338 21:41 25.01.2020
3675 Clear 16 1022 41 0 4.47 327 21:23 25.01.2020
3676 Clear 17 1022 42 0 3.13 56 20:56 25.01.2020
3677 Clear 15 1020 60 0 9.18 312 20:38 25.01.2020
3678 Clear 17 1022 42 0 2.68 4 20:19 25.01.2020
3679 Clear 17 1022 44 0 4.02 17 19:43 25.01.2020
3680 Clear 17 1022 45 0 3.58 278 19:20 25.01.2020
3681 Clear 18 1021 42 0 3.13 339 18:57 25.01.2020
3682 Clear 18 1021 42 0 3.13 339 18:57 25.01.2020
3683 Clear 18 1021 42 0 3.13 339 18:38 25.01.2020
3684 Clear 18 1022 41 0 3.13 337 18:20 25.01.2020
3685 Clear 18 1021 41 0 1.79 106 17:40 25.01.2020
3686 Clear 19 1021 37 0 2.24 336 17:19 25.01.2020
3687 Clear 19 1021 37 0 1.79 54 16:57 25.01.2020
3688 Clear 19 1020 37 0 2.68 331 16:38 25.01.2020
3689 Clear 19 1020 52 0 0.89 13 16:19 25.01.2020
3690 Clear 19 1020 51 0 1.34 76 15:47 25.01.2020
3691 Clear 19 1019 50 0 1.34 63 15:25 25.01.2020
3692 Clear 18 1018 51 0 3.78 63 14:57 25.01.2020
3693 Clear 18 1018 51 0 3.78 63 14:39 25.01.2020
3694 Clear 26 1019 23 0 1.34 353 14:18 25.01.2020
3695 Clear 26 1019 25 0 1.34 309 13:42 25.01.2020
3696 Clear 26 1019 25 0 2.68 335 13:23 25.01.2020
3697 Clear 24 1019 46 10000 3.6 360 12:45 25.01.2020
3698 Clear 23 1019 46 10000 3.6 360 12:25 25.01.2020
3699 Clear 23 1019 33 10000 2.1 50 11:45 25.01.2020
3700 Clear 22 1019 33 10000 2.1 50 11:22 25.01.2020
3701 Clear 22 1019 33 10000 2.1 50 11:22 25.01.2020
3702 Clear 21 1019 35 10000 2.6 10 10:59 25.01.2020
3703 Clear 21 1020 35 10000 2.1 210 10:40 25.01.2020
3704 Clear 21 1020 35 10000 2.1 210 10:20 25.01.2020
3705 Clear 22 1021 43 10000 1.5 0 09:41 25.01.2020
3706 Clear 22 1021 43 10000 1.5 0 09:22 25.01.2020
3707 Clear 21 1021 45 10000 2.1 170 08:47 25.01.2020
3708 Clear 19 1021 42 10000 2.1 160 08:28 25.01.2020
3709 Clear 18 1021 48 10000 1.5 200 07:50 25.01.2020
3710 Clear 15 1021 63 10000 1.5 340 06:54 25.01.2020
3711 Clear 17 1021 63 10000 1 340 06:28 25.01.2020
3712 Clear 16 1021 59 10000 0.5 0 05:48 25.01.2020
3713 Clear 13 1020 71 10000 1.05 177 05:23 25.01.2020
3714 Clear 13 1020 71 10000 1 0 03:53 25.01.2020
3715 Clear 13 1020 71 10000 1 0 03:22 25.01.2020
3716 Clear 13 1019 71 10000 1 0 02:22 25.01.2020
3717 Clear 14 1020 67 10000 2.6 310 01:52 25.01.2020
3718 Clear 14 1020 67 10000 3.1 310 00:44 25.01.2020
3719 Clear 14 1020 67 10000 2.6 310 00:26 25.01.2020
3720 Clear 14 1020 67 10000 2.1 310 23:59 24.01.2020
3721 Clear 15 1020 67 10000 2.6 310 23:40 24.01.2020
3722 Clear 14 1020 67 10000 2.6 310 23:22 24.01.2020
3723 Clear 14 1020 67 10000 2.6 310 22:45 24.01.2020
3724 Clear 14 1020 63 10000 2.1 310 22:25 24.01.2020
3725 Clear 15 1020 63 10000 2.1 310 21:56 24.01.2020
3726 Clear 15 1020 63 10000 2.1 310 21:37 24.01.2020
3727 Clear 15 1020 63 10000 2.1 310 21:18 24.01.2020
3728 Clear 15 1020 63 10000 2.1 330 20:42 24.01.2020
3729 Clear 15 1020 63 10000 2.1 330 20:21 24.01.2020
3730 Clear 15 1021 59 10000 3.1 340 19:57 24.01.2020
3731 Clear 15 1021 59 10000 3.6 340 19:38 24.01.2020
3732 Clear 15 1021 59 10000 3.6 340 19:20 24.01.2020
3733 Clear 16 1020 59 10000 3.1 340 18:43 24.01.2020
3734 Clear 16 1020 55 10000 3.1 340 18:24 24.01.2020
3735 Clear 17 1020 55 10000 3.6 340 17:56 24.01.2020
3736 Clear 17 1019 48 10000 3.6 330 17:38 24.01.2020
3737 Clear 17 1019 48 10000 3.6 330 17:18 24.01.2020
3738 Clear 17 1019 48 10000 3.1 330 16:39 24.01.2020
3739 Clear 17 1019 48 10000 3.1 330 16:20 24.01.2020
3740 Clear 18 1018 42 10000 3.1 330 15:43 24.01.2020
3741 Clear 18 1018 39 10000 3.1 320 15:23 24.01.2020
3742 Clear 19 1018 37 10000 3.1 310 14:58 24.01.2020
3743 Clear 19 1018 34 10000 3.6 320 14:40 24.01.2020
3744 Clear 20 1018 34 10000 3.6 320 14:21 24.01.2020
3745 Clear 20 1018 45 10000 4.1 20 13:43 24.01.2020
3746 Clear 19 1018 45 10000 4.1 10 13:23 24.01.2020
3747 Clear 20 1018 45 10000 3.6 30 12:45 24.01.2020
3748 Clear 20 1018 45 10000 3.6 30 12:45 24.01.2020
3749 Clear 19 1019 40 10000 3.6 320 12:23 24.01.2020
3750 Clear 19 1019 42 10000 4.1 350 11:57 24.01.2020
3751 Clear 19 1019 42 10000 4.1 360 11:39 24.01.2020
3752 Clear 19 1019 42 10000 4.1 360 11:18 24.01.2020
3753 Clear 19 1020 45 10000 4.1 340 10:42 24.01.2020
3754 Clear 19 1020 45 10000 4.1 340 10:21 24.01.2020
3755 Clear 20 1020 45 10000 3.6 330 09:54 24.01.2020
3756 Clear 20 1021 45 10000 3.6 320 09:36 24.01.2020
3757 Clear 19 1021 45 10000 3.6 320 09:18 24.01.2020
3758 Clear 19 1021 48 10000 4.1 300 08:39 24.01.2020
3759 Clear 19 1021 48 10000 4.1 300 08:39 24.01.2020
3760 Clear 17 1021 48 10000 4.1 300 08:19 24.01.2020
3761 Clear 16 1021 51 10000 4.1 310 07:47 24.01.2020
3762 Clear 16 1021 55 10000 4.6 310 07:22 24.01.2020
3763 Clear 15 1021 62 10000 3.1 300 06:45 24.01.2020
3764 Clear 16 1021 62 10000 3.1 300 06:24 24.01.2020
3765 Clear 14 1020 67 10000 4.1 300 05:33 24.01.2020
3766 Clouds 14 1019 58 10000 4.6 320 03:36 24.01.2020
3767 Clouds 15 1018 58 10000 4.6 320 02:40 24.01.2020
3768 Clouds 15 1018 62 10000 5.1 310 02:21 24.01.2020
3769 Clouds 15 1018 62 10000 5.7 310 01:39 24.01.2020
3770 Clouds 15 1018 63 10000 5.1 310 00:49 24.01.2020
3771 Clouds 15 1019 63 10000 4.6 310 00:19 24.01.2020
3772 Clouds 15 1019 67 10000 4.6 310 23:42 23.01.2020
3773 Clouds 15 1019 67 10000 4.6 310 23:23 23.01.2020
3774 Clouds 15 1019 67 10000 4.6 310 22:58 23.01.2020
3775 Clouds 15 1019 67 10000 3.6 300 22:37 23.01.2020
3776 Clouds 15 1019 67 10000 3.6 300 22:37 23.01.2020
3777 Clouds 15 1019 67 10000 3.6 300 22:18 23.01.2020
3778 Clouds 15 1019 67 10000 4.6 310 21:55 23.01.2020
3779 Clouds 16 1019 67 10000 4.1 300 21:37 23.01.2020
3780 Clouds 16 1019 67 10000 4.1 300 21:19 23.01.2020
3781 Clouds 16 1019 67 10000 4.1 300 21:19 23.01.2020
3782 Clouds 16 1019 67 10000 4.1 300 20:55 23.01.2020
3783 Rain 16 1019 67 10000 3.6 300 20:37 23.01.2020
3784 Rain 16 1019 67 10000 3.6 300 20:18 23.01.2020
3785 Rain 16 1019 67 10000 3.6 310 19:42 23.01.2020
3786 Clouds 16 1019 67 10000 4.6 310 19:23 23.01.2020
3787 Rain 16 1019 67 10000 4.1 310 18:58 23.01.2020
3788 Rain 16 1019 67 10000 4.1 310 18:38 23.01.2020
3789 Rain 16 1019 67 10000 4.1 310 18:20 23.01.2020
3790 Rain 15 1019 63 10000 4.1 320 17:55 23.01.2020
3791 Rain 15 1019 72 10000 4.1 320 17:37 23.01.2020
3792 Rain 15 1019 72 10000 4.1 320 17:18 23.01.2020
3793 Clouds 15 1018 72 10000 4.6 330 16:39 23.01.2020
3794 Clouds 15 1018 72 10000 4.6 330 16:20 23.01.2020
3795 Clouds 15 1018 72 10000 4.6 330 16:20 23.01.2020
3796 Rain 15 1018 77 9000 4.6 330 15:58 23.01.2020
3797 Clouds 15 1018 67 10000 5.7 330 15:39 23.01.2020
3798 Clouds 15 1018 67 10000 5.7 330 15:19 23.01.2020
3799 Clouds 15 1018 62 10000 5.7 320 14:58 23.01.2020
3800 Clouds 15 1017 58 10000 7.7 320 14:40 23.01.2020
3801 Clouds 15 1017 58 10000 7.7 320 14:22 23.01.2020
3802 Clouds 16 1017 63 10000 7.2 330 13:55 23.01.2020
3803 Clouds 16 1017 59 10000 7.2 330 13:37 23.01.2020
3804 Clouds 16 1017 59 10000 7.2 330 13:18 23.01.2020
3805 Clouds 17 1017 59 10000 7.2 320 12:42 23.01.2020
3806 Clouds 17 1017 59 10000 7.2 320 12:24 23.01.2020
3807 Clouds 17 1017 63 10000 7.2 320 11:56 23.01.2020
3808 Clouds 17 1017 63 10000 7.7 320 11:37 23.01.2020
3809 Clouds 17 1017 63 10000 7.7 320 11:18 23.01.2020
3810 Clouds 17 1018 63 10000 6.2 320 10:42 23.01.2020
3811 Clouds 17 1018 55 10000 7.7 320 10:19 23.01.2020
3812 Clouds 17 1019 67 10000 7.7 320 09:42 23.01.2020
3813 Clouds 17 1019 67 10000 7.7 320 09:24 23.01.2020
3814 Clouds 18 1019 63 10000 7.2 320 08:58 23.01.2020
3815 Clouds 18 1019 68 10000 7.2 310 08:40 23.01.2020
3816 Clouds 18 1019 68 10000 7.2 310 08:21 23.01.2020
3817 Clouds 19 1019 63 10000 6.7 320 07:44 23.01.2020
3818 Clouds 18 1018 68 10000 6.2 320 07:24 23.01.2020
3819 Clouds 18 1018 77 10000 5.7 320 06:51 23.01.2020
3820 Clouds 18 1018 77 10000 5.7 320 06:51 23.01.2020
3821 Clouds 18 1018 72 10000 6.7 330 06:20 23.01.2020
3822 Clouds 19 1016 82 10000 4.6 330 05:37 23.01.2020
3823 Rain 19 1016 72 10000 3.1 310 04:22 23.01.2020
3824 Rain 19 1014 77 10000 5.1 270 02:33 23.01.2020
3825 Clouds 20 1014 82 10000 5.7 120 00:58 23.01.2020
3826 Clouds 20 1014 77 10000 5.7 120 00:27 23.01.2020
3827 Clouds 20 1014 82 10000 6.2 120 23:47 22.01.2020
3828 Clouds 20 1015 82 10000 5.1 110 23:29 22.01.2020
3829 Clouds 20 1015 77 10000 3.6 120 22:58 22.01.2020
3830 Clouds 21 1015 77 10000 4.6 100 22:39 22.01.2020
3831 Clouds 20 1015 77 10000 4.6 100 22:21 22.01.2020
3832 Clouds 20 1015 77 10000 3.1 100 21:39 22.01.2020
3833 Clouds 20 1015 77 10000 3.1 100 21:21 22.01.2020
3834 Clouds 20 1015 72 10000 2.6 100 20:56 22.01.2020
3835 Clouds 20 1015 77 10000 2.6 90 20:37 22.01.2020
3836 Clouds 20 1015 77 10000 2.6 90 20:18 22.01.2020
3837 Clouds 20 1015 77 10000 3.1 110 19:55 22.01.2020
3838 Clouds 20 1015 72 10000 3.6 110 19:37 22.01.2020
3839 Clouds 20 1015 72 10000 3.6 110 19:18 22.01.2020
3840 Clouds 20 1015 72 10000 4.6 110 18:56 22.01.2020
3841 Clouds 20 1015 72 10000 5.7 110 18:37 22.01.2020
3842 Clouds 20 1015 72 10000 5.7 110 18:18 22.01.2020
3843 Clouds 20 1015 72 10000 5.1 90 17:40 22.01.2020
3844 Clouds 20 1015 72 10000 5.1 90 17:21 22.01.2020
3845 Clouds 20 1015 72 10000 5.1 90 16:58 22.01.2020
3846 Clouds 20 1015 72 10000 5.1 90 16:58 22.01.2020
3847 Clouds 20 1015 72 10000 4.6 80 16:39 22.01.2020
3848 Clouds 20 1015 72 10000 4.6 80 16:21 22.01.2020
3849 Clouds 20 1015 72 10000 4.6 70 15:56 22.01.2020
3850 Clouds 21 1015 68 10000 5.1 70 15:38 22.01.2020
3851 Clouds 21 1015 68 10000 5.1 70 15:18 22.01.2020
3852 Clouds 22 1014 68 10000 4.1 90 14:39 22.01.2020
3853 Clear 22 1014 68 10000 4.1 90 14:20 22.01.2020
3854 Clear 23 1014 60 10000 4.6 100 13:58 22.01.2020
3855 Clear 23 1014 53 10000 6.2 120 13:38 22.01.2020
3856 Clear 23 1014 53 10000 6.2 120 13:19 22.01.2020
3857 Clear 23 1014 53 10000 7.7 130 12:57 22.01.2020
3858 Clear 23 1014 49 10000 8.2 130 12:39 22.01.2020
3859 Clear 23 1014 49 10000 8.2 130 12:19 22.01.2020
3860 Clear 23 1014 49 10000 8.2 130 11:58 22.01.2020
3861 Clear 23 1015 46 10000 8.2 130 11:39 22.01.2020
3862 Clear 23 1015 46 10000 8.2 130 11:19 22.01.2020
3863 Clear 23 1015 46 10000 8.2 130 11:19 22.01.2020
3864 Clear 23 1015 49 10000 8.7 130 10:54 22.01.2020
3865 Clear 23 1015 49 10000 8.7 140 10:36 22.01.2020
3866 Clear 23 1015 49 10000 8.7 140 10:18 22.01.2020
3867 Clear 22 1017 56 10000 8.2 140 09:41 22.01.2020
3868 Clear 22 1017 56 10000 8.2 140 09:23 22.01.2020
3869 Clear 22 1017 56 10000 8.2 140 08:57 22.01.2020
3870 Clear 22 1017 60 10000 8.2 140 08:38 22.01.2020
3871 Clear 22 1017 60 10000 8.2 140 08:20 22.01.2020
3872 Clear 21 1018 64 10000 7.2 140 07:46 22.01.2020
3873 Clear 20 1018 68 10000 4.1 170 07:27 22.01.2020
3874 Clear 19 1017 68 10000 3.1 160 06:38 22.01.2020
3875 Clear 19 1017 68 10000 3.1 160 06:20 22.01.2020
3876 Clear 15 1017 72 10000 1 130 05:19 22.01.2020
3877 Clear 16 1015 67 10000 2.1 180 03:29 22.01.2020
3878 Clear 16 1015 67 10000 1.5 180 02:49 22.01.2020
3879 Clear 16 1015 63 10000 1.5 170 01:42 22.01.2020
3880 Clear 16 1015 67 10000 1 170 00:43 22.01.2020
3881 Clear 16 1016 63 10000 0.5 0 00:25 22.01.2020
3882 Clear 16 1016 63 10000 1 0 23:38 21.01.2020
3883 Clear 16 1016 63 10000 1 0 23:38 21.01.2020
3884 Clear 16 1016 63 10000 1 0 23:20 21.01.2020
3885 Clear 17 1017 63 10000 1 230 22:55 21.01.2020
3886 Clear 17 1017 63 10000 1 0 22:36 21.01.2020
3887 Clear 17 1017 63 10000 1 0 22:18 21.01.2020
3888 Clear 17 1017 63 10000 1 0 21:55 21.01.2020
3889 Clear 17 1017 63 10000 0.5 0 21:36 21.01.2020
3890 Clear 17 1017 63 10000 0.5 0 21:18 21.01.2020
3891 Clear 17 1018 63 10000 1.95 289 20:39 21.01.2020
3892 Clear 17 1018 63 10000 1.79 12 20:20 21.01.2020
3893 Clear 18 1017 63 10000 1 0 19:58 21.01.2020
3894 Clear 18 1017 63 10000 1 0 19:58 21.01.2020
3895 Clear 18 1017 63 10000 1.5 10 19:40 21.01.2020
3896 Clear 18 1017 63 10000 1.5 10 19:21 21.01.2020
3897 Clear 19 1017 63 10000 2.1 10 18:57 21.01.2020
3898 Clear 19 1017 59 10000 2.1 20 18:39 21.01.2020
3899 Clear 19 1017 59 10000 2.1 20 18:21 21.01.2020
3900 Clear 19 1017 59 10000 1.5 30 17:58 21.01.2020
3901 Clear 19 1017 59 10000 1.5 40 17:40 21.01.2020
3902 Clear 19 1017 59 10000 1.5 40 17:18 21.01.2020
3903 Clear 20 1016 52 10000 4.6 20 16:38 21.01.2020
3904 Clear 20 1016 52 10000 4.6 20 16:20 21.01.2020
3905 Clear 21 1016 52 10000 4.6 20 15:59 21.01.2020
3906 Clear 21 1016 56 10000 4.1 20 15:39 21.01.2020
3907 Clear 21 1016 56 10000 4.1 20 15:19 21.01.2020
3908 Clear 21 1016 56 10000 4.1 20 15:19 21.01.2020
3909 Clear 21 1016 49 10000 5.1 10 14:40 21.01.2020
3910 Clear 22 1016 49 10000 5.1 10 14:22 21.01.2020
3911 Clear 22 1016 52 10000 5.7 20 13:58 21.01.2020
3912 Clear 23 1016 46 10000 6.2 20 13:38 21.01.2020
3913 Clear 23 1016 46 10000 6.2 20 13:18 21.01.2020
3914 Clear 23 1016 43 10000 6.7 20 12:42 21.01.2020
3915 Clear 23 1016 43 10000 6.7 20 12:24 21.01.2020
3916 Clear 22 1016 43 10000 5.7 10 11:56 21.01.2020
3917 Clear 22 1017 43 10000 4.6 20 11:38 21.01.2020
3918 Clear 23 1017 43 10000 4.6 20 11:19 21.01.2020
3919 Clear 22 1017 40 10000 5.7 20 10:43 21.01.2020
3920 Clear 23 1018 43 10000 5.7 10 10:23 21.01.2020
3921 Clear 22 1018 40 10000 6.2 340 09:56 21.01.2020
3922 Clear 22 1018 40 10000 6.2 340 09:56 21.01.2020
3923 Clear 23 1018 40 10000 6.2 340 09:38 21.01.2020
3924 Clear 23 1018 40 10000 6.2 340 09:20 21.01.2020
3925 Clear 22 1019 37 10000 6.7 340 08:44 21.01.2020
3926 Clear 22 1019 43 10000 6.2 340 08:26 21.01.2020
3927 Clear 20 1019 43 10000 5.7 330 07:43 21.01.2020
3928 Clear 20 1019 49 10000 5.1 330 07:24 21.01.2020
3929 Clear 19 1019 52 10000 4.6 330 06:57 21.01.2020
3930 Clear 19 1019 63 10000 3.1 330 06:38 21.01.2020
3931 Clear 18 1018 72 10000 2.6 310 05:55 21.01.2020
3932 Clear 17 1018 82 10000 3.1 300 05:32 21.01.2020
3933 Clear 16 1018 77 9000 4.6 300 04:38 21.01.2020
3934 Clear 16 1017 77 10000 4.1 300 02:27 21.01.2020
3935 Clear 16 1017 72 10000 3.6 310 01:36 21.01.2020
3936 Clear 16 1017 72 10000 3.6 310 00:51 21.01.2020
3937 Clear 16 1017 72 10000 4.1 310 00:28 21.01.2020
3938 Clear 16 1018 72 10000 4.1 310 23:56 20.01.2020
3939 Clear 17 1018 72 10000 3.6 310 23:36 20.01.2020
3940 Clear 17 1018 72 10000 3.6 310 23:18 20.01.2020
3941 Clear 17 1018 68 10000 3.6 310 22:40 20.01.2020
3942 Clear 17 1018 68 10000 3.6 310 22:21 20.01.2020
3943 Clear 17 1018 68 10000 3.6 310 21:58 20.01.2020
3944 Clear 17 1019 68 10000 3.6 310 21:38 20.01.2020
3945 Clear 17 1019 68 10000 3.6 310 21:20 20.01.2020
3946 Clear 18 1019 63 10000 3.6 320 20:59 20.01.2020
3947 Clear 18 1019 63 10000 3.6 320 20:41 20.01.2020
3948 Clear 18 1019 63 10000 3.6 320 20:20 20.01.2020
3949 Clear 18 1019 63 10000 4.1 320 19:58 20.01.2020
3950 Clear 18 1019 63 10000 4.6 320 19:40 20.01.2020
3951 Clear 18 1019 63 10000 4.6 320 19:19 20.01.2020
3952 Clear 19 1019 59 10000 4.6 320 18:55 20.01.2020
3953 Clear 19 1019 56 10000 4.6 320 18:37 20.01.2020
3954 Clear 19 1019 56 10000 4.6 320 18:19 20.01.2020
3955 Clear 19 1019 56 10000 5.1 330 17:38 20.01.2020
3956 Clear 19 1019 56 10000 5.1 330 17:19 20.01.2020
3957 Clear 20 1019 52 10000 5.7 330 16:46 20.01.2020
3958 Clear 20 1018 49 10000 5.1 330 16:26 20.01.2020
3959 Clear 21 1018 49 10000 5.7 350 15:59 20.01.2020
3960 Clear 21 1018 52 10000 7.2 350 15:40 20.01.2020
3961 Clear 21 1018 52 10000 7.2 350 15:22 20.01.2020
3962 Clear 22 1017 46 10000 7.7 350 14:56 20.01.2020
3963 Clear 22 1017 37 10000 8.7 350 14:37 20.01.2020
3964 Clear 22 1017 37 10000 8.7 350 14:37 20.01.2020
3965 Clear 23 1017 37 10000 8.7 350 14:19 20.01.2020
3966 Clear 24 1017 40 10000 7.7 360 13:42 20.01.2020
3967 Clear 24 1017 38 10000 8.2 360 13:24 20.01.2020
3968 Clouds 24 1017 40 10000 8.2 350 12:58 20.01.2020
3969 Clouds 23 1017 49 10000 7.2 360 12:40 20.01.2020
3970 Clouds 23 1017 49 10000 7.2 360 12:21 20.01.2020
3971 Clouds 23 1017 47 10000 9.3 350 11:43 20.01.2020
3972 Clouds 23 1017 53 10000 8.7 350 11:24 20.01.2020
3973 Clouds 24 1018 53 10000 8.7 350 10:58 20.01.2020
3974 Clouds 25 1018 57 10000 9.3 350 10:40 20.01.2020
3975 Clouds 24 1018 57 10000 9.3 350 10:20 20.01.2020
3976 Clouds 24 1018 57 10000 9.8 350 09:41 20.01.2020
3977 Clouds 24 1019 60 10000 7.7 330 09:22 20.01.2020
3978 Clouds 23 1019 64 10000 6.7 320 08:54 20.01.2020
3979 Clouds 23 1019 56 10000 6.2 320 08:31 20.01.2020
3980 Clear 21 1019 56 10000 5.7 320 07:55 20.01.2020
3981 Clear 21 1019 64 10000 4.6 310 07:36 20.01.2020
3982 Clear 20 1019 64 10000 4.6 310 07:18 20.01.2020
3983 Clear 19 1018 72 7000 3.1 300 06:36 20.01.2020
3984 Clear 18 1018 77 7000 2.1 290 05:56 20.01.2020
3985 Clear 18 1018 82 6000 1.5 280 05:37 20.01.2020
3986 Clear 17 1018 82 6000 1.5 280 05:18 20.01.2020
3987 Clear 17 1017 82 8000 2.1 270 03:47 20.01.2020
3988 Clear 17 1016 82 10000 2.6 240 01:58 20.01.2020
3989 Clear 17 1016 82 10000 2.1 230 01:39 20.01.2020
3990 Clear 18 1016 77 10000 2.6 240 00:55 20.01.2020
3991 Clear 18 1016 77 10000 3.6 240 00:28 20.01.2020
3992 Clear 19 1016 77 10000 2.1 180 23:56 19.01.2020
3993 Clear 19 1016 82 10000 2.1 150 23:37 19.01.2020
3994 Clear 19 1016 82 10000 2.1 150 23:18 19.01.2020
3995 Clear 19 1016 82 10000 2.1 150 23:18 19.01.2020
3996 Clear 19 1016 82 10000 1.5 160 22:55 19.01.2020
3997 Clear 19 1016 82 10000 2.6 140 22:36 19.01.2020
3998 Clear 19 1016 82 10000 2.6 140 22:18 19.01.2020
3999 Clear 19 1016 77 10000 2.6 140 21:55 19.01.2020
4000 Clear 19 1016 77 10000 2.6 140 21:55 19.01.2020
4001 Clear 19 1016 82 10000 2.6 140 21:37 19.01.2020
4002 Clear 19 1016 82 10000 2.6 140 21:19 19.01.2020
4003 Clear 19 1016 82 10000 2.6 140 20:55 19.01.2020
4004 Clear 19 1016 82 10000 2.6 140 20:55 19.01.2020
4005 Clear 19 1017 77 10000 2.6 150 20:37 19.01.2020
4006 Clouds 19 1017 77 10000 2.6 150 20:18 19.01.2020
4007 Clouds 20 1016 82 10000 2.1 140 19:54 19.01.2020
4008 Clouds 20 1016 82 10000 1.5 130 19:36 19.01.2020
4009 Clouds 20 1016 82 10000 1.5 130 19:18 19.01.2020
4010 Clouds 20 1016 82 10000 2.6 130 18:54 19.01.2020
4011 Clouds 20 1016 72 10000 2.1 120 18:36 19.01.2020
4012 Clouds 20 1016 72 10000 2.1 120 18:18 19.01.2020
4013 Clouds 21 1016 72 10000 1.5 120 17:56 19.01.2020
4014 Clouds 21 1016 72 10000 2.1 120 17:38 19.01.2020
4015 Clouds 21 1016 72 10000 2.1 120 17:18 19.01.2020
4016 Clouds 21 1016 72 10000 2.6 120 16:55 19.01.2020
4017 Clouds 21 1015 72 10000 2.6 120 16:36 19.01.2020
4018 Clouds 21 1015 72 10000 2.6 120 16:18 19.01.2020
4019 Clouds 22 1015 64 10000 3.1 120 15:54 19.01.2020
4020 Clouds 22 1015 60 10000 4.1 120 15:36 19.01.2020
4021 Clouds 22 1015 60 10000 4.1 120 15:18 19.01.2020
4022 Clouds 23 1015 53 10000 4.6 120 14:40 19.01.2020
4023 Clouds 24 1015 53 10000 4.6 120 14:20 19.01.2020
4024 Clouds 25 1014 46 10000 5.1 130 13:59 19.01.2020
4025 Clouds 25 1014 46 10000 5.7 120 13:40 19.01.2020
4026 Clouds 25 1014 46 10000 5.7 120 13:21 19.01.2020
4027 Clouds 25 1015 46 10000 5.7 120 12:59 19.01.2020
4028 Clouds 25 1015 46 10000 5.7 120 12:40 19.01.2020
4029 Clouds 25 1015 47 10000 6.2 120 12:21 19.01.2020
4030 Clouds 25 1015 50 10000 5.7 120 11:57 19.01.2020
4031 Clouds 25 1015 47 10000 6.2 120 11:38 19.01.2020
4032 Clouds 24 1015 47 10000 6.2 120 11:18 19.01.2020
4033 Clouds 23 1017 56 10000 6.2 120 10:40 19.01.2020
4034 Clouds 23 1017 56 10000 6.2 120 10:21 19.01.2020
4035 Clouds 23 1017 56 10000 5.1 110 09:57 19.01.2020
4036 Clouds 25 1018 49 10000 4.6 130 09:38 19.01.2020
4037 Clouds 24 1018 49 10000 4.6 130 09:20 19.01.2020
4038 Clouds 24 1018 46 10000 5.1 130 08:55 19.01.2020
4039 Clear 23 1018 60 10000 4.6 130 08:33 19.01.2020
4040 Clouds 22 1019 60 10000 4.1 130 07:55 19.01.2020
4041 Clouds 22 1018 77 10000 4.1 130 07:29 19.01.2020
4042 Clouds 21 1018 77 10000 3.1 130 06:55 19.01.2020
4043 Clouds 21 1018 82 10000 0.5 0 06:22 19.01.2020
4044 Clouds 16 1016 88 10000 2.6 130 03:58 19.01.2020
4045 Clouds 16 1015 93 10000 3.6 140 02:34 19.01.2020
4046 Clouds 16 1015 87 10000 2.6 130 01:42 19.01.2020
4047 Clear 17 1016 88 10000 1 110 01:20 19.01.2020
4048 Clear 17 1016 93 10000 0.5 160 00:44 19.01.2020
4049 Clear 17 1016 88 10000 3.1 150 00:21 19.01.2020
4050 Clear 17 1016 88 10000 3.1 150 23:54 18.01.2020
4051 Clear 17 1016 82 10000 2.6 140 23:36 18.01.2020
4052 Clear 17 1016 82 10000 2.6 140 23:18 18.01.2020
4053 Clear 17 1016 82 10000 3.1 150 22:41 18.01.2020
4054 Clear 18 1016 82 10000 2.1 140 22:23 18.01.2020
4055 Clear 18 1016 82 10000 2.6 140 21:58 18.01.2020
4056 Clear 18 1016 82 10000 2.1 130 21:39 18.01.2020
4057 Clear 18 1016 82 10000 2.1 130 21:20 18.01.2020
4058 Clear 18 1017 82 10000 1.5 120 20:57 18.01.2020
4059 Clear 18 1017 82 10000 1.5 120 20:57 18.01.2020
4060 Clear 19 1017 77 10000 1.5 120 20:39 18.01.2020
4061 Clear 19 1017 77 10000 1.5 120 20:39 18.01.2020
4062 Clouds 19 1017 77 10000 1.5 120 20:19 18.01.2020
4063 Clouds 18 1017 77 10000 1.5 100 19:43 18.01.2020
4064 Clouds 19 1017 72 10000 1.5 100 19:24 18.01.2020
4065 Clouds 19 1017 72 10000 2.1 110 18:43 18.01.2020
4066 Clouds 19 1017 72 10000 2.6 100 18:25 18.01.2020
4067 Clouds 21 1017 72 10000 3.1 110 17:59 18.01.2020
4068 Clouds 21 1017 72 10000 3.6 120 17:40 18.01.2020
4069 Clouds 22 1017 72 10000 3.6 120 17:20 18.01.2020
4070 Clouds 19 1017 72 10000 3.1 120 16:57 18.01.2020
4071 Clouds 19 1016 68 10000 3.6 110 16:38 18.01.2020
4072 Clouds 19 1016 68 10000 3.6 110 16:38 18.01.2020
4073 Clouds 19 1016 68 10000 3.6 110 16:38 18.01.2020
4074 Clouds 20 1016 68 10000 3.6 110 16:19 18.01.2020
4075 Clouds 20 1016 64 10000 3.6 110 15:47 18.01.2020
4076 Clouds 21 1016 60 10000 4.1 110 15:26 18.01.2020
4077 Clouds 22 1016 49 10000 4.1 120 14:59 18.01.2020
4078 Clouds 22 1016 46 10000 4.6 150 14:40 18.01.2020
4079 Clouds 23 1016 46 10000 4.6 150 14:19 18.01.2020
4080 Clouds 23 1016 46 10000 5.1 160 13:56 18.01.2020
4081 Clouds 23 1016 46 10000 5.7 150 13:36 18.01.2020
4082 Clouds 23 1016 46 10000 5.7 150 13:18 18.01.2020
4083 Clouds 23 1016 46 10000 5.7 150 13:18 18.01.2020
4084 Clouds 24 1016 49 10000 7.2 160 12:41 18.01.2020
4085 Clouds 24 1016 49 10000 7.2 160 12:21 18.01.2020
4086 Clouds 23 1016 46 10000 6.7 150 11:56 18.01.2020
4087 Clouds 23 1016 49 10000 6.2 140 11:38 18.01.2020
4088 Clouds 23 1016 49 10000 6.2 140 11:19 18.01.2020
4089 Clouds 23 1017 60 10000 6.2 150 10:42 18.01.2020
4090 Clouds 23 1017 60 10000 6.2 150 10:20 18.01.2020
4091 Clouds 22 1018 56 10000 6.7 150 09:54 18.01.2020
4092 Clouds 22 1018 60 10000 6.7 140 09:36 18.01.2020
4093 Clouds 22 1019 60 10000 6.7 140 08:59 18.01.2020
4094 Clouds 22 1019 64 10000 5.7 160 08:41 18.01.2020
4095 Clouds 21 1019 64 10000 5.7 160 08:20 18.01.2020
4096 Clouds 21 1019 64 10000 5.7 150 07:52 18.01.2020
4097 Clouds 20 1020 68 10000 3.1 160 07:34 18.01.2020
4098 Clouds 20 1020 68 10000 2.1 190 06:48 18.01.2020
4099 Clouds 19 1020 72 10000 1.5 210 06:19 18.01.2020
4100 Clouds 19 1020 72 10000 1.5 210 06:19 18.01.2020
4101 Clouds 17 1019 82 10000 1 0 05:31 18.01.2020
4102 Clouds 16 1018 82 10000 0.5 0 03:46 18.01.2020
4103 Clear 17 1018 87 10000 0.5 180 02:20 18.01.2020
4104 Clear 17 1018 82 10000 1.5 150 01:36 18.01.2020
4105 Clear 17 1018 82 10000 1.5 140 00:38 18.01.2020
4106 Clear 17 1018 82 10000 1.5 140 00:19 18.01.2020
4107 Clear 18 1018 82 10000 1.5 120 23:44 17.01.2020
4108 Clear 18 1019 87 10000 0.5 130 23:21 17.01.2020
4109 Clear 18 1019 82 10000 1.5 130 22:59 17.01.2020
4110 Clear 18 1019 88 10000 1.5 140 22:40 17.01.2020
4111 Clear 18 1019 88 10000 1.5 140 22:19 17.01.2020
4112 Clear 17 1019 88 10000 2.1 120 21:42 17.01.2020
4113 Clear 17 1019 88 10000 1.5 120 21:24 17.01.2020
4114 Clear 17 1020 82 10000 1 120 20:59 17.01.2020
4115 Clear 17 1020 82 10000 0.5 140 20:41 17.01.2020
4116 Clear 17 1020 82 10000 0.5 140 20:20 17.01.2020
4117 Clear 18 1020 77 10000 1 130 19:57 17.01.2020
4118 Clear 18 1020 77 10000 1 140 19:38 17.01.2020
4119 Clear 18 1020 77 10000 1 140 19:19 17.01.2020
4120 Clear 18 1020 77 10000 1 110 18:57 17.01.2020
4121 Clear 19 1020 77 10000 1 100 18:37 17.01.2020
4122 Clear 19 1020 77 10000 1 100 18:19 17.01.2020
4123 Clear 19 1020 72 10000 1 100 17:40 17.01.2020
4124 Clear 19 1020 72 10000 1 100 17:40 17.01.2020
4125 Clear 19 1020 72 10000 1 100 17:21 17.01.2020
4126 Clear 19 1020 72 10000 1.5 90 16:55 17.01.2020
4127 Clear 19 1020 72 10000 1.5 80 16:36 17.01.2020
4128 Clear 19 1020 72 10000 1.5 80 16:18 17.01.2020
4129 Clear 20 1020 72 10000 2.1 90 15:43 17.01.2020
4130 Clear 20 1020 68 10000 2.6 90 15:25 17.01.2020
4131 Clear 21 1020 68 10000 2.6 80 14:44 17.01.2020
4132 Clear 21 1019 64 10000 3.1 90 14:25 17.01.2020
4133 Clouds 22 1020 60 10000 3.1 90 13:47 17.01.2020
4134 Clouds 22 1020 60 10000 3.1 110 13:23 17.01.2020
4135 Clouds 22 1020 56 10000 3.1 100 12:56 17.01.2020
4136 Clouds 23 1020 53 10000 2.6 90 12:37 17.01.2020
4137 Clouds 23 1020 53 10000 2.6 90 12:18 17.01.2020
4138 Clouds 22 1021 53 10000 2.6 120 11:38 17.01.2020
4139 Clouds 23 1021 53 10000 2.6 120 11:18 17.01.2020
4140 Clear 22 1021 49 10000 3.1 100 10:42 17.01.2020
4141 Clear 22 1021 49 10000 3.1 100 10:22 17.01.2020
4142 Clear 21 1022 49 10000 2.1 90 09:57 17.01.2020
4143 Clear 22 1022 53 10000 1.5 0 09:37 17.01.2020
4144 Clear 23 1022 53 10000 1.5 0 09:18 17.01.2020
4145 Clear 22 1023 52 10000 2.1 360 08:42 17.01.2020
4146 Clear 21 1023 56 10000 1.5 360 08:24 17.01.2020
4147 Clear 20 1023 52 10000 1 0 07:53 17.01.2020
4148 Clear 19 1023 60 10000 1 0 07:31 17.01.2020
4149 Clear 20 1023 63 9000 1 0 06:57 17.01.2020
4150 Clear 20 1023 63 8000 1 0 06:38 17.01.2020
4151 Clear 16 1022 77 7000 1 0 05:28 17.01.2020
4152 Clear 15 1023 81 0 2.16 314 03:39 17.01.2020
4153 Clear 15 1023 80 0 2.16 314 02:44 17.01.2020
4154 Clear 15 1023 77 0 0.45 145 01:46 17.01.2020
4155 Clear 15 1023 75 0 3.57 318 01:27 17.01.2020
4156 Clear 16 1023 73 0 0.45 337 00:44 17.01.2020
4157 Clear 16 1023 63 10000 1 0 00:20 17.01.2020
4158 Clear 16 1023 63 10000 1 0 23:42 16.01.2020
4159 Clear 16 1023 63 10000 1 0 23:24 16.01.2020
4160 Clear 16 1023 63 10000 1.5 290 22:43 16.01.2020
4161 Clear 16 1023 63 10000 1.5 290 22:22 16.01.2020
4162 Clear 16 1023 63 10000 1.5 290 21:57 16.01.2020
4163 Clear 16 1023 63 10000 1 320 21:39 16.01.2020
4164 Clear 16 1023 63 10000 1 320 21:19 16.01.2020
4165 Clear 17 1023 63 10000 1.5 340 20:59 16.01.2020
4166 Clear 16 1023 67 10000 1 340 20:40 16.01.2020
4167 Clear 16 1023 67 10000 1 340 20:20 16.01.2020
4168 Clear 17 1023 67 10000 2.1 340 19:57 16.01.2020
4169 Clear 17 1023 59 10000 3.1 330 19:39 16.01.2020
4170 Clear 17 1023 59 10000 3.1 330 19:20 16.01.2020
4171 Clear 17 1023 63 10000 3.6 330 18:56 16.01.2020
4172 Clear 17 1023 63 10000 3.1 340 18:37 16.01.2020
4173 Clear 17 1023 63 10000 3.1 340 18:18 16.01.2020
4174 Clear 17 1023 63 10000 3.1 340 18:18 16.01.2020
4175 Clear 19 1023 63 10000 2.6 330 17:55 16.01.2020
4176 Clear 19 1023 63 10000 2.1 340 17:37 16.01.2020
4177 Clear 19 1023 63 10000 2.1 340 17:18 16.01.2020
4178 Clear 19 1023 52 10000 3.6 310 16:40 16.01.2020
4179 Clear 19 1023 52 10000 3.6 310 16:21 16.01.2020
4180 Clear 20 1022 52 10000 3.6 330 15:55 16.01.2020
4181 Clear 20 1022 52 10000 3.1 350 15:37 16.01.2020
4182 Clear 20 1022 52 10000 3.1 350 15:18 16.01.2020
4183 Clouds 21 1022 49 10000 3.1 360 14:41 16.01.2020
4184 Clouds 21 1022 49 10000 3.1 360 14:23 16.01.2020
4185 Clouds 22 1022 49 10000 3.1 360 13:47 16.01.2020
4186 Clouds 22 1022 46 10000 3.1 10 13:28 16.01.2020
4187 Clouds 21 1022 46 10000 3.1 10 12:57 16.01.2020
4188 Clouds 21 1022 46 10000 2.6 30 12:39 16.01.2020
4189 Clouds 22 1022 46 10000 2.6 30 12:20 16.01.2020
4190 Clouds 23 1022 49 10000 3.6 20 11:42 16.01.2020
4191 Clouds 23 1022 49 10000 3.6 20 11:42 16.01.2020
4192 Clouds 23 1022 49 10000 3.6 20 11:24 16.01.2020
4193 Clouds 22 1023 46 10000 3.1 360 10:56 16.01.2020
4194 Clouds 22 1023 46 10000 2.6 360 10:37 16.01.2020
4195 Clouds 22 1023 46 10000 2.6 360 10:19 16.01.2020
4196 Clouds 23 1024 49 10000 3.1 360 09:43 16.01.2020
4197 Clouds 22 1024 49 10000 2.1 330 09:24 16.01.2020
4198 Clouds 22 1025 49 10000 2.1 290 08:58 16.01.2020
4199 Clouds 22 1025 49 10000 2.6 300 08:40 16.01.2020
4200 Clouds 20 1025 49 10000 2.6 300 08:20 16.01.2020
4201 Clear 19 1025 56 9000 2.1 280 07:42 16.01.2020
4202 Clear 18 1025 52 9000 2.6 300 07:24 16.01.2020
4203 Clear 18 1025 59 7000 3.1 300 06:54 16.01.2020
4204 Clear 18 1025 63 7000 2.6 300 06:34 16.01.2020
4205 Clear 16 1025 67 8000 2.6 300 05:51 16.01.2020
4206 Clear 15 1024 72 9000 2.1 300 04:51 16.01.2020
4207 Clear 15 1024 72 10000 2.6 300 03:57 16.01.2020
4208 Clear 15 1024 67 10000 2.1 290 03:27 16.01.2020
4209 Clear 14 1023 72 10000 1.5 270 02:21 16.01.2020
4210 Clear 15 1023 63 10000 1 310 00:43 16.01.2020
4211 Clear 15 1024 63 10000 1 300 00:23 16.01.2020
4212 Clear 16 1024 63 10000 1 320 23:45 15.01.2020
4213 -273 0 0 0 0 0 23:22 15.01.2020
4214 Clear 16 1024 59 10000 2.1 330 22:57 15.01.2020
4215 Clear 16 1024 67 10000 2.6 330 22:38 15.01.2020
4216 Clear 16 1024 67 10000 2.6 330 22:18 15.01.2020
4217 Clear 16 1024 63 10000 3.1 330 21:56 15.01.2020
4218 Clear 16 1025 67 10000 2.1 340 21:37 15.01.2020
4219 Clear 16 1025 67 10000 2.1 340 21:18 15.01.2020
4220 Clear 17 1025 63 10000 3.1 330 20:55 15.01.2020
4221 Clear 17 1025 63 10000 3.6 340 20:37 15.01.2020
4222 Clear 17 1025 63 10000 3.6 340 20:18 15.01.2020
4223 Clouds 18 1025 59 10000 3.6 330 19:54 15.01.2020
4224 Clouds 17 1025 59 10000 4.1 330 19:36 15.01.2020
4225 Clouds 17 1025 59 10000 4.1 330 19:18 15.01.2020
4226 Clouds 18 1025 55 10000 3.6 320 18:55 15.01.2020
4227 Clouds 18 1025 55 10000 3.6 320 18:55 15.01.2020
4228 Clouds 18 1024 59 10000 2.1 340 18:37 15.01.2020
4229 Clouds 18 1024 59 10000 2.1 340 18:19 15.01.2020
4230 Clouds 18 1024 59 10000 1.5 350 17:41 15.01.2020
4231 Clouds 18 1024 59 10000 1.5 350 17:23 15.01.2020
4232 Clouds 19 1024 52 10000 2.6 340 16:59 15.01.2020
4233 Clouds 19 1023 55 10000 2.6 340 16:39 15.01.2020
4234 Clouds 19 1023 55 10000 2.6 340 16:21 15.01.2020
4235 Clouds 20 1023 45 10000 2.6 360 15:43 15.01.2020
4236 Clouds 20 1023 45 10000 2.6 360 15:21 15.01.2020
4237 Clouds 20 1023 45 10000 2.6 360 15:21 15.01.2020
4238 Clouds 20 1023 45 10000 2.6 360 15:21 15.01.2020
4239 Clouds 21 1023 45 10000 3.1 360 14:58 15.01.2020
4240 Clouds 21 1022 43 10000 3.1 30 14:39 15.01.2020
4241 Clouds 21 1022 43 10000 3.1 30 14:18 15.01.2020
4242 Clouds 21 1022 43 10000 3.6 20 13:45 15.01.2020
4243 Clouds 21 1022 43 10000 3.1 50 13:26 15.01.2020
4244 Clouds 21 1022 43 10000 4.1 30 12:58 15.01.2020
4245 Clouds 21 1021 43 10000 4.1 30 12:39 15.01.2020
4246 Clouds 21 1021 43 10000 4.1 30 12:19 15.01.2020
4247 Clouds 21 1021 40 10000 5.1 360 11:56 15.01.2020
4248 Clouds 21 1021 37 10000 5.1 360 11:36 15.01.2020
4249 Clouds 22 1021 37 10000 5.1 360 11:18 15.01.2020
4250 Clouds 21 1022 43 10000 5.7 360 10:41 15.01.2020
4251 Clouds 21 1022 43 10000 5.7 360 10:23 15.01.2020
4252 Clouds 21 1022 43 10000 5.1 360 09:42 15.01.2020
4253 Clouds 21 1023 46 10000 5.1 340 09:22 15.01.2020
4254 Clouds 20 1023 49 10000 4.1 330 08:55 15.01.2020
4255 Clouds 20 1023 52 10000 4.1 330 08:37 15.01.2020
4256 Clouds 19 1023 52 10000 4.1 330 08:19 15.01.2020
4257 Clouds 18 1023 59 10000 4.1 310 07:43 15.01.2020
4258 Clouds 18 1023 59 10000 4.1 310 07:24 15.01.2020
4259 Clouds 17 1023 63 10000 4.6 310 06:44 15.01.2020
4260 Clouds 17 1022 67 10000 4.6 300 06:18 15.01.2020
4261 Clouds 15 1021 67 10000 4.1 300 04:34 15.01.2020
4262 Clouds 15 1019 72 10000 4.1 280 02:30 15.01.2020
4263 Clear 14 1019 67 10000 4.6 280 01:25 15.01.2020
4264 Clouds 14 1019 67 10000 3.6 290 00:45 15.01.2020
4265 Clear 14 1019 62 10000 5.7 290 00:26 15.01.2020
4266 Clear 14 1019 62 10000 5.7 290 23:48 14.01.2020
4267 Clear 14 1019 62 8000 5.1 290 23:29 14.01.2020
4268 Clear 14 1019 58 6000 6.2 290 22:59 14.01.2020
4269 Dust 14 1019 51 3500 5.1 290 22:40 14.01.2020
4270 Dust 14 1019 51 3500 5.1 290 22:19 14.01.2020
4271 Dust 14 1019 47 3500 5.1 290 21:58 14.01.2020
4272 Dust 15 1020 41 3000 4.1 290 21:39 14.01.2020
4273 Dust 15 1020 41 3000 4.1 290 21:21 14.01.2020
4274 Dust 15 1020 66 3000 4.1 290 20:58 14.01.2020
4275 Dust 15 1020 66 3500 6.2 300 20:39 14.01.2020
4276 Dust 15 1020 52 3500 6.2 300 20:19 14.01.2020
4277 Dust 15 1020 52 3500 6.2 300 19:55 14.01.2020
4278 Dust 15 1020 31 3500 7.7 310 19:37 14.01.2020
4279 Dust 15 1020 31 3500 7.7 310 19:18 14.01.2020
4280 Dust 16 1020 36 4000 6.7 310 18:41 14.01.2020
4281 Dust 17 1020 36 4000 6.7 310 18:20 14.01.2020
4282 Dust 17 1020 36 4000 6.7 310 17:59 14.01.2020
4283 Dust 17 1019 45 4500 7.2 320 17:37 14.01.2020
4284 Dust 17 1019 45 4500 7.2 320 17:18 14.01.2020
4285 Clouds 18 1019 48 10000 5.7 320 16:55 14.01.2020
4286 Clouds 18 1018 39 10000 5.7 290 16:37 14.01.2020
4287 Clouds 18 1018 39 10000 5.7 290 16:18 14.01.2020
4288 Clouds 18 1018 39 10000 4.1 290 15:42 14.01.2020
4289 Clouds 18 1018 39 10000 4.6 300 15:19 14.01.2020
4290 Clear 19 1017 37 10000 5.7 290 14:47 14.01.2020
4291 Clear 20 1017 34 10000 5.7 290 14:23 14.01.2020
4292 Clear 21 1017 34 10000 4.1 300 13:59 14.01.2020
4293 Clear 21 1017 30 10000 6.2 290 13:40 14.01.2020
4294 Clear 21 1017 30 10000 6.2 290 13:19 14.01.2020
4295 Clear 21 1017 30 10000 6.2 290 13:19 14.01.2020
4296 Clear 21 1017 28 10000 5.7 290 12:42 14.01.2020
4297 Clear 21 1017 30 10000 4.6 300 12:23 14.01.2020
4298 Clear 21 1017 30 10000 4.6 280 11:57 14.01.2020
4299 Clear 20 1017 30 10000 4.6 290 11:38 14.01.2020
4300 Clear 20 1017 30 10000 4.6 290 11:20 14.01.2020
4301 Clear 20 1017 30 10000 4.6 290 10:55 14.01.2020
4302 Clear 21 1018 28 10000 3.6 270 10:36 14.01.2020
4303 Clear 20 1018 28 10000 3.6 270 10:18 14.01.2020
4304 Clear 20 1018 28 10000 3.6 270 10:18 14.01.2020
4305 Clear 21 1019 28 10000 4.1 270 09:42 14.01.2020
4306 Clear 20 1019 24 10000 4.1 240 09:22 14.01.2020
4307 Clear 19 1020 33 10000 3.6 220 08:57 14.01.2020
4308 Clear 19 1020 31 10000 3.1 230 08:39 14.01.2020
4309 Clear 17 1020 31 10000 3.1 230 08:20 14.01.2020
4310 Clear 17 1020 36 10000 3.6 220 07:38 14.01.2020
4311 Clear 15 1020 38 10000 2.6 230 06:59 14.01.2020
4312 Clear 16 1020 38 10000 2.6 220 06:40 14.01.2020
4313 Clear 13 1019 50 10000 1.5 230 05:35 14.01.2020
4314 Clear 11 1019 54 10000 1.5 240 04:24 14.01.2020
4315 Clear 11 1018 54 10000 1.5 240 03:45 14.01.2020
4316 Clear 11 1018 54 10000 1.5 240 02:30 14.01.2020
4317 Clear 12 1018 50 10000 2.1 230 01:18 14.01.2020
4318 Clear 12 1018 54 10000 2.1 220 00:42 14.01.2020
4319 Clear 12 1018 50 10000 2.1 230 00:21 14.01.2020
4320 Clear 12 1019 50 10000 2.1 240 23:42 13.01.2020
4321 Clear 12 1019 47 10000 2.1 250 23:18 13.01.2020
4322 Clear 13 1019 47 10000 1.5 240 22:55 13.01.2020
4323 Clear 13 1019 47 10000 1.5 240 22:37 13.01.2020
4324 Clear 13 1019 47 10000 1.5 240 22:19 13.01.2020
4325 Clear 13 1019 41 10000 1.5 250 21:54 13.01.2020
4326 Clear 13 1020 41 10000 1.5 240 21:36 13.01.2020
4327 Clear 13 1020 41 10000 1.5 240 21:18 13.01.2020
4328 Clear 14 1020 43 10000 2.1 300 20:42 13.01.2020
4329 Clear 14 1020 43 10000 2.1 300 20:22 13.01.2020
4330 Clear 15 1020 43 10000 2.1 300 19:59 13.01.2020
4331 Clear 15 1020 36 10000 1.5 310 19:40 13.01.2020
4332 Clear 15 1020 36 10000 1.5 310 19:20 13.01.2020
4333 Clear 15 1020 36 10000 1.5 310 18:58 13.01.2020
4334 Clear 15 1020 43 10000 3.1 310 18:37 13.01.2020
4335 Clear 15 1020 43 10000 3.1 310 18:19 13.01.2020
4336 Clear 16 1020 43 10000 3.1 310 17:55 13.01.2020
4337 Clear 16 1019 43 10000 2.6 290 17:36 13.01.2020
4338 Clear 16 1019 42 10000 2.6 290 17:18 13.01.2020
4339 Clear 17 1020 37 0 1.34 303 16:40 13.01.2020
4340 Clear 17 1020 37 0 1.34 303 16:40 13.01.2020
4341 Clear 17 1020 35 0 0.89 157 16:22 13.01.2020
4342 Clear 17 1020 35 0 1.34 197 15:55 13.01.2020
4343 Clear 18 1020 32 0 0.89 165 15:36 13.01.2020
4344 Clear 16 1019 42 0 5.15 293 15:18 13.01.2020
4345 Clear 16 1019 42 0 5.15 293 14:42 13.01.2020
4346 Clear 22 1019 30 0 1.79 322 14:23 13.01.2020
4347 Clear 23 1019 25 0 2.24 329 13:57 13.01.2020
4348 Clear 18 1018 43 0 6.24 294 13:39 13.01.2020
4349 Clear 18 1018 43 0 6.24 294 13:20 13.01.2020
4350 Clear 21 1019 35 10000 3.1 280 12:43 13.01.2020
4351 Clear 20 1019 35 10000 3.1 280 12:23 13.01.2020
4352 Clear 20 1019 35 10000 3.1 280 11:59 13.01.2020
4353 Clear 20 1019 37 10000 3.1 280 11:39 13.01.2020
4354 Clear 20 1019 37 10000 3.1 280 11:19 13.01.2020
4355 Clear 20 1019 35 10000 3.1 270 10:57 13.01.2020
4356 Clear 20 1020 40 10000 3.6 310 10:38 13.01.2020
4357 Clear 20 1020 40 10000 3.6 310 10:20 13.01.2020
4358 Clear 20 1021 40 10000 4.1 290 09:55 13.01.2020
4359 Clear 21 1021 40 10000 3.1 270 09:37 13.01.2020
4360 Clear 20 1021 40 10000 3.1 270 09:19 13.01.2020
4361 Clear 19 1022 39 10000 4.1 290 08:39 13.01.2020
4362 Clear 18 1022 39 10000 4.1 290 08:20 13.01.2020
4363 Clear 18 1022 39 10000 4.1 290 08:20 13.01.2020
4364 Clear 17 1022 42 10000 3.1 290 07:46 13.01.2020
4365 Clear 17 1022 42 10000 4.1 290 07:27 13.01.2020
4366 Clear 16 1022 55 10000 2.6 280 06:40 13.01.2020
4367 Clear 16 1022 55 10000 2.6 280 06:18 13.01.2020
4368 Clear 12 1021 58 10000 2.6 260 05:20 13.01.2020
4369 Clear 13 1021 58 10000 2.1 270 03:47 13.01.2020
4370 Clear 13 1020 54 10000 2.1 270 02:51 13.01.2020
4371 Clear 13 1020 54 10000 2.6 280 02:31 13.01.2020
4372 Clouds 13 1020 54 10000 2.1 270 01:47 13.01.2020
4373 Clear 13 1020 54 10000 2.6 280 00:59 13.01.2020
4374 Clear 13 1020 54 10000 1.5 260 00:37 13.01.2020
4375 Clear 13 1020 54 10000 1.5 260 00:19 13.01.2020
4376 Clear 13 1020 54 10000 2.1 260 23:41 12.01.2020
4377 Clear 13 1020 54 10000 2.1 260 23:22 12.01.2020
4378 Clear 14 1020 51 10000 3.1 290 22:57 12.01.2020
4379 Clear 14 1020 54 10000 2.6 290 22:39 12.01.2020
4380 Clear 14 1020 54 10000 2.6 290 22:20 12.01.2020
4381 Clear 14 1021 48 10000 4.1 300 21:55 12.01.2020
4382 Clear 14 1021 44 10000 4.1 310 21:37 12.01.2020
4383 Clear 14 1021 44 10000 4.1 310 21:19 12.01.2020
4384 Clear 15 1021 41 10000 4.1 310 20:55 12.01.2020
4385 Clear 15 1022 41 10000 4.1 310 20:37 12.01.2020
4386 Clear 15 1022 41 10000 4.1 310 20:19 12.01.2020
4387 Clear 15 1022 44 10000 4.6 310 19:54 12.01.2020
4388 Clear 15 1021 44 10000 4.1 310 19:36 12.01.2020
4389 Clear 15 1021 44 10000 4.1 310 19:18 12.01.2020
4390 Clear 15 1022 44 10000 4.6 310 18:54 12.01.2020
4391 Clear 15 1022 39 10000 4.1 310 18:36 12.01.2020
4392 Clear 15 1022 39 10000 4.1 310 18:18 12.01.2020
4393 Clear 16 1021 42 10000 5.1 310 17:42 12.01.2020
4394 Clear 16 1021 42 10000 5.7 300 17:21 12.01.2020
4395 Clear 16 1021 39 10000 5.7 310 16:57 12.01.2020
4396 Clear 16 1020 36 10000 5.1 310 16:38 12.01.2020
4397 Clear 16 1020 36 10000 5.1 310 16:20 12.01.2020
4398 Clear 17 1020 36 10000 6.2 310 15:55 12.01.2020
4399 Clear 17 1020 36 10000 6.2 310 15:55 12.01.2020
4400 Clear 17 1020 36 10000 6.7 310 15:36 12.01.2020
4401 Clear 17 1020 36 10000 6.7 310 15:18 12.01.2020
4402 Clear 18 1020 39 10000 6.2 310 14:42 12.01.2020
4403 Clear 19 1019 39 10000 5.7 290 14:22 12.01.2020
4404 Clear 19 1019 39 0 6.7 300 13:56 12.01.2020
4405 Clear 19 1019 39 10000 7.2 300 13:38 12.01.2020
4406 Clear 18 1019 39 10000 7.2 300 13:20 12.01.2020
4407 Clear 19 1019 39 10000 7.2 300 12:44 12.01.2020
4408 Clear 19 1019 39 10000 7.2 300 12:21 12.01.2020
4409 Clear 19 1019 42 10000 6.2 300 11:59 12.01.2020
4410 Clear 19 1019 42 10000 6.2 300 11:59 12.01.2020
4411 Clear 18 1019 42 10000 6.2 290 11:40 12.01.2020
4412 Clear 19 1019 42 10000 6.2 290 11:22 12.01.2020
4413 Clear 18 1020 48 10000 7.7 300 10:56 12.01.2020
4414 Clear 18 1020 52 10000 7.2 290 10:37 12.01.2020
4415 Clear 19 1020 52 10000 7.2 290 10:18 12.01.2020
4416 Clear 18 1020 55 10000 6.2 290 09:41 12.01.2020
4417 Clear 18 1020 55 10000 6.2 290 09:21 12.01.2020
4418 Clear 17 1021 55 10000 6.7 310 08:47 12.01.2020
4419 Clear 17 1021 51 10000 7.7 310 08:21 12.01.2020
4420 Clear 16 1022 55 10000 7.7 300 07:46 12.01.2020
4421 Clear 16 1021 55 10000 6.7 310 07:25 12.01.2020
4422 Clear 16 1021 58 10000 6.7 290 06:54 12.01.2020
4423 Clear 15 1021 54 10000 6.7 300 06:35 12.01.2020
4424 Clouds 15 1020 54 10000 6.7 290 05:50 12.01.2020
4425 Clouds 14 1019 54 10000 6.7 290 04:53 12.01.2020
4426 Clear 13 1018 50 10000 5.7 290 03:33 12.01.2020
4427 Clear 15 1018 47 10000 5.1 300 02:43 12.01.2020
4428 Clear 14 1018 47 10000 5.1 300 02:24 12.01.2020
4429 Clear 14 1018 47 10000 6.2 300 01:31 12.01.2020
4430 Clear 14 1018 51 10000 4.6 290 00:46 12.01.2020
4431 Clear 14 1018 51 10000 4.1 290 00:22 12.01.2020
4432 Clear 15 1018 47 10000 5.7 290 23:56 11.01.2020
4433 Clear 15 1017 44 10000 5.7 300 23:37 11.01.2020
4434 Clear 15 1017 44 10000 5.7 300 23:18 11.01.2020
4435 Clear 15 1017 51 10000 5.1 290 22:56 11.01.2020
4436 Clear 15 1017 51 10000 4.1 290 22:37 11.01.2020
4437 Clear 15 1017 51 10000 4.1 290 22:18 11.01.2020
4438 Clear 16 1017 48 10000 4.1 290 21:43 11.01.2020
4439 Clear 16 1017 48 10000 4.1 290 21:19 11.01.2020
4440 Clear 16 1017 44 10000 5.7 290 20:56 11.01.2020
4441 Clear 16 1017 44 10000 5.7 290 20:37 11.01.2020
4442 Clear 15 1017 44 10000 5.7 290 20:19 11.01.2020
4443 Clear 15 1017 44 10000 5.7 290 19:55 11.01.2020
4444 Clear 15 1017 44 10000 5.7 290 19:55 11.01.2020
4445 Clear 16 1017 48 10000 4.6 290 19:37 11.01.2020
4446 Clear 15 1017 48 10000 4.6 290 19:19 11.01.2020
4447 Clear 15 1017 48 10000 4.6 290 19:19 11.01.2020
4448 Clear 15 1016 48 10000 5.7 290 18:55 11.01.2020
4449 Clear 16 1016 42 10000 5.1 290 18:36 11.01.2020
4450 Clear 16 1016 42 10000 5.1 290 18:18 11.01.2020
4451 Clear 16 1016 42 10000 5.7 300 17:55 11.01.2020
4452 Clear 16 1015 42 10000 5.7 300 17:36 11.01.2020
4453 Clear 16 1015 42 10000 5.7 300 17:18 11.01.2020
4454 Clear 17 1015 42 10000 6.2 300 16:43 11.01.2020
4455 Clear 17 1015 42 10000 6.2 300 16:22 11.01.2020
4456 Clear 17 1015 42 10000 6.2 300 16:22 11.01.2020
4457 Clear 17 1014 42 10000 5.7 300 15:42 11.01.2020
4458 Clouds 17 1013 39 10000 7.7 300 15:24 11.01.2020
4459 Clouds 18 1013 39 10000 7.2 300 14:58 11.01.2020
4460 Clear 18 1013 39 10000 5.7 290 14:40 11.01.2020
4461 Clear 18 1013 39 10000 5.7 290 14:22 11.01.2020
4462 Clear 19 1012 37 10000 6.2 300 13:55 11.01.2020
4463 Clouds 19 1012 37 10000 7.7 310 13:37 11.01.2020
4464 Clouds 19 1012 37 10000 7.7 310 13:18 11.01.2020
4465 Clouds 19 1012 39 10000 8.2 300 12:44 11.01.2020
4466 Clouds 19 1012 40 10000 6.7 300 12:25 11.01.2020
4467 Clouds 19 1012 37 10000 6.7 310 11:54 11.01.2020
4468 Clouds 19 1012 34 10000 8.7 300 11:36 11.01.2020
4469 Clouds 19 1012 34 10000 8.7 300 11:18 11.01.2020
4470 Clouds 19 1012 34 10000 8.7 300 11:18 11.01.2020
4471 Clouds 19 1012 34 10000 8.7 300 11:18 11.01.2020
4472 Clouds 20 1012 42 10000 8.2 310 10:42 11.01.2020
4473 Clouds 20 1012 42 10000 8.2 310 10:42 11.01.2020
4474 Clouds 20 1012 42 10000 8.2 310 10:23 11.01.2020
4475 Clouds 19 1013 52 10000 5.7 310 09:39 11.01.2020
4476 Clouds 19 1013 52 10000 5.7 310 09:21 11.01.2020
4477 Clouds 19 1013 52 10000 5.7 310 09:21 11.01.2020
4478 Clouds 18 1014 63 10000 5.7 300 08:43 11.01.2020
4479 Clouds 18 1014 63 10000 5.7 300 08:23 11.01.2020
4480 Clouds 18 1014 63 10000 5.7 300 07:45 11.01.2020
4481 Clouds 18 1014 63 10000 4.6 300 07:26 11.01.2020
4482 Clouds 17 1012 72 10000 5.1 310 06:55 11.01.2020
4483 Clouds 17 1012 72 10000 5.1 310 06:22 11.01.2020
4484 Clear 17 1010 77 9000 4.6 310 04:48 11.01.2020
4485 Clouds 17 1010 82 9000 4.6 310 04:30 11.01.2020
4486 Clouds 17 1010 88 9000 5.1 300 03:49 11.01.2020
4487 Haze 18 1009 88 5000 4.1 290 02:41 11.01.2020
4488 Haze 18 1009 88 5000 3.6 290 01:44 11.01.2020
4489 Haze 18 1009 93 5000 3.6 290 01:20 11.01.2020
4490 Haze 18 1009 93 5000 2.1 280 00:46 11.01.2020
4491 Clouds 18 1009 93 5000 3.6 280 00:20 11.01.2020
4492 Clouds 18 1009 88 7000 2.1 270 23:41 10.01.2020
4493 Clouds 18 1009 88 7000 2.1 270 23:22 10.01.2020
4494 Clouds 19 1008 88 7000 3.6 300 22:59 10.01.2020
4495 Clouds 19 1008 88 7000 3.6 300 22:40 10.01.2020
4496 Clouds 19 1008 88 7000 3.6 300 22:21 10.01.2020
4497 Clouds 19 1008 88 8000 3.6 290 21:58 10.01.2020
4498 Clouds 19 1008 88 8000 4.1 300 21:39 10.01.2020
4499 Clouds 19 1008 88 8000 4.1 300 21:19 10.01.2020
4500 Clouds 20 1008 88 8000 2.1 280 20:55 10.01.2020
4501 Clouds 20 1008 88 9000 2.1 270 20:37 10.01.2020
4502 Clouds 20 1008 88 9000 2.1 270 20:19 10.01.2020
4503 Clouds 20 1008 83 9000 2.6 290 19:39 10.01.2020
4504 Clouds 20 1008 83 9000 2.6 290 19:20 10.01.2020
4505 Clouds 21 1008 83 10000 3.1 300 18:54 10.01.2020
4506 Clouds 21 1008 88 10000 1 0 18:36 10.01.2020
4507 Clouds 21 1008 88 10000 1 0 18:18 10.01.2020
4508 Clouds 20 1008 94 10000 0.5 0 17:55 10.01.2020
4509 Clouds 20 1008 94 10000 0.5 0 17:37 10.01.2020
4510 Clouds 20 1008 94 10000 0.5 0 17:18 10.01.2020
4511 Clouds 21 1008 83 10000 1 120 16:41 10.01.2020
4512 Clouds 21 1008 83 10000 1 120 16:21 10.01.2020
4513 Clouds 21 1008 83 10000 1.5 150 15:56 10.01.2020
4514 Clouds 21 1007 83 10000 1.5 160 15:37 10.01.2020
4515 Clouds 21 1007 83 10000 1.5 160 15:19 10.01.2020
4516 Clouds 21 1007 83 10000 2.6 150 14:56 10.01.2020
4517 Clouds 21 1007 83 10000 3.1 150 14:38 10.01.2020
4518 Clouds 21 1007 83 10000 3.1 150 14:19 10.01.2020
4519 Clouds 21 1007 83 10000 2.6 160 13:45 10.01.2020
4520 Clouds 21 1007 83 10000 3.6 160 13:27 10.01.2020
4521 Clouds 21 1008 83 10000 4.1 150 12:59 10.01.2020
4522 Clouds 21 1008 83 10000 3.6 140 12:40 10.01.2020
4523 Clouds 21 1008 83 10000 3.6 140 12:21 10.01.2020
4524 Clouds 21 1008 83 10000 3.6 160 11:57 10.01.2020
4525 Clouds 21 1008 83 10000 4.1 160 11:39 10.01.2020
4526 Clouds 21 1008 83 10000 4.1 160 11:19 10.01.2020
4527 Clouds 21 1009 83 10000 3.1 150 10:58 10.01.2020
4528 Clouds 21 1009 88 10000 3.1 150 10:38 10.01.2020
4529 Clouds 21 1009 88 10000 3.1 150 10:18 10.01.2020
4530 Clouds 20 1010 88 10000 3.1 140 09:45 10.01.2020
4531 Clouds 20 1011 94 10000 3.6 150 09:26 10.01.2020
4532 Rain 20 1011 94 10000 3.6 150 08:56 10.01.2020
4533 Thunderstorm 20 1012 94 7000 3.1 150 08:37 10.01.2020
4534 Thunderstorm 20 1012 94 7000 3.1 150 08:37 10.01.2020
4535 Thunderstorm 20 1012 94 7000 3.1 150 08:18 10.01.2020
4536 Rain 20 1012 94 10000 2.6 140 07:41 10.01.2020
4537 Rain 20 1012 94 10000 1 0 07:19 10.01.2020
4538 Rain 20 1012 94 8000 1 0 06:37 10.01.2020
4539 Rain 20 1012 94 8000 1 0 06:19 10.01.2020
4540 Thunderstorm 20 1011 88 6000 2.6 50 05:19 10.01.2020
4541 Clouds 19 1011 82 10000 4.6 130 03:31 10.01.2020
4542 Clouds 19 1011 82 10000 4.1 120 02:52 10.01.2020
4543 Clouds 19 1010 77 10000 5.1 110 02:19 10.01.2020
4544 Clouds 19 1010 77 10000 4.6 110 01:30 10.01.2020
4545 Clouds 19 1010 82 10000 4.6 90 00:49 10.01.2020
4546 Clouds 19 1011 82 10000 5.1 100 00:31 10.01.2020
4547 Clouds 19 1011 77 10000 4.1 90 23:55 09.01.2020
4548 Clouds 19 1011 77 10000 5.7 100 23:36 09.01.2020
4549 Clouds 19 1011 77 10000 5.7 100 23:18 09.01.2020
4550 Clouds 19 1012 77 10000 5.1 110 22:54 09.01.2020
4551 Clouds 19 1012 77 10000 5.1 110 22:36 09.01.2020
4552 Clouds 19 1012 77 10000 5.1 110 22:18 09.01.2020
4553 Clouds 19 1012 77 10000 2.1 80 21:54 09.01.2020
4554 Thunderstorm 19 1013 77 10000 4.6 110 21:36 09.01.2020
4555 Thunderstorm 18 1013 77 10000 4.6 110 21:18 09.01.2020
4556 Thunderstorm 18 1013 77 10000 4.6 110 21:18 09.01.2020
4557 Clouds 18 1013 77 10000 4.1 110 20:54 09.01.2020
4558 Clouds 18 1013 77 10000 4.1 110 20:36 09.01.2020
4559 Clouds 18 1014 77 10000 4.1 130 20:18 09.01.2020
4560 Clouds 19 1013 72 10000 6.2 110 19:39 09.01.2020
4561 Clouds 19 1014 82 10000 3.6 100 19:20 09.01.2020
4562 Rain 19 1013 77 10000 2.1 60 18:56 09.01.2020
4563 Rain 19 1013 77 10000 2.1 60 18:38 09.01.2020
4564 Rain 19 1015 82 9000 1.5 110 18:20 09.01.2020
4565 Clouds 19 1013 72 10000 2.1 130 17:41 09.01.2020
4566 Clouds 19 1013 72 10000 1 0 17:19 09.01.2020
4567 Rain 19 1013 77 10000 2.1 60 16:56 09.01.2020
4568 Rain 19 1013 77 10000 2.1 60 16:38 09.01.2020
4569 Thunderstorm 20 1012 68 10000 2.1 120 16:20 09.01.2020
4570 Clouds 20 1013 68 10000 2.1 20 15:43 09.01.2020
4571 Clouds 20 1013 68 10000 1 0 15:22 09.01.2020
4572 Clouds 20 1012 68 10000 2.1 100 14:57 09.01.2020
4573 Clouds 20 1012 68 10000 2.1 100 14:38 09.01.2020
4574 Rain 21 1014 72 9000 1.5 130 14:19 09.01.2020
4575 Rain 21 1013 56 10000 2.6 130 13:55 09.01.2020
4576 Rain 21 1013 56 10000 2.6 130 13:37 09.01.2020
4577 Clouds 21 1012 56 10000 2.1 100 13:18 09.01.2020
4578 Rain 21 1013 60 10000 1 0 12:42 09.01.2020
4579 Rain 21 1015 72 9000 2.66 188 12:24 09.01.2020
4580 Rain 21 1013 52 10000 3.6 150 11:59 09.01.2020
4581 Rain 21 1013 52 10000 3.6 150 11:41 09.01.2020
4582 Haze 22 1015 46 9000 1 0 11:23 09.01.2020
4583 Clouds 21 1014 64 10000 4.6 160 10:57 09.01.2020
4584 Clouds 21 1014 64 10000 4.6 160 10:39 09.01.2020
4585 Clouds 21 1015 64 10000 3.6 170 10:20 09.01.2020
4586 Rain 22 1014 64 10000 4.1 130 09:41 09.01.2020
4587 Rain 22 1014 64 10000 4.1 130 09:41 09.01.2020
4588 Rain 22 1014 64 10000 4.1 130 09:41 09.01.2020
4589 Clouds 22 1015 64 10000 4.1 120 09:23 09.01.2020
4590 Clouds 22 1016 64 10000 3.6 120 08:56 09.01.2020
4591 Clouds 22 1016 64 10000 3.6 120 08:38 09.01.2020
4592 Clouds 22 1016 64 10000 3.6 100 08:19 09.01.2020
4593 Rain 21 1016 68 10000 2.1 110 07:45 09.01.2020
4594 Clouds 21 1016 73 10000 1.5 130 07:27 09.01.2020
4595 Clouds 20 1017 73 10000 1 0 06:39 09.01.2020
4596 Clouds 19 1016 77 10000 1 0 06:21 09.01.2020
4597 Clouds 19 1016 77 10000 1 0 05:50 09.01.2020
4598 Clouds 17 1015 82 10000 1 110 04:46 09.01.2020
4599 Clouds 16 1015 77 10000 2.9 134 03:55 09.01.2020
4600 Clouds 17 1015 77 10000 1 0 03:26 09.01.2020
4601 Mist 16 1016 82 5000 2.9 134 02:33 09.01.2020
4602 Clouds 16 1015 77 10000 0.5 0 01:41 09.01.2020
4603 Clouds 16 1015 77 10000 0.5 340 00:44 09.01.2020
4604 Clouds 17 1015 72 10000 1 0 00:23 09.01.2020
4605 Clouds 17 1015 72 10000 1.5 240 23:58 08.01.2020
4606 Clouds 17 1015 72 10000 1.5 240 23:38 08.01.2020
4607 Clouds 17 1016 72 10000 1.5 250 23:19 08.01.2020
4608 Clouds 17 1016 72 10000 0.5 0 22:40 08.01.2020
4609 Clouds 17 1016 68 10000 1.5 230 22:21 08.01.2020
4610 Clouds 18 1016 68 10000 1 0 21:58 08.01.2020
4611 Clouds 18 1016 68 10000 1 0 21:40 08.01.2020
4612 Clouds 19 1016 68 10000 1 0 21:20 08.01.2020
4613 Clouds 19 1016 64 10000 1 0 20:59 08.01.2020
4614 Clouds 19 1016 64 10000 1 0 20:40 08.01.2020
4615 Clear 19 1017 64 10000 1 0 20:20 08.01.2020
4616 Clear 19 1017 68 10000 1 0 19:57 08.01.2020
4617 Clear 19 1017 68 10000 1 0 19:38 08.01.2020
4618 Clear 19 1017 64 10000 1 0 19:19 08.01.2020
4619 Clear 19 1017 68 10000 1 0 18:57 08.01.2020
4620 Clear 19 1017 68 10000 1 0 18:38 08.01.2020
4621 Clear 19 1017 68 10000 1.5 160 18:18 08.01.2020
4622 Clear 20 1017 64 10000 0.5 110 17:56 08.01.2020
4623 Clear 20 1017 64 10000 0.5 110 17:37 08.01.2020
4624 Clear 20 1017 64 10000 1 100 17:18 08.01.2020
4625 Clear 20 1017 64 10000 1 100 17:18 08.01.2020
4626 Clear 20 1017 64 10000 1 90 16:55 08.01.2020
4627 Clear 20 1017 64 10000 1 90 16:37 08.01.2020
4628 Haze 20 1018 60 9000 1.5 100 16:18 08.01.2020
4629 Clear 21 1016 60 10000 2.1 80 15:42 08.01.2020
4630 Clear 21 1016 60 10000 2.6 60 15:21 08.01.2020
4631 Clear 22 1016 56 10000 2.1 70 14:57 08.01.2020
4632 Clear 22 1016 56 10000 2.1 70 14:39 08.01.2020
4633 Clear 22 1016 53 10000 2.6 60 14:20 08.01.2020
4634 Clear 22 1016 53 10000 2.6 60 13:40 08.01.2020
4635 Clear 22 1016 49 10000 2.6 50 13:19 08.01.2020
4636 Clear 23 1016 40 10000 2.6 70 12:43 08.01.2020
4637 Haze 23 1017 33 9000 3.67 105 12:20 08.01.2020
4638 Clear 23 1016 28 10000 2.6 20 11:59 08.01.2020
4639 Clear 23 1016 28 10000 2.6 20 11:40 08.01.2020
4640 Clear 23 1016 33 10000 3.1 20 11:19 08.01.2020
4641 Clear 22 1016 28 10000 1.5 0 10:55 08.01.2020
4642 Clear 22 1016 28 10000 1.5 0 10:37 08.01.2020
4643 Clear 22 1016 28 10000 1.5 0 10:37 08.01.2020
4644 Clear 22 1017 40 10000 1.5 0 10:19 08.01.2020
4645 Clear 22 1017 46 10000 2.1 350 09:42 08.01.2020
4646 Clear 22 1018 49 10000 2.1 0 09:19 08.01.2020
4647 Clear 21 1019 49 10000 1.5 0 08:57 08.01.2020
4648 Clear 21 1019 49 10000 1.5 0 08:37 08.01.2020
4649 Clear 21 1019 52 10000 1.5 360 08:19 08.01.2020
4650 Clear 20 1020 52 10000 1.5 330 07:49 08.01.2020
4651 Haze 19 1022 63 9000 1.5 250 07:30 08.01.2020
4652 Haze 19 1022 63 9000 1.5 250 07:30 08.01.2020
4653 Clear 18 1020 59 10000 1.5 270 06:48 08.01.2020
4654 Clear 18 1020 59 10000 1.5 270 06:24 08.01.2020
4655 Clear 16 1019 63 10000 1 0 05:41 08.01.2020
4656 Clear 15 1019 72 10000 2.1 270 04:57 08.01.2020
4657 Clear 15 1019 72 10000 1.5 260 04:25 08.01.2020
4658 Clear 15 1018 72 10000 1.5 250 02:45 08.01.2020
4659 Mist 15 1019 87 6000 1.5 0 02:22 08.01.2020
4660 Clear 15 1018 72 10000 1.5 260 01:48 08.01.2020
4661 Clear 15 1018 72 10000 1.5 260 01:19 08.01.2020
4662 Clear 15 1018 67 10000 2.1 250 00:28 08.01.2020
4663 Clear 15 1018 67 10000 2.1 250 00:28 08.01.2020
4664 Clear 16 1018 67 10000 1.5 250 23:57 07.01.2020
4665 Clear 16 1018 67 10000 1.5 250 23:39 07.01.2020
4666 Clear 16 1019 63 10000 1 0 23:20 07.01.2020
4667 Clear 16 1019 63 10000 1 0 23:20 07.01.2020
4668 Clear 16 1019 63 10000 2.1 290 22:40 07.01.2020
4669 Clear 16 1019 63 10000 2.1 310 22:20 07.01.2020
4670 Clear 17 1019 63 10000 1.5 310 21:56 07.01.2020
4671 Clear 17 1019 63 10000 1.5 310 21:38 07.01.2020
4672 Clear 17 1019 63 10000 2.1 300 21:20 07.01.2020
4673 Clear 18 1019 59 10000 2.6 310 20:55 07.01.2020
4674 Clear 18 1019 59 10000 2.6 310 20:36 07.01.2020
4675 Clear 18 1020 59 10000 2.6 310 20:18 07.01.2020
4676 Clear 18 1020 59 10000 2.6 300 19:38 07.01.2020
4677 Clear 18 1020 59 10000 2.6 310 19:20 07.01.2020
4678 Clear 18 1020 59 10000 3.1 330 18:58 07.01.2020
4679 Clear 18 1020 59 10000 3.1 330 18:40 07.01.2020
4680 Haze 19 1019 72 9000 2.1 350 18:19 07.01.2020
4681 Clear 19 1019 63 10000 3.6 330 17:58 07.01.2020
4682 Clear 19 1019 63 10000 3.6 330 17:39 07.01.2020
4683 Clear 19 1019 63 10000 4.6 340 17:20 07.01.2020
4684 Clear 20 1019 60 10000 4.6 340 16:56 07.01.2020
4685 Clear 20 1019 60 10000 4.6 340 16:37 07.01.2020
4686 Haze 20 1021 59 9000 4.6 330 16:19 07.01.2020
4687 Clear 20 1019 60 10000 5.1 350 15:57 07.01.2020
4688 Clear 20 1019 60 10000 5.1 350 15:38 07.01.2020
4689 Clear 20 1019 56 10000 5.7 360 15:19 07.01.2020
4690 Clear 21 1018 52 10000 6.2 350 14:42 07.01.2020
4691 Haze 22 1020 46 9000 5.1 340 14:24 07.01.2020
4692 Clear 22 1018 53 10000 6.7 350 13:57 07.01.2020
4693 Clear 22 1018 53 10000 6.7 350 13:39 07.01.2020
4694 Clear 22 1018 49 10000 7.7 350 13:18 07.01.2020
4695 Clear 22 1018 53 10000 7.2 350 12:41 07.01.2020
4696 Haze 22 1020 46 9000 5.1 330 12:19 07.01.2020
4697 Clear 22 1018 49 10000 7.7 350 11:45 07.01.2020
4698 Clear 22 1019 49 10000 7.2 350 11:24 07.01.2020
4699 Clear 22 1019 46 10000 5.7 340 10:59 07.01.2020
4700 Clear 22 1019 46 10000 5.7 340 10:41 07.01.2020
4701 Clear 22 1019 46 10000 5.7 340 10:41 07.01.2020
4702 Clear 22 1019 49 10000 6.2 340 10:23 07.01.2020
4703 Clear 21 1020 49 10000 5.7 320 09:56 07.01.2020
4704 Clear 21 1021 56 10000 5.1 320 09:38 07.01.2020
4705 Clear 21 1021 56 10000 5.1 320 09:20 07.01.2020
4706 Clear 20 1021 56 10000 4.6 300 08:42 07.01.2020
4707 Haze 19 1023 59 9000 5.1 310 08:22 07.01.2020
4708 Clear 19 1022 60 10000 4.1 300 07:54 07.01.2020
4709 Haze 18 1023 63 9000 5.1 310 07:27 07.01.2020
4710 Clear 18 1022 59 10000 4.6 290 06:53 07.01.2020
4711 Clear 17 1021 63 10000 4.1 290 06:32 07.01.2020
4712 Clear 16 1021 67 10000 3.6 280 05:49 07.01.2020
4713 Clear 15 1020 77 10000 2.1 270 04:33 07.01.2020
4714 Clear 15 1020 77 10000 2.6 270 03:26 07.01.2020
4715 Clear 16 1019 72 10000 2.6 250 02:22 07.01.2020
4716 Clear 16 1019 72 10000 1.5 250 01:51 07.01.2020
4717 Mist 16 1020 82 8000 2.1 300 01:28 07.01.2020
4718 Clear 16 1019 63 10000 3.6 300 00:37 07.01.2020
4719 Clear 16 1019 63 10000 4.1 300 00:18 07.01.2020
4720 Clear 16 1019 59 10000 3.6 300 23:39 06.01.2020
4721 Clear 16 1019 59 10000 3.6 300 23:39 06.01.2020
4722 Clear 16 1019 59 10000 3.6 300 23:21 06.01.2020
4723 Clear 16 1019 55 10000 4.1 300 22:58 06.01.2020
4724 Clear 16 1019 55 10000 4.1 300 22:38 06.01.2020
4725 Clear 16 1019 59 10000 3.6 300 22:20 06.01.2020
4726 Clear 16 1020 55 10000 3.6 300 21:56 06.01.2020
4727 Clear 16 1020 55 10000 3.6 300 21:37 06.01.2020
4728 Haze 17 1021 71 9000 1.5 290 21:19 06.01.2020
4729 Clear 17 1020 55 10000 3.6 310 20:56 06.01.2020
4730 Clear 17 1020 55 10000 3.6 310 20:37 06.01.2020
4731 Clear 17 1020 55 10000 3.6 310 20:19 06.01.2020
4732 Clear 18 1020 52 10000 3.6 310 19:55 06.01.2020
4733 Clear 18 1020 52 10000 3.6 310 19:37 06.01.2020
4734 Clear 18 1020 52 10000 4.1 310 19:18 06.01.2020
4735 Clear 18 1020 52 10000 4.6 320 18:44 06.01.2020
4736 Clear 18 1020 52 10000 4.6 330 18:21 06.01.2020
4737 Clear 18 1020 52 10000 4.1 320 17:40 06.01.2020
4738 Clear 18 1020 52 10000 4.1 320 17:40 06.01.2020
4739 Haze 18 1020 59 9000 3.1 340 17:20 06.01.2020
4740 Clear 19 1020 48 10000 4.6 320 16:58 06.01.2020
4741 Clear 19 1020 48 10000 4.6 320 16:40 06.01.2020
4742 Haze 19 1020 52 9000 3.6 340 16:22 06.01.2020
4743 Clear 20 1018 45 10000 6.2 330 15:59 06.01.2020
4744 Clear 20 1018 45 10000 6.2 330 15:37 06.01.2020
4745 Haze 20 1019 45 9000 7.7 350 15:18 06.01.2020
4746 Clear 21 1018 40 10000 5.7 330 14:42 06.01.2020
4747 Clear 21 1018 40 10000 7.2 330 14:22 06.01.2020
4748 Clear 21 1018 40 10000 7.2 330 14:22 06.01.2020
4749 Clear 21 1018 33 10000 6.2 310 13:59 06.01.2020
4750 Clear 21 1018 33 10000 6.2 310 13:39 06.01.2020
4751 Clear 21 1017 37 10000 8.7 330 13:21 06.01.2020
4752 Clear 22 1017 37 10000 5.7 320 12:56 06.01.2020
4753 Clear 22 1017 37 10000 5.7 320 12:37 06.01.2020
4754 Haze 22 1018 35 9000 7.7 340 12:19 06.01.2020
4755 Clear 22 1017 37 10000 8.2 330 11:42 06.01.2020
4756 Clouds 22 1018 40 10000 8.2 330 11:24 06.01.2020
4757 Clouds 22 1018 40 10000 7.7 330 10:59 06.01.2020
4758 Clouds 22 1018 40 10000 7.7 330 10:40 06.01.2020
4759 Clouds 22 1018 35 10000 7.2 340 10:20 06.01.2020
4760 Clear 22 1018 35 10000 5.7 320 09:39 06.01.2020
4761 Clear 22 1019 40 10000 7.7 340 09:21 06.01.2020
4762 Clear 21 1019 43 10000 7.7 330 08:52 06.01.2020
4763 Clear 21 1019 43 10000 7.7 330 08:34 06.01.2020
4764 Clouds 20 1019 46 10000 6.2 320 07:57 06.01.2020
4765 Clouds 20 1019 46 10000 6.2 320 07:37 06.01.2020
4766 Clouds 19 1019 46 10000 4.6 330 06:49 06.01.2020
4767 Mist 18 1019 88 6000 4.1 330 06:30 06.01.2020
4768 Clouds 17 1018 68 10000 3.6 300 05:48 06.01.2020
4769 Clouds 17 1017 82 7000 3.6 310 04:55 06.01.2020
4770 Clouds 17 1017 82 10000 4.1 310 04:21 06.01.2020
4771 Clouds 17 1017 82 10000 4.1 310 03:26 06.01.2020
4772 Mist 17 1017 87 9000 4.1 330 02:26 06.01.2020
4773 Clouds 16 1016 82 10000 4.6 310 01:49 06.01.2020
4774 Clouds 17 1016 82 10000 4.1 310 01:29 06.01.2020
4775 Clouds 17 1015 77 10000 4.6 310 00:45 06.01.2020
4776 Clouds 17 1016 77 10000 4.1 310 00:26 06.01.2020
4777 Clouds 17 1016 72 10000 4.1 320 23:57 05.01.2020
4778 Clouds 17 1016 72 10000 4.1 320 23:37 05.01.2020
4779 Clouds 17 1015 72 10000 4.1 320 23:19 05.01.2020
4780 Clouds 17 1015 72 10000 4.6 320 22:40 05.01.2020
4781 Clouds 17 1015 72 10000 4.6 320 22:40 05.01.2020
4782 Clouds 17 1015 77 10000 3.6 320 22:20 05.01.2020
4783 Clouds 16 1015 77 10000 4.1 310 21:56 05.01.2020
4784 Clouds 16 1015 77 10000 4.1 310 21:38 05.01.2020
4785 Clouds 16 1015 77 10000 3.6 310 21:20 05.01.2020
4786 Rain 16 1015 77 10000 4.6 330 20:56 05.01.2020
4787 Rain 16 1015 77 10000 4.6 330 20:38 05.01.2020
4788 Rain 16 1015 82 10000 4.1 330 20:19 05.01.2020
4789 Thunderstorm 17 1015 82 10000 4.6 350 19:58 05.01.2020
4790 Rain 17 1016 77 10000 4.6 340 19:38 05.01.2020
4791 Rain 17 1016 77 10000 4.6 340 19:19 05.01.2020
4792 Rain 17 1016 72 10000 6.7 340 18:55 05.01.2020
4793 Clouds 18 1015 72 10000 6.7 340 18:37 05.01.2020
4794 Rain 17 1016 72 10000 6.7 340 18:37 05.01.2020
4795 Clouds 18 1015 72 10000 6.7 340 18:19 05.01.2020
4796 Clouds 18 1015 68 10000 6.7 340 17:57 05.01.2020
4797 Clouds 18 1015 68 10000 6.7 340 17:38 05.01.2020
4798 Clouds 18 1015 72 10000 7.2 350 17:19 05.01.2020
4799 Clouds 18 1014 68 10000 7.2 340 16:55 05.01.2020
4800 Haze 19 1015 59 9000 7.7 360 16:37 05.01.2020
4801 Haze 19 1015 59 9000 7.7 360 16:19 05.01.2020
4802 Clouds 19 1014 63 10000 8.2 340 15:37 05.01.2020
4803 Clouds 19 1013 63 10000 9.3 350 15:19 05.01.2020
4804 Clouds 19 1013 63 10000 8.7 340 14:55 05.01.2020
4805 Haze 20 1013 59 9000 7.7 360 14:37 05.01.2020
4806 Haze 20 1013 59 9000 7.7 360 14:18 05.01.2020
4807 Clouds 20 1012 60 10000 8.7 340 13:55 05.01.2020
4808 Clouds 20 1012 60 10000 8.7 340 13:37 05.01.2020
4809 Clouds 20 1012 64 10000 9.3 350 13:18 05.01.2020
4810 Clouds 20 1012 64 10000 9.3 350 13:18 05.01.2020
4811 Clouds 20 1012 64 10000 9.3 350 13:18 05.01.2020
4812 Clouds 21 1012 60 10000 9.3 350 12:55 05.01.2020
4813 Clouds 21 1011 56 10000 8.7 340 12:36 05.01.2020
4814 Clouds 21 1012 60 10000 9.3 350 12:36 05.01.2020
4815 Clouds 21 1011 56 10000 8.7 340 12:18 05.01.2020
4816 Clouds 21 1011 64 10000 8.7 360 11:43 05.01.2020
4817 Clouds 21 1011 64 10000 8.7 360 11:43 05.01.2020
4818 Clouds 21 1011 64 10000 8.7 360 11:43 05.01.2020
4819 Clouds 21 1011 64 10000 8.7 360 11:43 05.01.2020
4820 Clouds 21 1011 64 10000 8.7 360 11:43 05.01.2020
4821 Clouds 22 1011 56 10000 9.8 350 11:19 05.01.2020
4822 Clouds 21 1012 60 10000 9.3 360 10:58 05.01.2020
4823 Clouds 21 1012 60 10000 9.3 360 10:39 05.01.2020
4824 Clouds 21 1012 60 10000 9.3 360 10:39 05.01.2020
4825 Clouds 21 1012 60 10000 9.3 360 10:39 05.01.2020
4826 Clouds 21 1012 60 10000 9.3 360 10:39 05.01.2020
4827 Clouds 21 1012 60 10000 9.3 360 10:39 05.01.2020
4828 Clouds 22 1012 53 10000 9.3 350 10:18 05.01.2020
4829 Haze 22 1014 53 9000 6.2 10 09:41 05.01.2020
4830 Haze 22 1014 53 9000 6.2 10 09:22 05.01.2020
4831 Clouds 22 1014 56 10000 8.2 340 08:49 05.01.2020
4832 Haze 21 1015 64 9000 6.2 10 08:30 05.01.2020
4833 Clouds 21 1014 68 10000 7.7 350 07:56 05.01.2020
4834 Clouds 21 1014 68 10000 7.7 350 07:37 05.01.2020
4835 Clouds 21 1014 64 10000 7.7 340 07:19 05.01.2020
4836 Clouds 21 1013 73 9000 7.7 340 05:59 05.01.2020
4837 Mist 21 1013 94 5000 5.1 10 05:33 05.01.2020
4838 Mist 21 1013 94 5000 5.1 10 05:33 05.01.2020
4839 Clouds 21 1013 88 6000 3.6 330 04:43 05.01.2020
4840 Clouds 21 1012 88 6000 3.1 340 04:18 05.01.2020
4841 Clouds 21 1011 88 7000 4.6 340 02:46 05.01.2020
4842 Clear 21 1012 88 7000 4.1 320 02:24 05.01.2020
4843 Clear 20 1011 88 7000 3.6 310 01:48 05.01.2020
4844 Clouds 20 1011 83 8000 3.1 320 01:19 05.01.2020
4845 Clouds 20 1011 77 8000 2.6 310 00:42 05.01.2020
4846 Clouds 20 1011 77 8000 2.6 310 00:42 05.01.2020
4847 Clouds 20 1011 43 10000 2.1 300 00:23 05.01.2020
4848 Clouds 21 1010 37 10000 1 0 23:59 04.01.2020
4849 Clouds 21 1010 37 10000 1 0 23:40 04.01.2020
4850 Clouds 22 1011 35 10000 2.1 230 23:19 04.01.2020
4851 Clouds 22 1011 35 10000 2.1 230 23:19 04.01.2020
4852 Clouds 22 1011 36 10000 4.1 230 22:40 04.01.2020
4853 Clouds 22 1011 44 10000 4.6 240 22:22 04.01.2020
4854 Clouds 23 1011 47 10000 4.6 180 21:58 04.01.2020
4855 Clouds 23 1011 47 10000 4.6 180 21:39 04.01.2020
4856 Clouds 23 1011 47 10000 4.6 180 21:39 04.01.2020
4857 Clouds 22 1012 44 10000 4.6 180 21:20 04.01.2020
4858 Clouds 23 1012 38 8000 4.6 190 20:59 04.01.2020
4859 Clouds 23 1012 38 8000 4.6 190 20:40 04.01.2020
4860 Clear 23 1012 41 7000 4.6 180 20:21 04.01.2020
4861 Clear 23 1012 53 7000 4.1 170 19:57 04.01.2020
4862 Clear 23 1012 53 7000 4.1 170 19:57 04.01.2020
4863 Clear 23 1012 53 7000 4.1 170 19:38 04.01.2020
4864 Clear 23 1012 57 7000 3.6 170 19:20 04.01.2020
4865 Clear 22 1012 73 7000 3.1 140 18:55 04.01.2020
4866 Clear 22 1012 73 7000 3.1 140 18:36 04.01.2020
4867 Clear 22 1012 69 8000 3.6 140 18:18 04.01.2020
4868 Clear 23 1012 69 8000 3.6 130 17:41 04.01.2020
4869 Clear 23 1012 69 8000 3.6 130 17:41 04.01.2020
4870 Clear 23 1012 69 8000 4.1 140 17:23 04.01.2020
4871 Clear 24 1012 69 8000 3.1 150 16:58 04.01.2020
4872 Clear 24 1012 69 8000 3.1 150 16:39 04.01.2020
4873 Clear 24 1012 64 7000 3.1 130 16:21 04.01.2020
4874 Clear 26 1011 64 7000 3.1 130 15:55 04.01.2020
4875 Clear 26 1011 64 7000 3.1 130 15:37 04.01.2020
4876 Clear 26 1011 64 6000 5.1 130 15:18 04.01.2020
4877 Dust 25 1011 57 5000 5.7 120 14:42 04.01.2020
4878 Dust 25 1011 57 5000 5.7 120 14:42 04.01.2020
4879 Dust 25 1011 54 5000 5.1 120 14:42 04.01.2020
4880 Dust 27 1011 54 5000 5.1 120 14:20 04.01.2020
4881 Dust 28 1011 23 5000 6.7 200 13:59 04.01.2020
4882 Dust 28 1011 23 5000 6.7 200 13:38 04.01.2020
4883 Dust 28 1011 23 5000 7.7 190 13:19 04.01.2020
4884 Dust 29 1011 23 5000 9.8 190 12:57 04.01.2020
4885 Dust 29 1011 23 5000 9.8 190 12:39 04.01.2020
4886 Dust 30 1011 25 5000 8.2 180 12:18 04.01.2020
4887 Dust 30 1011 23 5000 9.3 190 11:57 04.01.2020
4888 Dust 30 1011 23 5000 9.3 190 11:37 04.01.2020
4889 Dust 30 1011 23 5000 9.3 190 11:37 04.01.2020
4890 Dust 30 1011 25 5000 8.7 190 11:18 04.01.2020
4891 Clear 29 1012 26 6000 8.7 190 10:41 04.01.2020
4892 Clear 28 1012 26 8000 9.8 180 10:22 04.01.2020
4893 Clear 27 1013 26 10000 10.3 190 09:48 04.01.2020
4894 Clear 26 1014 30 10000 7.2 190 09:26 04.01.2020
4895 Clear 25 1014 29 10000 9.8 180 08:49 04.01.2020
4896 Haze 25 1016 29 9000 5.1 200 08:29 04.01.2020
4897 Clear 24 1016 33 10000 7.7 180 07:59 04.01.2020
4898 Clear 24 1016 33 10000 7.7 180 07:40 04.01.2020
4899 Clear 21 1016 49 10000 5.1 170 06:46 04.01.2020
4900 Clear 20 1015 64 10000 2.6 170 05:59 04.01.2020
4901 Clear 20 1015 64 10000 3.6 160 05:18 04.01.2020
4902 Clear 21 1014 68 10000 3.6 160 04:32 04.01.2020
4903 Clear 20 1014 73 10000 3.1 180 03:39 04.01.2020
4904 Clear 20 1014 73 10000 5.1 160 03:18 04.01.2020
4905 Clear 20 1014 77 10000 4.1 160 02:20 04.01.2020
4906 Clear 20 1014 77 10000 3.1 150 01:53 04.01.2020
4907 Clear 20 1014 83 10000 4.1 150 01:30 04.01.2020
4908 Clear 21 1014 78 10000 4.6 150 00:30 04.01.2020
4909 Clear 21 1014 78 10000 4.6 140 23:59 03.01.2020
4910 Clear 21 1014 78 10000 4.6 140 23:38 03.01.2020
4911 Clear 21 1015 78 10000 4.6 140 23:20 03.01.2020
4912 Clear 21 1015 83 10000 4.6 150 22:41 03.01.2020
4913 Clear 21 1015 88 10000 4.1 150 22:19 03.01.2020
4914 Clear 21 1015 83 10000 5.1 140 21:58 03.01.2020
4915 Clear 21 1015 83 10000 5.1 140 21:38 03.01.2020
4916 Mist 22 1016 82 9000 2.6 150 21:19 03.01.2020
4917 Clear 22 1016 83 10000 4.6 130 20:57 03.01.2020
4918 Clear 22 1016 83 10000 4.6 130 20:39 03.01.2020
4919 Clear 22 1016 88 10000 4.1 130 20:18 03.01.2020
4920 Clear 22 1016 88 10000 4.1 130 19:55 03.01.2020
4921 Clear 22 1016 83 10000 3.1 130 19:37 03.01.2020
4922 Clear 22 1016 83 10000 3.1 130 19:18 03.01.2020
4923 Clear 22 1016 83 10000 2.6 120 18:41 03.01.2020
4924 Clear 22 1017 83 10000 3.1 120 18:23 03.01.2020
4925 Clear 22 1016 83 10000 3.1 120 17:55 03.01.2020
4926 Clear 23 1016 73 10000 3.1 110 17:36 03.01.2020
4927 Clear 23 1016 73 10000 3.1 110 17:18 03.01.2020
4928 Clear 23 1016 69 10000 2.6 110 16:42 03.01.2020
4929 Clear 23 1016 73 10000 3.6 110 16:22 03.01.2020
4930 Clear 24 1016 73 10000 3.6 110 15:44 03.01.2020
4931 Clear 24 1016 73 10000 3.6 120 15:19 03.01.2020
4932 Clear 24 1016 73 10000 3.6 120 15:19 03.01.2020
4933 Clear 25 1015 60 10000 4.1 110 14:59 03.01.2020
4934 Clear 25 1015 60 10000 4.1 110 14:38 03.01.2020
4935 Haze 25 1016 36 9000 4.1 130 14:19 03.01.2020
4936 Clear 26 1015 57 10000 4.6 110 13:43 03.01.2020
4937 Haze 26 1016 32 9000 4.6 150 13:24 03.01.2020
4938 Clear 26 1015 57 10000 5.1 120 12:58 03.01.2020
4939 Clear 26 1015 57 10000 5.1 120 12:38 03.01.2020
4940 Haze 26 1016 28 9000 4.1 180 12:20 03.01.2020
4941 Clear 26 1016 54 10000 5.1 120 11:44 03.01.2020
4942 Clear 26 1016 61 10000 5.1 130 11:20 03.01.2020
4943 Clear 25 1016 61 10000 5.1 130 10:44 03.01.2020
4944 Clear 25 1017 69 10000 5.7 120 10:25 03.01.2020
4945 Clear 25 1018 69 10000 6.2 120 09:58 03.01.2020
4946 Clear 25 1018 69 10000 6.2 120 09:39 03.01.2020
4947 Clear 24 1018 73 10000 5.7 120 09:21 03.01.2020
4948 Clear 24 1018 78 10000 6.7 120 08:56 03.01.2020
4949 Clear 24 1018 78 10000 6.7 120 08:38 03.01.2020
4950 Clear 24 1019 78 10000 5.7 120 08:19 03.01.2020
4951 Clear 23 1019 78 10000 5.7 110 07:40 03.01.2020
4952 Clear 23 1020 83 10000 4.6 110 07:18 03.01.2020
4953 Clear 23 1020 83 10000 4.6 110 07:18 03.01.2020
4954 Clear 22 1019 88 10000 3.6 120 06:47 03.01.2020
4955 Clear 22 1019 88 10000 3.6 120 06:29 03.01.2020
4956 Clear 21 1019 88 10000 3.1 100 05:39 03.01.2020
4957 Clouds 20 1018 88 10000 1 100 04:21 03.01.2020
4958 Clouds 20 1017 88 10000 1.5 120 02:56 03.01.2020
4959 Clouds 20 1017 88 10000 1.5 120 02:56 03.01.2020
4960 Clouds 20 1017 88 10000 1 90 02:28 03.01.2020
4961 Clouds 20 1017 88 10000 0.5 0 01:42 03.01.2020
4962 Clouds 21 1017 83 10000 2.1 110 00:49 03.01.2020
4963 Clouds 21 1017 83 10000 2.1 120 00:29 03.01.2020
4964 Clouds 21 1017 83 10000 2.6 110 23:55 02.01.2020
4965 Clouds 21 1017 83 10000 2.6 110 23:37 02.01.2020
4966 Clouds 21 1017 78 10000 3.1 110 23:18 02.01.2020
4967 Clouds 21 1018 73 10000 4.1 110 22:45 02.01.2020
4968 Clouds 21 1018 77 10000 2.6 110 22:21 02.01.2020
4969 Clouds 21 1018 77 10000 2.6 110 22:21 02.01.2020
4970 Clouds 21 1018 77 10000 1.5 100 21:59 02.01.2020
4971 Clouds 21 1018 77 10000 1.5 100 21:41 02.01.2020
4972 Haze 21 1019 77 9000 1.5 90 21:23 02.01.2020
4973 Clouds 21 1018 77 10000 2.1 110 20:58 02.01.2020
4974 Clouds 21 1018 77 10000 2.1 110 20:39 02.01.2020
4975 Clouds 21 1018 77 10000 2.1 110 20:39 02.01.2020
4976 Clouds 21 1019 77 10000 2.1 100 20:21 02.01.2020
4977 Clouds 22 1019 73 10000 2.6 100 19:55 02.01.2020
4978 Clouds 22 1019 73 10000 2.6 100 19:55 02.01.2020
4979 Clouds 22 1019 73 10000 2.6 100 19:55 02.01.2020
4980 Clouds 22 1019 73 10000 2.6 100 19:37 02.01.2020
4981 Clouds 22 1019 68 10000 2.1 90 19:19 02.01.2020
4982 Clouds 22 1019 68 10000 2.1 80 18:56 02.01.2020
4983 Clouds 22 1019 68 10000 2.1 80 18:38 02.01.2020
4984 Clouds 21 1019 73 10000 2.1 80 18:20 02.01.2020
4985 Clouds 21 1019 73 10000 1.5 70 17:56 02.01.2020
4986 Clouds 21 1019 73 10000 1.5 70 17:36 02.01.2020
4987 Clouds 21 1019 73 10000 1.5 70 17:18 02.01.2020
4988 Clouds 22 1018 64 10000 2.1 70 16:56 02.01.2020
4989 Clouds 22 1018 64 10000 2.1 70 16:38 02.01.2020
4990 Clouds 22 1018 64 10000 2.1 60 16:19 02.01.2020
4991 Clouds 22 1018 64 10000 2.1 60 15:44 02.01.2020
4992 Clouds 22 1018 64 10000 2.6 50 15:24 02.01.2020
4993 Clouds 23 1017 64 10000 2.6 60 14:58 02.01.2020
4994 Clouds 23 1017 60 10000 2.6 70 14:38 02.01.2020
4995 Clouds 23 1017 60 10000 2.6 70 14:20 02.01.2020
4996 Clouds 23 1017 60 10000 2.6 40 13:58 02.01.2020
4997 Clouds 23 1017 56 10000 3.1 40 13:39 02.01.2020
4998 Clouds 23 1017 56 10000 3.1 40 13:18 02.01.2020
4999 Clouds 24 1016 56 10000 3.1 50 12:42 02.01.2020
5000 Clouds 23 1017 60 10000 3.1 20 12:21 02.01.2020
5001 Clouds 23 1017 56 10000 3.1 360 11:42 02.01.2020
5002 Clouds 23 1017 56 10000 3.1 360 11:21 02.01.2020
5003 Clouds 24 1017 56 10000 2.6 20 10:46 02.01.2020
5004 Clouds 24 1017 56 10000 3.1 10 10:28 02.01.2020
5005 Clouds 22 1018 60 10000 3.6 20 09:57 02.01.2020
5006 Clouds 22 1018 56 10000 3.6 360 09:35 02.01.2020
5007 Clouds 22 1019 56 10000 3.6 350 08:59 02.01.2020
5008 Clouds 22 1019 56 10000 3.6 350 08:39 02.01.2020
5009 Clouds 22 1019 56 10000 3.1 340 08:19 02.01.2020
5010 Clouds 20 1020 56 10000 4.1 330 07:47 02.01.2020
5011 Clouds 20 1020 60 10000 3.6 330 07:26 02.01.2020
5012 Clouds 19 1019 60 10000 3.1 330 06:41 02.01.2020
5013 Clouds 18 1019 68 10000 3.1 330 05:40 02.01.2020
5014 Clouds 18 1018 63 10000 2.1 310 04:35 02.01.2020
5015 Clouds 18 1017 63 10000 2.1 310 03:29 02.01.2020
5016 Clouds 18 1016 63 10000 2.1 300 02:21 02.01.2020
5017 Clouds 18 1016 63 10000 2.6 310 01:53 02.01.2020
5018 Clouds 18 1016 63 10000 2.6 310 01:53 02.01.2020
5019 Clouds 18 1016 63 10000 2.6 320 01:25 02.01.2020
5020 Clouds 18 1016 60 10000 2.1 310 00:49 02.01.2020
5021 Clouds 18 1016 60 10000 2.6 310 00:26 02.01.2020
5022 Clouds 19 1016 60 10000 3.1 320 23:43 01.01.2020
5023 Clouds 19 1016 60 10000 2.1 290 23:23 01.01.2020
5024 Clouds 19 1016 60 10000 2.6 330 22:39 01.01.2020
5025 Clouds 19 1016 60 10000 2.6 330 22:20 01.01.2020
5026 Clouds 19 1016 64 10000 3.6 330 21:58 01.01.2020
5027 Clouds 19 1016 64 10000 3.6 330 21:58 01.01.2020
5028 Clouds 19 1016 64 10000 3.6 330 21:40 01.01.2020
5029 Clouds 19 1016 60 10000 4.1 330 21:20 01.01.2020
5030 Clouds 19 1016 64 10000 4.1 330 20:57 01.01.2020
5031 Clouds 19 1016 64 10000 4.1 330 20:38 01.01.2020
5032 Clouds 19 1016 64 10000 4.1 330 20:20 01.01.2020
5033 Clouds 20 1017 64 10000 4.6 330 19:57 01.01.2020
5034 Clouds 20 1017 64 10000 4.6 330 19:38 01.01.2020
5035 Haze 20 1018 68 9000 3.1 360 19:20 01.01.2020
5036 Clouds 20 1016 60 10000 5.1 330 18:57 01.01.2020
5037 Clouds 20 1016 60 10000 5.1 330 18:37 01.01.2020
5038 Clouds 20 1016 60 10000 5.1 330 18:19 01.01.2020
5039 Clouds 21 1016 60 10000 5.7 330 17:57 01.01.2020
5040 Clouds 21 1016 60 10000 5.7 330 17:39 01.01.2020
5041 Clouds 21 1016 64 10000 6.2 330 17:19 01.01.2020
5042 Clouds 21 1016 60 10000 6.2 340 16:57 01.01.2020
5043 Clouds 21 1016 60 10000 6.2 340 16:37 01.01.2020
5044 Clouds 21 1016 60 10000 6.2 340 16:37 01.01.2020
5045 Haze 22 1016 64 9000 4.6 340 16:19 01.01.2020
5046 Haze 22 1016 64 9000 4.6 340 16:19 01.01.2020
5047 Clouds 22 1014 68 10000 6.7 350 15:54 01.01.2020
5048 Haze 22 1015 64 9000 5.7 340 15:36 01.01.2020
5049 Haze 22 1015 64 9000 5.7 340 15:18 01.01.2020
5050 Clouds 23 1014 69 10000 5.7 360 14:41 01.01.2020
5051 Haze 24 1015 60 9000 5.7 340 14:23 01.01.2020
5052 Clouds 24 1013 64 10000 5.1 360 13:57 01.01.2020
5053 Clouds 24 1013 64 10000 5.1 360 13:38 01.01.2020
5054 Clouds 24 1013 64 10000 5.1 350 13:19 01.01.2020
5055 Clouds 24 1013 60 10000 6.7 350 12:57 01.01.2020
5056 Clouds 24 1013 60 10000 6.7 350 12:39 01.01.2020
5057 Haze 25 1014 57 9000 6.2 330 12:19 01.01.2020
5058 Clouds 25 1013 53 10000 5.7 340 11:56 01.01.2020
5059 Clouds 25 1013 53 10000 5.7 340 11:56 01.01.2020
5060 Clouds 25 1013 53 10000 5.7 340 11:37 01.01.2020
5061 Clouds 25 1013 53 10000 4.6 320 11:18 01.01.2020
5062 Clouds 24 1013 57 10000 4.6 310 10:54 01.01.2020
5063 Clouds 24 1014 57 10000 4.6 310 10:36 01.01.2020
5064 Clouds 24 1014 57 10000 4.6 310 10:18 01.01.2020
5065 Clouds 24 1014 61 10000 4.1 310 09:39 01.01.2020
5066 Clouds 23 1015 64 10000 4.1 290 09:19 01.01.2020
5067 Clouds 23 1015 64 10000 4.1 290 09:19 01.01.2020
5068 Clouds 23 1015 64 9000 3.1 290 08:56 01.01.2020
5069 Clouds 23 1015 64 9000 3.1 290 08:37 01.01.2020
5070 Clear 23 1016 69 8000 2.6 280 08:37 01.01.2020
5071 Clouds 23 1016 69 8000 2.6 280 08:19 01.01.2020
5072 Clouds 21 1016 69 10000 3.1 280 07:55 01.01.2020
5073 Clouds 21 1016 69 10000 3.1 280 07:37 01.01.2020
5074 Clouds 20 1016 73 10000 2.1 280 06:46 01.01.2020
5075 Clouds 19 1015 77 10000 1.5 280 06:22 01.01.2020
5076 Clouds 17 1015 77 10000 2.1 270 05:45 01.01.2020
5077 Clouds 17 1014 52 10000 2.1 230 03:47 01.01.2020
5078 Haze 17 1014 72 9000 4.66 264 03:24 01.01.2020
5079 Clouds 18 1013 55 10000 1.5 220 02:59 01.01.2020
5080 Clouds 18 1013 55 10000 1.5 220 02:40 01.01.2020
5081 Clouds 18 1013 63 10000 2.6 240 02:21 01.01.2020
5082 Clouds 18 1013 77 10000 2.6 220 01:39 01.01.2020
5083 Haze 18 1014 67 8000 3.6 210 01:21 01.01.2020
5084 Clouds 18 1013 77 10000 2.6 200 00:44 01.01.2020
5085 Haze 19 1014 77 9000 3.1 220 00:26 01.01.2020
5086 Clouds 19 1013 68 10000 2.1 200 23:42 31.12.2019
5087 Clouds 19 1013 68 10000 2.1 200 23:22 31.12.2019
5088 Clouds 19 1013 68 10000 2.6 200 22:59 31.12.2019
5089 Clouds 19 1013 68 10000 2.6 200 22:39 31.12.2019
5090 Clouds 19 1013 72 10000 2.1 200 22:20 31.12.2019
5091 Clouds 19 1014 72 10000 2.1 190 21:59 31.12.2019
5092 Clouds 19 1014 72 10000 2.1 190 21:40 31.12.2019
5093 Clouds 19 1014 68 10000 2.1 170 21:22 31.12.2019
5094 Clouds 20 1014 64 10000 2.1 170 20:57 31.12.2019
5095 Clouds 20 1014 64 10000 2.1 170 20:37 31.12.2019
5096 Clouds 20 1015 60 10000 1.5 170 20:19 31.12.2019
5097 Clouds 20 1015 60 10000 1.5 140 19:55 31.12.2019
5098 Clouds 20 1015 60 10000 1.5 140 19:36 31.12.2019
5099 Clouds 20 1015 56 10000 2.1 150 19:18 31.12.2019
5100 Clouds 20 1015 56 10000 2.6 150 18:54 31.12.2019
5101 Clouds 20 1015 56 10000 2.6 150 18:36 31.12.2019
5102 Clouds 20 1015 53 10000 1.5 160 18:18 31.12.2019
5103 Clouds 20 1015 53 10000 1.5 160 18:18 31.12.2019
5104 Clouds 21 1015 53 10000 1.5 170 17:54 31.12.2019
5105 Clouds 21 1015 49 10000 2.6 160 17:36 31.12.2019
5106 Clear 21 1015 49 10000 2.6 160 17:18 31.12.2019
5107 Clear 22 1015 53 10000 3.6 150 16:55 31.12.2019
5108 Clear 22 1015 53 10000 3.6 150 16:36 31.12.2019
5109 Clear 23 1015 56 10000 3.6 120 16:18 31.12.2019
5110 Clear 24 1015 29 10000 1.5 280 15:55 31.12.2019
5111 Clear 24 1015 29 10000 1.5 280 15:37 31.12.2019
5112 Clear 24 1014 26 10000 2.6 260 15:18 31.12.2019
5113 Clear 26 1014 26 10000 3.6 260 14:55 31.12.2019
5114 Clear 26 1014 26 10000 3.6 260 14:36 31.12.2019
5115 Haze 27 1015 36 9000 2.1 200 14:18 31.12.2019
5116 Clear 27 1014 24 10000 4.1 270 13:54 31.12.2019
5117 Clear 27 1014 24 10000 4.1 270 13:36 31.12.2019
5118 Clear 27 1014 24 10000 3.1 250 13:18 31.12.2019
5119 Clear 27 1014 24 10000 3.6 240 12:40 31.12.2019
5120 Clear 27 1014 24 10000 3.1 240 12:20 31.12.2019
5121 Clear 27 1014 24 10000 3.1 240 12:20 31.12.2019
5122 Clear 27 1014 26 10000 4.1 210 11:57 31.12.2019
5123 Clear 27 1014 26 10000 4.1 210 11:39 31.12.2019
5124 Clear 27 1015 26 10000 3.6 230 11:20 31.12.2019
5125 Clear 27 1015 24 10000 3.1 230 10:58 31.12.2019
5126 Clear 27 1015 24 10000 3.1 230 10:38 31.12.2019
5127 Clear 26 1016 28 10000 3.1 220 10:20 31.12.2019
5128 Clear 26 1017 27 10000 3.1 210 09:59 31.12.2019
5129 Clear 26 1017 27 10000 3.1 210 09:40 31.12.2019
5130 Clear 25 1017 34 10000 2.1 190 09:21 31.12.2019
5131 Clear 24 1018 39 10000 2.1 0 08:58 31.12.2019
5132 Clear 24 1018 39 10000 2.1 0 08:39 31.12.2019
5133 Clear 24 1018 44 10000 2.1 210 08:20 31.12.2019
5134 Clear 22 1019 49 10000 2.1 0 07:43 31.12.2019
5135 Clear 22 1019 46 10000 1.5 210 07:22 31.12.2019
5136 Clear 19 1018 52 10000 1.5 210 06:50 31.12.2019
5137 Clear 17 1018 63 10000 1 0 05:59 31.12.2019
5138 Clear 16 1017 72 10000 0.5 0 04:30 31.12.2019
5139 Clear 16 1017 72 10000 1.5 230 03:59 31.12.2019
5140 Clear 16 1017 72 10000 1.5 230 03:59 31.12.2019
5141 Clear 16 1017 72 10000 2.6 240 02:56 31.12.2019
5142 Mist 17 1017 93 3200 1.74 289 02:19 31.12.2019
5143 Clear 17 1017 68 10000 2.6 250 01:48 31.12.2019
5144 Clear 17 1017 68 10000 2.6 250 01:48 31.12.2019
5145 Mist 17 1018 87 4000 1.5 280 01:28 31.12.2019
5146 Clear 17 1017 68 10000 2.1 240 00:47 31.12.2019
5147 Clear 17 1017 68 10000 2.6 250 00:23 31.12.2019
5148 Clear 18 1017 64 10000 2.1 240 23:57 30.12.2019
5149 Clear 18 1017 64 10000 2.1 240 23:38 30.12.2019
5150 Mist 18 1019 87 5000 1.81 327 23:20 30.12.2019
5151 Clear 18 1017 68 10000 1.5 240 22:58 30.12.2019
5152 Clear 18 1017 68 10000 1.5 240 22:40 30.12.2019
5153 Clear 18 1018 68 10000 1.5 230 22:20 30.12.2019
5154 Clear 18 1018 68 10000 1.5 230 21:57 30.12.2019
5155 Clear 18 1018 68 10000 1.5 230 21:38 30.12.2019
5156 Clear 18 1018 72 10000 0.5 0 21:19 30.12.2019
5157 Clear 19 1018 72 10000 1.81 327 20:57 30.12.2019
5158 Clear 19 1018 72 10000 1.81 327 20:39 30.12.2019
5159 Clear 19 1018 68 10000 1 0 20:20 30.12.2019
5160 Clear 20 1018 68 10000 1 330 19:58 30.12.2019
5161 Clear 20 1018 68 10000 1 330 19:38 30.12.2019
5162 Clear 20 1018 72 10000 1 350 19:19 30.12.2019
5163 Clear 20 1018 72 10000 1.5 350 18:57 30.12.2019
5164 Clear 20 1018 72 10000 1.5 350 18:38 30.12.2019
5165 Clear 21 1018 73 10000 2.1 350 18:20 30.12.2019
5166 Clear 21 1018 77 10000 2.1 10 17:55 30.12.2019
5167 Clear 21 1018 77 10000 2.1 10 17:37 30.12.2019
5168 Clear 21 1018 77 10000 2.1 10 17:18 30.12.2019
5169 Clear 22 1018 73 10000 2.1 10 16:57 30.12.2019
5170 Clear 22 1018 73 10000 2.1 10 16:36 30.12.2019
5171 Clear 22 1018 73 10000 2.6 10 16:18 30.12.2019
5172 Clear 22 1018 73 10000 2.6 10 15:55 30.12.2019
5173 Clear 22 1018 73 10000 2.6 10 15:36 30.12.2019
5174 Clear 23 1017 69 10000 2.6 30 15:18 30.12.2019
5175 Clear 24 1017 53 10000 3.6 20 14:42 30.12.2019
5176 Haze 25 1018 27 9000 1.5 300 14:20 30.12.2019
5177 Clear 25 1017 44 10000 3.1 20 13:56 30.12.2019
5178 Clear 25 1017 44 10000 3.1 20 13:37 30.12.2019
5179 Clear 25 1017 50 10000 3.1 40 13:19 30.12.2019
5180 Clear 25 1017 50 10000 2.6 20 12:43 30.12.2019
5181 Haze 27 1017 30 9000 1.5 260 12:22 30.12.2019
5182 Clear 26 1017 47 10000 1 0 11:59 30.12.2019
5183 Clear 26 1017 47 10000 1 0 11:40 30.12.2019
5184 Clear 26 1017 30 10000 2.6 280 11:19 30.12.2019
5185 Clear 26 1017 30 10000 2.6 280 11:19 30.12.2019
5186 Clear 26 1017 30 10000 2.1 280 10:45 30.12.2019
5187 Clear 26 1018 32 10000 1.5 0 10:22 30.12.2019
5188 Clear 24 1018 34 10000 2.6 250 09:59 30.12.2019
5189 Clear 24 1018 34 10000 2.6 250 09:41 30.12.2019
5190 Clear 23 1018 39 10000 1.5 270 09:20 30.12.2019
5191 Clear 23 1019 41 10000 1 0 08:54 30.12.2019
5192 Clear 23 1019 41 10000 1 0 08:36 30.12.2019
5193 Clear 23 1019 41 10000 1 0 08:36 30.12.2019
5194 Clear 23 1019 50 10000 1.5 300 08:18 30.12.2019
5195 Clear 22 1020 53 10000 1.5 310 07:39 30.12.2019
5196 Clear 19 1020 68 8000 2.6 300 06:52 30.12.2019
5197 Haze 17 1019 88 5000 1.5 290 05:24 30.12.2019
5198 Clear 16 1019 88 7000 1.5 270 03:58 30.12.2019
5199 Mist 17 1019 93 1600 2.1 310 03:19 30.12.2019
5200 Clear 17 1018 82 10000 2.1 280 02:40 30.12.2019
5201 Clear 17 1018 82 10000 1.5 290 01:55 30.12.2019
5202 Clear 17 1018 82 10000 2.1 300 01:23 30.12.2019
5203 Clear 18 1018 82 10000 1.5 320 00:45 30.12.2019
5204 Clear 18 1018 82 10000 2.1 320 00:19 30.12.2019
5205 Clear 18 1018 82 10000 1.5 320 23:39 29.12.2019
5206 Clear 18 1018 82 10000 1.5 320 23:21 29.12.2019
5207 Clear 18 1018 77 10000 2.1 300 22:55 29.12.2019
5208 Clear 18 1018 77 10000 2.1 300 22:37 29.12.2019
5209 Clear 18 1018 77 10000 2.1 310 22:18 29.12.2019
5210 Clear 18 1018 77 10000 1.5 310 21:43 29.12.2019
5211 Clear 18 1018 77 10000 1.5 340 21:21 29.12.2019
5212 Clear 19 1018 72 10000 2.1 340 20:57 29.12.2019
5213 Clear 19 1018 72 10000 2.1 340 20:39 29.12.2019
5214 Mist 19 1019 88 5000 1.5 350 20:21 29.12.2019
5215 Clear 20 1019 68 10000 2.1 330 19:59 29.12.2019
5216 Clear 20 1019 68 10000 2.1 330 19:40 29.12.2019
5217 Clear 20 1019 68 10000 2.1 330 19:40 29.12.2019
5218 Clear 20 1019 73 10000 2.1 310 19:21 29.12.2019
5219 Clear 20 1018 73 10000 2.6 330 18:58 29.12.2019
5220 Clear 20 1018 88 10000 1 360 18:39 29.12.2019
5221 Clear 20 1018 88 10000 1 360 18:20 29.12.2019
5222 Clear 21 1018 83 10000 2.1 350 17:58 29.12.2019
5223 Clear 21 1018 83 10000 2.1 350 17:39 29.12.2019
5224 Clear 21 1018 88 10000 2.1 340 17:20 29.12.2019
5225 Clear 22 1018 78 10000 2.6 350 16:57 29.12.2019
5226 Clear 22 1018 78 10000 2.6 350 16:38 29.12.2019
5227 Clear 22 1018 78 10000 2.6 350 16:38 29.12.2019
5228 Clear 22 1018 78 10000 2.1 350 16:20 29.12.2019
5229 Clear 22 1017 78 10000 2.6 360 15:58 29.12.2019
5230 Clear 22 1017 78 10000 2.6 360 15:58 29.12.2019
5231 Clear 22 1017 78 10000 2.6 360 15:39 29.12.2019
5232 Clear 23 1017 73 10000 3.6 10 15:20 29.12.2019
5233 Clear 24 1017 47 10000 3.6 340 14:58 29.12.2019
5234 Clear 24 1017 47 10000 3.6 340 14:39 29.12.2019
5235 Haze 24 1018 44 9000 3.1 330 14:18 29.12.2019
5236 Haze 24 1018 44 9000 3.1 330 14:18 29.12.2019
5237 Clear 25 1017 47 10000 3.1 350 13:58 29.12.2019
5238 Clear 25 1017 47 10000 3.1 350 13:39 29.12.2019
5239 Clear 25 1016 44 10000 4.1 330 13:21 29.12.2019
5240 Clear 25 1017 39 10000 3.1 310 12:56 29.12.2019
5241 Clear 25 1017 39 10000 3.1 310 12:37 29.12.2019
5242 Haze 26 1018 39 9000 3.1 320 12:19 29.12.2019
5243 Clear 26 1017 39 10000 2.6 270 11:40 29.12.2019
5244 Clear 26 1017 41 10000 2.6 250 11:20 29.12.2019
5245 Clear 25 1017 41 10000 2.1 0 10:56 29.12.2019
5246 Clear 25 1017 41 10000 2.1 0 10:37 29.12.2019
5247 Clear 24 1018 44 10000 2.1 300 10:18 29.12.2019
5248 Clear 23 1018 47 9000 3.1 280 09:44 29.12.2019
5249 Clear 23 1019 57 9000 3.1 300 09:26 29.12.2019
5250 Clear 22 1019 64 8000 2.6 310 08:52 29.12.2019
5251 Clear 21 1019 69 8000 2.1 280 08:29 29.12.2019
5252 Clear 21 1019 64 8000 1.5 270 07:59 29.12.2019
5253 Clear 21 1020 64 8000 2.1 250 07:32 29.12.2019
5254 Clear 19 1020 64 10000 2.6 240 06:59 29.12.2019
5255 Clear 18 1019 63 10000 2.1 240 06:27 29.12.2019
5256 Clear 16 1019 72 9000 2.6 240 05:55 29.12.2019
5257 Clear 16 1018 77 8000 2.6 240 04:47 29.12.2019
5258 Clear 16 1018 82 8000 2.1 250 04:28 29.12.2019
5259 Clear 16 1017 88 8000 1.5 240 03:28 29.12.2019
5260 Clear 16 1017 82 8000 1.5 280 02:22 29.12.2019
5261 Clear 16 1017 82 10000 1 0 01:42 29.12.2019
5262 Clear 16 1017 82 10000 1.5 270 01:23 29.12.2019
5263 Clear 17 1017 82 10000 1.5 250 00:44 29.12.2019
5264 Clear 17 1017 82 10000 1.5 230 00:24 29.12.2019
5265 Clear 17 1017 82 10000 2.1 220 23:45 28.12.2019
5266 Clear 18 1017 82 10000 1.5 230 23:19 28.12.2019
5267 Clear 18 1017 82 10000 1.5 230 23:19 28.12.2019
5268 Clear 18 1017 82 10000 1.5 230 23:19 28.12.2019
5269 Clear 18 1017 82 10000 1.5 220 22:59 28.12.2019
5270 Clear 18 1017 82 10000 1.5 220 22:37 28.12.2019
5271 Clear 18 1017 82 10000 1.5 240 22:18 28.12.2019
5272 Clear 18 1017 82 10000 1 0 21:55 28.12.2019
5273 Clear 18 1017 77 10000 1 0 21:37 28.12.2019
5274 Clear 18 1017 77 10000 1 0 21:19 28.12.2019
5275 Clear 19 1017 77 10000 1.5 170 20:40 28.12.2019
5276 Clear 19 1017 82 10000 2.1 150 20:22 28.12.2019
5277 Clear 19 1017 77 10000 1.5 140 19:59 28.12.2019
5278 Clear 19 1017 77 10000 1.5 140 19:59 28.12.2019
5279 Clear 19 1017 77 10000 1.5 140 19:40 28.12.2019
5280 Clear 19 1018 77 10000 2.1 140 19:22 28.12.2019
5281 Clear 19 1017 72 10000 2.6 140 18:59 28.12.2019
5282 Clear 19 1017 72 10000 2.6 140 18:40 28.12.2019
5283 Clear 19 1017 72 10000 2.6 140 18:20 28.12.2019
5284 Clear 20 1017 77 10000 1.5 140 17:57 28.12.2019
5285 Clear 20 1017 77 10000 1.5 140 17:38 28.12.2019
5286 Clear 20 1017 77 10000 1 110 17:19 28.12.2019
5287 Clear 21 1017 72 10000 1 0 16:47 28.12.2019
5288 Clear 21 1017 73 10000 1.5 110 16:26 28.12.2019
5289 Clear 21 1016 68 10000 1.5 130 15:57 28.12.2019
5290 Clear 21 1016 68 10000 1.5 130 15:39 28.12.2019
5291 Clear 22 1016 64 10000 2.1 120 15:19 28.12.2019
5292 Clear 22 1015 60 10000 2.6 80 14:44 28.12.2019
5293 Haze 23 1016 33 9000 2.1 340 14:24 28.12.2019
5294 Haze 23 1016 33 9000 2.1 340 14:24 28.12.2019
5295 Clear 23 1015 60 10000 2.1 100 13:57 28.12.2019
5296 Clear 23 1015 60 10000 2.1 100 13:38 28.12.2019
5297 Clear 24 1015 44 10000 1.5 360 13:19 28.12.2019
5298 Clear 24 1015 53 10000 2.1 50 12:44 28.12.2019
5299 Clear 24 1015 34 10000 2.1 0 12:24 28.12.2019
5300 Clear 24 1015 34 10000 2.1 0 11:58 28.12.2019
5301 Clear 24 1015 34 10000 2.1 0 11:39 28.12.2019
5302 Clear 24 1015 36 10000 2.6 220 11:20 28.12.2019
5303 Clear 23 1016 41 9000 2.1 210 10:46 28.12.2019
5304 Clear 23 1016 44 9000 2.1 0 10:22 28.12.2019
5305 Clear 23 1016 44 9000 2.1 0 10:22 28.12.2019
5306 Clear 23 1016 44 9000 2.1 0 10:22 28.12.2019
5307 Clear 23 1016 44 9000 2.1 0 10:22 28.12.2019
5308 Clear 23 1017 44 8000 2.1 200 09:58 28.12.2019
5309 Clear 23 1017 44 8000 2.1 200 09:40 28.12.2019
5310 Clear 22 1017 57 8000 1 0 09:20 28.12.2019
5311 Clear 22 1017 57 8000 1 0 09:20 28.12.2019
5312 Clear 22 1018 60 8000 1.5 300 08:44 28.12.2019
5313 Clear 22 1018 64 8000 1.5 250 08:26 28.12.2019
5314 Clear 20 1018 73 8000 2.6 200 07:55 28.12.2019
5315 Clear 20 1018 77 8000 2.6 250 07:32 28.12.2019
5316 Clear 18 1018 77 9000 3.6 260 06:41 28.12.2019
5317 Clear 16 1016 77 10000 3.1 200 04:59 28.12.2019
5318 Clear 17 1015 77 10000 2.6 180 03:47 28.12.2019
5319 Clear 16 1015 82 10000 3.1 160 02:49 28.12.2019
5320 Clear 16 1015 82 10000 1.5 150 01:59 28.12.2019
5321 Clear 17 1015 77 10000 3.6 160 01:31 28.12.2019
5322 Clear 17 1015 77 10000 2.1 150 00:58 28.12.2019
5323 Clear 17 1015 77 10000 2.1 150 00:40 28.12.2019
5324 Mist 17 1016 87 8000 1.5 170 00:20 28.12.2019
5325 Clear 17 1015 77 10000 1.5 170 23:44 27.12.2019
5326 Clear 17 1015 77 10000 1.5 170 23:44 27.12.2019
5327 Clear 18 1015 72 10000 2.1 160 23:20 27.12.2019
5328 Clear 18 1015 72 10000 2.6 150 22:58 27.12.2019
5329 Clear 18 1015 72 10000 2.6 150 22:39 27.12.2019
5330 Clear 18 1015 72 10000 3.1 140 22:20 27.12.2019
5331 Clear 18 1015 72 10000 3.6 150 21:56 27.12.2019
5332 Clear 18 1015 72 10000 3.6 150 21:37 27.12.2019
5333 Haze 19 1017 77 9000 3.26 151 21:19 27.12.2019
5334 Clear 19 1016 72 10000 2.1 140 20:42 27.12.2019
5335 Clear 19 1016 72 10000 1 150 20:23 27.12.2019
5336 Clear 19 1016 68 10000 1 140 19:43 27.12.2019
5337 Clear 20 1016 64 10000 1.5 120 19:21 27.12.2019
5338 Clear 20 1016 64 10000 1.5 140 18:59 27.12.2019
5339 Clear 20 1016 64 10000 1.5 140 18:40 27.12.2019
5340 Clear 20 1016 60 10000 0.5 140 18:21 27.12.2019
5341 Clear 20 1016 60 10000 1.5 140 17:58 27.12.2019
5342 Clear 20 1016 60 10000 1.5 140 17:40 27.12.2019
5343 Clear 21 1016 56 10000 2.1 140 17:19 27.12.2019
5344 Clear 21 1016 60 10000 2.6 140 16:59 27.12.2019
5345 Clear 21 1016 60 10000 2.6 140 16:39 27.12.2019
5346 Clear 21 1015 56 10000 3.1 130 16:20 27.12.2019
5347 Clear 21 1015 56 10000 3.6 130 15:45 27.12.2019
5348 Clear 22 1015 56 10000 4.1 130 15:23 27.12.2019
5349 Clear 23 1015 53 10000 5.1 130 14:58 27.12.2019
5350 Clear 23 1015 53 10000 5.1 130 14:40 27.12.2019
5351 Haze 23 1016 31 9000 3.1 170 14:21 27.12.2019
5352 Clear 23 1014 49 10000 5.7 110 13:57 27.12.2019
5353 Clear 23 1014 49 10000 5.7 110 13:39 27.12.2019
5354 Clear 24 1014 47 10000 4.1 130 13:21 27.12.2019
5355 Clear 24 1014 36 10000 2.1 210 12:44 27.12.2019
5356 Clear 24 1014 38 10000 2.6 190 12:24 27.12.2019
5357 Clear 24 1014 38 10000 3.1 210 11:46 27.12.2019
5358 Clear 24 1015 41 10000 3.1 180 11:28 27.12.2019
5359 Clear 24 1015 47 10000 4.1 160 10:59 27.12.2019
5360 Clear 24 1015 47 10000 4.1 160 10:41 27.12.2019
5361 Clear 24 1015 47 10000 4.1 160 10:41 27.12.2019
5362 Clear 24 1016 44 10000 3.6 190 10:23 27.12.2019
5363 Clear 23 1016 53 10000 3.6 180 09:49 27.12.2019
5364 Clear 23 1017 60 10000 3.1 160 09:22 27.12.2019
5365 Clear 22 1017 68 10000 2.6 180 08:59 27.12.2019
5366 Clear 22 1017 68 10000 2.6 180 08:40 27.12.2019
5367 Clear 22 1018 68 10000 3.1 190 08:18 27.12.2019
5368 Clear 20 1018 73 10000 3.1 190 07:38 27.12.2019
5369 Clear 18 1018 72 10000 2.6 210 06:43 27.12.2019
5370 Clear 18 1018 64 10000 2.1 190 06:22 27.12.2019
5371 Mist 16 1018 87 6000 1 150 04:33 27.12.2019
5372 Clear 17 1016 72 10000 1.5 220 02:28 27.12.2019
5373 Clear 18 1016 68 10000 1.5 170 01:42 27.12.2019
5374 Clear 18 1016 68 10000 1.5 150 01:20 27.12.2019
5375 Clear 18 1016 68 10000 1 150 00:46 27.12.2019
5376 Clear 18 1017 68 10000 1 120 00:25 27.12.2019
5377 Clear 18 1017 68 10000 1 130 23:54 26.12.2019
5378 Clear 18 1017 68 10000 1 130 23:36 26.12.2019
5379 Clear 18 1017 68 10000 1 130 23:18 26.12.2019
5380 Clear 18 1017 72 10000 1 130 22:38 26.12.2019
5381 Mist 18 1018 77 8000 2.25 167 22:18 26.12.2019
5382 Clear 18 1017 68 10000 1.5 140 21:40 26.12.2019
5383 Clear 18 1017 68 10000 1.5 140 21:21 26.12.2019
5384 Clear 19 1017 68 10000 1.5 120 20:57 26.12.2019
5385 Clear 19 1017 68 10000 1.5 120 20:38 26.12.2019
5386 Clear 19 1017 72 10000 1.5 120 20:19 26.12.2019
5387 Clear 19 1017 64 10000 2.1 140 19:55 26.12.2019
5388 Clear 19 1017 64 10000 2.1 140 19:37 26.12.2019
5389 Clear 19 1017 64 10000 2.1 120 19:19 26.12.2019
5390 Clear 20 1017 64 10000 2.1 120 18:55 26.12.2019
5391 Clear 20 1017 64 10000 2.1 120 18:36 26.12.2019
5392 Clear 20 1017 60 10000 2.1 130 18:18 26.12.2019
5393 Clear 20 1018 60 10000 1.5 120 17:41 26.12.2019
5394 Clear 21 1018 56 10000 1.5 90 17:21 26.12.2019
5395 Clear 21 1018 56 10000 1.5 90 17:21 26.12.2019
5396 Clear 21 1017 60 10000 2.1 100 16:49 26.12.2019
5397 Haze 21 1018 43 9000 0.45 126 16:26 26.12.2019
5398 Clear 22 1017 56 10000 3.1 120 15:57 26.12.2019
5399 Clear 22 1017 56 10000 3.1 120 15:38 26.12.2019
5400 Clear 22 1017 53 10000 3.1 110 15:19 26.12.2019
5401 Clear 23 1016 40 10000 2.1 240 14:41 26.12.2019
5402 Haze 23 1018 38 9000 2.1 280 14:23 26.12.2019
5403 Clear 23 1017 36 10000 4.1 270 13:55 26.12.2019
5404 Clear 23 1017 36 10000 4.1 270 13:36 26.12.2019
5405 Clear 24 1017 38 10000 2.1 0 13:18 26.12.2019
5406 Clear 24 1017 38 10000 3.6 250 12:45 26.12.2019
5407 Haze 24 1018 38 9000 6.2 230 12:25 26.12.2019
5408 Clear 24 1017 38 10000 3.1 190 11:59 26.12.2019
5409 Clear 24 1017 38 10000 3.1 190 11:40 26.12.2019
5410 Clear 24 1017 38 10000 4.1 180 11:21 26.12.2019
5411 Clear 23 1017 38 10000 4.1 200 10:50 26.12.2019
5412 Clear 23 1018 43 10000 4.6 170 10:27 26.12.2019
5413 Clear 23 1018 43 10000 4.1 180 09:59 26.12.2019
5414 Clear 23 1018 43 10000 4.1 180 09:41 26.12.2019
5415 Clear 23 1019 43 10000 4.1 200 09:22 26.12.2019
5416 Clear 22 1019 43 10000 4.1 180 08:40 26.12.2019
5417 Clear 22 1019 43 10000 4.1 180 08:21 26.12.2019
5418 Clear 21 1020 43 10000 3.1 220 07:44 26.12.2019
5419 Clear 21 1020 53 10000 1.5 220 07:24 26.12.2019
5420 Clear 19 1020 60 10000 1.5 0 06:39 26.12.2019
5421 Clear 18 1019 68 10000 1.5 240 06:20 26.12.2019
5422 Clear 16 1019 72 10000 1.5 260 05:43 26.12.2019
5423 Clear 16 1019 77 10000 1.5 250 04:36 26.12.2019
5424 Clear 16 1018 72 10000 1.5 250 03:32 26.12.2019
5425 Clear 16 1018 72 10000 1 0 02:47 26.12.2019
5426 Clear 16 1018 68 10000 1.5 250 02:29 26.12.2019
5427 Clear 16 1018 63 10000 1.5 250 01:44 26.12.2019
5428 Clear 16 1018 63 10000 1 0 01:26 26.12.2019
5429 Clear 17 1018 63 10000 1.5 260 00:47 26.12.2019
5430 Clear 17 1018 63 10000 1 0 00:23 26.12.2019
5431 Clear 17 1018 63 10000 1.5 240 23:58 25.12.2019
5432 Clear 17 1018 63 10000 1.5 240 23:38 25.12.2019
5433 Clear 17 1018 59 10000 1.5 230 23:19 25.12.2019
5434 Clear 18 1018 59 10000 1 0 22:57 25.12.2019
5435 Clear 18 1018 59 10000 1 0 22:37 25.12.2019
5436 Haze 19 1019 77 9000 0.89 290 22:19 25.12.2019
5437 Clear 19 1018 56 10000 1 0 21:57 25.12.2019
5438 Clear 19 1018 56 10000 1 0 21:39 25.12.2019
5439 Clear 19 1018 60 10000 0.5 0 21:19 25.12.2019
5440 Clear 19 1019 63 10000 0.5 0 20:41 25.12.2019
5441 Clear 19 1019 63 10000 0.5 0 20:41 25.12.2019
5442 Clear 19 1019 60 10000 1.5 100 20:21 25.12.2019
5443 Clear 20 1019 56 10000 1.5 80 19:59 25.12.2019
5444 Clear 20 1019 56 10000 1.5 80 19:41 25.12.2019
5445 Clear 20 1019 60 10000 1.5 90 19:22 25.12.2019
5446 Clear 20 1019 56 10000 2.1 100 18:41 25.12.2019
5447 Clear 20 1019 60 10000 1.5 80 18:21 25.12.2019
5448 Clear 20 1019 52 10000 2.1 80 17:59 25.12.2019
5449 Clear 20 1019 52 10000 2.1 80 17:39 25.12.2019
5450 Clouds 20 1019 52 10000 3.1 90 17:18 25.12.2019
5451 Clear 21 1019 52 10000 2.1 80 16:55 25.12.2019
5452 Clear 21 1019 52 10000 2.1 80 16:55 25.12.2019
5453 Clear 21 1019 52 10000 2.1 80 16:36 25.12.2019
5454 Clear 21 1018 49 10000 2.6 80 16:18 25.12.2019
5455 Clouds 22 1018 53 10000 2.1 70 15:56 25.12.2019
5456 Clouds 22 1018 53 10000 2.6 80 15:37 25.12.2019
5457 Clouds 22 1018 53 10000 2.6 80 15:18 25.12.2019
5458 Clouds 22 1018 53 10000 3.1 360 14:54 25.12.2019
5459 Clouds 22 1018 53 10000 3.1 360 14:36 25.12.2019
5460 Haze 23 1019 46 9000 3.1 60 14:18 25.12.2019
5461 Clouds 23 1018 49 10000 4.1 360 13:41 25.12.2019
5462 Clouds 23 1018 46 10000 4.1 10 13:20 25.12.2019
5463 Clouds 24 1018 44 10000 3.6 40 12:44 25.12.2019
5464 Clouds 24 1018 44 10000 3.6 50 12:22 25.12.2019
5465 Clouds 24 1018 44 10000 3.6 50 11:58 25.12.2019
5466 Clouds 24 1018 44 10000 3.6 50 11:40 25.12.2019
5467 Clouds 24 1018 41 10000 4.1 40 11:21 25.12.2019
5468 Clouds 23 1019 44 10000 3.1 50 10:39 25.12.2019
5469 Clouds 23 1019 50 10000 3.6 30 10:21 25.12.2019
5470 Clear 22 1020 49 10000 4.1 10 09:58 25.12.2019
5471 Clear 22 1020 49 10000 4.1 10 09:40 25.12.2019
5472 Clear 22 1020 49 10000 4.1 10 09:40 25.12.2019
5473 Clear 22 1020 56 10000 4.1 350 09:21 25.12.2019
5474 Clear 21 1020 56 10000 5.1 340 08:42 25.12.2019
5475 Mist 21 1022 64 8000 2.6 330 08:23 25.12.2019
5476 Mist 21 1022 64 8000 2.6 330 08:23 25.12.2019
5477 Clear 20 1021 53 10000 4.6 330 07:43 25.12.2019
5478 Clear 20 1021 56 10000 4.1 330 07:22 25.12.2019
5479 Clear 18 1021 64 10000 2.1 310 06:24 25.12.2019
5480 Clear 17 1020 68 10000 2.6 300 05:50 25.12.2019
5481 Clouds 16 1020 77 8000 2.1 300 04:46 25.12.2019
5482 Mist 16 1021 87 4000 2.1 340 04:24 25.12.2019
5483 Clear 17 1019 72 9000 2.1 290 03:44 25.12.2019
5484 Clear 17 1019 72 9000 2.1 290 03:44 25.12.2019
5485 Clear 17 1018 72 9000 2.1 300 02:59 25.12.2019
5486 Clear 17 1018 72 9000 2.6 310 02:30 25.12.2019
5487 Clear 17 1018 72 10000 2.1 300 01:53 25.12.2019
5488 Clear 17 1019 72 10000 2.1 310 01:22 25.12.2019
5489 Clear 17 1019 68 10000 2.1 310 00:45 25.12.2019
5490 Clear 17 1019 68 10000 2.6 300 00:26 25.12.2019
5491 Clear 17 1019 68 10000 3.1 310 23:40 24.12.2019
5492 Clear 17 1019 63 10000 1.5 290 23:20 24.12.2019
5493 Clear 18 1019 59 10000 2.1 300 22:55 24.12.2019
5494 Clear 18 1019 59 10000 2.1 300 22:37 24.12.2019
5495 Clear 18 1019 55 10000 2.1 300 22:19 24.12.2019
5496 Clear 17 1019 55 10000 2.1 310 21:41 24.12.2019
5497 Clear 17 1019 55 10000 2.1 310 21:41 24.12.2019
5498 Clear 17 1019 55 10000 2.1 300 21:22 24.12.2019
5499 Clear 18 1019 59 10000 2.1 300 20:43 24.12.2019
5500 Haze 18 1021 63 9000 2.6 330 20:24 24.12.2019
5501 Clear 18 1019 59 10000 2.6 310 19:57 24.12.2019
5502 Clear 18 1019 59 10000 2.6 310 19:37 24.12.2019
5503 Clear 18 1020 56 10000 2.6 310 19:18 24.12.2019
5504 Clear 19 1020 60 10000 2.6 320 18:42 24.12.2019
5505 Clear 19 1020 60 10000 3.1 310 18:19 24.12.2019
5506 Clear 19 1020 60 10000 3.1 320 17:45 24.12.2019
5507 Clear 19 1019 60 10000 4.1 330 17:23 24.12.2019
5508 Clear 20 1019 64 10000 3.6 340 16:59 24.12.2019
5509 Clear 20 1019 64 10000 3.6 340 16:59 24.12.2019
5510 Clear 20 1019 64 10000 3.6 340 16:40 24.12.2019
5511 Clear 20 1019 64 10000 3.6 350 16:22 24.12.2019
5512 Clear 21 1019 64 10000 3.6 360 15:58 24.12.2019
5513 Clear 21 1019 64 10000 3.6 360 15:58 24.12.2019
5514 Clear 21 1019 64 10000 3.6 360 15:38 24.12.2019
5515 Haze 21 1020 49 9000 3.1 310 15:20 24.12.2019
5516 Clear 21 1019 64 10000 4.1 10 14:59 24.12.2019
5517 Clear 21 1019 64 10000 4.1 10 14:40 24.12.2019
5518 Haze 22 1020 46 9000 3.1 330 14:22 24.12.2019
5519 Clouds 22 1018 56 10000 4.1 20 13:57 24.12.2019
5520 Clouds 22 1018 56 10000 4.1 20 13:39 24.12.2019
5521 Clouds 22 1019 60 10000 4.6 10 13:20 24.12.2019
5522 Clouds 22 1018 49 10000 5.1 360 12:57 24.12.2019
5523 Clouds 22 1018 49 10000 5.1 360 12:38 24.12.2019
5524 Clouds 22 1018 49 10000 5.1 360 12:38 24.12.2019
5525 Haze 22 1020 46 9000 3.1 340 12:19 24.12.2019
5526 Haze 22 1020 46 9000 3.1 340 12:19 24.12.2019
5527 Clouds 22 1019 49 10000 5.1 360 11:58 24.12.2019
5528 Clouds 22 1019 49 10000 5.1 350 11:38 24.12.2019
5529 Clouds 22 1019 49 10000 5.1 360 11:38 24.12.2019
5530 Clouds 22 1019 49 10000 5.1 350 11:20 24.12.2019
5531 Clear 22 1019 46 10000 3.6 310 10:57 24.12.2019
5532 Clear 22 1020 43 10000 4.1 300 10:38 24.12.2019
5533 Clear 22 1020 43 10000 4.1 300 10:20 24.12.2019
5534 Clear 22 1020 43 10000 3.6 330 09:58 24.12.2019
5535 Clear 22 1021 49 10000 3.1 310 09:40 24.12.2019
5536 Clear 22 1021 49 10000 3.1 310 09:21 24.12.2019
5537 Clear 21 1021 49 10000 3.6 290 08:47 24.12.2019
5538 Clear 20 1021 52 10000 4.1 290 08:25 24.12.2019
5539 Clear 19 1021 52 9000 4.1 290 07:59 24.12.2019
5540 Clear 19 1021 52 9000 4.1 290 07:39 24.12.2019
5541 Clear 18 1021 52 7000 3.1 290 07:21 24.12.2019
5542 Clear 18 1021 60 7000 3.6 300 06:40 24.12.2019
5543 Mist 17 1022 77 8000 4.6 320 06:22 24.12.2019
5544 Clear 17 1021 68 7000 2.6 290 05:55 24.12.2019
5545 Clear 17 1020 72 7000 3.1 300 05:19 24.12.2019
5546 Clear 17 1020 68 8000 2.6 290 04:21 24.12.2019
5547 Clear 17 1019 68 9000 3.1 300 03:48 24.12.2019
5548 Clear 17 1018 68 10000 3.1 300 02:29 24.12.2019
5549 Clouds 17 1018 63 10000 2.6 290 01:57 24.12.2019
5550 Clear 17 1018 63 10000 2.1 300 01:27 24.12.2019
5551 Clear 17 1018 63 10000 2.6 310 00:58 24.12.2019
5552 Clear 17 1018 63 10000 2.6 310 00:40 24.12.2019
5553 Clear 17 1018 68 10000 2.6 290 00:20 24.12.2019
5554 Clear 17 1018 63 10000 3.1 310 23:43 23.12.2019
5555 Clear 17 1018 63 10000 3.1 310 23:24 23.12.2019
5556 Clear 17 1018 63 10000 3.6 310 22:57 23.12.2019
5557 Clear 17 1018 63 10000 3.6 310 22:38 23.12.2019
5558 Clear 17 1018 63 10000 3.6 310 22:38 23.12.2019
5559 Clear 17 1018 63 10000 3.6 310 22:20 23.12.2019
5560 Clear 17 1018 59 10000 3.1 310 21:57 23.12.2019
5561 Clear 17 1018 59 10000 3.1 310 21:57 23.12.2019
5562 Clear 17 1018 59 10000 3.6 310 21:37 23.12.2019
5563 Clear 17 1018 59 10000 3.6 310 21:19 23.12.2019
5564 Clear 18 1018 55 10000 3.6 310 20:59 23.12.2019
5565 Clear 18 1018 55 10000 3.6 310 20:41 23.12.2019
5566 Clouds 18 1019 55 10000 3.6 300 20:19 23.12.2019
5567 Clouds 18 1019 55 10000 3.6 300 20:19 23.12.2019
5568 Clouds 18 1019 55 10000 3.1 290 19:59 23.12.2019
5569 Clouds 18 1019 55 10000 3.1 290 19:40 23.12.2019
5570 Clouds 18 1019 55 10000 3.1 290 19:40 23.12.2019
5571 Clouds 18 1019 55 10000 3.1 290 19:21 23.12.2019
5572 Clouds 19 1019 55 10000 4.1 300 18:58 23.12.2019
5573 Clouds 19 1019 55 10000 4.1 300 18:39 23.12.2019
5574 Clouds 19 1019 55 10000 4.1 310 18:21 23.12.2019
5575 Clouds 19 1019 55 10000 3.6 310 17:59 23.12.2019
5576 Clouds 19 1019 55 10000 3.6 310 17:40 23.12.2019
5577 Haze 19 1020 59 9000 3.1 320 17:19 23.12.2019
5578 Clouds 20 1018 52 10000 4.1 310 16:58 23.12.2019
5579 Clouds 20 1018 52 10000 4.1 310 16:40 23.12.2019
5580 Clouds 20 1018 52 10000 4.1 310 16:19 23.12.2019
5581 Clouds 20 1018 52 10000 4.1 310 16:19 23.12.2019
5582 Clouds 20 1018 52 10000 4.6 320 15:57 23.12.2019
5583 Clouds 20 1018 52 10000 4.6 320 15:57 23.12.2019
5584 Clouds 20 1018 52 10000 4.6 320 15:37 23.12.2019
5585 Clouds 20 1018 52 10000 4.1 320 15:19 23.12.2019
5586 Clouds 21 1018 49 10000 4.6 310 14:56 23.12.2019
5587 Clouds 21 1018 49 10000 4.6 310 14:38 23.12.2019
5588 Haze 22 1019 46 9000 6.2 330 14:19 23.12.2019
5589 Clouds 22 1017 49 10000 4.6 310 13:56 23.12.2019
5590 Clouds 22 1017 49 10000 4.6 310 13:38 23.12.2019
5591 Clouds 22 1018 49 10000 4.6 320 13:20 23.12.2019
5592 Clouds 22 1017 53 10000 5.7 330 12:55 23.12.2019
5593 Clouds 22 1017 53 10000 5.7 330 12:36 23.12.2019
5594 Haze 22 1019 46 9000 6.2 340 12:18 23.12.2019
5595 Clouds 22 1018 53 10000 5.1 320 11:42 23.12.2019
5596 Clouds 22 1018 53 10000 5.1 320 11:42 23.12.2019
5597 Clouds 22 1018 49 10000 5.1 330 11:24 23.12.2019
5598 Clouds 22 1018 46 10000 4.6 310 10:56 23.12.2019
5599 Clouds 22 1018 46 10000 4.6 310 10:38 23.12.2019
5600 Haze 22 1020 46 9000 5.1 340 10:20 23.12.2019
5601 Clouds 22 1019 49 10000 5.1 320 09:58 23.12.2019
5602 Clouds 22 1019 49 10000 5.1 320 09:39 23.12.2019
5603 Clouds 23 1020 46 10000 5.1 310 09:19 23.12.2019
5604 Clouds 21 1020 53 10000 5.1 300 08:55 23.12.2019
5605 Clouds 21 1020 53 10000 5.1 300 08:37 23.12.2019
5606 Clear 21 1021 53 10000 5.7 300 08:18 23.12.2019
5607 Clear 20 1021 60 10000 5.1 310 07:42 23.12.2019
5608 Clear 20 1021 60 9000 4.6 300 07:19 23.12.2019
5609 Clouds 19 1021 68 8000 3.1 300 06:45 23.12.2019
5610 Clouds 18 1021 72 7000 3.1 300 06:23 23.12.2019
5611 Clouds 18 1020 72 8000 2.6 300 05:47 23.12.2019
5612 Clouds 18 1020 72 8000 3.1 300 05:18 23.12.2019
5613 Clear 18 1020 77 10000 3.1 310 04:19 23.12.2019
5614 Clear 18 1019 72 10000 3.6 300 02:48 23.12.2019
5615 Clear 17 1019 77 10000 3.1 310 02:20 23.12.2019
5616 Clear 17 1019 77 10000 3.6 310 01:51 23.12.2019
5617 Clear 17 1019 77 10000 3.6 310 01:32 23.12.2019
5618 Clear 17 1019 77 10000 3.6 310 01:32 23.12.2019
5619 Clear 18 1019 72 10000 3.1 300 00:54 23.12.2019
5620 Clear 18 1019 72 10000 3.1 300 00:35 23.12.2019
5621 Clear 18 1019 68 10000 3.6 310 23:57 22.12.2019
5622 Clear 18 1019 68 10000 3.6 310 23:38 22.12.2019
5623 Clear 18 1020 68 10000 4.1 310 23:20 22.12.2019
5624 Clear 18 1020 68 10000 4.1 310 22:57 22.12.2019
5625 Clear 18 1020 68 10000 4.1 310 22:38 22.12.2019
5626 Clear 18 1020 68 10000 4.1 310 22:19 22.12.2019
5627 Clear 19 1020 68 10000 3.6 310 21:56 22.12.2019
5628 Clear 19 1020 68 10000 3.6 310 21:38 22.12.2019
5629 Clear 19 1020 68 10000 3.6 310 21:20 22.12.2019
5630 Clear 19 1020 68 10000 3.1 310 20:43 22.12.2019
5631 Clear 19 1020 64 10000 3.6 310 20:20 22.12.2019
5632 Clear 19 1020 68 10000 3.1 320 19:58 22.12.2019
5633 Clear 19 1020 68 10000 3.1 320 19:40 22.12.2019
5634 Clear 19 1020 64 10000 3.6 320 19:20 22.12.2019
5635 Clear 19 1020 64 10000 3.1 320 18:58 22.12.2019
5636 Clear 19 1020 64 10000 3.1 320 18:38 22.12.2019
5637 Clear 19 1020 64 10000 4.1 330 18:19 22.12.2019
5638 Clear 19 1021 68 10000 4.1 320 17:55 22.12.2019
5639 Clouds 19 1020 68 10000 5.1 330 17:37 22.12.2019
5640 Clouds 19 1020 68 10000 5.1 330 17:18 22.12.2019
5641 Clouds 21 1020 64 10000 2.6 330 16:42 22.12.2019
5642 Clouds 20 1020 60 10000 2.1 340 16:23 22.12.2019
5643 Clouds 21 1019 52 10000 2.1 360 15:58 22.12.2019
5644 Clouds 21 1019 52 10000 2.1 360 15:39 22.12.2019
5645 Clouds 22 1019 43 10000 2.1 10 15:21 22.12.2019
5646 Clouds 22 1019 40 10000 2.1 10 14:59 22.12.2019
5647 Clouds 22 1019 40 10000 2.1 10 14:38 22.12.2019
5648 Haze 22 1020 60 9000 6.2 310 14:19 22.12.2019
5649 Clouds 23 1019 35 10000 3.6 360 13:56 22.12.2019
5650 Clouds 23 1019 35 10000 3.6 360 13:38 22.12.2019
5651 Clouds 23 1019 35 10000 3.6 360 13:38 22.12.2019
5652 Clouds 23 1019 38 10000 3.6 10 13:19 22.12.2019
5653 Clouds 23 1019 35 10000 3.6 10 12:57 22.12.2019
5654 Clouds 23 1019 35 10000 3.6 10 12:57 22.12.2019
5655 Clouds 23 1019 35 10000 3.6 10 12:38 22.12.2019
5656 Haze 23 1020 49 9000 7.7 340 12:19 22.12.2019
5657 Haze 23 1020 49 9000 7.7 340 12:19 22.12.2019
5658 Haze 23 1020 49 9000 7.7 340 12:19 22.12.2019
5659 Clouds 23 1019 40 10000 4.1 350 11:58 22.12.2019
5660 Clouds 23 1019 40 10000 4.1 350 11:39 22.12.2019
5661 Clouds 23 1019 46 10000 4.6 340 11:20 22.12.2019
5662 Clouds 23 1020 41 10000 3.1 330 10:57 22.12.2019
5663 Clouds 23 1020 41 10000 3.1 330 10:39 22.12.2019
5664 Clouds 22 1020 46 10000 3.6 330 10:19 22.12.2019
5665 Clouds 22 1021 46 10000 4.1 320 09:58 22.12.2019
5666 Clouds 22 1021 46 10000 4.1 320 09:39 22.12.2019
5667 Clouds 21 1022 56 10000 4.6 310 09:21 22.12.2019
5668 Clouds 21 1022 56 10000 4.6 310 08:45 22.12.2019
5669 Haze 20 1024 68 9000 7.2 310 08:23 22.12.2019
5670 Clouds 20 1022 56 10000 4.1 300 07:50 22.12.2019
5671 Haze 19 1024 72 9000 7.2 300 07:22 22.12.2019
5672 Clouds 19 1022 64 9000 3.1 300 06:56 22.12.2019
5673 Mist 18 1023 68 8000 6.2 300 06:27 22.12.2019
5674 Clouds 18 1022 68 9000 3.1 300 05:41 22.12.2019
5675 Mist 17 1023 82 6000 4.6 300 05:20 22.12.2019
5676 Mist 17 1022 82 8000 3.6 320 04:26 22.12.2019
5677 Clear 18 1020 72 10000 3.1 300 02:56 22.12.2019
5678 Clear 18 1020 72 10000 4.1 300 02:34 22.12.2019
5679 Mist 17 1019 77 9000 6.2 320 01:32 22.12.2019
5680 Clear 17 1020 72 10000 4.6 300 00:57 22.12.2019
5681 Clear 17 1020 72 10000 4.6 300 00:38 22.12.2019
5682 Mist 17 1021 77 8000 4.1 330 00:20 22.12.2019
5683 Clear 17 1020 77 10000 4.1 300 23:41 21.12.2019
5684 Mist 18 1021 77 8000 4.1 320 23:22 21.12.2019
5685 Clear 18 1020 72 10000 3.6 300 22:57 21.12.2019
5686 Clear 18 1020 72 10000 3.6 300 22:39 21.12.2019
5687 Mist 18 1022 82 8000 3.1 320 22:18 21.12.2019
5688 Clear 18 1020 72 10000 3.1 290 21:56 21.12.2019
5689 Clear 18 1020 72 10000 3.1 290 21:37 21.12.2019
5690 Clear 19 1021 72 10000 3.6 290 21:18 21.12.2019
5691 Clear 18 1021 72 10000 3.6 290 20:57 21.12.2019
5692 Mist 17 1022 82 8000 6.2 320 20:37 21.12.2019
5693 Mist 17 1022 82 8000 6.2 320 20:37 21.12.2019
5694 Mist 19 1022 82 8000 6.2 320 20:19 21.12.2019
5695 Clear 19 1021 68 10000 3.6 300 19:56 21.12.2019
5696 Clear 19 1021 68 10000 3.6 300 19:36 21.12.2019
5697 Mist 19 1022 82 8000 4.6 320 19:18 21.12.2019
5698 Clear 19 1021 68 10000 4.1 310 18:42 21.12.2019
5699 Mist 19 1022 77 8000 3.6 340 18:23 21.12.2019
5700 Clear 19 1021 68 10000 3.6 320 17:57 21.12.2019
5701 Clear 19 1021 68 10000 3.6 320 17:39 21.12.2019
5702 Mist 20 1022 77 9000 4.1 340 17:20 21.12.2019
5703 Clear 21 1021 60 10000 4.6 330 16:57 21.12.2019
5704 Clear 21 1021 60 10000 4.6 330 16:39 21.12.2019
5705 Haze 21 1022 68 9000 7.2 340 16:18 21.12.2019
5706 Haze 20 1022 64 9000 4.6 340 15:56 21.12.2019
5707 Haze 20 1022 64 9000 4.6 340 15:37 21.12.2019
5708 Clouds 22 1020 56 10000 5.7 350 15:18 21.12.2019
5709 Clouds 22 1020 56 10000 5.7 350 14:42 21.12.2019
5710 Clouds 23 1020 43 10000 4.6 360 14:23 21.12.2019
5711 Clouds 23 1020 43 10000 4.6 360 13:58 21.12.2019
5712 Clouds 23 1020 43 10000 4.6 360 13:58 21.12.2019
5713 Clouds 23 1020 43 10000 4.6 360 13:40 21.12.2019
5714 Haze 23 1021 49 9000 7.2 340 13:19 21.12.2019
5715 Clouds 23 1020 44 10000 5.7 350 12:57 21.12.2019
5716 Clouds 23 1020 44 10000 5.7 350 12:38 21.12.2019
5717 Haze 23 1021 49 9000 6.2 340 12:20 21.12.2019
5718 Clouds 23 1020 49 10000 6.2 350 11:55 21.12.2019
5719 Clouds 23 1020 49 10000 6.2 350 11:37 21.12.2019
5720 Haze 22 1021 53 9000 5.7 340 11:19 21.12.2019
5721 Clouds 22 1021 49 10000 4.6 330 10:41 21.12.2019
5722 Haze 22 1022 56 9000 6.7 340 10:22 21.12.2019
5723 Clear 22 1022 56 10000 5.1 310 09:58 21.12.2019
5724 Clear 22 1022 56 10000 5.1 310 09:39 21.12.2019
5725 Clear 21 1023 60 10000 4.1 290 09:19 21.12.2019
5726 Clear 21 1023 60 10000 4.1 290 08:51 21.12.2019
5727 Haze 20 1024 72 9000 4.6 310 08:27 21.12.2019
5728 Clear 20 1023 64 10000 4.6 290 07:58 21.12.2019
5729 Clear 20 1023 64 10000 4.6 290 07:58 21.12.2019
5730 Clear 20 1023 64 10000 4.6 290 07:39 21.12.2019
5731 Mist 19 1025 77 8000 4.6 310 07:20 21.12.2019
5732 Clear 19 1023 72 8000 3.1 280 06:40 21.12.2019
5733 Mist 17 1024 88 5000 3.6 300 06:22 21.12.2019
5734 Mist 17 1023 87 3200 5.64 298 05:25 21.12.2019
5735 Clouds 17 1021 82 7000 2.1 270 04:55 21.12.2019
5736 Clouds 17 1021 82 7000 2.6 280 03:56 21.12.2019
5737 Mist 17 1022 93 4000 3.1 310 02:25 21.12.2019
5738 Clouds 17 1021 82 7000 2.6 280 01:50 21.12.2019
5739 Mist 17 1022 87 4000 3.1 320 01:25 21.12.2019
5740 Clear 17 1021 82 7000 3.6 300 00:48 21.12.2019
5741 Mist 17 1022 93 3200 3.1 310 00:28 21.12.2019
5742 Clear 17 1021 88 8000 3.6 310 23:39 20.12.2019
5743 Clear 17 1021 88 8000 3.6 310 23:39 20.12.2019
5744 Mist 18 1022 93 4000 3.6 320 23:21 20.12.2019
5745 Clear 18 1021 82 10000 3.6 310 22:59 20.12.2019
5746 Clear 18 1021 82 10000 3.6 310 22:39 20.12.2019
5747 Mist 18 1022 93 3200 2.6 330 22:19 20.12.2019
5748 Clear 18 1021 82 10000 3.6 310 21:42 20.12.2019
5749 Mist 19 1022 93 6000 3.1 330 21:21 20.12.2019
5750 Clear 19 1021 72 10000 3.1 310 20:59 20.12.2019
5751 Clear 19 1021 72 10000 3.1 310 20:38 20.12.2019
5752 Clear 19 1021 72 10000 3.1 310 20:38 20.12.2019
5753 Mist 19 1023 93 6000 3.6 330 20:19 20.12.2019
5754 Clear 19 1021 72 10000 2.6 320 19:56 20.12.2019
5755 Clear 19 1021 72 10000 2.6 320 19:38 20.12.2019
5756 Mist 19 1023 93 6000 3.1 340 19:18 20.12.2019
5757 Clear 19 1021 72 10000 4.1 320 18:41 20.12.2019
5758 Haze 19 1022 88 9000 3.1 340 18:23 20.12.2019
5759 Clear 20 1021 68 10000 4.6 330 17:58 20.12.2019
5760 Clear 20 1021 68 10000 4.6 330 17:40 20.12.2019
5761 Clear 20 1021 68 10000 4.6 330 17:20 20.12.2019
5762 Clear 20 1021 64 10000 5.1 330 16:57 20.12.2019
5763 Clear 20 1021 64 10000 5.1 330 16:38 20.12.2019
5764 Clear 20 1021 64 10000 5.1 330 16:19 20.12.2019
5765 Clouds 21 1020 56 10000 6.2 330 15:55 20.12.2019
5766 Clouds 21 1020 56 10000 6.2 330 15:37 20.12.2019
5767 Clouds 21 1020 56 10000 6.2 330 15:37 20.12.2019
5768 Clouds 21 1020 56 10000 6.2 330 15:19 20.12.2019
5769 Clouds 22 1019 53 10000 7.2 340 14:43 20.12.2019
5770 Clouds 22 1019 53 10000 7.2 340 14:24 20.12.2019
5771 Clouds 23 1019 49 10000 7.7 340 13:57 20.12.2019
5772 Clouds 23 1019 53 10000 8.2 350 13:38 20.12.2019
5773 Clouds 23 1019 53 10000 8.2 350 13:19 20.12.2019
5774 Clouds 23 1019 50 10000 5.7 330 12:57 20.12.2019
5775 Clouds 23 1019 50 10000 5.1 320 12:37 20.12.2019
5776 Clouds 23 1019 50 10000 5.1 320 12:18 20.12.2019
5777 Clouds 22 1019 53 10000 6.2 330 11:57 20.12.2019
5778 Clouds 22 1019 60 10000 5.1 320 11:39 20.12.2019
5779 Clouds 22 1019 60 10000 5.1 320 11:18 20.12.2019
5780 Clouds 22 1019 60 10000 5.1 320 11:18 20.12.2019
5781 Clouds 22 1020 60 10000 5.7 320 10:56 20.12.2019
5782 Clouds 22 1021 64 10000 4.6 310 10:38 20.12.2019
5783 Clouds 22 1021 64 10000 4.6 310 10:19 20.12.2019
5784 Clear 21 1021 64 10000 5.7 300 09:43 20.12.2019
5785 Clear 21 1022 64 10000 4.6 300 09:21 20.12.2019
5786 Clear 20 1022 68 10000 5.1 290 08:57 20.12.2019
5787 Clear 20 1023 68 10000 6.2 290 08:38 20.12.2019
5788 Clear 20 1023 68 10000 6.2 290 08:20 20.12.2019
5789 Clear 20 1023 68 10000 6.2 290 08:20 20.12.2019
5790 Clear 19 1023 68 10000 4.6 290 07:57 20.12.2019
5791 Clear 18 1023 68 10000 4.6 290 07:37 20.12.2019
5792 Clear 18 1023 68 10000 4.6 290 07:18 20.12.2019
5793 Clear 17 1023 68 10000 4.1 280 06:44 20.12.2019
5794 Clear 17 1023 68 10000 4.1 280 06:26 20.12.2019
5795 Clear 16 1022 68 10000 4.1 280 05:47 20.12.2019
5796 Clear 16 1022 72 10000 4.1 280 05:18 20.12.2019
5797 Clear 16 1021 72 9000 3.6 290 03:49 20.12.2019
5798 Clear 16 1021 72 9000 4.1 290 03:20 20.12.2019
5799 Clear 16 1021 72 9000 4.6 290 02:20 20.12.2019
5800 Clear 16 1021 72 9000 4.6 290 01:36 20.12.2019
5801 Clear 17 1021 72 9000 4.6 300 00:57 20.12.2019
5802 Clear 17 1021 72 9000 4.6 290 00:35 20.12.2019
5803 Clear 17 1021 77 9000 5.7 290 23:58 19.12.2019
5804 Clear 17 1021 77 9000 5.7 290 23:58 19.12.2019
5805 Clear 17 1021 72 9000 5.7 300 23:40 19.12.2019
5806 Clear 17 1021 72 9000 5.7 300 23:21 19.12.2019
5807 Clear 18 1021 72 9000 6.2 290 22:40 19.12.2019
5808 Clear 18 1021 72 9000 6.2 290 22:22 19.12.2019
5809 Clear 18 1021 77 9000 6.2 300 21:59 19.12.2019
5810 Clear 18 1021 77 9000 5.7 300 21:41 19.12.2019
5811 Clear 18 1021 77 9000 5.7 300 21:19 19.12.2019
5812 Clear 18 1021 77 9000 5.7 300 20:57 19.12.2019
5813 Clear 18 1022 77 9000 5.7 300 20:38 19.12.2019
5814 Clear 18 1022 77 9000 5.7 300 20:20 19.12.2019
5815 Clear 18 1022 77 9000 4.6 290 19:58 19.12.2019
5816 Clear 18 1022 77 9000 4.1 290 19:40 19.12.2019
5817 Clear 18 1022 77 9000 4.1 290 19:40 19.12.2019
5818 Clear 18 1022 77 9000 4.1 290 19:19 19.12.2019
5819 Clear 18 1022 77 9000 4.1 290 19:19 19.12.2019
5820 Clear 18 1022 77 9000 4.1 290 19:19 19.12.2019
5821 Clear 18 1022 72 10000 4.6 300 18:58 19.12.2019
5822 Clear 18 1022 72 10000 5.1 290 18:40 19.12.2019
5823 Clear 18 1022 72 10000 5.1 290 18:20 19.12.2019
5824 Clear 19 1022 72 10000 5.1 300 17:56 19.12.2019
5825 Clear 19 1022 72 10000 4.6 300 17:38 19.12.2019
5826 Clear 19 1022 72 10000 4.6 300 17:18 19.12.2019
5827 Clear 19 1022 72 10000 5.1 300 16:56 19.12.2019
5828 Clear 19 1022 72 10000 5.7 310 16:37 19.12.2019
5829 Clear 19 1022 72 10000 5.7 310 16:37 19.12.2019
5830 Clear 19 1022 72 10000 5.7 310 16:19 19.12.2019
5831 Clouds 20 1021 72 10000 5.7 310 15:57 19.12.2019
5832 Clouds 20 1021 72 10000 5.7 310 15:57 19.12.2019
5833 Clouds 20 1021 68 9000 5.1 310 15:37 19.12.2019
5834 Clouds 20 1021 68 9000 5.1 310 15:19 19.12.2019
5835 Clouds 20 1021 64 10000 5.1 310 14:54 19.12.2019
5836 Clouds 20 1021 64 10000 6.2 310 14:36 19.12.2019
5837 Clouds 20 1021 64 10000 6.2 310 14:18 19.12.2019
5838 Clouds 21 1020 56 10000 5.1 310 13:38 19.12.2019
5839 Clouds 21 1020 56 10000 5.1 310 13:38 19.12.2019
5840 Clouds 21 1020 56 10000 5.1 310 13:20 19.12.2019
5841 Clouds 21 1020 60 10000 6.7 320 12:58 19.12.2019
5842 Clouds 21 1021 60 10000 5.1 310 12:40 19.12.2019
5843 Clouds 21 1021 60 10000 5.1 310 12:19 19.12.2019
5844 Clouds 21 1021 60 10000 5.1 310 12:19 19.12.2019
5845 Clouds 21 1021 60 10000 5.1 310 12:19 19.12.2019
5846 Clouds 21 1021 60 10000 6.2 310 11:59 19.12.2019
5847 Clouds 21 1021 64 10000 5.1 310 11:40 19.12.2019
5848 Clouds 21 1021 64 10000 5.1 310 11:18 19.12.2019
5849 Clouds 21 1021 64 10000 5.7 310 10:58 19.12.2019
5850 Clouds 21 1021 64 10000 5.7 310 10:58 19.12.2019
5851 Clouds 21 1022 64 10000 6.2 300 10:38 19.12.2019
5852 Clouds 21 1022 64 10000 6.2 300 10:20 19.12.2019
5853 Clear 21 1022 60 10000 5.1 300 09:56 19.12.2019
5854 Clear 21 1023 64 10000 4.6 300 09:37 19.12.2019
5855 Clear 20 1023 64 10000 4.6 300 09:19 19.12.2019
5856 Clear 20 1023 68 10000 5.1 310 08:55 19.12.2019
5857 Clear 20 1023 68 10000 4.6 300 08:36 19.12.2019
5858 Clouds 20 1023 68 10000 4.6 300 08:18 19.12.2019
5859 Clouds 19 1024 68 10000 4.6 300 07:40 19.12.2019
5860 Clouds 19 1024 68 10000 4.6 300 07:22 19.12.2019
5861 Clouds 18 1024 72 10000 4.6 300 06:58 19.12.2019
5862 Clouds 18 1023 77 10000 5.1 300 06:39 19.12.2019
5863 Clouds 18 1023 77 10000 5.1 300 06:21 19.12.2019
5864 Clouds 17 1023 77 10000 4.6 290 05:42 19.12.2019
5865 Clouds 17 1023 77 10000 4.6 290 05:19 19.12.2019
5866 Clouds 17 1022 77 10000 4.6 300 03:51 19.12.2019
5867 Clouds 17 1021 77 10000 5.1 300 02:28 19.12.2019
5868 Clouds 17 1022 77 10000 4.6 290 01:24 19.12.2019
5869 Clouds 18 1021 77 10000 4.6 290 00:57 19.12.2019
5870 Clouds 18 1021 77 10000 4.6 300 00:38 19.12.2019
5871 Clouds 18 1021 77 10000 4.6 300 00:19 19.12.2019
5872 Clouds 18 1021 77 10000 4.6 300 00:19 19.12.2019
5873 Clouds 18 1021 77 10000 3.6 290 23:44 18.12.2019
5874 Clouds 18 1021 77 10000 4.6 290 23:19 18.12.2019
5875 Clouds 18 1022 77 10000 4.1 290 22:56 18.12.2019
5876 Clouds 18 1021 77 10000 4.1 290 22:38 18.12.2019
5877 Clouds 18 1021 77 10000 4.1 290 22:20 18.12.2019
5878 Clouds 18 1021 77 10000 4.1 290 21:58 18.12.2019
5879 Clouds 18 1021 72 10000 3.6 300 21:39 18.12.2019
5880 Clouds 18 1021 72 10000 3.6 300 21:39 18.12.2019
5881 Clouds 18 1021 72 10000 3.6 300 21:20 18.12.2019
5882 Clouds 18 1022 72 10000 3.6 300 20:57 18.12.2019
5883 Clouds 18 1022 72 10000 5.1 300 20:38 18.12.2019
5884 Clouds 18 1022 72 10000 5.1 300 20:20 18.12.2019
5885 Clouds 18 1022 72 10000 4.6 300 19:56 18.12.2019
5886 Clouds 18 1022 72 10000 4.6 300 19:38 18.12.2019
5887 Clouds 18 1022 72 10000 4.6 300 19:38 18.12.2019
5888 Clouds 18 1022 72 10000 4.6 300 19:18 18.12.2019
5889 Clouds 18 1021 72 10000 4.6 310 18:54 18.12.2019
5890 Clouds 18 1022 77 10000 4.6 310 18:36 18.12.2019
5891 Clouds 18 1022 77 10000 4.6 310 18:18 18.12.2019
5892 Clouds 19 1022 77 10000 4.6 300 17:55 18.12.2019
5893 Clouds 19 1022 77 10000 4.6 310 17:37 18.12.2019
5894 Clouds 19 1022 77 10000 4.6 310 17:18 18.12.2019
5895 Clouds 19 1021 77 10000 4.6 310 16:42 18.12.2019
5896 Clouds 19 1021 77 10000 4.1 310 16:23 18.12.2019
5897 Clouds 19 1021 77 10000 3.6 310 15:57 18.12.2019
5898 Clouds 19 1021 77 10000 3.6 310 15:39 18.12.2019
5899 Clouds 19 1021 77 10000 4.1 310 15:21 18.12.2019
5900 Clouds 19 1020 77 10000 4.1 310 14:56 18.12.2019
5901 Clouds 19 1020 77 10000 4.1 310 14:36 18.12.2019
5902 Clouds 19 1020 72 10000 4.6 320 14:18 18.12.2019
5903 Clouds 19 1020 77 10000 4.6 310 13:54 18.12.2019
5904 Clouds 19 1020 77 10000 4.6 310 13:36 18.12.2019
5905 Rain 18 1020 77 10000 4.6 310 13:18 18.12.2019
5906 Rain 18 1020 77 10000 4.6 310 13:18 18.12.2019
5907 Rain 18 1020 77 10000 4.1 300 12:40 18.12.2019
5908 Rain 18 1020 72 10000 4.6 300 12:21 18.12.2019
5909 Rain 19 1020 77 9000 5.1 310 11:57 18.12.2019
5910 Rain 19 1020 77 9000 5.1 310 11:39 18.12.2019
5911 Clouds 19 1020 77 10000 4.6 310 11:20 18.12.2019
5912 Rain 19 1020 72 9000 4.6 310 10:58 18.12.2019
5913 Rain 19 1020 72 9000 4.6 310 10:39 18.12.2019
5914 Clouds 19 1020 72 10000 5.1 310 10:20 18.12.2019
5915 Clouds 19 1021 72 10000 5.1 310 09:57 18.12.2019
5916 Clouds 19 1021 72 10000 4.6 310 09:20 18.12.2019
5917 Clouds 19 1022 77 10000 4.6 310 08:43 18.12.2019
5918 Clouds 19 1022 72 10000 5.7 310 08:24 18.12.2019
5919 Clouds 19 1022 72 10000 5.7 300 07:57 18.12.2019
5920 Clouds 19 1022 72 10000 5.7 300 07:39 18.12.2019
5921 Rain 20 1023 72 10000 5.1 300 07:20 18.12.2019
5922 Rain 19 1022 77 10000 4.6 300 06:52 18.12.2019
5923 Rain 19 1021 72 10000 4.1 310 06:24 18.12.2019
5924 Rain 19 1021 77 5000 5.1 320 05:35 18.12.2019
5925 Rain 19 1021 77 5000 5.1 320 05:35 18.12.2019
5926 Rain 19 1020 82 10000 5.7 310 03:49 18.12.2019
5927 Clouds 20 1019 77 10000 5.1 320 02:46 18.12.2019
5928 Clouds 20 1019 77 10000 4.6 320 02:27 18.12.2019
5929 Clouds 20 1019 77 10000 6.7 320 01:44 18.12.2019
5930 Clouds 20 1019 77 10000 7.7 320 01:25 18.12.2019
5931 Clouds 20 1019 73 10000 7.2 330 00:42 18.12.2019
5932 Clouds 20 1019 77 10000 7.2 320 00:24 18.12.2019
5933 Clouds 20 1019 73 10000 6.7 310 23:59 17.12.2019
5934 Clouds 20 1019 73 10000 6.7 310 23:59 17.12.2019
5935 Clouds 20 1019 73 10000 6.7 310 23:59 17.12.2019
5936 Rain 20 1019 73 10000 6.2 310 23:40 17.12.2019
5937 Rain 20 1019 73 10000 6.2 310 23:21 17.12.2019
5938 Clouds 21 1019 73 10000 5.7 330 22:57 17.12.2019
5939 Clouds 21 1019 73 10000 5.7 330 22:39 17.12.2019
5940 Clouds 21 1019 73 10000 6.2 310 22:19 17.12.2019
5941 Clouds 21 1019 73 10000 6.7 310 21:57 17.12.2019
5942 Rain 21 1019 77 10000 7.2 320 21:38 17.12.2019
5943 Rain 21 1019 77 10000 7.2 320 21:20 17.12.2019
5944 Clouds 21 1019 77 10000 5.7 310 20:59 17.12.2019
5945 Clouds 21 1019 77 10000 6.2 320 20:39 17.12.2019
5946 Clouds 21 1019 77 10000 6.2 320 20:19 17.12.2019
5947 Rain 21 1019 83 10000 5.7 320 19:57 17.12.2019
5948 Rain 21 1019 83 10000 5.7 320 19:39 17.12.2019
5949 Rain 21 1019 83 8000 6.2 320 19:19 17.12.2019
5950 Rain 21 1019 77 9000 5.7 320 18:57 17.12.2019
5951 Rain 21 1019 77 9000 5.7 320 18:57 17.12.2019
5952 Clouds 21 1019 73 10000 6.2 320 18:37 17.12.2019
5953 Clouds 21 1019 73 10000 6.2 320 18:19 17.12.2019
5954 Clouds 21 1018 78 10000 6.7 320 17:54 17.12.2019
5955 Clouds 21 1018 78 10000 5.7 330 17:36 17.12.2019
5956 Clouds 22 1018 78 10000 5.7 330 17:18 17.12.2019
5957 Clouds 21 1018 83 10000 5.7 330 16:54 17.12.2019
5958 Clouds 22 1017 73 10000 7.7 320 16:36 17.12.2019
5959 Clouds 21 1017 73 10000 7.7 320 16:18 17.12.2019
5960 Clouds 21 1017 73 10000 7.7 320 15:38 17.12.2019
5961 Rain 21 1017 78 9000 7.2 330 15:20 17.12.2019
5962 Clouds 22 1016 78 10000 5.7 330 14:56 17.12.2019
5963 Clouds 22 1016 78 10000 5.7 330 14:38 17.12.2019
5964 Clouds 22 1016 73 9000 6.7 320 14:19 17.12.2019
5965 Clouds 22 1016 73 9000 6.7 320 14:19 17.12.2019
5966 Clouds 23 1016 78 9000 6.2 340 13:56 17.12.2019
5967 Clouds 23 1016 78 9000 6.2 340 13:38 17.12.2019
5968 Clouds 23 1015 78 9000 6.2 340 13:19 17.12.2019
5969 Clouds 23 1015 78 9000 5.7 330 12:58 17.12.2019
5970 Rain 23 1015 78 9000 5.7 330 12:38 17.12.2019
5971 Rain 23 1015 78 9000 5.7 330 12:38 17.12.2019
5972 Rain 23 1015 78 9000 5.7 330 12:18 17.12.2019
5973 Clouds 22 1015 78 8000 5.7 310 11:56 17.12.2019
5974 Clouds 22 1015 78 6000 5.7 320 11:36 17.12.2019
5975 Clouds 22 1015 78 6000 5.7 320 11:36 17.12.2019
5976 Clouds 22 1015 78 6000 5.7 320 11:18 17.12.2019
5977 Haze 23 1015 78 5000 5.7 320 10:56 17.12.2019
5978 Haze 23 1016 73 5000 5.1 300 10:37 17.12.2019
5979 Haze 23 1016 73 5000 5.1 300 10:19 17.12.2019
5980 Haze 26 1018 61 5000 5.1 240 09:42 17.12.2019
5981 Clouds 26 1016 54 10000 5.7 220 09:22 17.12.2019
5982 Clouds 25 1017 57 10000 5.7 220 08:58 17.12.2019
5983 Clouds 25 1017 57 10000 5.7 220 08:40 17.12.2019
5984 Clouds 24 1017 61 10000 5.1 210 08:21 17.12.2019
5985 Clouds 24 1017 61 10000 5.1 220 07:58 17.12.2019
5986 Clouds 24 1017 61 10000 5.1 220 07:39 17.12.2019
5987 Clouds 24 1017 65 10000 5.7 200 07:21 17.12.2019
5988 Clouds 23 1017 69 10000 4.1 200 06:42 17.12.2019
5989 Clouds 23 1017 69 10000 4.1 200 06:24 17.12.2019
5990 Clouds 23 1017 69 10000 4.1 200 06:24 17.12.2019
5991 Clouds 23 1015 69 10000 4.1 200 05:41 17.12.2019
5992 Clouds 23 1015 73 10000 4.6 170 04:51 17.12.2019
5993 Clouds 23 1013 73 10000 5.1 150 03:40 17.12.2019
5994 Clouds 24 1012 78 10000 6.7 130 02:22 17.12.2019
5995 Clouds 24 1012 83 10000 7.7 120 01:21 17.12.2019
5996 Clouds 24 1012 83 10000 8.7 120 00:45 17.12.2019
5997 Clouds 24 1012 83 10000 9.8 120 00:21 17.12.2019
5998 Clouds 24 1012 83 10000 8.7 110 23:44 16.12.2019
5999 Clear 24 1013 83 10000 8.7 110 23:20 16.12.2019
6000 Clear 24 1013 83 10000 7.7 110 22:58 16.12.2019
6001 Clear 24 1013 83 10000 7.7 110 22:39 16.12.2019
6002 Clear 24 1013 83 10000 7.7 100 22:20 16.12.2019
6003 Clear 24 1013 83 10000 8.7 100 21:57 16.12.2019
6004 Clear 24 1013 83 10000 8.7 100 21:39 16.12.2019
6005 Clear 24 1013 78 10000 9.3 100 21:20 16.12.2019
6006 Clear 24 1013 78 10000 8.7 100 20:58 16.12.2019
6007 Clear 24 1013 78 10000 8.7 100 20:39 16.12.2019
6008 Clouds 24 1014 78 10000 8.2 100 20:19 16.12.2019
6009 Clouds 24 1014 78 10000 7.2 100 19:57 16.12.2019
6010 Clouds 24 1014 78 10000 8.7 100 19:37 16.12.2019
6011 Clouds 24 1014 78 10000 8.7 100 19:19 16.12.2019
6012 Clouds 24 1013 78 10000 9.3 90 18:59 16.12.2019
6013 Clouds 24 1013 78 10000 9.3 90 18:40 16.12.2019
6014 Clouds 24 1013 78 10000 9.3 90 18:20 16.12.2019
6015 Clouds 24 1013 78 10000 7.7 80 17:58 16.12.2019
6016 Clouds 24 1014 78 10000 7.7 80 17:40 16.12.2019
6017 Clouds 24 1014 78 10000 7.7 80 17:21 16.12.2019
6018 Clouds 24 1014 73 10000 7.7 80 16:57 16.12.2019
6019 Clouds 24 1013 73 10000 8.2 80 16:39 16.12.2019
6020 Clouds 24 1013 73 10000 8.2 80 16:20 16.12.2019
6021 Clouds 24 1013 73 10000 7.7 90 15:59 16.12.2019
6022 Clouds 24 1013 73 10000 7.7 90 15:59 16.12.2019
6023 Clouds 24 1013 73 10000 7.7 90 15:39 16.12.2019
6024 Clouds 24 1013 73 10000 6.7 90 15:20 16.12.2019
6025 Clouds 24 1013 73 10000 6.7 80 14:57 16.12.2019
6026 Clouds 24 1013 73 10000 6.7 80 14:37 16.12.2019
6027 Clouds 24 1013 73 10000 6.7 80 14:37 16.12.2019
6028 Clouds 24 1013 69 10000 7.7 90 14:19 16.12.2019
6029 Clouds 24 1013 69 10000 7.7 90 14:19 16.12.2019
6030 Clouds 24 1013 69 10000 7.7 90 14:19 16.12.2019
6031 Clouds 24 1013 69 10000 7.7 90 14:19 16.12.2019
6032 Clouds 24 1013 69 10000 7.7 80 13:56 16.12.2019
6033 Clouds 24 1013 69 10000 8.7 80 13:37 16.12.2019
6034 Clouds 24 1013 69 10000 8.7 80 13:19 16.12.2019
6035 Clouds 24 1013 73 10000 8.7 90 12:57 16.12.2019
6036 Clouds 24 1014 73 10000 7.7 90 12:39 16.12.2019
6037 Clouds 24 1014 73 10000 7.7 90 12:19 16.12.2019
6038 Clouds 23 1013 78 10000 8.2 70 11:58 16.12.2019
6039 Clouds 23 1013 78 10000 8.2 70 11:40 16.12.2019
6040 Clouds 24 1014 69 10000 8.7 80 11:20 16.12.2019
6041 Clouds 24 1014 73 10000 8.7 90 10:57 16.12.2019
6042 Clouds 24 1014 73 10000 8.2 80 10:38 16.12.2019
6043 Clouds 24 1014 73 10000 8.2 80 10:19 16.12.2019
6044 Clouds 24 1015 73 10000 8.7 90 09:45 16.12.2019
6045 Clouds 23 1015 78 10000 9.3 70 09:27 16.12.2019
6046 Clouds 23 1016 78 10000 7.7 60 08:55 16.12.2019
6047 Clouds 23 1016 78 10000 7.7 60 08:37 16.12.2019
6048 Clouds 23 1016 78 10000 7.7 60 08:18 16.12.2019
6049 Clouds 23 1017 83 10000 5.7 50 07:42 16.12.2019
6050 Clouds 23 1017 83 10000 5.7 50 07:21 16.12.2019
6051 Rain 22 1016 78 10000 8.2 60 06:45 16.12.2019
6052 Rain 22 1016 78 10000 6.7 50 06:22 16.12.2019
6053 Rain 23 1017 78 10000 4.6 60 05:47 16.12.2019
6054 Rain 23 1016 73 10000 5.7 60 05:29 16.12.2019
6055 Rain 23 1015 73 10000 5.1 70 04:21 16.12.2019
6056 Clouds 23 1014 78 10000 5.1 50 01:58 16.12.2019
6057 Clouds 23 1014 78 10000 5.1 50 01:40 16.12.2019
6058 Clouds 23 1014 78 10000 5.1 50 01:40 16.12.2019
6059 Clouds 23 1014 78 10000 4.6 40 00:42 16.12.2019
6060 Rain 23 1014 83 10000 4.6 60 00:23 16.12.2019
6061 Rain 22 1014 78 10000 6.2 60 23:58 15.12.2019
6062 Rain 22 1014 83 10000 4.6 60 23:38 15.12.2019
6063 Rain 22 1014 83 10000 4.6 60 23:19 15.12.2019
6064 Clouds 22 1016 78 10000 3.1 20 22:55 15.12.2019
6065 Rain 22 1014 78 10000 4.6 80 22:37 15.12.2019
6066 Rain 22 1014 78 10000 4.6 80 22:18 15.12.2019
6067 Clouds 22 1014 73 10000 8.2 100 21:55 15.12.2019
6068 Clouds 22 1014 78 10000 7.2 90 21:37 15.12.2019
6069 Clouds 22 1014 78 10000 7.2 90 21:18 15.12.2019
6070 Rain 22 1015 78 10000 7.2 90 20:55 15.12.2019
6071 Rain 22 1015 83 10000 6.7 90 20:36 15.12.2019
6072 Rain 22 1015 83 10000 6.7 90 20:18 15.12.2019
6073 Rain 22 1015 83 10000 6.7 90 20:18 15.12.2019
6074 Rain 21 1016 88 10000 5.1 90 19:55 15.12.2019
6075 Rain 21 1017 88 10000 4.1 90 19:37 15.12.2019
6076 Rain 21 1017 88 10000 4.1 90 19:18 15.12.2019
6077 Rain 21 1019 94 9000 3.1 20 18:55 15.12.2019
6078 Rain 21 1018 78 10000 2.6 10 18:36 15.12.2019
6079 Rain 21 1018 78 10000 2.6 10 18:18 15.12.2019
6080 Rain 22 1018 83 10000 3.6 80 17:55 15.12.2019
6081 Rain 22 1017 88 10000 5.1 80 17:36 15.12.2019
6082 Rain 22 1017 88 10000 5.1 80 17:18 15.12.2019
6083 Thunderstorm 22 1018 83 8000 3.1 40 16:42 15.12.2019
6084 Thunderstorm 23 1017 73 10000 3.1 20 16:23 15.12.2019
6085 Thunderstorm 23 1016 78 10000 4.6 60 15:57 15.12.2019
6086 Thunderstorm 23 1016 78 10000 4.6 60 15:39 15.12.2019
6087 Thunderstorm 23 1016 78 8000 3.6 70 15:19 15.12.2019
6088 Rain 23 1015 78 10000 5.1 80 14:56 15.12.2019
6089 Clouds 23 1015 73 10000 5.1 70 14:37 15.12.2019
6090 Clouds 23 1015 73 10000 5.1 70 14:19 15.12.2019
6091 Rain 23 1015 73 10000 6.2 70 13:58 15.12.2019
6092 Rain 23 1015 73 10000 6.2 70 13:39 15.12.2019
6093 Rain 23 1015 73 10000 5.1 90 13:20 15.12.2019
6094 Clouds 24 1015 78 10000 5.7 90 12:57 15.12.2019
6095 Clouds 24 1015 78 10000 5.7 90 12:57 15.12.2019
6096 Clouds 24 1015 78 10000 5.7 90 12:39 15.12.2019
6097 Clouds 23 1015 78 10000 5.1 80 12:21 15.12.2019
6098 Rain 23 1016 78 9000 5.1 80 11:59 15.12.2019
6099 Rain 23 1015 88 7000 5.7 90 11:37 15.12.2019
6100 Rain 23 1015 88 7000 5.7 90 11:19 15.12.2019
6101 Rain 24 1017 78 5000 2.6 30 10:55 15.12.2019
6102 Rain 24 1017 78 5000 2.6 30 10:37 15.12.2019
6103 Rain 24 1017 78 8000 4.1 90 10:19 15.12.2019
6104 Clouds 25 1016 73 10000 5.7 80 09:41 15.12.2019
6105 Clouds 25 1017 73 10000 5.1 80 09:20 15.12.2019
6106 Clouds 24 1017 78 10000 4.6 90 08:59 15.12.2019
6107 Clouds 24 1017 78 10000 4.6 90 08:41 15.12.2019
6108 Clouds 24 1018 78 10000 4.6 90 08:22 15.12.2019
6109 Clouds 24 1018 78 10000 4.6 90 08:22 15.12.2019
6110 Clouds 24 1018 83 10000 4.6 80 07:56 15.12.2019
6111 Clouds 24 1018 83 10000 5.1 100 07:36 15.12.2019
6112 Clouds 23 1018 88 9000 2.6 100 06:56 15.12.2019
6113 Clouds 23 1018 83 9000 1 0 06:21 15.12.2019
6114 Clouds 22 1016 88 7000 6.2 130 05:37 15.12.2019
6115 Clouds 22 1016 88 7000 6.2 130 05:18 15.12.2019
6116 Thunderstorm 22 1016 83 10000 1.5 80 03:54 15.12.2019
6117 Clouds 21 1015 78 10000 2.6 70 02:34 15.12.2019
6118 Clouds 22 1015 78 10000 2.6 80 01:50 15.12.2019
6119 Clouds 22 1016 83 10000 2.1 60 01:28 15.12.2019
6120 Clouds 22 1016 83 10000 2.1 80 00:59 15.12.2019
6121 Clouds 22 1016 83 10000 2.1 80 00:41 15.12.2019
6122 Clouds 22 1016 83 10000 1.5 80 00:23 15.12.2019
6123 Clouds 22 1016 83 10000 2.1 30 23:40 14.12.2019
6124 Clouds 22 1016 83 10000 2.1 30 23:40 14.12.2019
6125 Clouds 22 1016 83 10000 2.1 30 23:40 14.12.2019
6126 Clouds 22 1016 83 10000 2.1 30 23:21 14.12.2019
6127 Clouds 22 1016 83 10000 2.1 30 22:58 14.12.2019
6128 Clouds 22 1016 83 10000 2.1 30 22:58 14.12.2019
6129 Clouds 22 1016 83 10000 2.1 30 22:58 14.12.2019
6130 Clouds 22 1016 83 10000 2.1 30 22:40 14.12.2019
6131 Clouds 23 1017 83 10000 1.5 20 22:21 14.12.2019
6132 Clouds 23 1017 88 10000 2.1 20 21:56 14.12.2019
6133 Clouds 23 1017 83 10000 2.1 360 21:38 14.12.2019
6134 Clouds 22 1017 83 10000 2.1 360 21:19 14.12.2019
6135 Clouds 22 1017 83 10000 2.1 360 21:19 14.12.2019
6136 Clouds 22 1017 83 10000 1 20 20:56 14.12.2019
6137 Clouds 22 1017 83 10000 1 20 20:38 14.12.2019
6138 Clouds 22 1017 83 10000 1.5 20 20:19 14.12.2019
6139 Clouds 22 1017 78 10000 1 40 19:55 14.12.2019
6140 Clouds 22 1017 78 10000 1 40 19:36 14.12.2019
6141 Clouds 22 1018 78 10000 3.9 16 19:18 14.12.2019
6142 Clouds 23 1018 78 10000 1 0 18:55 14.12.2019
6143 Clouds 23 1018 78 10000 0.5 10 18:36 14.12.2019
6144 Clouds 23 1018 78 10000 0.5 10 18:18 14.12.2019
6145 Clouds 23 1018 78 10000 0.5 10 18:18 14.12.2019
6146 Clouds 23 1018 78 9000 1 350 17:42 14.12.2019
6147 Clouds 23 1017 78 9000 1 0 17:22 14.12.2019
6148 Clouds 24 1017 73 9000 1.5 360 16:55 14.12.2019
6149 Clouds 24 1017 69 9000 1.5 350 16:37 14.12.2019
6150 Clouds 24 1017 69 9000 1.5 350 16:18 14.12.2019
6151 Clouds 24 1017 64 10000 1 110 15:41 14.12.2019
6152 Clouds 24 1016 61 8000 1 0 15:21 14.12.2019
6153 Clouds 25 1016 61 8000 1.5 50 14:58 14.12.2019
6154 Clouds 25 1016 61 8000 1.5 50 14:38 14.12.2019
6155 Clear 25 1016 65 8000 2.1 20 14:19 14.12.2019
6156 Clear 25 1016 65 8000 2.1 20 14:19 14.12.2019
6157 Clouds 25 1016 61 8000 2.6 20 13:45 14.12.2019
6158 Clouds 25 1016 61 8000 2.6 20 13:45 14.12.2019
6159 Clouds 25 1016 61 8000 3.1 20 13:20 14.12.2019
6160 Clouds 25 1016 61 7000 2.6 20 12:59 14.12.2019
6161 Clouds 26 1016 57 6000 3.1 10 12:41 14.12.2019
6162 Clouds 26 1016 57 6000 3.1 10 12:21 14.12.2019
6163 Clouds 26 1016 57 6000 3.1 10 12:21 14.12.2019
6164 Clouds 26 1016 57 6000 3.1 10 12:21 14.12.2019
6165 Clouds 26 1016 61 6000 4.1 10 11:59 14.12.2019
6166 Clouds 26 1016 57 6000 3.1 360 11:39 14.12.2019
6167 Clouds 26 1016 57 6000 3.1 360 11:20 14.12.2019
6168 Clouds 25 1017 57 6000 2.1 0 10:59 14.12.2019
6169 Clouds 25 1017 57 6000 2.1 0 10:40 14.12.2019
6170 Clouds 25 1017 57 6000 2.1 320 10:22 14.12.2019
6171 Clouds 25 1017 57 6000 3.1 350 09:57 14.12.2019
6172 Clouds 25 1017 57 6000 3.1 350 09:39 14.12.2019
6173 Clouds 24 1018 57 7000 1.5 0 09:19 14.12.2019
6174 Clouds 25 1018 54 7000 1.5 300 08:43 14.12.2019
6175 Clouds 24 1018 57 7000 2.6 300 08:20 14.12.2019
6176 Clouds 24 1018 57 7000 2.1 300 07:44 14.12.2019
6177 Clouds 23 1018 61 7000 2.1 290 07:24 14.12.2019
6178 Clouds 22 1018 69 7000 2.6 300 06:57 14.12.2019
6179 Clouds 22 1018 73 7000 2.6 280 06:38 14.12.2019
6180 Clouds 22 1018 73 7000 2.6 280 06:18 14.12.2019
6181 Clouds 21 1017 83 8000 1.5 280 04:48 14.12.2019
6182 Clouds 21 1016 78 10000 1.5 290 02:41 14.12.2019
6183 Mist 21 1016 88 8000 2.6 300 02:19 14.12.2019
6184 Clouds 21 1015 78 10000 2.1 260 01:37 14.12.2019
6185 Clouds 21 1015 83 10000 2.17 267 00:49 14.12.2019
6186 Clouds 21 1015 83 10000 1 340 00:28 14.12.2019
6187 Clouds 22 1015 83 10000 1 340 23:57 13.12.2019
6188 Clouds 22 1015 78 10000 2.17 267 23:37 13.12.2019
6189 Clouds 22 1015 78 10000 3.16 149 23:18 13.12.2019
6190 Clouds 23 1015 78 10000 0.5 0 22:41 13.12.2019
6191 Clouds 23 1015 78 10000 1.5 130 22:19 13.12.2019
6192 Clouds 23 1014 78 10000 1.5 130 21:56 13.12.2019
6193 Clouds 23 1014 78 10000 1.5 130 21:38 13.12.2019
6194 Clouds 23 1014 78 10000 2.1 130 21:20 13.12.2019
6195 Clouds 23 1014 78 10000 3.1 150 20:54 13.12.2019
6196 Clouds 23 1014 78 10000 3.1 150 20:36 13.12.2019
6197 Clouds 23 1015 78 10000 3.1 140 20:18 13.12.2019
6198 Clouds 23 1015 78 10000 3.1 130 19:41 13.12.2019
6199 Clouds 23 1015 78 10000 3.1 130 19:41 13.12.2019
6200 Clouds 23 1015 78 10000 3.1 130 19:23 13.12.2019
6201 Clouds 23 1014 78 10000 4.1 140 18:59 13.12.2019
6202 Clouds 23 1014 78 10000 4.1 140 18:41 13.12.2019
6203 Clouds 23 1014 78 10000 4.1 140 18:19 13.12.2019
6204 Clouds 23 1014 78 10000 3.6 130 17:57 13.12.2019
6205 Clouds 23 1014 73 10000 2.6 130 17:38 13.12.2019
6206 Clouds 23 1014 73 10000 2.6 130 17:18 13.12.2019
6207 Clouds 23 1014 73 10000 4.1 140 16:54 13.12.2019
6208 Clouds 23 1014 73 10000 3.6 130 16:36 13.12.2019
6209 Clouds 23 1014 73 10000 3.6 130 16:18 13.12.2019
6210 Clouds 24 1013 69 10000 4.1 130 15:38 13.12.2019
6211 Clouds 24 1013 69 10000 4.1 130 15:20 13.12.2019
6212 Clouds 24 1013 69 10000 5.7 120 14:42 13.12.2019
6213 Clouds 24 1013 69 10000 5.7 120 14:22 13.12.2019
6214 Clouds 24 1013 69 10000 5.1 110 13:58 13.12.2019
6215 Clouds 24 1013 69 10000 3.6 100 13:40 13.12.2019
6216 Clouds 24 1013 69 10000 3.6 100 13:21 13.12.2019
6217 Rain 24 1013 69 10000 4.1 110 12:44 13.12.2019
6218 Rain 24 1013 64 10000 4.1 110 12:23 13.12.2019
6219 Rain 24 1013 65 10000 3.1 100 11:58 13.12.2019
6220 Rain 24 1013 69 10000 4.1 130 11:40 13.12.2019
6221 Rain 24 1013 69 10000 4.1 130 11:22 13.12.2019
6222 Rain 24 1013 69 10000 4.1 120 10:55 13.12.2019
6223 Rain 24 1014 64 10000 3.6 120 10:37 13.12.2019
6224 Rain 24 1014 64 10000 3.6 120 10:19 13.12.2019
6225 Rain 24 1015 69 10000 3.1 110 09:39 13.12.2019
6226 Rain 24 1015 69 10000 3.1 110 09:19 13.12.2019
6227 Rain 22 1015 64 10000 1 0 08:41 13.12.2019
6228 Rain 22 1015 64 10000 1 0 08:23 13.12.2019
6229 Clouds 21 1016 68 10000 1.5 360 07:46 13.12.2019
6230 Clouds 21 1017 77 10000 4.1 330 07:23 13.12.2019
6231 Clouds 20 1017 73 10000 6.2 330 06:55 13.12.2019
6232 Clouds 20 1015 73 10000 1.5 250 06:29 13.12.2019
6233 Clouds 19 1014 73 10000 2.1 220 05:46 13.12.2019
6234 Clouds 18 1013 77 10000 2.1 170 05:27 13.12.2019
6235 Clouds 18 1013 82 10000 1 0 04:35 13.12.2019
6236 Clouds 18 1012 82 10000 1 220 03:46 13.12.2019
6237 Clouds 17 1012 82 10000 1 0 02:34 13.12.2019
6238 Clouds 17 1012 88 10000 0.5 0 01:44 13.12.2019
6239 Clouds 18 1013 82 10000 1 0 00:56 13.12.2019
6240 Clouds 18 1013 82 10000 1 0 00:37 13.12.2019
6241 Clouds 18 1013 82 10000 1.5 220 23:57 12.12.2019
6242 Clouds 19 1013 77 10000 1 0 23:39 12.12.2019
6243 Clouds 19 1013 77 10000 1 0 23:20 12.12.2019
6244 Clouds 19 1013 72 10000 1.5 250 22:55 12.12.2019
6245 Clouds 19 1014 72 10000 1 0 22:37 12.12.2019
6246 Clouds 19 1014 72 10000 1 0 22:18 12.12.2019
6247 Clouds 19 1014 72 10000 1 0 21:54 12.12.2019
6248 Clouds 19 1014 68 10000 1.5 250 21:36 12.12.2019
6249 Clouds 19 1014 68 10000 1.5 250 21:18 12.12.2019
6250 Clouds 20 1014 68 10000 2.1 250 20:55 12.12.2019
6251 Clouds 20 1014 68 10000 2.1 310 20:37 12.12.2019
6252 Clouds 20 1014 68 10000 2.1 310 20:19 12.12.2019
6253 Clouds 20 1014 68 10000 2.6 320 19:42 12.12.2019
6254 Clouds 20 1014 68 10000 2.6 320 19:22 12.12.2019
6255 Clouds 20 1014 68 10000 2.6 330 18:58 12.12.2019
6256 Clouds 21 1014 64 10000 2.6 310 18:40 12.12.2019
6257 Clouds 21 1014 64 10000 2.6 310 18:20 12.12.2019
6258 Clouds 21 1014 64 10000 3.6 330 17:58 12.12.2019
6259 Clouds 21 1014 64 10000 3.6 330 17:58 12.12.2019
6260 Clouds 21 1014 64 10000 4.6 340 17:39 12.12.2019
6261 Clouds 21 1014 64 10000 4.6 340 17:21 12.12.2019
6262 Clouds 21 1014 64 10000 4.1 330 16:58 12.12.2019
6263 Clouds 22 1014 60 10000 3.1 310 16:39 12.12.2019
6264 Clouds 22 1014 60 10000 3.1 310 16:20 12.12.2019
6265 Clouds 22 1014 60 10000 3.6 310 15:56 12.12.2019
6266 Clouds 22 1014 60 10000 3.6 310 15:56 12.12.2019
6267 Clouds 22 1014 56 10000 4.1 330 15:38 12.12.2019
6268 Clouds 22 1014 56 10000 4.1 330 15:18 12.12.2019
6269 Clouds 24 1013 53 10000 5.1 330 14:38 12.12.2019
6270 Clouds 24 1013 53 10000 5.1 330 14:38 12.12.2019
6271 Clouds 24 1013 53 10000 5.1 330 14:20 12.12.2019
6272 Clouds 25 1013 50 10000 4.6 320 13:58 12.12.2019
6273 Clouds 25 1013 50 10000 5.7 330 13:40 12.12.2019
6274 Clouds 25 1013 50 10000 5.7 330 13:21 12.12.2019
6275 Clouds 25 1013 50 10000 5.1 330 12:59 12.12.2019
6276 Clouds 25 1013 47 10000 6.7 330 12:40 12.12.2019
6277 Clouds 25 1013 47 10000 6.7 330 12:21 12.12.2019
6278 Clouds 25 1013 47 10000 6.2 320 11:57 12.12.2019
6279 Clouds 25 1013 47 10000 6.7 340 11:38 12.12.2019
6280 Clouds 25 1013 47 10000 6.7 340 11:19 12.12.2019
6281 Clouds 24 1014 50 10000 5.1 330 10:56 12.12.2019
6282 Clouds 24 1014 53 10000 6.2 340 10:38 12.12.2019
6283 Clouds 24 1014 53 10000 6.2 340 10:19 12.12.2019
6284 Clouds 24 1015 53 10000 5.1 320 09:55 12.12.2019
6285 Clouds 24 1015 57 10000 5.1 330 09:36 12.12.2019
6286 Clouds 24 1015 57 10000 5.1 330 09:18 12.12.2019
6287 Clouds 23 1016 53 10000 4.6 320 08:43 12.12.2019
6288 Clouds 23 1016 53 10000 4.6 330 08:25 12.12.2019
6289 Clouds 22 1016 53 10000 5.1 310 07:49 12.12.2019
6290 Clouds 22 1016 56 10000 5.1 310 07:26 12.12.2019
6291 Clouds 21 1016 56 10000 4.1 310 06:55 12.12.2019
6292 Clouds 21 1016 56 10000 3.6 310 06:35 12.12.2019
6293 Clouds 19 1015 64 10000 2.6 300 05:42 12.12.2019
6294 Clouds 19 1015 64 10000 2.6 310 04:54 12.12.2019
6295 Clouds 20 1015 64 10000 3.6 300 03:50 12.12.2019
6296 Clouds 19 1014 64 10000 3.1 310 02:40 12.12.2019
6297 Clear 20 1014 64 10000 3.1 310 02:21 12.12.2019
6298 Clear 20 1014 64 10000 3.6 310 01:46 12.12.2019
6299 Clear 20 1015 64 10000 3.6 320 01:28 12.12.2019
6300 Clear 20 1015 64 10000 3.6 320 00:47 12.12.2019
6301 Clear 20 1014 68 10000 3.1 320 00:20 12.12.2019
6302 Clear 20 1015 68 10000 3.6 310 23:45 11.12.2019
6303 Clear 20 1015 68 10000 4.1 310 23:21 11.12.2019
6304 Clear 20 1015 73 10000 4.1 320 22:58 11.12.2019
6305 Clear 20 1015 73 10000 4.1 320 22:39 11.12.2019
6306 Clear 20 1015 73 10000 4.1 320 22:20 11.12.2019
6307 Clear 21 1015 68 10000 5.1 330 21:59 11.12.2019
6308 Clear 21 1015 68 10000 5.1 330 21:39 11.12.2019
6309 Clear 21 1015 68 10000 5.1 330 21:20 11.12.2019
6310 Clear 21 1015 68 10000 4.1 320 20:57 11.12.2019
6311 Clear 21 1015 68 10000 4.6 330 20:39 11.12.2019
6312 Clear 21 1015 68 10000 4.6 330 20:19 11.12.2019
6313 Clear 21 1015 68 10000 4.6 320 19:58 11.12.2019
6314 Clear 21 1015 68 10000 4.6 320 19:40 11.12.2019
6315 Clear 21 1015 68 10000 4.6 320 19:20 11.12.2019
6316 Clear 21 1015 68 10000 4.6 320 18:55 11.12.2019
6317 Clear 21 1014 68 10000 5.1 330 18:36 11.12.2019
6318 Clear 21 1014 68 10000 5.1 330 18:36 11.12.2019
6319 Clear 21 1014 68 10000 5.1 330 18:18 11.12.2019
6320 Clear 22 1014 73 10000 6.2 330 17:54 11.12.2019
6321 Clear 22 1014 69 10000 6.2 330 17:36 11.12.2019
6322 Clouds 22 1014 69 10000 6.2 330 17:18 11.12.2019
6323 Clouds 23 1014 69 10000 7.2 330 16:55 11.12.2019
6324 Clouds 23 1013 73 10000 5.7 330 16:36 11.12.2019
6325 Clouds 23 1013 73 10000 5.7 330 16:18 11.12.2019
6326 Clouds 24 1013 73 10000 7.2 340 15:41 11.12.2019
6327 Clouds 24 1013 73 10000 7.2 340 15:23 11.12.2019
6328 Clouds 24 1013 69 10000 5.7 330 14:57 11.12.2019
6329 Clouds 24 1013 69 10000 5.7 330 14:39 11.12.2019
6330 Clouds 24 1013 69 10000 5.7 330 14:20 11.12.2019
6331 Clouds 25 1012 65 10000 6.2 340 13:56 11.12.2019
6332 Clouds 25 1012 65 10000 4.6 330 13:38 11.12.2019
6333 Clouds 25 1012 65 10000 4.6 330 13:19 11.12.2019
6334 Clouds 25 1012 65 10000 4.1 320 12:56 11.12.2019
6335 Clouds 25 1013 65 10000 4.1 320 12:38 11.12.2019
6336 Clouds 25 1013 65 10000 4.1 320 12:19 11.12.2019
6337 Clouds 25 1013 65 10000 4.1 320 12:19 11.12.2019
6338 Clouds 26 1013 65 10000 4.1 310 11:57 11.12.2019
6339 Clouds 25 1013 69 10000 3.6 310 11:38 11.12.2019
6340 Clouds 25 1013 69 10000 3.6 310 11:38 11.12.2019
6341 Clouds 25 1013 69 10000 3.6 310 11:18 11.12.2019
6342 Clouds 25 1013 69 10000 3.6 310 11:18 11.12.2019
6343 Clouds 25 1013 69 10000 4.1 310 10:45 11.12.2019
6344 Clouds 25 1014 69 10000 4.6 320 10:27 11.12.2019
6345 Clouds 25 1014 69 10000 3.6 310 09:59 11.12.2019
6346 Clouds 25 1015 69 10000 5.1 320 09:40 11.12.2019
6347 Clouds 24 1015 69 10000 5.1 320 09:20 11.12.2019
6348 Clouds 24 1015 69 10000 4.1 300 08:57 11.12.2019
6349 Clouds 24 1016 73 10000 3.1 270 08:38 11.12.2019
6350 Clouds 24 1016 73 10000 3.1 270 08:19 11.12.2019
6351 Haze 24 1016 73 7000 3.1 260 07:47 11.12.2019
6352 Haze 24 1016 73 7000 3.1 290 07:28 11.12.2019
6353 Haze 24 1015 73 7000 2.6 290 06:59 11.12.2019
6354 Haze 23 1015 73 7000 3.6 300 06:40 11.12.2019
6355 Haze 23 1015 73 7000 3.6 300 06:21 11.12.2019
6356 Haze 22 1015 88 4500 3.6 310 05:41 11.12.2019
6357 Haze 22 1015 88 4500 3.6 310 05:19 11.12.2019
6358 Clouds 22 1014 88 6000 4.6 300 04:26 11.12.2019
6359 Rain 22 1013 83 9000 4.1 290 02:49 11.12.2019
6360 Clouds 22 1013 94 7000 2.6 310 01:25 11.12.2019
6361 Clouds 23 1013 94 7000 3.1 340 00:47 11.12.2019
6362 Clouds 23 1013 94 10000 1.5 320 00:21 11.12.2019
6363 Clouds 23 1013 94 10000 2.1 330 23:49 10.12.2019
6364 Clouds 23 1013 94 10000 2.1 330 23:30 10.12.2019
6365 Rain 23 1013 94 10000 0.5 0 22:58 10.12.2019
6366 Rain 23 1013 94 10000 3.6 140 22:40 10.12.2019
6367 Rain 23 1013 94 10000 3.6 140 22:40 10.12.2019
6368 Rain 23 1013 94 10000 3.6 140 22:22 10.12.2019
6369 Rain 23 1013 94 10000 4.6 140 21:56 10.12.2019
6370 Rain 23 1013 94 10000 4.6 140 21:56 10.12.2019
6371 Thunderstorm 23 1012 94 10000 5.1 110 21:38 10.12.2019
6372 Thunderstorm 23 1012 94 10000 5.1 110 21:38 10.12.2019
6373 Thunderstorm 23 1012 94 10000 5.1 110 21:38 10.12.2019
6374 Thunderstorm 23 1012 94 10000 5.1 110 21:19 10.12.2019
6375 Thunderstorm 23 1013 94 10000 4.6 130 20:57 10.12.2019
6376 Thunderstorm 23 1013 94 7000 4.6 150 20:37 10.12.2019
6377 Thunderstorm 23 1013 94 7000 4.6 150 20:37 10.12.2019
6378 Thunderstorm 23 1013 94 7000 4.6 150 20:19 10.12.2019
6379 Thunderstorm 23 1013 88 8000 4.1 90 19:55 10.12.2019
6380 Thunderstorm 23 1014 88 4000 1 0 19:37 10.12.2019
6381 Thunderstorm 23 1014 88 4000 1 0 19:18 10.12.2019
6382 Thunderstorm 24 1013 88 9000 4.6 90 18:40 10.12.2019
6383 Thunderstorm 24 1013 88 9000 4.6 90 18:20 10.12.2019
6384 Thunderstorm 24 1014 88 9000 3.6 100 17:58 10.12.2019
6385 Rain 24 1013 88 9000 4.1 90 17:39 10.12.2019
6386 Rain 24 1013 88 9000 4.1 90 17:20 10.12.2019
6387 Rain 24 1014 88 7000 2.6 60 16:54 10.12.2019
6388 Rain 24 1014 88 9000 4.1 90 16:36 10.12.2019
6389 Rain 24 1014 88 9000 4.1 90 16:18 10.12.2019
6390 Rain 24 1014 88 9000 4.1 90 16:18 10.12.2019
6391 Rain 24 1013 83 8000 4.1 100 15:38 10.12.2019
6392 Rain 24 1013 83 8000 4.1 100 15:18 10.12.2019
6393 Rain 25 1014 83 8000 4.1 110 14:56 10.12.2019
6394 Rain 25 1013 83 8000 4.1 100 14:37 10.12.2019
6395 Rain 25 1013 83 8000 4.1 100 14:19 10.12.2019
6396 Clouds 25 1013 83 8000 4.6 80 13:56 10.12.2019
6397 Rain 25 1013 83 8000 3.6 90 13:38 10.12.2019
6398 Rain 25 1013 83 8000 3.6 90 13:19 10.12.2019
6399 Clouds 25 1013 83 10000 4.6 90 12:47 10.12.2019
6400 Clouds 25 1013 78 10000 3.6 80 12:26 10.12.2019
6401 Clouds 25 1013 73 10000 3.1 80 11:55 10.12.2019
6402 Clouds 25 1014 69 10000 2.1 50 11:36 10.12.2019
6403 Clouds 25 1014 69 10000 2.1 50 11:18 10.12.2019
6404 Clouds 25 1014 69 10000 4.6 70 10:42 10.12.2019
6405 Clouds 26 1014 69 10000 3.6 60 10:23 10.12.2019
6406 Clouds 25 1014 69 10000 3.6 90 09:57 10.12.2019
6407 Clouds 25 1015 78 10000 2.1 120 09:38 10.12.2019
6408 Clouds 25 1015 78 10000 2.1 120 09:38 10.12.2019
6409 Clouds 25 1015 78 10000 2.1 120 09:20 10.12.2019
6410 Clouds 25 1016 78 10000 4.1 140 08:58 10.12.2019
6411 Clouds 24 1016 83 10000 3.6 160 08:39 10.12.2019
6412 Clouds 24 1016 83 10000 3.6 160 08:39 10.12.2019
6413 Clouds 24 1016 83 10000 3.6 160 08:19 10.12.2019
6414 Rain 23 1017 83 10000 2.6 150 07:44 10.12.2019
6415 Rain 23 1017 88 10000 2.1 170 07:26 10.12.2019
6416 Rain 23 1019 88 8000 1.5 150 06:50 10.12.2019
6417 Rain 23 1017 88 10000 3.6 140 06:25 10.12.2019
6418 Clouds 24 1017 88 10000 2.1 130 05:56 10.12.2019
6419 Clouds 23 1016 94 10000 1 0 05:33 10.12.2019
6420 Rain 22 1015 88 10000 1.5 150 03:55 10.12.2019
6421 Rain 23 1015 88 10000 1 0 02:57 10.12.2019
6422 Rain 23 1015 88 10000 1 0 02:57 10.12.2019
6423 Clouds 23 1014 88 10000 4.6 130 01:54 10.12.2019
6424 Clouds 23 1015 88 10000 4.1 110 01:27 10.12.2019
6425 Thunderstorm 22 1015 88 10000 6.7 120 00:58 10.12.2019
6426 Thunderstorm 22 1015 83 10000 3.6 110 00:25 10.12.2019
6427 Thunderstorm 23 1015 83 10000 5.7 100 23:55 09.12.2019
6428 Thunderstorm 22 1014 88 10000 4.6 50 23:36 09.12.2019
6429 Thunderstorm 22 1014 88 10000 4.6 50 23:18 09.12.2019
6430 Thunderstorm 23 1015 83 10000 6.2 10 22:54 09.12.2019
6431 Rain 24 1014 83 10000 6.7 40 22:36 09.12.2019
6432 Rain 24 1014 83 10000 6.7 40 22:18 09.12.2019
6433 Clouds 24 1014 78 10000 5.7 60 21:54 09.12.2019
6434 Clouds 24 1015 78 10000 4.6 50 21:36 09.12.2019
6435 Clouds 24 1015 78 10000 4.6 50 21:18 09.12.2019
6436 Clouds 24 1016 73 10000 4.6 40 20:54 09.12.2019
6437 Clouds 24 1016 73 10000 5.1 30 20:36 09.12.2019
6438 Clouds 24 1016 73 10000 5.1 30 20:18 09.12.2019
6439 Clouds 24 1016 73 10000 4.6 20 19:54 09.12.2019
6440 Clouds 24 1016 73 10000 5.1 20 19:36 09.12.2019
6441 Clouds 24 1016 73 10000 5.1 20 19:18 09.12.2019
6442 Clouds 24 1016 73 10000 6.7 20 18:40 09.12.2019
6443 Clouds 24 1016 73 10000 6.7 20 18:20 09.12.2019
6444 Clouds 24 1016 73 10000 6.7 20 18:20 09.12.2019
6445 Clouds 23 1016 78 10000 6.7 20 17:59 09.12.2019
6446 Clouds 23 1016 73 10000 6.7 10 17:41 09.12.2019
6447 Clouds 23 1016 73 10000 6.7 10 17:21 09.12.2019
6448 Clouds 23 1016 78 10000 7.7 10 16:58 09.12.2019
6449 Clear 23 1015 73 10000 7.2 360 16:39 09.12.2019
6450 Clear 23 1015 73 10000 7.2 360 16:21 09.12.2019
6451 Clear 24 1015 73 10000 6.2 10 15:57 09.12.2019
6452 Clear 24 1015 73 10000 6.2 10 15:38 09.12.2019
6453 Clear 24 1015 73 10000 6.2 10 15:38 09.12.2019
6454 Clear 24 1015 73 10000 6.2 10 15:19 09.12.2019
6455 Clear 24 1015 73 10000 6.2 360 14:59 09.12.2019
6456 Clear 25 1015 69 10000 6.7 360 14:41 09.12.2019
6457 Clouds 25 1015 69 10000 6.7 360 14:18 09.12.2019
6458 Clouds 25 1015 65 10000 6.7 10 13:56 09.12.2019
6459 Clouds 25 1015 65 10000 6.7 10 13:37 09.12.2019
6460 Clouds 25 1015 65 10000 6.7 10 13:19 09.12.2019
6461 Clouds 25 1015 69 10000 6.7 10 12:55 09.12.2019
6462 Clouds 25 1015 69 10000 6.7 10 12:55 09.12.2019
6463 Clouds 26 1015 65 10000 7.2 360 12:37 09.12.2019
6464 Clouds 26 1015 65 10000 7.2 360 12:18 09.12.2019
6465 Clouds 26 1015 61 10000 7.7 360 11:40 09.12.2019
6466 Clouds 26 1015 61 10000 7.7 360 11:22 09.12.2019
6467 Clouds 26 1016 65 10000 8.2 360 10:59 09.12.2019
6468 Clouds 26 1016 65 10000 7.2 360 10:39 09.12.2019
6469 Clouds 26 1016 65 10000 7.2 360 10:19 09.12.2019
6470 Clouds 26 1017 65 10000 6.2 360 09:46 09.12.2019
6471 Clouds 26 1017 65 10000 5.7 10 09:25 09.12.2019
6472 Clouds 25 1017 69 10000 6.7 350 08:57 09.12.2019
6473 Clouds 25 1018 69 10000 6.2 350 08:39 09.12.2019
6474 Clouds 25 1018 69 10000 6.2 350 08:21 09.12.2019
6475 Rain 24 1018 69 10000 5.7 350 07:52 09.12.2019
6476 Rain 24 1018 69 10000 5.7 340 07:33 09.12.2019
6477 Rain 24 1018 69 10000 5.7 340 07:33 09.12.2019
6478 Clouds 24 1017 69 10000 5.1 350 06:58 09.12.2019
6479 Clouds 24 1017 73 10000 5.1 350 06:31 09.12.2019
6480 Clouds 22 1017 78 10000 4.1 330 05:48 09.12.2019
6481 Clouds 22 1017 78 10000 4.1 330 05:48 09.12.2019
6482 Clouds 22 1017 73 10000 4.1 330 05:23 09.12.2019
6483 Clouds 21 1016 78 10000 4.1 330 04:28 09.12.2019
6484 Clear 21 1015 78 10000 1.5 340 02:29 09.12.2019
6485 Rain 21 1015 78 10000 1 0 01:47 09.12.2019
6486 Clear 21 1015 83 10000 1.5 320 00:59 09.12.2019
6487 Clear 21 1015 83 10000 1.5 310 00:33 09.12.2019
6488 Clear 21 1015 83 10000 1 340 23:57 08.12.2019
6489 Clear 21 1015 83 10000 1 330 23:37 08.12.2019
6490 Clear 21 1015 83 10000 1 330 23:19 08.12.2019
6491 Clear 21 1015 83 10000 1.5 340 22:56 08.12.2019
6492 Clear 21 1015 83 10000 2.1 340 22:38 08.12.2019
6493 Clear 21 1015 83 10000 2.1 340 22:18 08.12.2019
6494 Clear 22 1015 78 10000 1 360 21:56 08.12.2019
6495 Clear 23 1016 78 10000 1.5 350 21:37 08.12.2019
6496 Clear 22 1016 78 10000 1.5 350 21:19 08.12.2019
6497 Clear 23 1016 83 10000 2.6 340 20:56 08.12.2019
6498 Clear 23 1016 78 10000 1 340 20:37 08.12.2019
6499 Clear 23 1016 78 10000 1 340 20:19 08.12.2019
6500 Clear 23 1016 78 10000 1 350 19:55 08.12.2019
6501 Clear 23 1016 78 10000 1.5 20 19:37 08.12.2019
6502 Clear 23 1016 78 10000 1.5 20 19:18 08.12.2019
6503 Clear 23 1015 78 10000 2.1 50 18:54 08.12.2019
6504 Clear 23 1015 78 10000 2.1 70 18:36 08.12.2019
6505 Clear 23 1015 78 10000 2.1 70 18:18 08.12.2019
6506 Clouds 23 1015 78 10000 2.1 60 17:55 08.12.2019
6507 Clear 23 1015 78 10000 1.5 40 17:36 08.12.2019
6508 Rain 23 1015 78 10000 1.5 40 17:18 08.12.2019
6509 Rain 24 1015 73 10000 1.5 40 16:55 08.12.2019
6510 Clouds 24 1015 73 10000 2.1 40 16:37 08.12.2019
6511 Clouds 24 1015 73 10000 2.1 40 16:18 08.12.2019
6512 Clouds 24 1014 78 10000 2.6 120 15:37 08.12.2019
6513 Clouds 24 1014 78 10000 2.6 120 15:18 08.12.2019
6514 Clouds 25 1014 73 10000 2.1 130 14:57 08.12.2019
6515 Clouds 25 1014 73 8000 2.6 120 14:38 08.12.2019
6516 Clouds 25 1014 73 8000 2.6 120 14:20 08.12.2019
6517 Clouds 25 1014 69 8000 3.1 130 13:42 08.12.2019
6518 Clouds 26 1014 69 10000 4.6 130 13:23 08.12.2019
6519 Clouds 26 1013 65 10000 4.1 110 12:59 08.12.2019
6520 Clouds 26 1014 65 10000 4.1 110 12:41 08.12.2019
6521 Clouds 26 1014 65 10000 4.1 110 12:41 08.12.2019
6522 Clouds 26 1014 65 10000 4.1 110 12:41 08.12.2019
6523 Clouds 26 1014 65 10000 4.1 110 12:22 08.12.2019
6524 Rain 27 1013 61 10000 5.1 110 11:59 08.12.2019
6525 Rain 27 1014 57 10000 5.7 100 11:38 08.12.2019
6526 Clouds 27 1014 57 10000 5.7 100 11:19 08.12.2019
6527 Clouds 28 1014 51 10000 5.1 120 10:57 08.12.2019
6528 Clouds 28 1014 34 10000 4.6 110 10:38 08.12.2019
6529 Clouds 28 1014 34 10000 4.6 110 10:38 08.12.2019
6530 Clouds 28 1014 34 10000 4.6 110 10:19 08.12.2019
6531 Clouds 27 1015 45 10000 4.1 100 09:55 08.12.2019
6532 Clouds 27 1015 51 10000 4.1 80 09:37 08.12.2019
6533 Clouds 27 1015 51 10000 4.1 80 09:19 08.12.2019
6534 Clouds 26 1016 51 10000 3.6 80 08:43 08.12.2019
6535 Clouds 26 1016 54 10000 3.6 90 08:23 08.12.2019
6536 Rain 26 1016 61 10000 3.6 80 07:58 08.12.2019
6537 Rain 26 1017 57 10000 3.6 80 07:40 08.12.2019
6538 Rain 26 1017 57 10000 3.6 80 07:19 08.12.2019
6539 Clouds 24 1016 69 10000 2.1 70 06:41 08.12.2019
6540 Clouds 24 1016 69 10000 2.1 70 06:21 08.12.2019
6541 Clouds 21 1016 88 10000 1.5 360 05:27 08.12.2019
6542 Rain 21 1016 83 7000 2.1 340 04:54 08.12.2019
6543 Clouds 21 1015 77 10000 1.5 80 03:41 08.12.2019
6544 Clouds 20 1015 73 10000 0.5 50 02:52 08.12.2019
6545 Clouds 20 1015 73 10000 0.5 260 02:27 08.12.2019
6546 Clear 21 1015 73 10000 1 0 01:48 08.12.2019
6547 Clouds 20 1015 73 10000 2.6 160 00:56 08.12.2019
6548 Clouds 20 1015 77 10000 2.1 150 00:37 08.12.2019
6549 Clouds 20 1015 77 10000 2.1 150 00:18 08.12.2019
6550 Clouds 21 1015 73 10000 1 130 23:39 07.12.2019
6551 Clear 21 1015 73 10000 1 130 23:20 07.12.2019
6552 Clear 21 1015 73 10000 1 130 23:20 07.12.2019
6553 Clear 21 1015 73 10000 1 150 22:56 07.12.2019
6554 Clear 21 1015 77 10000 1 0 22:37 07.12.2019
6555 Clear 21 1015 77 10000 1 0 22:19 07.12.2019
6556 Clear 21 1015 73 10000 2.6 130 21:56 07.12.2019
6557 Clear 21 1015 73 10000 1.5 120 21:37 07.12.2019
6558 Clear 21 1015 73 10000 1.5 120 21:19 07.12.2019
6559 Clear 21 1015 73 10000 1.5 120 21:19 07.12.2019
6560 Clear 21 1016 64 10000 1 150 20:54 07.12.2019
6561 Clear 21 1016 64 10000 2.1 130 20:36 07.12.2019
6562 Clear 21 1016 64 10000 2.1 130 20:18 07.12.2019
6563 Clear 21 1016 64 10000 1 140 19:54 07.12.2019
6564 Clear 21 1016 64 10000 1.5 150 19:36 07.12.2019
6565 Clear 21 1016 64 10000 1.5 150 19:18 07.12.2019
6566 Clear 21 1016 64 10000 0.5 0 18:42 07.12.2019
6567 Clear 21 1016 64 10000 0.5 0 18:18 07.12.2019
6568 Clear 23 1015 60 10000 1.5 130 17:56 07.12.2019
6569 Clear 23 1015 60 10000 2.1 150 17:37 07.12.2019
6570 Clear 23 1015 60 10000 2.1 150 17:19 07.12.2019
6571 Clear 23 1015 60 10000 2.6 140 16:56 07.12.2019
6572 Clear 24 1014 57 10000 4.1 130 16:37 07.12.2019
6573 Clear 24 1014 57 10000 4.1 130 16:18 07.12.2019
6574 Clear 24 1014 53 10000 5.7 140 15:41 07.12.2019
6575 Clear 24 1014 53 10000 5.7 140 15:41 07.12.2019
6576 Clear 24 1014 53 10000 5.7 140 15:23 07.12.2019
6577 Clouds 25 1013 50 10000 6.2 140 14:57 07.12.2019
6578 Clouds 25 1013 47 10000 7.2 130 14:38 07.12.2019
6579 Clouds 25 1013 47 10000 7.2 130 14:18 07.12.2019
6580 Clouds 26 1013 44 10000 7.7 140 13:40 07.12.2019
6581 Clouds 26 1013 44 10000 7.7 140 13:21 07.12.2019
6582 Clouds 26 1013 41 10000 7.2 120 12:56 07.12.2019
6583 Clouds 26 1013 47 10000 7.7 120 12:37 07.12.2019
6584 Clouds 26 1013 47 10000 7.7 120 12:19 07.12.2019
6585 Clouds 26 1014 42 10000 7.2 130 11:55 07.12.2019
6586 Clouds 26 1014 39 10000 7.2 130 11:37 07.12.2019
6587 Clouds 26 1014 39 10000 7.2 130 11:19 07.12.2019
6588 Clouds 26 1015 39 10000 6.2 130 10:37 07.12.2019
6589 Clouds 26 1015 39 10000 6.2 130 10:19 07.12.2019
6590 Clouds 26 1016 36 10000 4.6 130 09:41 07.12.2019
6591 Clouds 26 1016 36 10000 4.6 130 09:22 07.12.2019
6592 Clouds 26 1016 44 10000 4.6 170 08:47 07.12.2019
6593 Clear 26 1017 47 10000 2.6 160 08:26 07.12.2019
6594 Clear 25 1017 47 10000 2.1 190 07:57 07.12.2019
6595 Clear 25 1017 53 10000 1 0 07:38 07.12.2019
6596 Clear 25 1017 53 10000 1 0 07:19 07.12.2019
6597 Clouds 22 1017 53 10000 1 0 06:45 07.12.2019
6598 Clouds 22 1017 53 10000 1 0 06:24 07.12.2019
6599 Clouds 18 1017 68 10000 1.5 250 04:49 07.12.2019
6600 Clear 17 1016 68 10000 0.5 0 03:54 07.12.2019
6601 Clear 18 1016 64 10000 0.5 240 02:50 07.12.2019
6602 Clear 18 1016 64 10000 2.48 122 02:19 07.12.2019
6603 Clear 18 1016 64 10000 0.5 0 01:31 07.12.2019
6604 Clear 19 1017 64 10000 0.5 0 00:43 07.12.2019
6605 Clear 19 1017 64 10000 0.5 0 00:19 07.12.2019
6606 Clear 19 1017 64 10000 0.5 0 23:47 06.12.2019
6607 Clear 19 1017 64 10000 2.79 87 23:24 06.12.2019
6608 Clear 19 1017 64 10000 2.79 87 22:58 06.12.2019
6609 Clear 19 1017 68 10000 2.79 87 22:37 06.12.2019
6610 Clear 19 1017 68 10000 2.79 87 22:18 06.12.2019
6611 Clear 19 1018 60 10000 2.79 87 21:56 06.12.2019
6612 Clear 19 1018 60 10000 2.79 87 21:37 06.12.2019
6613 Clear 19 1018 60 10000 2.79 87 21:19 06.12.2019
6614 Clear 20 1018 64 10000 2.79 87 20:42 06.12.2019
6615 Clear 20 1018 60 10000 2.75 54 20:22 06.12.2019
6616 Clear 20 1018 60 10000 2.75 54 19:57 06.12.2019
6617 Clear 21 1018 56 10000 0.5 10 19:39 06.12.2019
6618 Clear 21 1018 56 10000 0.5 10 19:20 06.12.2019
6619 Clear 23 1018 56 10000 1 0 18:44 06.12.2019
6620 -273 0 0 0 0 0 18:23 06.12.2019
6621 Clear 23 1018 56 10000 1 0 18:23 06.12.2019
6622 Clear 23 1018 56 10000 1 0 17:58 06.12.2019
6623 Clear 23 1018 60 10000 1 0 17:40 06.12.2019
6624 Clear 23 1018 60 10000 1 0 17:22 06.12.2019
6625 Clear 23 1018 60 10000 1 90 16:59 06.12.2019
6626 Clear 23 1018 60 10000 2.1 80 16:40 06.12.2019
6627 Clear 23 1018 60 10000 2.1 80 16:21 06.12.2019
6628 Clear 24 1018 57 10000 2.1 70 15:56 06.12.2019
6629 Clear 24 1017 53 10000 3.1 60 15:37 06.12.2019
6630 Clear 24 1017 53 10000 3.1 60 15:18 06.12.2019
6631 Clear 25 1017 47 10000 3.6 30 14:41 06.12.2019
6632 Clear 25 1017 47 10000 3.6 30 14:41 06.12.2019
6633 Clear 25 1017 47 10000 3.6 30 14:20 06.12.2019
6634 Clear 25 1017 50 10000 4.1 10 13:58 06.12.2019
6635 Clear 25 1017 50 10000 4.1 10 13:58 06.12.2019
6636 Clear 25 1017 53 10000 4.1 20 13:40 06.12.2019
6637 Clear 25 1017 53 10000 4.1 20 13:40 06.12.2019
6638 Clear 25 1017 53 10000 4.1 20 13:21 06.12.2019
6639 Clear 25 1017 53 10000 4.1 20 13:21 06.12.2019
6640 Clouds 25 1017 50 10000 4.6 10 12:41 06.12.2019
6641 Clouds 26 1017 50 10000 4.6 10 12:22 06.12.2019
6642 Clouds 25 1018 53 10000 4.6 10 11:43 06.12.2019
6643 Clouds 25 1018 53 10000 4.6 10 11:24 06.12.2019
6644 Clouds 25 1018 53 10000 4.6 10 11:24 06.12.2019
6645 Clouds 25 1018 54 10000 4.6 10 10:59 06.12.2019
6646 Clouds 25 1019 57 10000 4.1 350 10:40 06.12.2019
6647 Clouds 25 1019 57 10000 4.1 350 10:21 06.12.2019
6648 Clouds 25 1019 53 10000 4.1 360 09:56 06.12.2019
6649 Clouds 25 1020 57 10000 4.1 340 09:37 06.12.2019
6650 Clouds 25 1020 57 10000 4.1 340 09:19 06.12.2019
6651 Clouds 25 1020 53 10000 3.6 350 08:44 06.12.2019
6652 Clear 25 1021 57 10000 3.1 360 08:44 06.12.2019
6653 Clear 25 1021 57 10000 3.1 360 08:44 06.12.2019
6654 Clear 25 1021 57 10000 3.1 360 08:25 06.12.2019
6655 Clear 23 1021 60 10000 2.6 350 07:44 06.12.2019
6656 Clear 23 1021 64 10000 2.1 10 07:23 06.12.2019
6657 Clear 22 1021 60 10000 2.1 330 06:57 06.12.2019
6658 Clear 22 1020 60 10000 1 0 06:26 06.12.2019
6659 Clear 20 1020 60 10000 0.5 0 05:52 06.12.2019
6660 Clear 18 1020 68 10000 1.5 300 04:34 06.12.2019
6661 Clear 19 1019 64 10000 1 0 01:48 06.12.2019
6662 Clear 19 1019 60 10000 1.5 280 00:57 06.12.2019
6663 Clear 20 1019 60 10000 1 0 00:39 06.12.2019
6664 Clear 19 1019 60 10000 1 0 00:19 06.12.2019
6665 Clear 20 1020 60 10000 2.6 290 23:37 05.12.2019
6666 Clear 20 1020 60 10000 2.6 290 23:18 05.12.2019
6667 Clear 20 1020 56 10000 3.1 300 22:55 05.12.2019
6668 Clear 20 1020 56 10000 1.5 310 22:36 05.12.2019
6669 Clear 20 1020 56 10000 1.5 310 22:18 05.12.2019
6670 Clear 20 1020 56 10000 3.1 300 21:42 05.12.2019
6671 Clear 20 1020 56 10000 3.1 300 21:24 05.12.2019
6672 Clear 20 1020 56 10000 2.6 320 20:58 05.12.2019
6673 Clear 20 1020 56 10000 2.6 320 20:40 05.12.2019
6674 Clear 20 1020 56 10000 2.6 320 20:40 05.12.2019
6675 Clear 20 1021 56 10000 2.1 310 20:20 05.12.2019
6676 Clear 21 1021 53 10000 1.5 320 19:55 05.12.2019
6677 Clear 21 1021 53 10000 1.5 320 19:36 05.12.2019
6678 Clear 21 1021 53 10000 3.1 330 19:18 05.12.2019
6679 Clear 21 1021 53 10000 3.1 330 18:39 05.12.2019
6680 Clear 21 1021 53 10000 3.1 330 18:39 05.12.2019
6681 Clear 21 1021 53 10000 4.1 330 18:21 05.12.2019
6682 Clear 21 1021 53 10000 4.1 330 18:21 05.12.2019
6683 Clear 21 1021 53 10000 4.1 330 18:21 05.12.2019
6684 Clear 21 1021 53 10000 4.1 340 17:59 05.12.2019
6685 Clear 21 1021 53 10000 4.1 340 17:39 05.12.2019
6686 Clear 22 1020 49 10000 4.1 340 17:19 05.12.2019
6687 Clear 23 1020 53